<?xml version="1.0" encoding="UTF-8"?>
<gpx version="1.0" creator="GPSBabel - https://www.gpsbabel.org" xmlns="http://www.topografix.com/GPX/1/0">
  <time>2021-11-23T02:45:46.035Z</time>
  <bounds minlat="33.899105000" minlon="-107.022513000" maxlat="34.002288000" maxlon="-106.868031000"/>
  <trk>
    <name>The Box Expedition Driveabout.Vince.2015-02-07</name>
    <trkseg>
      <trkpt lat="34.002259000" lon="-106.992050000">
        <ele>1664.590</ele>
        <time>2015-02-07T19:26:36Z</time>
        <name>WPT</name>
      </trkpt>
      <trkpt lat="34.002263000" lon="-106.992050000">
        <ele>1664.960</ele>
        <time>2015-02-07T19:26:41Z</time>
        <name>WPT.1</name>
      </trkpt>
      <trkpt lat="34.002288000" lon="-106.992051000">
        <ele>1665.110</ele>
        <time>2015-02-07T19:26:42Z</time>
        <name>WPT.2</name>
      </trkpt>
      <trkpt lat="34.002278000" lon="-106.992044000">
        <ele>1665.320</ele>
        <time>2015-02-07T19:26:43Z</time>
        <name>WPT.3</name>
      </trkpt>
      <trkpt lat="34.002267000" lon="-106.992028000">
        <ele>1665.580</ele>
        <time>2015-02-07T19:26:44Z</time>
        <name>WPT.4</name>
      </trkpt>
      <trkpt lat="34.002264000" lon="-106.992015000">
        <ele>1665.540</ele>
        <time>2015-02-07T19:26:45Z</time>
        <name>WPT.5</name>
      </trkpt>
      <trkpt lat="34.002257000" lon="-106.992015000">
        <ele>1665.520</ele>
        <time>2015-02-07T19:26:48Z</time>
        <name>WPT.6</name>
      </trkpt>
      <trkpt lat="34.002244000" lon="-106.992034000">
        <ele>1665.470</ele>
        <time>2015-02-07T19:26:49Z</time>
        <name>WPT.7</name>
      </trkpt>
      <trkpt lat="34.002223000" lon="-106.992062000">
        <ele>1665.460</ele>
        <time>2015-02-07T19:26:50Z</time>
        <name>WPT.8</name>
      </trkpt>
      <trkpt lat="34.002196000" lon="-106.992092000">
        <ele>1665.440</ele>
        <time>2015-02-07T19:26:51Z</time>
        <name>WPT.9</name>
      </trkpt>
      <trkpt lat="34.002166000" lon="-106.992123000">
        <ele>1665.430</ele>
        <time>2015-02-07T19:26:52Z</time>
        <name>WPT.10</name>
      </trkpt>
      <trkpt lat="34.002140000" lon="-106.992153000">
        <ele>1665.420</ele>
        <time>2015-02-07T19:26:53Z</time>
        <name>WPT.11</name>
      </trkpt>
      <trkpt lat="34.002120000" lon="-106.992179000">
        <ele>1665.420</ele>
        <time>2015-02-07T19:26:54Z</time>
        <name>WPT.12</name>
      </trkpt>
      <trkpt lat="34.002107000" lon="-106.992196000">
        <ele>1665.510</ele>
        <time>2015-02-07T19:26:55Z</time>
        <name>WPT.13</name>
      </trkpt>
      <trkpt lat="34.002106000" lon="-106.992195000">
        <ele>1665.510</ele>
        <time>2015-02-07T19:26:56Z</time>
        <name>WPT.14</name>
      </trkpt>
      <trkpt lat="34.002094000" lon="-106.992203000">
        <ele>1665.500</ele>
        <time>2015-02-07T19:26:57Z</time>
        <name>WPT.15</name>
      </trkpt>
      <trkpt lat="34.002090000" lon="-106.992204000">
        <ele>1665.560</ele>
        <time>2015-02-07T19:27:01Z</time>
        <name>WPT.16</name>
      </trkpt>
      <trkpt lat="34.002074000" lon="-106.992216000">
        <ele>1665.550</ele>
        <time>2015-02-07T19:27:02Z</time>
        <name>WPT.17</name>
      </trkpt>
      <trkpt lat="34.002052000" lon="-106.992236000">
        <ele>1665.640</ele>
        <time>2015-02-07T19:27:03Z</time>
        <name>WPT.18</name>
      </trkpt>
      <trkpt lat="34.002025000" lon="-106.992262000">
        <ele>1665.640</ele>
        <time>2015-02-07T19:27:04Z</time>
        <name>WPT.19</name>
      </trkpt>
      <trkpt lat="34.001989000" lon="-106.992296000">
        <ele>1665.730</ele>
        <time>2015-02-07T19:27:05Z</time>
        <name>WPT.20</name>
      </trkpt>
      <trkpt lat="34.001951000" lon="-106.992335000">
        <ele>1666.390</ele>
        <time>2015-02-07T19:27:06Z</time>
        <name>WPT.21</name>
      </trkpt>
      <trkpt lat="34.001911000" lon="-106.992380000">
        <ele>1666.280</ele>
        <time>2015-02-07T19:27:07Z</time>
        <name>WPT.22</name>
      </trkpt>
      <trkpt lat="34.001872000" lon="-106.992428000">
        <ele>1666.250</ele>
        <time>2015-02-07T19:27:08Z</time>
        <name>WPT.23</name>
      </trkpt>
      <trkpt lat="34.001835000" lon="-106.992478000">
        <ele>1666.220</ele>
        <time>2015-02-07T19:27:09Z</time>
        <name>WPT.24</name>
      </trkpt>
      <trkpt lat="34.001799000" lon="-106.992528000">
        <ele>1666.200</ele>
        <time>2015-02-07T19:27:10Z</time>
        <name>WPT.25</name>
      </trkpt>
      <trkpt lat="34.001768000" lon="-106.992579000">
        <ele>1666.380</ele>
        <time>2015-02-07T19:27:11Z</time>
        <name>WPT.26</name>
      </trkpt>
      <trkpt lat="34.001740000" lon="-106.992628000">
        <ele>1667.120</ele>
        <time>2015-02-07T19:27:12Z</time>
        <name>WPT.27</name>
      </trkpt>
      <trkpt lat="34.001719000" lon="-106.992674000">
        <ele>1667.280</ele>
        <time>2015-02-07T19:27:13Z</time>
        <name>WPT.28</name>
      </trkpt>
      <trkpt lat="34.001705000" lon="-106.992715000">
        <ele>1667.440</ele>
        <time>2015-02-07T19:27:14Z</time>
        <name>WPT.29</name>
      </trkpt>
      <trkpt lat="34.001696000" lon="-106.992745000">
        <ele>1667.700</ele>
        <time>2015-02-07T19:27:15Z</time>
        <name>WPT.30</name>
      </trkpt>
      <trkpt lat="34.001691000" lon="-106.992756000">
        <ele>1667.950</ele>
        <time>2015-02-07T19:27:16Z</time>
        <name>WPT.31</name>
      </trkpt>
      <trkpt lat="34.001687000" lon="-106.992768000">
        <ele>1667.920</ele>
        <time>2015-02-07T19:27:17Z</time>
        <name>WPT.32</name>
      </trkpt>
      <trkpt lat="34.001683000" lon="-106.992790000">
        <ele>1667.980</ele>
        <time>2015-02-07T19:27:18Z</time>
        <name>WPT.33</name>
      </trkpt>
      <trkpt lat="34.001681000" lon="-106.992810000">
        <ele>1668.050</ele>
        <time>2015-02-07T19:27:19Z</time>
        <name>WPT.34</name>
      </trkpt>
      <trkpt lat="34.001682000" lon="-106.992840000">
        <ele>1668.130</ele>
        <time>2015-02-07T19:27:20Z</time>
        <name>WPT.35</name>
      </trkpt>
      <trkpt lat="34.001688000" lon="-106.992880000">
        <ele>1668.200</ele>
        <time>2015-02-07T19:27:21Z</time>
        <name>WPT.36</name>
      </trkpt>
      <trkpt lat="34.001697000" lon="-106.992931000">
        <ele>1668.460</ele>
        <time>2015-02-07T19:27:22Z</time>
        <name>WPT.37</name>
      </trkpt>
      <trkpt lat="34.001705000" lon="-106.992992000">
        <ele>1669.490</ele>
        <time>2015-02-07T19:27:23Z</time>
        <name>WPT.38</name>
      </trkpt>
      <trkpt lat="34.001711000" lon="-106.993058000">
        <ele>1670.790</ele>
        <time>2015-02-07T19:27:24Z</time>
        <name>WPT.39</name>
      </trkpt>
      <trkpt lat="34.001714000" lon="-106.993130000">
        <ele>1670.920</ele>
        <time>2015-02-07T19:27:25Z</time>
        <name>WPT.40</name>
      </trkpt>
      <trkpt lat="34.001711000" lon="-106.993211000">
        <ele>1671.060</ele>
        <time>2015-02-07T19:27:26Z</time>
        <name>WPT.41</name>
      </trkpt>
      <trkpt lat="34.001703000" lon="-106.993299000">
        <ele>1673.300</ele>
        <time>2015-02-07T19:27:27Z</time>
        <name>WPT.42</name>
      </trkpt>
      <trkpt lat="34.001689000" lon="-106.993388000">
        <ele>1674.560</ele>
        <time>2015-02-07T19:27:28Z</time>
        <name>WPT.43</name>
      </trkpt>
      <trkpt lat="34.001673000" lon="-106.993477000">
        <ele>1674.560</ele>
        <time>2015-02-07T19:27:29Z</time>
        <name>WPT.44</name>
      </trkpt>
      <trkpt lat="34.001657000" lon="-106.993567000">
        <ele>1675.820</ele>
        <time>2015-02-07T19:27:30Z</time>
        <name>WPT.45</name>
      </trkpt>
      <trkpt lat="34.001646000" lon="-106.993654000">
        <ele>1675.830</ele>
        <time>2015-02-07T19:27:31Z</time>
        <name>WPT.46</name>
      </trkpt>
      <trkpt lat="34.001644000" lon="-106.993726000">
        <ele>1675.750</ele>
        <time>2015-02-07T19:27:32Z</time>
        <name>WPT.47</name>
      </trkpt>
      <trkpt lat="34.001648000" lon="-106.993771000">
        <ele>1675.500</ele>
        <time>2015-02-07T19:27:33Z</time>
        <name>WPT.48</name>
      </trkpt>
      <trkpt lat="34.001650000" lon="-106.993786000">
        <ele>1674.880</ele>
        <time>2015-02-07T19:27:34Z</time>
        <name>WPT.49</name>
      </trkpt>
      <trkpt lat="34.001644000" lon="-106.993775000">
        <ele>1674.570</ele>
        <time>2015-02-07T19:27:39Z</time>
        <name>WPT.50</name>
      </trkpt>
      <trkpt lat="34.001642000" lon="-106.993760000">
        <ele>1674.460</ele>
        <time>2015-02-07T19:27:40Z</time>
        <name>WPT.51</name>
      </trkpt>
      <trkpt lat="34.001640000" lon="-106.993745000">
        <ele>1674.450</ele>
        <time>2015-02-07T19:27:41Z</time>
        <name>WPT.52</name>
      </trkpt>
      <trkpt lat="34.001639000" lon="-106.993732000">
        <ele>1674.350</ele>
        <time>2015-02-07T19:27:42Z</time>
        <name>WPT.53</name>
      </trkpt>
      <trkpt lat="34.001638000" lon="-106.993730000">
        <ele>1674.250</ele>
        <time>2015-02-07T19:27:43Z</time>
        <name>WPT.54</name>
      </trkpt>
      <trkpt lat="34.001635000" lon="-106.993748000">
        <ele>1674.250</ele>
        <time>2015-02-07T19:27:44Z</time>
        <name>WPT.55</name>
      </trkpt>
      <trkpt lat="34.001626000" lon="-106.993778000">
        <ele>1674.340</ele>
        <time>2015-02-07T19:27:45Z</time>
        <name>WPT.56</name>
      </trkpt>
      <trkpt lat="34.001614000" lon="-106.993823000">
        <ele>1674.730</ele>
        <time>2015-02-07T19:27:46Z</time>
        <name>WPT.57</name>
      </trkpt>
      <trkpt lat="34.001600000" lon="-106.993878000">
        <ele>1675.880</ele>
        <time>2015-02-07T19:27:47Z</time>
        <name>WPT.58</name>
      </trkpt>
      <trkpt lat="34.001584000" lon="-106.993937000">
        <ele>1676.070</ele>
        <time>2015-02-07T19:27:48Z</time>
        <name>WPT.59</name>
      </trkpt>
      <trkpt lat="34.001569000" lon="-106.993997000">
        <ele>1676.060</ele>
        <time>2015-02-07T19:27:49Z</time>
        <name>WPT.60</name>
      </trkpt>
      <trkpt lat="34.001553000" lon="-106.994052000">
        <ele>1675.950</ele>
        <time>2015-02-07T19:27:50Z</time>
        <name>WPT.61</name>
      </trkpt>
      <trkpt lat="34.001539000" lon="-106.994099000">
        <ele>1675.550</ele>
        <time>2015-02-07T19:27:51Z</time>
        <name>WPT.62</name>
      </trkpt>
      <trkpt lat="34.001530000" lon="-106.994131000">
        <ele>1675.260</ele>
        <time>2015-02-07T19:27:52Z</time>
        <name>WPT.63</name>
      </trkpt>
      <trkpt lat="34.001530000" lon="-106.994131000">
        <ele>1674.680</ele>
        <time>2015-02-07T19:27:53Z</time>
        <name>WPT.64</name>
      </trkpt>
      <trkpt lat="34.001522000" lon="-106.994145000">
        <ele>1674.680</ele>
        <time>2015-02-07T19:27:54Z</time>
        <name>WPT.65</name>
      </trkpt>
      <trkpt lat="34.001521000" lon="-106.994149000">
        <ele>1674.690</ele>
        <time>2015-02-07T19:27:59Z</time>
        <name>WPT.66</name>
      </trkpt>
      <trkpt lat="34.001510000" lon="-106.994175000">
        <ele>1674.790</ele>
        <time>2015-02-07T19:28:00Z</time>
        <name>WPT.67</name>
      </trkpt>
      <trkpt lat="34.001491000" lon="-106.994221000">
        <ele>1674.800</ele>
        <time>2015-02-07T19:28:01Z</time>
        <name>WPT.68</name>
      </trkpt>
      <trkpt lat="34.001464000" lon="-106.994276000">
        <ele>1674.990</ele>
        <time>2015-02-07T19:28:02Z</time>
        <name>WPT.69</name>
      </trkpt>
      <trkpt lat="34.001428000" lon="-106.994333000">
        <ele>1675.480</ele>
        <time>2015-02-07T19:28:03Z</time>
        <name>WPT.70</name>
      </trkpt>
      <trkpt lat="34.001383000" lon="-106.994394000">
        <ele>1675.960</ele>
        <time>2015-02-07T19:28:04Z</time>
        <name>WPT.71</name>
      </trkpt>
      <trkpt lat="34.001332000" lon="-106.994457000">
        <ele>1676.050</ele>
        <time>2015-02-07T19:28:05Z</time>
        <name>WPT.72</name>
      </trkpt>
      <trkpt lat="34.001281000" lon="-106.994521000">
        <ele>1676.150</ele>
        <time>2015-02-07T19:28:06Z</time>
        <name>WPT.73</name>
      </trkpt>
      <trkpt lat="34.001234000" lon="-106.994586000">
        <ele>1676.330</ele>
        <time>2015-02-07T19:28:07Z</time>
        <name>WPT.74</name>
      </trkpt>
      <trkpt lat="34.001185000" lon="-106.994655000">
        <ele>1677.010</ele>
        <time>2015-02-07T19:28:08Z</time>
        <name>WPT.75</name>
      </trkpt>
      <trkpt lat="34.001135000" lon="-106.994730000">
        <ele>1679.420</ele>
        <time>2015-02-07T19:28:09Z</time>
        <name>WPT.76</name>
      </trkpt>
      <trkpt lat="34.001085000" lon="-106.994809000">
        <ele>1679.010</ele>
        <time>2015-02-07T19:28:10Z</time>
        <name>WPT.77</name>
      </trkpt>
      <trkpt lat="34.001034000" lon="-106.994895000">
        <ele>1679.380</ele>
        <time>2015-02-07T19:28:11Z</time>
        <name>WPT.78</name>
      </trkpt>
      <trkpt lat="34.000984000" lon="-106.994984000">
        <ele>1678.970</ele>
        <time>2015-02-07T19:28:12Z</time>
        <name>WPT.79</name>
      </trkpt>
      <trkpt lat="34.000931000" lon="-106.995075000">
        <ele>1678.660</ele>
        <time>2015-02-07T19:28:13Z</time>
        <name>WPT.80</name>
      </trkpt>
      <trkpt lat="34.000873000" lon="-106.995167000">
        <ele>1676.030</ele>
        <time>2015-02-07T19:28:14Z</time>
        <name>WPT.81</name>
      </trkpt>
      <trkpt lat="34.000808000" lon="-106.995256000">
        <ele>1676.900</ele>
        <time>2015-02-07T19:28:15Z</time>
        <name>WPT.82</name>
      </trkpt>
      <trkpt lat="34.000732000" lon="-106.995336000">
        <ele>1677.180</ele>
        <time>2015-02-07T19:28:16Z</time>
        <name>WPT.83</name>
      </trkpt>
      <trkpt lat="34.000650000" lon="-106.995399000">
        <ele>1676.070</ele>
        <time>2015-02-07T19:28:17Z</time>
        <name>WPT.84</name>
      </trkpt>
      <trkpt lat="34.000566000" lon="-106.995443000">
        <ele>1676.060</ele>
        <time>2015-02-07T19:28:18Z</time>
        <name>WPT.85</name>
      </trkpt>
      <trkpt lat="34.000482000" lon="-106.995474000">
        <ele>1675.860</ele>
        <time>2015-02-07T19:28:19Z</time>
        <name>WPT.86</name>
      </trkpt>
      <trkpt lat="34.000394000" lon="-106.995498000">
        <ele>1676.440</ele>
        <time>2015-02-07T19:28:20Z</time>
        <name>WPT.87</name>
      </trkpt>
      <trkpt lat="34.000301000" lon="-106.995519000">
        <ele>1678.730</ele>
        <time>2015-02-07T19:28:21Z</time>
        <name>WPT.88</name>
      </trkpt>
      <trkpt lat="34.000203000" lon="-106.995538000">
        <ele>1678.120</ele>
        <time>2015-02-07T19:28:22Z</time>
        <name>WPT.89</name>
      </trkpt>
      <trkpt lat="34.000101000" lon="-106.995559000">
        <ele>1677.890</ele>
        <time>2015-02-07T19:28:23Z</time>
        <name>WPT.90</name>
      </trkpt>
      <trkpt lat="33.999995000" lon="-106.995581000">
        <ele>1677.860</ele>
        <time>2015-02-07T19:28:24Z</time>
        <name>WPT.91</name>
      </trkpt>
      <trkpt lat="33.999889000" lon="-106.995604000">
        <ele>1677.930</ele>
        <time>2015-02-07T19:28:25Z</time>
        <name>WPT.92</name>
      </trkpt>
      <trkpt lat="33.999779000" lon="-106.995624000">
        <ele>1678.010</ele>
        <time>2015-02-07T19:28:26Z</time>
        <name>WPT.93</name>
      </trkpt>
      <trkpt lat="33.999671000" lon="-106.995642000">
        <ele>1677.990</ele>
        <time>2015-02-07T19:28:27Z</time>
        <name>WPT.94</name>
      </trkpt>
      <trkpt lat="33.999565000" lon="-106.995657000">
        <ele>1678.260</ele>
        <time>2015-02-07T19:28:28Z</time>
        <name>WPT.95</name>
      </trkpt>
      <trkpt lat="33.999462000" lon="-106.995671000">
        <ele>1678.230</ele>
        <time>2015-02-07T19:28:29Z</time>
        <name>WPT.96</name>
      </trkpt>
      <trkpt lat="33.999360000" lon="-106.995683000">
        <ele>1678.590</ele>
        <time>2015-02-07T19:28:30Z</time>
        <name>WPT.97</name>
      </trkpt>
      <trkpt lat="33.999259000" lon="-106.995693000">
        <ele>1678.660</ele>
        <time>2015-02-07T19:28:31Z</time>
        <name>WPT.98</name>
      </trkpt>
      <trkpt lat="33.999154000" lon="-106.995702000">
        <ele>1678.250</ele>
        <time>2015-02-07T19:28:32Z</time>
        <name>WPT.99</name>
      </trkpt>
      <trkpt lat="33.999047000" lon="-106.995708000">
        <ele>1678.130</ele>
        <time>2015-02-07T19:28:33Z</time>
        <name>WPT.100</name>
      </trkpt>
      <trkpt lat="33.998942000" lon="-106.995712000">
        <ele>1678.110</ele>
        <time>2015-02-07T19:28:34Z</time>
        <name>WPT.101</name>
      </trkpt>
      <trkpt lat="33.998841000" lon="-106.995714000">
        <ele>1678.280</ele>
        <time>2015-02-07T19:28:35Z</time>
        <name>WPT.102</name>
      </trkpt>
      <trkpt lat="33.998746000" lon="-106.995715000">
        <ele>1678.160</ele>
        <time>2015-02-07T19:28:36Z</time>
        <name>WPT.103</name>
      </trkpt>
      <trkpt lat="33.998653000" lon="-106.995716000">
        <ele>1678.140</ele>
        <time>2015-02-07T19:28:37Z</time>
        <name>WPT.104</name>
      </trkpt>
      <trkpt lat="33.998561000" lon="-106.995716000">
        <ele>1678.120</ele>
        <time>2015-02-07T19:28:38Z</time>
        <name>WPT.105</name>
      </trkpt>
      <trkpt lat="33.998464000" lon="-106.995715000">
        <ele>1678.010</ele>
        <time>2015-02-07T19:28:39Z</time>
        <name>WPT.106</name>
      </trkpt>
      <trkpt lat="33.998361000" lon="-106.995717000">
        <ele>1678.570</ele>
        <time>2015-02-07T19:28:40Z</time>
        <name>WPT.107</name>
      </trkpt>
      <trkpt lat="33.998252000" lon="-106.995727000">
        <ele>1680.680</ele>
        <time>2015-02-07T19:28:41Z</time>
        <name>WPT.108</name>
      </trkpt>
      <trkpt lat="33.998146000" lon="-106.995750000">
        <ele>1680.930</ele>
        <time>2015-02-07T19:28:42Z</time>
        <name>WPT.109</name>
      </trkpt>
      <trkpt lat="33.998046000" lon="-106.995784000">
        <ele>1681.980</ele>
        <time>2015-02-07T19:28:43Z</time>
        <name>WPT.110</name>
      </trkpt>
      <trkpt lat="33.997954000" lon="-106.995829000">
        <ele>1683.010</ele>
        <time>2015-02-07T19:28:44Z</time>
        <name>WPT.111</name>
      </trkpt>
      <trkpt lat="33.997867000" lon="-106.995883000">
        <ele>1683.180</ele>
        <time>2015-02-07T19:28:45Z</time>
        <name>WPT.112</name>
      </trkpt>
      <trkpt lat="33.997781000" lon="-106.995947000">
        <ele>1683.150</ele>
        <time>2015-02-07T19:28:46Z</time>
        <name>WPT.113</name>
      </trkpt>
      <trkpt lat="33.997700000" lon="-106.996018000">
        <ele>1683.110</ele>
        <time>2015-02-07T19:28:47Z</time>
        <name>WPT.114</name>
      </trkpt>
      <trkpt lat="33.997623000" lon="-106.996093000">
        <ele>1683.360</ele>
        <time>2015-02-07T19:28:48Z</time>
        <name>WPT.115</name>
      </trkpt>
      <trkpt lat="33.997548000" lon="-106.996171000">
        <ele>1683.520</ele>
        <time>2015-02-07T19:28:49Z</time>
        <name>WPT.116</name>
      </trkpt>
      <trkpt lat="33.997473000" lon="-106.996253000">
        <ele>1683.590</ele>
        <time>2015-02-07T19:28:50Z</time>
        <name>WPT.117</name>
      </trkpt>
      <trkpt lat="33.997398000" lon="-106.996334000">
        <ele>1684.040</ele>
        <time>2015-02-07T19:28:51Z</time>
        <name>WPT.118</name>
      </trkpt>
      <trkpt lat="33.997324000" lon="-106.996415000">
        <ele>1684.110</ele>
        <time>2015-02-07T19:28:52Z</time>
        <name>WPT.119</name>
      </trkpt>
      <trkpt lat="33.997247000" lon="-106.996498000">
        <ele>1684.080</ele>
        <time>2015-02-07T19:28:53Z</time>
        <name>WPT.120</name>
      </trkpt>
      <trkpt lat="33.997168000" lon="-106.996584000">
        <ele>1684.350</ele>
        <time>2015-02-07T19:28:54Z</time>
        <name>WPT.121</name>
      </trkpt>
      <trkpt lat="33.997086000" lon="-106.996671000">
        <ele>1685.960</ele>
        <time>2015-02-07T19:28:55Z</time>
        <name>WPT.122</name>
      </trkpt>
      <trkpt lat="33.997001000" lon="-106.996762000">
        <ele>1688.050</ele>
        <time>2015-02-07T19:28:56Z</time>
        <name>WPT.123</name>
      </trkpt>
      <trkpt lat="33.996915000" lon="-106.996853000">
        <ele>1688.580</ele>
        <time>2015-02-07T19:28:57Z</time>
        <name>WPT.124</name>
      </trkpt>
      <trkpt lat="33.996828000" lon="-106.996946000">
        <ele>1688.340</ele>
        <time>2015-02-07T19:28:58Z</time>
        <name>WPT.125</name>
      </trkpt>
      <trkpt lat="33.996740000" lon="-106.997039000">
        <ele>1687.810</ele>
        <time>2015-02-07T19:28:59Z</time>
        <name>WPT.126</name>
      </trkpt>
      <trkpt lat="33.996651000" lon="-106.997133000">
        <ele>1687.870</ele>
        <time>2015-02-07T19:29:00Z</time>
        <name>WPT.127</name>
      </trkpt>
      <trkpt lat="33.996563000" lon="-106.997225000">
        <ele>1687.740</ele>
        <time>2015-02-07T19:29:01Z</time>
        <name>WPT.128</name>
      </trkpt>
      <trkpt lat="33.996476000" lon="-106.997314000">
        <ele>1688.000</ele>
        <time>2015-02-07T19:29:02Z</time>
        <name>WPT.129</name>
      </trkpt>
      <trkpt lat="33.996390000" lon="-106.997399000">
        <ele>1688.170</ele>
        <time>2015-02-07T19:29:03Z</time>
        <name>WPT.130</name>
      </trkpt>
      <trkpt lat="33.996308000" lon="-106.997481000">
        <ele>1688.240</ele>
        <time>2015-02-07T19:29:04Z</time>
        <name>WPT.131</name>
      </trkpt>
      <trkpt lat="33.996233000" lon="-106.997554000">
        <ele>1688.020</ele>
        <time>2015-02-07T19:29:05Z</time>
        <name>WPT.132</name>
      </trkpt>
      <trkpt lat="33.996174000" lon="-106.997610000">
        <ele>1687.520</ele>
        <time>2015-02-07T19:29:06Z</time>
        <name>WPT.133</name>
      </trkpt>
      <trkpt lat="33.996134000" lon="-106.997648000">
        <ele>1686.060</ele>
        <time>2015-02-07T19:29:07Z</time>
        <name>WPT.134</name>
      </trkpt>
      <trkpt lat="33.996106000" lon="-106.997676000">
        <ele>1686.150</ele>
        <time>2015-02-07T19:29:08Z</time>
        <name>WPT.135</name>
      </trkpt>
      <trkpt lat="33.996078000" lon="-106.997702000">
        <ele>1686.060</ele>
        <time>2015-02-07T19:29:09Z</time>
        <name>WPT.136</name>
      </trkpt>
      <trkpt lat="33.996044000" lon="-106.997733000">
        <ele>1686.060</ele>
        <time>2015-02-07T19:29:10Z</time>
        <name>WPT.137</name>
      </trkpt>
      <trkpt lat="33.996000000" lon="-106.997772000">
        <ele>1686.060</ele>
        <time>2015-02-07T19:29:11Z</time>
        <name>WPT.138</name>
      </trkpt>
      <trkpt lat="33.995948000" lon="-106.997816000">
        <ele>1686.460</ele>
        <time>2015-02-07T19:29:12Z</time>
        <name>WPT.139</name>
      </trkpt>
      <trkpt lat="33.995890000" lon="-106.997866000">
        <ele>1687.430</ele>
        <time>2015-02-07T19:29:13Z</time>
        <name>WPT.140</name>
      </trkpt>
      <trkpt lat="33.995825000" lon="-106.997922000">
        <ele>1687.430</ele>
        <time>2015-02-07T19:29:14Z</time>
        <name>WPT.141</name>
      </trkpt>
      <trkpt lat="33.995754000" lon="-106.997980000">
        <ele>1687.520</ele>
        <time>2015-02-07T19:29:15Z</time>
        <name>WPT.142</name>
      </trkpt>
      <trkpt lat="33.995677000" lon="-106.998043000">
        <ele>1690.620</ele>
        <time>2015-02-07T19:29:16Z</time>
        <name>WPT.143</name>
      </trkpt>
      <trkpt lat="33.995599000" lon="-106.998111000">
        <ele>1688.790</ele>
        <time>2015-02-07T19:29:17Z</time>
        <name>WPT.144</name>
      </trkpt>
      <trkpt lat="33.995521000" lon="-106.998184000">
        <ele>1688.690</ele>
        <time>2015-02-07T19:29:18Z</time>
        <name>WPT.145</name>
      </trkpt>
      <trkpt lat="33.995449000" lon="-106.998253000">
        <ele>1687.820</ele>
        <time>2015-02-07T19:29:19Z</time>
        <name>WPT.146</name>
      </trkpt>
      <trkpt lat="33.995390000" lon="-106.998312000">
        <ele>1685.040</ele>
        <time>2015-02-07T19:29:20Z</time>
        <name>WPT.147</name>
      </trkpt>
      <trkpt lat="33.995339000" lon="-106.998362000">
        <ele>1684.500</ele>
        <time>2015-02-07T19:29:21Z</time>
        <name>WPT.148</name>
      </trkpt>
      <trkpt lat="33.995287000" lon="-106.998412000">
        <ele>1684.640</ele>
        <time>2015-02-07T19:29:22Z</time>
        <name>WPT.149</name>
      </trkpt>
      <trkpt lat="33.995229000" lon="-106.998462000">
        <ele>1684.690</ele>
        <time>2015-02-07T19:29:23Z</time>
        <name>WPT.150</name>
      </trkpt>
      <trkpt lat="33.995165000" lon="-106.998512000">
        <ele>1684.840</ele>
        <time>2015-02-07T19:29:24Z</time>
        <name>WPT.151</name>
      </trkpt>
      <trkpt lat="33.995095000" lon="-106.998563000">
        <ele>1685.560</ele>
        <time>2015-02-07T19:29:25Z</time>
        <name>WPT.152</name>
      </trkpt>
      <trkpt lat="33.995018000" lon="-106.998615000">
        <ele>1686.560</ele>
        <time>2015-02-07T19:29:26Z</time>
        <name>WPT.153</name>
      </trkpt>
      <trkpt lat="33.994933000" lon="-106.998666000">
        <ele>1689.770</ele>
        <time>2015-02-07T19:29:27Z</time>
        <name>WPT.154</name>
      </trkpt>
      <trkpt lat="33.994841000" lon="-106.998714000">
        <ele>1688.910</ele>
        <time>2015-02-07T19:29:28Z</time>
        <name>WPT.155</name>
      </trkpt>
      <trkpt lat="33.994745000" lon="-106.998758000">
        <ele>1689.690</ele>
        <time>2015-02-07T19:29:29Z</time>
        <name>WPT.156</name>
      </trkpt>
      <trkpt lat="33.994645000" lon="-106.998798000">
        <ele>1692.680</ele>
        <time>2015-02-07T19:29:30Z</time>
        <name>WPT.157</name>
      </trkpt>
      <trkpt lat="33.994535000" lon="-106.998842000">
        <ele>1693.050</ele>
        <time>2015-02-07T19:29:31Z</time>
        <name>WPT.158</name>
      </trkpt>
      <trkpt lat="33.994419000" lon="-106.998894000">
        <ele>1693.120</ele>
        <time>2015-02-07T19:29:32Z</time>
        <name>WPT.159</name>
      </trkpt>
      <trkpt lat="33.994304000" lon="-106.998956000">
        <ele>1693.200</ele>
        <time>2015-02-07T19:29:33Z</time>
        <name>WPT.160</name>
      </trkpt>
      <trkpt lat="33.994191000" lon="-106.999026000">
        <ele>1693.470</ele>
        <time>2015-02-07T19:29:34Z</time>
        <name>WPT.161</name>
      </trkpt>
      <trkpt lat="33.994079000" lon="-106.999104000">
        <ele>1694.130</ele>
        <time>2015-02-07T19:29:35Z</time>
        <name>WPT.162</name>
      </trkpt>
      <trkpt lat="33.993971000" lon="-106.999190000">
        <ele>1694.200</ele>
        <time>2015-02-07T19:29:36Z</time>
        <name>WPT.163</name>
      </trkpt>
      <trkpt lat="33.993872000" lon="-106.999281000">
        <ele>1693.980</ele>
        <time>2015-02-07T19:29:37Z</time>
        <name>WPT.164</name>
      </trkpt>
      <trkpt lat="33.993783000" lon="-106.999379000">
        <ele>1693.670</ele>
        <time>2015-02-07T19:29:38Z</time>
        <name>WPT.165</name>
      </trkpt>
      <trkpt lat="33.993703000" lon="-106.999483000">
        <ele>1693.550</ele>
        <time>2015-02-07T19:29:39Z</time>
        <name>WPT.166</name>
      </trkpt>
      <trkpt lat="33.993630000" lon="-106.999592000">
        <ele>1693.930</ele>
        <time>2015-02-07T19:29:40Z</time>
        <name>WPT.167</name>
      </trkpt>
      <trkpt lat="33.993561000" lon="-106.999706000">
        <ele>1693.820</ele>
        <time>2015-02-07T19:29:41Z</time>
        <name>WPT.168</name>
      </trkpt>
      <trkpt lat="33.993498000" lon="-106.999822000">
        <ele>1693.900</ele>
        <time>2015-02-07T19:29:42Z</time>
        <name>WPT.169</name>
      </trkpt>
      <trkpt lat="33.993441000" lon="-106.999940000">
        <ele>1694.380</ele>
        <time>2015-02-07T19:29:43Z</time>
        <name>WPT.170</name>
      </trkpt>
      <trkpt lat="33.993384000" lon="-107.000063000">
        <ele>1695.430</ele>
        <time>2015-02-07T19:29:44Z</time>
        <name>WPT.171</name>
      </trkpt>
      <trkpt lat="33.993326000" lon="-107.000190000">
        <ele>1695.410</ele>
        <time>2015-02-07T19:29:45Z</time>
        <name>WPT.172</name>
      </trkpt>
      <trkpt lat="33.993269000" lon="-107.000319000">
        <ele>1695.470</ele>
        <time>2015-02-07T19:29:46Z</time>
        <name>WPT.173</name>
      </trkpt>
      <trkpt lat="33.993212000" lon="-107.000447000">
        <ele>1695.920</ele>
        <time>2015-02-07T19:29:47Z</time>
        <name>WPT.174</name>
      </trkpt>
      <trkpt lat="33.993152000" lon="-107.000567000">
        <ele>1697.510</ele>
        <time>2015-02-07T19:29:48Z</time>
        <name>WPT.175</name>
      </trkpt>
      <trkpt lat="33.993089000" lon="-107.000680000">
        <ele>1697.070</ele>
        <time>2015-02-07T19:29:49Z</time>
        <name>WPT.176</name>
      </trkpt>
      <trkpt lat="33.993029000" lon="-107.000794000">
        <ele>1694.840</ele>
        <time>2015-02-07T19:29:50Z</time>
        <name>WPT.177</name>
      </trkpt>
      <trkpt lat="33.992978000" lon="-107.000915000">
        <ele>1695.030</ele>
        <time>2015-02-07T19:29:51Z</time>
        <name>WPT.178</name>
      </trkpt>
      <trkpt lat="33.992935000" lon="-107.001045000">
        <ele>1696.950</ele>
        <time>2015-02-07T19:29:52Z</time>
        <name>WPT.179</name>
      </trkpt>
      <trkpt lat="33.992899000" lon="-107.001181000">
        <ele>1699.020</ele>
        <time>2015-02-07T19:29:53Z</time>
        <name>WPT.180</name>
      </trkpt>
      <trkpt lat="33.992866000" lon="-107.001318000">
        <ele>1698.760</ele>
        <time>2015-02-07T19:29:54Z</time>
        <name>WPT.181</name>
      </trkpt>
      <trkpt lat="33.992833000" lon="-107.001458000">
        <ele>1699.000</ele>
        <time>2015-02-07T19:29:55Z</time>
        <name>WPT.182</name>
      </trkpt>
      <trkpt lat="33.992796000" lon="-107.001603000">
        <ele>1699.620</ele>
        <time>2015-02-07T19:29:56Z</time>
        <name>WPT.183</name>
      </trkpt>
      <trkpt lat="33.992757000" lon="-107.001748000">
        <ele>1699.760</ele>
        <time>2015-02-07T19:29:57Z</time>
        <name>WPT.184</name>
      </trkpt>
      <trkpt lat="33.992720000" lon="-107.001892000">
        <ele>1699.810</ele>
        <time>2015-02-07T19:29:58Z</time>
        <name>WPT.185</name>
      </trkpt>
      <trkpt lat="33.992682000" lon="-107.002037000">
        <ele>1701.200</ele>
        <time>2015-02-07T19:29:59Z</time>
        <name>WPT.186</name>
      </trkpt>
      <trkpt lat="33.992646000" lon="-107.002183000">
        <ele>1700.560</ele>
        <time>2015-02-07T19:30:00Z</time>
        <name>WPT.187</name>
      </trkpt>
      <trkpt lat="33.992611000" lon="-107.002329000">
        <ele>1700.520</ele>
        <time>2015-02-07T19:30:01Z</time>
        <name>WPT.188</name>
      </trkpt>
      <trkpt lat="33.992577000" lon="-107.002477000">
        <ele>1700.860</ele>
        <time>2015-02-07T19:30:02Z</time>
        <name>WPT.189</name>
      </trkpt>
      <trkpt lat="33.992545000" lon="-107.002626000">
        <ele>1701.310</ele>
        <time>2015-02-07T19:30:03Z</time>
        <name>WPT.190</name>
      </trkpt>
      <trkpt lat="33.992515000" lon="-107.002775000">
        <ele>1702.610</ele>
        <time>2015-02-07T19:30:04Z</time>
        <name>WPT.191</name>
      </trkpt>
      <trkpt lat="33.992487000" lon="-107.002921000">
        <ele>1702.560</ele>
        <time>2015-02-07T19:30:05Z</time>
        <name>WPT.192</name>
      </trkpt>
      <trkpt lat="33.992460000" lon="-107.003066000">
        <ele>1702.610</ele>
        <time>2015-02-07T19:30:06Z</time>
        <name>WPT.193</name>
      </trkpt>
      <trkpt lat="33.992437000" lon="-107.003209000">
        <ele>1702.580</ele>
        <time>2015-02-07T19:30:07Z</time>
        <name>WPT.194</name>
      </trkpt>
      <trkpt lat="33.992415000" lon="-107.003350000">
        <ele>1702.550</ele>
        <time>2015-02-07T19:30:08Z</time>
        <name>WPT.195</name>
      </trkpt>
      <trkpt lat="33.992391000" lon="-107.003494000">
        <ele>1702.620</ele>
        <time>2015-02-07T19:30:09Z</time>
        <name>WPT.196</name>
      </trkpt>
      <trkpt lat="33.992368000" lon="-107.003636000">
        <ele>1702.600</ele>
        <time>2015-02-07T19:30:10Z</time>
        <name>WPT.197</name>
      </trkpt>
      <trkpt lat="33.992347000" lon="-107.003774000">
        <ele>1702.680</ele>
        <time>2015-02-07T19:30:11Z</time>
        <name>WPT.198</name>
      </trkpt>
      <trkpt lat="33.992322000" lon="-107.003910000">
        <ele>1702.670</ele>
        <time>2015-02-07T19:30:12Z</time>
        <name>WPT.199</name>
      </trkpt>
      <trkpt lat="33.992301000" lon="-107.004034000">
        <ele>1702.760</ele>
        <time>2015-02-07T19:30:13Z</time>
        <name>WPT.200</name>
      </trkpt>
      <trkpt lat="33.992286000" lon="-107.004150000">
        <ele>1703.140</ele>
        <time>2015-02-07T19:30:14Z</time>
        <name>WPT.201</name>
      </trkpt>
      <trkpt lat="33.992270000" lon="-107.004265000">
        <ele>1703.140</ele>
        <time>2015-02-07T19:30:15Z</time>
        <name>WPT.202</name>
      </trkpt>
      <trkpt lat="33.992249000" lon="-107.004378000">
        <ele>1703.140</ele>
        <time>2015-02-07T19:30:16Z</time>
        <name>WPT.203</name>
      </trkpt>
      <trkpt lat="33.992222000" lon="-107.004494000">
        <ele>1703.240</ele>
        <time>2015-02-07T19:30:17Z</time>
        <name>WPT.204</name>
      </trkpt>
      <trkpt lat="33.992181000" lon="-107.004614000">
        <ele>1703.720</ele>
        <time>2015-02-07T19:30:18Z</time>
        <name>WPT.205</name>
      </trkpt>
      <trkpt lat="33.992128000" lon="-107.004732000">
        <ele>1705.840</ele>
        <time>2015-02-07T19:30:19Z</time>
        <name>WPT.206</name>
      </trkpt>
      <trkpt lat="33.992065000" lon="-107.004848000">
        <ele>1706.100</ele>
        <time>2015-02-07T19:30:20Z</time>
        <name>WPT.207</name>
      </trkpt>
      <trkpt lat="33.991995000" lon="-107.004965000">
        <ele>1707.150</ele>
        <time>2015-02-07T19:30:21Z</time>
        <name>WPT.208</name>
      </trkpt>
      <trkpt lat="33.991925000" lon="-107.005080000">
        <ele>1707.510</ele>
        <time>2015-02-07T19:30:22Z</time>
        <name>WPT.209</name>
      </trkpt>
      <trkpt lat="33.991861000" lon="-107.005190000">
        <ele>1707.770</ele>
        <time>2015-02-07T19:30:23Z</time>
        <name>WPT.210</name>
      </trkpt>
      <trkpt lat="33.991802000" lon="-107.005298000">
        <ele>1707.740</ele>
        <time>2015-02-07T19:30:24Z</time>
        <name>WPT.211</name>
      </trkpt>
      <trkpt lat="33.991745000" lon="-107.005407000">
        <ele>1707.910</ele>
        <time>2015-02-07T19:30:25Z</time>
        <name>WPT.212</name>
      </trkpt>
      <trkpt lat="33.991693000" lon="-107.005514000">
        <ele>1708.960</ele>
        <time>2015-02-07T19:30:26Z</time>
        <name>WPT.213</name>
      </trkpt>
      <trkpt lat="33.991639000" lon="-107.005621000">
        <ele>1708.830</ele>
        <time>2015-02-07T19:30:27Z</time>
        <name>WPT.214</name>
      </trkpt>
      <trkpt lat="33.991585000" lon="-107.005732000">
        <ele>1709.000</ele>
        <time>2015-02-07T19:30:28Z</time>
        <name>WPT.215</name>
      </trkpt>
      <trkpt lat="33.991535000" lon="-107.005848000">
        <ele>1710.050</ele>
        <time>2015-02-07T19:30:29Z</time>
        <name>WPT.216</name>
      </trkpt>
      <trkpt lat="33.991486000" lon="-107.005967000">
        <ele>1710.990</ele>
        <time>2015-02-07T19:30:30Z</time>
        <name>WPT.217</name>
      </trkpt>
      <trkpt lat="33.991439000" lon="-107.006091000">
        <ele>1711.540</ele>
        <time>2015-02-07T19:30:31Z</time>
        <name>WPT.218</name>
      </trkpt>
      <trkpt lat="33.991391000" lon="-107.006220000">
        <ele>1711.990</ele>
        <time>2015-02-07T19:30:32Z</time>
        <name>WPT.219</name>
      </trkpt>
      <trkpt lat="33.991342000" lon="-107.006353000">
        <ele>1713.500</ele>
        <time>2015-02-07T19:30:33Z</time>
        <name>WPT.220</name>
      </trkpt>
      <trkpt lat="33.991291000" lon="-107.006485000">
        <ele>1713.550</ele>
        <time>2015-02-07T19:30:34Z</time>
        <name>WPT.221</name>
      </trkpt>
      <trkpt lat="33.991237000" lon="-107.006616000">
        <ele>1713.500</ele>
        <time>2015-02-07T19:30:35Z</time>
        <name>WPT.222</name>
      </trkpt>
      <trkpt lat="33.991184000" lon="-107.006745000">
        <ele>1713.360</ele>
        <time>2015-02-07T19:30:36Z</time>
        <name>WPT.223</name>
      </trkpt>
      <trkpt lat="33.991132000" lon="-107.006868000">
        <ele>1713.320</ele>
        <time>2015-02-07T19:30:37Z</time>
        <name>WPT.224</name>
      </trkpt>
      <trkpt lat="33.991085000" lon="-107.006987000">
        <ele>1713.290</ele>
        <time>2015-02-07T19:30:38Z</time>
        <name>WPT.225</name>
      </trkpt>
      <trkpt lat="33.991041000" lon="-107.007100000">
        <ele>1713.070</ele>
        <time>2015-02-07T19:30:39Z</time>
        <name>WPT.226</name>
      </trkpt>
      <trkpt lat="33.991002000" lon="-107.007213000">
        <ele>1713.050</ele>
        <time>2015-02-07T19:30:40Z</time>
        <name>WPT.227</name>
      </trkpt>
      <trkpt lat="33.990964000" lon="-107.007325000">
        <ele>1713.030</ele>
        <time>2015-02-07T19:30:41Z</time>
        <name>WPT.228</name>
      </trkpt>
      <trkpt lat="33.990923000" lon="-107.007434000">
        <ele>1712.920</ele>
        <time>2015-02-07T19:30:42Z</time>
        <name>WPT.229</name>
      </trkpt>
      <trkpt lat="33.990880000" lon="-107.007541000">
        <ele>1713.200</ele>
        <time>2015-02-07T19:30:43Z</time>
        <name>WPT.230</name>
      </trkpt>
      <trkpt lat="33.990835000" lon="-107.007650000">
        <ele>1713.770</ele>
        <time>2015-02-07T19:30:44Z</time>
        <name>WPT.231</name>
      </trkpt>
      <trkpt lat="33.990791000" lon="-107.007759000">
        <ele>1713.570</ele>
        <time>2015-02-07T19:30:45Z</time>
        <name>WPT.232</name>
      </trkpt>
      <trkpt lat="33.990751000" lon="-107.007870000">
        <ele>1714.830</ele>
        <time>2015-02-07T19:30:46Z</time>
        <name>WPT.233</name>
      </trkpt>
      <trkpt lat="33.990715000" lon="-107.007979000">
        <ele>1715.690</ele>
        <time>2015-02-07T19:30:47Z</time>
        <name>WPT.234</name>
      </trkpt>
      <trkpt lat="33.990679000" lon="-107.008089000">
        <ele>1715.670</ele>
        <time>2015-02-07T19:30:48Z</time>
        <name>WPT.235</name>
      </trkpt>
      <trkpt lat="33.990640000" lon="-107.008202000">
        <ele>1715.650</ele>
        <time>2015-02-07T19:30:49Z</time>
        <name>WPT.236</name>
      </trkpt>
      <trkpt lat="33.990596000" lon="-107.008316000">
        <ele>1715.640</ele>
        <time>2015-02-07T19:30:50Z</time>
        <name>WPT.237</name>
      </trkpt>
      <trkpt lat="33.990547000" lon="-107.008433000">
        <ele>1715.920</ele>
        <time>2015-02-07T19:30:51Z</time>
        <name>WPT.238</name>
      </trkpt>
      <trkpt lat="33.990500000" lon="-107.008551000">
        <ele>1717.180</ele>
        <time>2015-02-07T19:30:52Z</time>
        <name>WPT.239</name>
      </trkpt>
      <trkpt lat="33.990454000" lon="-107.008669000">
        <ele>1718.150</ele>
        <time>2015-02-07T19:30:53Z</time>
        <name>WPT.240</name>
      </trkpt>
      <trkpt lat="33.990408000" lon="-107.008790000">
        <ele>1721.150</ele>
        <time>2015-02-07T19:30:54Z</time>
        <name>WPT.241</name>
      </trkpt>
      <trkpt lat="33.990359000" lon="-107.008917000">
        <ele>1721.110</ele>
        <time>2015-02-07T19:30:55Z</time>
        <name>WPT.242</name>
      </trkpt>
      <trkpt lat="33.990309000" lon="-107.009047000">
        <ele>1721.750</ele>
        <time>2015-02-07T19:30:56Z</time>
        <name>WPT.243</name>
      </trkpt>
      <trkpt lat="33.990260000" lon="-107.009178000">
        <ele>1721.810</ele>
        <time>2015-02-07T19:30:57Z</time>
        <name>WPT.244</name>
      </trkpt>
      <trkpt lat="33.990210000" lon="-107.009310000">
        <ele>1722.360</ele>
        <time>2015-02-07T19:30:58Z</time>
        <name>WPT.245</name>
      </trkpt>
      <trkpt lat="33.990161000" lon="-107.009441000">
        <ele>1722.430</ele>
        <time>2015-02-07T19:30:59Z</time>
        <name>WPT.246</name>
      </trkpt>
      <trkpt lat="33.990111000" lon="-107.009574000">
        <ele>1723.570</ele>
        <time>2015-02-07T19:31:00Z</time>
        <name>WPT.247</name>
      </trkpt>
      <trkpt lat="33.990063000" lon="-107.009707000">
        <ele>1723.920</ele>
        <time>2015-02-07T19:31:01Z</time>
        <name>WPT.248</name>
      </trkpt>
      <trkpt lat="33.990016000" lon="-107.009838000">
        <ele>1723.990</ele>
        <time>2015-02-07T19:31:02Z</time>
        <name>WPT.249</name>
      </trkpt>
      <trkpt lat="33.989968000" lon="-107.009966000">
        <ele>1723.960</ele>
        <time>2015-02-07T19:31:03Z</time>
        <name>WPT.250</name>
      </trkpt>
      <trkpt lat="33.989921000" lon="-107.010086000">
        <ele>1723.830</ele>
        <time>2015-02-07T19:31:04Z</time>
        <name>WPT.251</name>
      </trkpt>
      <trkpt lat="33.989873000" lon="-107.010193000">
        <ele>1723.620</ele>
        <time>2015-02-07T19:31:05Z</time>
        <name>WPT.252</name>
      </trkpt>
      <trkpt lat="33.989823000" lon="-107.010285000">
        <ele>1722.920</ele>
        <time>2015-02-07T19:31:06Z</time>
        <name>WPT.253</name>
      </trkpt>
      <trkpt lat="33.989760000" lon="-107.010363000">
        <ele>1722.330</ele>
        <time>2015-02-07T19:31:07Z</time>
        <name>WPT.254</name>
      </trkpt>
      <trkpt lat="33.989681000" lon="-107.010423000">
        <ele>1722.240</ele>
        <time>2015-02-07T19:31:08Z</time>
        <name>WPT.255</name>
      </trkpt>
      <trkpt lat="33.989602000" lon="-107.010470000">
        <ele>1722.160</ele>
        <time>2015-02-07T19:31:09Z</time>
        <name>WPT.256</name>
      </trkpt>
      <trkpt lat="33.989529000" lon="-107.010504000">
        <ele>1722.170</ele>
        <time>2015-02-07T19:31:10Z</time>
        <name>WPT.257</name>
      </trkpt>
      <trkpt lat="33.989450000" lon="-107.010526000">
        <ele>1722.290</ele>
        <time>2015-02-07T19:31:11Z</time>
        <name>WPT.258</name>
      </trkpt>
      <trkpt lat="33.989367000" lon="-107.010545000">
        <ele>1722.300</ele>
        <time>2015-02-07T19:31:12Z</time>
        <name>WPT.259</name>
      </trkpt>
      <trkpt lat="33.989283000" lon="-107.010566000">
        <ele>1722.320</ele>
        <time>2015-02-07T19:31:13Z</time>
        <name>WPT.260</name>
      </trkpt>
      <trkpt lat="33.989194000" lon="-107.010589000">
        <ele>1722.340</ele>
        <time>2015-02-07T19:31:14Z</time>
        <name>WPT.261</name>
      </trkpt>
      <trkpt lat="33.989105000" lon="-107.010614000">
        <ele>1721.970</ele>
        <time>2015-02-07T19:31:15Z</time>
        <name>WPT.262</name>
      </trkpt>
      <trkpt lat="33.989017000" lon="-107.010641000">
        <ele>1722.200</ele>
        <time>2015-02-07T19:31:16Z</time>
        <name>WPT.263</name>
      </trkpt>
      <trkpt lat="33.988933000" lon="-107.010671000">
        <ele>1722.310</ele>
        <time>2015-02-07T19:31:17Z</time>
        <name>WPT.264</name>
      </trkpt>
      <trkpt lat="33.988857000" lon="-107.010700000">
        <ele>1722.820</ele>
        <time>2015-02-07T19:31:18Z</time>
        <name>WPT.265</name>
      </trkpt>
      <trkpt lat="33.988788000" lon="-107.010731000">
        <ele>1723.630</ele>
        <time>2015-02-07T19:31:19Z</time>
        <name>WPT.266</name>
      </trkpt>
      <trkpt lat="33.988717000" lon="-107.010761000">
        <ele>1724.530</ele>
        <time>2015-02-07T19:31:20Z</time>
        <name>WPT.267</name>
      </trkpt>
      <trkpt lat="33.988642000" lon="-107.010790000">
        <ele>1725.430</ele>
        <time>2015-02-07T19:31:21Z</time>
        <name>WPT.268</name>
      </trkpt>
      <trkpt lat="33.988560000" lon="-107.010813000">
        <ele>1726.520</ele>
        <time>2015-02-07T19:31:22Z</time>
        <name>WPT.269</name>
      </trkpt>
      <trkpt lat="33.988475000" lon="-107.010826000">
        <ele>1727.020</ele>
        <time>2015-02-07T19:31:23Z</time>
        <name>WPT.270</name>
      </trkpt>
      <trkpt lat="33.988388000" lon="-107.010825000">
        <ele>1727.030</ele>
        <time>2015-02-07T19:31:24Z</time>
        <name>WPT.271</name>
      </trkpt>
      <trkpt lat="33.988301000" lon="-107.010812000">
        <ele>1727.130</ele>
        <time>2015-02-07T19:31:25Z</time>
        <name>WPT.272</name>
      </trkpt>
      <trkpt lat="33.988209000" lon="-107.010785000">
        <ele>1727.440</ele>
        <time>2015-02-07T19:31:26Z</time>
        <name>WPT.273</name>
      </trkpt>
      <trkpt lat="33.988118000" lon="-107.010743000">
        <ele>1729.300</ele>
        <time>2015-02-07T19:31:27Z</time>
        <name>WPT.274</name>
      </trkpt>
      <trkpt lat="33.988033000" lon="-107.010685000">
        <ele>1729.300</ele>
        <time>2015-02-07T19:31:28Z</time>
        <name>WPT.275</name>
      </trkpt>
      <trkpt lat="33.987952000" lon="-107.010617000">
        <ele>1729.400</ele>
        <time>2015-02-07T19:31:29Z</time>
        <name>WPT.276</name>
      </trkpt>
      <trkpt lat="33.987876000" lon="-107.010545000">
        <ele>1729.400</ele>
        <time>2015-02-07T19:31:30Z</time>
        <name>WPT.277</name>
      </trkpt>
      <trkpt lat="33.987800000" lon="-107.010483000">
        <ele>1729.410</ele>
        <time>2015-02-07T19:31:31Z</time>
        <name>WPT.278</name>
      </trkpt>
      <trkpt lat="33.987726000" lon="-107.010434000">
        <ele>1729.120</ele>
        <time>2015-02-07T19:31:32Z</time>
        <name>WPT.279</name>
      </trkpt>
      <trkpt lat="33.987650000" lon="-107.010396000">
        <ele>1728.730</ele>
        <time>2015-02-07T19:31:33Z</time>
        <name>WPT.280</name>
      </trkpt>
      <trkpt lat="33.987567000" lon="-107.010373000">
        <ele>1726.780</ele>
        <time>2015-02-07T19:31:34Z</time>
        <name>WPT.281</name>
      </trkpt>
      <trkpt lat="33.987480000" lon="-107.010362000">
        <ele>1724.730</ele>
        <time>2015-02-07T19:31:35Z</time>
        <name>WPT.282</name>
      </trkpt>
      <trkpt lat="33.987381000" lon="-107.010355000">
        <ele>1724.850</ele>
        <time>2015-02-07T19:31:36Z</time>
        <name>WPT.283</name>
      </trkpt>
      <trkpt lat="33.987272000" lon="-107.010347000">
        <ele>1726.340</ele>
        <time>2015-02-07T19:31:37Z</time>
        <name>WPT.284</name>
      </trkpt>
      <trkpt lat="33.987159000" lon="-107.010333000">
        <ele>1726.160</ele>
        <time>2015-02-07T19:31:38Z</time>
        <name>WPT.285</name>
      </trkpt>
      <trkpt lat="33.987052000" lon="-107.010308000">
        <ele>1725.990</ele>
        <time>2015-02-07T19:31:39Z</time>
        <name>WPT.286</name>
      </trkpt>
      <trkpt lat="33.986961000" lon="-107.010266000">
        <ele>1725.220</ele>
        <time>2015-02-07T19:31:40Z</time>
        <name>WPT.287</name>
      </trkpt>
      <trkpt lat="33.986885000" lon="-107.010207000">
        <ele>1725.440</ele>
        <time>2015-02-07T19:31:41Z</time>
        <name>WPT.288</name>
      </trkpt>
      <trkpt lat="33.986830000" lon="-107.010132000">
        <ele>1725.460</ele>
        <time>2015-02-07T19:31:42Z</time>
        <name>WPT.289</name>
      </trkpt>
      <trkpt lat="33.986784000" lon="-107.010046000">
        <ele>1725.480</ele>
        <time>2015-02-07T19:31:43Z</time>
        <name>WPT.290</name>
      </trkpt>
      <trkpt lat="33.986739000" lon="-107.009959000">
        <ele>1725.410</ele>
        <time>2015-02-07T19:31:44Z</time>
        <name>WPT.291</name>
      </trkpt>
      <trkpt lat="33.986696000" lon="-107.009891000">
        <ele>1723.760</ele>
        <time>2015-02-07T19:31:45Z</time>
        <name>WPT.292</name>
      </trkpt>
      <trkpt lat="33.986669000" lon="-107.009854000">
        <ele>1721.540</ele>
        <time>2015-02-07T19:31:46Z</time>
        <name>WPT.293</name>
      </trkpt>
      <trkpt lat="33.986654000" lon="-107.009835000">
        <ele>1721.870</ele>
        <time>2015-02-07T19:31:47Z</time>
        <name>WPT.294</name>
      </trkpt>
      <trkpt lat="33.986637000" lon="-107.009812000">
        <ele>1721.810</ele>
        <time>2015-02-07T19:31:48Z</time>
        <name>WPT.295</name>
      </trkpt>
      <trkpt lat="33.986614000" lon="-107.009782000">
        <ele>1721.840</ele>
        <time>2015-02-07T19:31:49Z</time>
        <name>WPT.296</name>
      </trkpt>
      <trkpt lat="33.986574000" lon="-107.009735000">
        <ele>1722.070</ele>
        <time>2015-02-07T19:31:50Z</time>
        <name>WPT.297</name>
      </trkpt>
      <trkpt lat="33.986511000" lon="-107.009676000">
        <ele>1724.260</ele>
        <time>2015-02-07T19:31:51Z</time>
        <name>WPT.298</name>
      </trkpt>
      <trkpt lat="33.986427000" lon="-107.009619000">
        <ele>1726.730</ele>
        <time>2015-02-07T19:31:52Z</time>
        <name>WPT.299</name>
      </trkpt>
      <trkpt lat="33.986327000" lon="-107.009565000">
        <ele>1727.920</ele>
        <time>2015-02-07T19:31:53Z</time>
        <name>WPT.300</name>
      </trkpt>
      <trkpt lat="33.986213000" lon="-107.009515000">
        <ele>1727.340</ele>
        <time>2015-02-07T19:31:54Z</time>
        <name>WPT.301</name>
      </trkpt>
      <trkpt lat="33.986087000" lon="-107.009468000">
        <ele>1727.450</ele>
        <time>2015-02-07T19:31:55Z</time>
        <name>WPT.302</name>
      </trkpt>
      <trkpt lat="33.985955000" lon="-107.009423000">
        <ele>1728.530</ele>
        <time>2015-02-07T19:31:56Z</time>
        <name>WPT.303</name>
      </trkpt>
      <trkpt lat="33.985816000" lon="-107.009377000">
        <ele>1729.220</ele>
        <time>2015-02-07T19:31:57Z</time>
        <name>WPT.304</name>
      </trkpt>
      <trkpt lat="33.985672000" lon="-107.009328000">
        <ele>1729.320</ele>
        <time>2015-02-07T19:31:58Z</time>
        <name>WPT.305</name>
      </trkpt>
      <trkpt lat="33.985523000" lon="-107.009278000">
        <ele>1730.300</ele>
        <time>2015-02-07T19:31:59Z</time>
        <name>WPT.306</name>
      </trkpt>
      <trkpt lat="33.985370000" lon="-107.009228000">
        <ele>1733.330</ele>
        <time>2015-02-07T19:32:00Z</time>
        <name>WPT.307</name>
      </trkpt>
      <trkpt lat="33.985217000" lon="-107.009175000">
        <ele>1733.710</ele>
        <time>2015-02-07T19:32:01Z</time>
        <name>WPT.308</name>
      </trkpt>
      <trkpt lat="33.985067000" lon="-107.009120000">
        <ele>1733.590</ele>
        <time>2015-02-07T19:32:02Z</time>
        <name>WPT.309</name>
      </trkpt>
      <trkpt lat="33.984916000" lon="-107.009065000">
        <ele>1733.270</ele>
        <time>2015-02-07T19:32:03Z</time>
        <name>WPT.310</name>
      </trkpt>
      <trkpt lat="33.984766000" lon="-107.009011000">
        <ele>1730.990</ele>
        <time>2015-02-07T19:32:04Z</time>
        <name>WPT.311</name>
      </trkpt>
      <trkpt lat="33.984617000" lon="-107.008958000">
        <ele>1731.180</ele>
        <time>2015-02-07T19:32:05Z</time>
        <name>WPT.312</name>
      </trkpt>
      <trkpt lat="33.984472000" lon="-107.008909000">
        <ele>1731.370</ele>
        <time>2015-02-07T19:32:06Z</time>
        <name>WPT.313</name>
      </trkpt>
      <trkpt lat="33.984328000" lon="-107.008869000">
        <ele>1731.360</ele>
        <time>2015-02-07T19:32:07Z</time>
        <name>WPT.314</name>
      </trkpt>
      <trkpt lat="33.984184000" lon="-107.008838000">
        <ele>1732.240</ele>
        <time>2015-02-07T19:32:08Z</time>
        <name>WPT.315</name>
      </trkpt>
      <trkpt lat="33.984044000" lon="-107.008818000">
        <ele>1732.810</ele>
        <time>2015-02-07T19:32:09Z</time>
        <name>WPT.316</name>
      </trkpt>
      <trkpt lat="33.983915000" lon="-107.008806000">
        <ele>1732.510</ele>
        <time>2015-02-07T19:32:10Z</time>
        <name>WPT.317</name>
      </trkpt>
      <trkpt lat="33.983807000" lon="-107.008800000">
        <ele>1730.340</ele>
        <time>2015-02-07T19:32:11Z</time>
        <name>WPT.318</name>
      </trkpt>
      <trkpt lat="33.983722000" lon="-107.008798000">
        <ele>1727.590</ele>
        <time>2015-02-07T19:32:12Z</time>
        <name>WPT.319</name>
      </trkpt>
      <trkpt lat="33.983663000" lon="-107.008798000">
        <ele>1726.430</ele>
        <time>2015-02-07T19:32:13Z</time>
        <name>WPT.320</name>
      </trkpt>
      <trkpt lat="33.983620000" lon="-107.008798000">
        <ele>1726.340</ele>
        <time>2015-02-07T19:32:14Z</time>
        <name>WPT.321</name>
      </trkpt>
      <trkpt lat="33.983585000" lon="-107.008797000">
        <ele>1726.360</ele>
        <time>2015-02-07T19:32:15Z</time>
        <name>WPT.322</name>
      </trkpt>
      <trkpt lat="33.983552000" lon="-107.008795000">
        <ele>1726.280</ele>
        <time>2015-02-07T19:32:16Z</time>
        <name>WPT.323</name>
      </trkpt>
      <trkpt lat="33.983518000" lon="-107.008791000">
        <ele>1726.300</ele>
        <time>2015-02-07T19:32:17Z</time>
        <name>WPT.324</name>
      </trkpt>
      <trkpt lat="33.983474000" lon="-107.008785000">
        <ele>1726.410</ele>
        <time>2015-02-07T19:32:18Z</time>
        <name>WPT.325</name>
      </trkpt>
      <trkpt lat="33.983409000" lon="-107.008773000">
        <ele>1726.630</ele>
        <time>2015-02-07T19:32:19Z</time>
        <name>WPT.326</name>
      </trkpt>
      <trkpt lat="33.983329000" lon="-107.008754000">
        <ele>1728.310</ele>
        <time>2015-02-07T19:32:20Z</time>
        <name>WPT.327</name>
      </trkpt>
      <trkpt lat="33.983238000" lon="-107.008728000">
        <ele>1728.610</ele>
        <time>2015-02-07T19:32:21Z</time>
        <name>WPT.328</name>
      </trkpt>
      <trkpt lat="33.983142000" lon="-107.008693000">
        <ele>1728.520</ele>
        <time>2015-02-07T19:32:22Z</time>
        <name>WPT.329</name>
      </trkpt>
      <trkpt lat="33.983044000" lon="-107.008655000">
        <ele>1728.430</ele>
        <time>2015-02-07T19:32:23Z</time>
        <name>WPT.330</name>
      </trkpt>
      <trkpt lat="33.982944000" lon="-107.008618000">
        <ele>1728.340</ele>
        <time>2015-02-07T19:32:24Z</time>
        <name>WPT.331</name>
      </trkpt>
      <trkpt lat="33.982844000" lon="-107.008580000">
        <ele>1728.450</ele>
        <time>2015-02-07T19:32:25Z</time>
        <name>WPT.332</name>
      </trkpt>
      <trkpt lat="33.982741000" lon="-107.008539000">
        <ele>1728.160</ele>
        <time>2015-02-07T19:32:26Z</time>
        <name>WPT.333</name>
      </trkpt>
      <trkpt lat="33.982643000" lon="-107.008495000">
        <ele>1727.290</ele>
        <time>2015-02-07T19:32:27Z</time>
        <name>WPT.334</name>
      </trkpt>
      <trkpt lat="33.982550000" lon="-107.008449000">
        <ele>1727.400</ele>
        <time>2015-02-07T19:32:28Z</time>
        <name>WPT.335</name>
      </trkpt>
      <trkpt lat="33.982457000" lon="-107.008399000">
        <ele>1727.420</ele>
        <time>2015-02-07T19:32:29Z</time>
        <name>WPT.336</name>
      </trkpt>
      <trkpt lat="33.982361000" lon="-107.008348000">
        <ele>1727.430</ele>
        <time>2015-02-07T19:32:30Z</time>
        <name>WPT.337</name>
      </trkpt>
      <trkpt lat="33.982263000" lon="-107.008296000">
        <ele>1727.440</ele>
        <time>2015-02-07T19:32:31Z</time>
        <name>WPT.338</name>
      </trkpt>
      <trkpt lat="33.982165000" lon="-107.008244000">
        <ele>1727.450</ele>
        <time>2015-02-07T19:32:32Z</time>
        <name>WPT.339</name>
      </trkpt>
      <trkpt lat="33.982068000" lon="-107.008191000">
        <ele>1727.360</ele>
        <time>2015-02-07T19:32:33Z</time>
        <name>WPT.340</name>
      </trkpt>
      <trkpt lat="33.981971000" lon="-107.008137000">
        <ele>1727.760</ele>
        <time>2015-02-07T19:32:34Z</time>
        <name>WPT.341</name>
      </trkpt>
      <trkpt lat="33.981872000" lon="-107.008084000">
        <ele>1730.020</ele>
        <time>2015-02-07T19:32:35Z</time>
        <name>WPT.342</name>
      </trkpt>
      <trkpt lat="33.981768000" lon="-107.008031000">
        <ele>1730.900</ele>
        <time>2015-02-07T19:32:36Z</time>
        <name>WPT.343</name>
      </trkpt>
      <trkpt lat="33.981658000" lon="-107.007976000">
        <ele>1731.090</ele>
        <time>2015-02-07T19:32:37Z</time>
        <name>WPT.344</name>
      </trkpt>
      <trkpt lat="33.981543000" lon="-107.007923000">
        <ele>1731.080</ele>
        <time>2015-02-07T19:32:38Z</time>
        <name>WPT.345</name>
      </trkpt>
      <trkpt lat="33.981425000" lon="-107.007872000">
        <ele>1731.270</ele>
        <time>2015-02-07T19:32:39Z</time>
        <name>WPT.346</name>
      </trkpt>
      <trkpt lat="33.981303000" lon="-107.007827000">
        <ele>1731.850</ele>
        <time>2015-02-07T19:32:40Z</time>
        <name>WPT.347</name>
      </trkpt>
      <trkpt lat="33.981177000" lon="-107.007787000">
        <ele>1732.130</ele>
        <time>2015-02-07T19:32:41Z</time>
        <name>WPT.348</name>
      </trkpt>
      <trkpt lat="33.981051000" lon="-107.007751000">
        <ele>1732.220</ele>
        <time>2015-02-07T19:32:42Z</time>
        <name>WPT.349</name>
      </trkpt>
      <trkpt lat="33.980927000" lon="-107.007706000">
        <ele>1732.700</ele>
        <time>2015-02-07T19:32:43Z</time>
        <name>WPT.350</name>
      </trkpt>
      <trkpt lat="33.980807000" lon="-107.007643000">
        <ele>1734.850</ele>
        <time>2015-02-07T19:32:44Z</time>
        <name>WPT.351</name>
      </trkpt>
      <trkpt lat="33.980694000" lon="-107.007558000">
        <ele>1734.250</ele>
        <time>2015-02-07T19:32:45Z</time>
        <name>WPT.352</name>
      </trkpt>
      <trkpt lat="33.980586000" lon="-107.007461000">
        <ele>1734.330</ele>
        <time>2015-02-07T19:32:46Z</time>
        <name>WPT.353</name>
      </trkpt>
      <trkpt lat="33.980483000" lon="-107.007365000">
        <ele>1734.520</ele>
        <time>2015-02-07T19:32:47Z</time>
        <name>WPT.354</name>
      </trkpt>
      <trkpt lat="33.980377000" lon="-107.007277000">
        <ele>1734.900</ele>
        <time>2015-02-07T19:32:48Z</time>
        <name>WPT.355</name>
      </trkpt>
      <trkpt lat="33.980261000" lon="-107.007199000">
        <ele>1736.260</ele>
        <time>2015-02-07T19:32:49Z</time>
        <name>WPT.356</name>
      </trkpt>
      <trkpt lat="33.980132000" lon="-107.007133000">
        <ele>1737.620</ele>
        <time>2015-02-07T19:32:50Z</time>
        <name>WPT.357</name>
      </trkpt>
      <trkpt lat="33.979996000" lon="-107.007075000">
        <ele>1737.600</ele>
        <time>2015-02-07T19:32:51Z</time>
        <name>WPT.358</name>
      </trkpt>
      <trkpt lat="33.979864000" lon="-107.007022000">
        <ele>1737.970</ele>
        <time>2015-02-07T19:32:52Z</time>
        <name>WPT.359</name>
      </trkpt>
      <trkpt lat="33.979747000" lon="-107.006970000">
        <ele>1738.050</ele>
        <time>2015-02-07T19:32:53Z</time>
        <name>WPT.360</name>
      </trkpt>
      <trkpt lat="33.979645000" lon="-107.006906000">
        <ele>1737.940</ele>
        <time>2015-02-07T19:32:54Z</time>
        <name>WPT.361</name>
      </trkpt>
      <trkpt lat="33.979555000" lon="-107.006822000">
        <ele>1737.630</ele>
        <time>2015-02-07T19:32:55Z</time>
        <name>WPT.362</name>
      </trkpt>
      <trkpt lat="33.979477000" lon="-107.006722000">
        <ele>1735.160</ele>
        <time>2015-02-07T19:32:56Z</time>
        <name>WPT.363</name>
      </trkpt>
      <trkpt lat="33.979408000" lon="-107.006617000">
        <ele>1733.200</ele>
        <time>2015-02-07T19:32:57Z</time>
        <name>WPT.364</name>
      </trkpt>
      <trkpt lat="33.979330000" lon="-107.006515000">
        <ele>1734.970</ele>
        <time>2015-02-07T19:32:58Z</time>
        <name>WPT.365</name>
      </trkpt>
      <trkpt lat="33.979236000" lon="-107.006428000">
        <ele>1737.220</ele>
        <time>2015-02-07T19:32:59Z</time>
        <name>WPT.366</name>
      </trkpt>
      <trkpt lat="33.979130000" lon="-107.006354000">
        <ele>1737.610</ele>
        <time>2015-02-07T19:33:00Z</time>
        <name>WPT.367</name>
      </trkpt>
      <trkpt lat="33.979018000" lon="-107.006291000">
        <ele>1740.440</ele>
        <time>2015-02-07T19:33:01Z</time>
        <name>WPT.368</name>
      </trkpt>
      <trkpt lat="33.978902000" lon="-107.006228000">
        <ele>1742.000</ele>
        <time>2015-02-07T19:33:02Z</time>
        <name>WPT.369</name>
      </trkpt>
      <trkpt lat="33.978788000" lon="-107.006163000">
        <ele>1744.930</ele>
        <time>2015-02-07T19:33:03Z</time>
        <name>WPT.370</name>
      </trkpt>
      <trkpt lat="33.978679000" lon="-107.006098000">
        <ele>1744.310</ele>
        <time>2015-02-07T19:33:04Z</time>
        <name>WPT.371</name>
      </trkpt>
      <trkpt lat="33.978578000" lon="-107.006031000">
        <ele>1744.290</ele>
        <time>2015-02-07T19:33:05Z</time>
        <name>WPT.372</name>
      </trkpt>
      <trkpt lat="33.978483000" lon="-107.005965000">
        <ele>1744.180</ele>
        <time>2015-02-07T19:33:06Z</time>
        <name>WPT.373</name>
      </trkpt>
      <trkpt lat="33.978391000" lon="-107.005900000">
        <ele>1744.160</ele>
        <time>2015-02-07T19:33:07Z</time>
        <name>WPT.374</name>
      </trkpt>
      <trkpt lat="33.978297000" lon="-107.005843000">
        <ele>1744.140</ele>
        <time>2015-02-07T19:33:08Z</time>
        <name>WPT.375</name>
      </trkpt>
      <trkpt lat="33.978199000" lon="-107.005801000">
        <ele>1744.030</ele>
        <time>2015-02-07T19:33:09Z</time>
        <name>WPT.376</name>
      </trkpt>
      <trkpt lat="33.978102000" lon="-107.005777000">
        <ele>1743.810</ele>
        <time>2015-02-07T19:33:10Z</time>
        <name>WPT.377</name>
      </trkpt>
      <trkpt lat="33.978006000" lon="-107.005770000">
        <ele>1743.690</ele>
        <time>2015-02-07T19:33:11Z</time>
        <name>WPT.378</name>
      </trkpt>
      <trkpt lat="33.977910000" lon="-107.005778000">
        <ele>1743.480</ele>
        <time>2015-02-07T19:33:12Z</time>
        <name>WPT.379</name>
      </trkpt>
      <trkpt lat="33.977812000" lon="-107.005800000">
        <ele>1743.470</ele>
        <time>2015-02-07T19:33:13Z</time>
        <name>WPT.380</name>
      </trkpt>
      <trkpt lat="33.977715000" lon="-107.005827000">
        <ele>1743.560</ele>
        <time>2015-02-07T19:33:14Z</time>
        <name>WPT.381</name>
      </trkpt>
      <trkpt lat="33.977617000" lon="-107.005853000">
        <ele>1743.750</ele>
        <time>2015-02-07T19:33:15Z</time>
        <name>WPT.382</name>
      </trkpt>
      <trkpt lat="33.977518000" lon="-107.005872000">
        <ele>1743.740</ele>
        <time>2015-02-07T19:33:16Z</time>
        <name>WPT.383</name>
      </trkpt>
      <trkpt lat="33.977418000" lon="-107.005876000">
        <ele>1743.740</ele>
        <time>2015-02-07T19:33:17Z</time>
        <name>WPT.384</name>
      </trkpt>
      <trkpt lat="33.977320000" lon="-107.005857000">
        <ele>1743.730</ele>
        <time>2015-02-07T19:33:18Z</time>
        <name>WPT.385</name>
      </trkpt>
      <trkpt lat="33.977223000" lon="-107.005818000">
        <ele>1743.730</ele>
        <time>2015-02-07T19:33:19Z</time>
        <name>WPT.386</name>
      </trkpt>
      <trkpt lat="33.977129000" lon="-107.005763000">
        <ele>1743.830</ele>
        <time>2015-02-07T19:33:20Z</time>
        <name>WPT.387</name>
      </trkpt>
      <trkpt lat="33.977032000" lon="-107.005694000">
        <ele>1745.990</ele>
        <time>2015-02-07T19:33:21Z</time>
        <name>WPT.388</name>
      </trkpt>
      <trkpt lat="33.976931000" lon="-107.005611000">
        <ele>1748.430</ele>
        <time>2015-02-07T19:33:22Z</time>
        <name>WPT.389</name>
      </trkpt>
      <trkpt lat="33.976825000" lon="-107.005523000">
        <ele>1748.420</ele>
        <time>2015-02-07T19:33:23Z</time>
        <name>WPT.390</name>
      </trkpt>
      <trkpt lat="33.976719000" lon="-107.005438000">
        <ele>1748.510</ele>
        <time>2015-02-07T19:33:24Z</time>
        <name>WPT.391</name>
      </trkpt>
      <trkpt lat="33.976616000" lon="-107.005356000">
        <ele>1749.670</ele>
        <time>2015-02-07T19:33:25Z</time>
        <name>WPT.392</name>
      </trkpt>
      <trkpt lat="33.976518000" lon="-107.005275000">
        <ele>1749.950</ele>
        <time>2015-02-07T19:33:26Z</time>
        <name>WPT.393</name>
      </trkpt>
      <trkpt lat="33.976425000" lon="-107.005196000">
        <ele>1749.060</ele>
        <time>2015-02-07T19:33:27Z</time>
        <name>WPT.394</name>
      </trkpt>
      <trkpt lat="33.976327000" lon="-107.005110000">
        <ele>1748.360</ele>
        <time>2015-02-07T19:33:28Z</time>
        <name>WPT.395</name>
      </trkpt>
      <trkpt lat="33.976230000" lon="-107.005009000">
        <ele>1748.460</ele>
        <time>2015-02-07T19:33:29Z</time>
        <name>WPT.396</name>
      </trkpt>
      <trkpt lat="33.976140000" lon="-107.004895000">
        <ele>1749.040</ele>
        <time>2015-02-07T19:33:30Z</time>
        <name>WPT.397</name>
      </trkpt>
      <trkpt lat="33.976055000" lon="-107.004769000">
        <ele>1750.400</ele>
        <time>2015-02-07T19:33:31Z</time>
        <name>WPT.398</name>
      </trkpt>
      <trkpt lat="33.975969000" lon="-107.004632000">
        <ele>1750.280</ele>
        <time>2015-02-07T19:33:32Z</time>
        <name>WPT.399</name>
      </trkpt>
      <trkpt lat="33.975890000" lon="-107.004492000">
        <ele>1750.560</ele>
        <time>2015-02-07T19:33:33Z</time>
        <name>WPT.400</name>
      </trkpt>
      <trkpt lat="33.975820000" lon="-107.004356000">
        <ele>1751.230</ele>
        <time>2015-02-07T19:33:34Z</time>
        <name>WPT.401</name>
      </trkpt>
      <trkpt lat="33.975759000" lon="-107.004226000">
        <ele>1751.110</ele>
        <time>2015-02-07T19:33:35Z</time>
        <name>WPT.402</name>
      </trkpt>
      <trkpt lat="33.975704000" lon="-107.004097000">
        <ele>1750.890</ele>
        <time>2015-02-07T19:33:36Z</time>
        <name>WPT.403</name>
      </trkpt>
      <trkpt lat="33.975648000" lon="-107.003964000">
        <ele>1750.780</ele>
        <time>2015-02-07T19:33:37Z</time>
        <name>WPT.404</name>
      </trkpt>
      <trkpt lat="33.975588000" lon="-107.003823000">
        <ele>1749.780</ele>
        <time>2015-02-07T19:33:38Z</time>
        <name>WPT.405</name>
      </trkpt>
      <trkpt lat="33.975523000" lon="-107.003677000">
        <ele>1748.300</ele>
        <time>2015-02-07T19:33:39Z</time>
        <name>WPT.406</name>
      </trkpt>
      <trkpt lat="33.975453000" lon="-107.003526000">
        <ele>1746.820</ele>
        <time>2015-02-07T19:33:40Z</time>
        <name>WPT.407</name>
      </trkpt>
      <trkpt lat="33.975375000" lon="-107.003374000">
        <ele>1747.500</ele>
        <time>2015-02-07T19:33:41Z</time>
        <name>WPT.408</name>
      </trkpt>
      <trkpt lat="33.975288000" lon="-107.003224000">
        <ele>1747.890</ele>
        <time>2015-02-07T19:33:42Z</time>
        <name>WPT.409</name>
      </trkpt>
      <trkpt lat="33.975191000" lon="-107.003077000">
        <ele>1750.040</ele>
        <time>2015-02-07T19:33:43Z</time>
        <name>WPT.410</name>
      </trkpt>
      <trkpt lat="33.975088000" lon="-107.002934000">
        <ele>1750.420</ele>
        <time>2015-02-07T19:33:44Z</time>
        <name>WPT.411</name>
      </trkpt>
      <trkpt lat="33.974979000" lon="-107.002793000">
        <ele>1750.690</ele>
        <time>2015-02-07T19:33:45Z</time>
        <name>WPT.412</name>
      </trkpt>
      <trkpt lat="33.974865000" lon="-107.002656000">
        <ele>1750.970</ele>
        <time>2015-02-07T19:33:46Z</time>
        <name>WPT.413</name>
      </trkpt>
      <trkpt lat="33.974743000" lon="-107.002524000">
        <ele>1751.540</ele>
        <time>2015-02-07T19:33:47Z</time>
        <name>WPT.414</name>
      </trkpt>
      <trkpt lat="33.974612000" lon="-107.002404000">
        <ele>1751.320</ele>
        <time>2015-02-07T19:33:48Z</time>
        <name>WPT.415</name>
      </trkpt>
      <trkpt lat="33.974474000" lon="-107.002298000">
        <ele>1748.750</ele>
        <time>2015-02-07T19:33:49Z</time>
        <name>WPT.416</name>
      </trkpt>
      <trkpt lat="33.974331000" lon="-107.002205000">
        <ele>1747.460</ele>
        <time>2015-02-07T19:33:50Z</time>
        <name>WPT.417</name>
      </trkpt>
      <trkpt lat="33.974190000" lon="-107.002113000">
        <ele>1748.240</ele>
        <time>2015-02-07T19:33:51Z</time>
        <name>WPT.418</name>
      </trkpt>
      <trkpt lat="33.974053000" lon="-107.002014000">
        <ele>1747.840</ele>
        <time>2015-02-07T19:33:52Z</time>
        <name>WPT.419</name>
      </trkpt>
      <trkpt lat="33.973924000" lon="-107.001914000">
        <ele>1747.830</ele>
        <time>2015-02-07T19:33:53Z</time>
        <name>WPT.420</name>
      </trkpt>
      <trkpt lat="33.973798000" lon="-107.001811000">
        <ele>1747.720</ele>
        <time>2015-02-07T19:33:54Z</time>
        <name>WPT.421</name>
      </trkpt>
      <trkpt lat="33.973669000" lon="-107.001703000">
        <ele>1747.120</ele>
        <time>2015-02-07T19:33:55Z</time>
        <name>WPT.422</name>
      </trkpt>
      <trkpt lat="33.973546000" lon="-107.001585000">
        <ele>1747.110</ele>
        <time>2015-02-07T19:33:56Z</time>
        <name>WPT.423</name>
      </trkpt>
      <trkpt lat="33.973434000" lon="-107.001453000">
        <ele>1747.000</ele>
        <time>2015-02-07T19:33:57Z</time>
        <name>WPT.424</name>
      </trkpt>
      <trkpt lat="33.973334000" lon="-107.001307000">
        <ele>1745.120</ele>
        <time>2015-02-07T19:33:58Z</time>
        <name>WPT.425</name>
      </trkpt>
      <trkpt lat="33.973250000" lon="-107.001147000">
        <ele>1742.170</ele>
        <time>2015-02-07T19:33:59Z</time>
        <name>WPT.426</name>
      </trkpt>
      <trkpt lat="33.973178000" lon="-107.000974000">
        <ele>1742.560</ele>
        <time>2015-02-07T19:34:00Z</time>
        <name>WPT.427</name>
      </trkpt>
      <trkpt lat="33.973117000" lon="-107.000787000">
        <ele>1742.660</ele>
        <time>2015-02-07T19:34:01Z</time>
        <name>WPT.428</name>
      </trkpt>
      <trkpt lat="33.973065000" lon="-107.000590000">
        <ele>1744.030</ele>
        <time>2015-02-07T19:34:02Z</time>
        <name>WPT.429</name>
      </trkpt>
      <trkpt lat="33.973024000" lon="-107.000386000">
        <ele>1743.440</ele>
        <time>2015-02-07T19:34:03Z</time>
        <name>WPT.430</name>
      </trkpt>
      <trkpt lat="33.972988000" lon="-107.000180000">
        <ele>1743.430</ele>
        <time>2015-02-07T19:34:04Z</time>
        <name>WPT.431</name>
      </trkpt>
      <trkpt lat="33.972953000" lon="-106.999975000">
        <ele>1742.930</ele>
        <time>2015-02-07T19:34:05Z</time>
        <name>WPT.432</name>
      </trkpt>
      <trkpt lat="33.972918000" lon="-106.999783000">
        <ele>1737.040</ele>
        <time>2015-02-07T19:34:06Z</time>
        <name>WPT.433</name>
      </trkpt>
      <trkpt lat="33.972884000" lon="-106.999609000">
        <ele>1733.120</ele>
        <time>2015-02-07T19:34:07Z</time>
        <name>WPT.434</name>
      </trkpt>
      <trkpt lat="33.972843000" lon="-106.999451000">
        <ele>1733.240</ele>
        <time>2015-02-07T19:34:08Z</time>
        <name>WPT.435</name>
      </trkpt>
      <trkpt lat="33.972793000" lon="-106.999302000">
        <ele>1733.160</ele>
        <time>2015-02-07T19:34:09Z</time>
        <name>WPT.436</name>
      </trkpt>
      <trkpt lat="33.972731000" lon="-106.999162000">
        <ele>1733.080</ele>
        <time>2015-02-07T19:34:10Z</time>
        <name>WPT.437</name>
      </trkpt>
      <trkpt lat="33.972656000" lon="-106.999027000">
        <ele>1733.090</ele>
        <time>2015-02-07T19:34:11Z</time>
        <name>WPT.438</name>
      </trkpt>
      <trkpt lat="33.972575000" lon="-106.998894000">
        <ele>1733.110</ele>
        <time>2015-02-07T19:34:12Z</time>
        <name>WPT.439</name>
      </trkpt>
      <trkpt lat="33.972494000" lon="-106.998762000">
        <ele>1733.120</ele>
        <time>2015-02-07T19:34:13Z</time>
        <name>WPT.440</name>
      </trkpt>
      <trkpt lat="33.972416000" lon="-106.998626000">
        <ele>1733.230</ele>
        <time>2015-02-07T19:34:14Z</time>
        <name>WPT.441</name>
      </trkpt>
      <trkpt lat="33.972343000" lon="-106.998490000">
        <ele>1733.240</ele>
        <time>2015-02-07T19:34:15Z</time>
        <name>WPT.442</name>
      </trkpt>
      <trkpt lat="33.972275000" lon="-106.998352000">
        <ele>1733.150</ele>
        <time>2015-02-07T19:34:16Z</time>
        <name>WPT.443</name>
      </trkpt>
      <trkpt lat="33.972218000" lon="-106.998209000">
        <ele>1733.160</ele>
        <time>2015-02-07T19:34:17Z</time>
        <name>WPT.444</name>
      </trkpt>
      <trkpt lat="33.972169000" lon="-106.998062000">
        <ele>1733.170</ele>
        <time>2015-02-07T19:34:18Z</time>
        <name>WPT.445</name>
      </trkpt>
      <trkpt lat="33.972125000" lon="-106.997913000">
        <ele>1733.180</ele>
        <time>2015-02-07T19:34:19Z</time>
        <name>WPT.446</name>
      </trkpt>
      <trkpt lat="33.972079000" lon="-106.997763000">
        <ele>1733.090</ele>
        <time>2015-02-07T19:34:20Z</time>
        <name>WPT.447</name>
      </trkpt>
      <trkpt lat="33.972032000" lon="-106.997612000">
        <ele>1732.890</ele>
        <time>2015-02-07T19:34:21Z</time>
        <name>WPT.448</name>
      </trkpt>
      <trkpt lat="33.971985000" lon="-106.997464000">
        <ele>1732.410</ele>
        <time>2015-02-07T19:34:22Z</time>
        <name>WPT.449</name>
      </trkpt>
      <trkpt lat="33.971940000" lon="-106.997317000">
        <ele>1731.040</ele>
        <time>2015-02-07T19:34:23Z</time>
        <name>WPT.450</name>
      </trkpt>
      <trkpt lat="33.971897000" lon="-106.997166000">
        <ele>1730.560</ele>
        <time>2015-02-07T19:34:24Z</time>
        <name>WPT.451</name>
      </trkpt>
      <trkpt lat="33.971855000" lon="-106.997015000">
        <ele>1730.760</ele>
        <time>2015-02-07T19:34:25Z</time>
        <name>WPT.452</name>
      </trkpt>
      <trkpt lat="33.971812000" lon="-106.996866000">
        <ele>1731.160</ele>
        <time>2015-02-07T19:34:26Z</time>
        <name>WPT.453</name>
      </trkpt>
      <trkpt lat="33.971762000" lon="-106.996722000">
        <ele>1730.880</ele>
        <time>2015-02-07T19:34:27Z</time>
        <name>WPT.454</name>
      </trkpt>
      <trkpt lat="33.971712000" lon="-106.996584000">
        <ele>1731.570</ele>
        <time>2015-02-07T19:34:28Z</time>
        <name>WPT.455</name>
      </trkpt>
      <trkpt lat="33.971664000" lon="-106.996449000">
        <ele>1730.390</ele>
        <time>2015-02-07T19:34:29Z</time>
        <name>WPT.456</name>
      </trkpt>
      <trkpt lat="33.971620000" lon="-106.996315000">
        <ele>1730.010</ele>
        <time>2015-02-07T19:34:30Z</time>
        <name>WPT.457</name>
      </trkpt>
      <trkpt lat="33.971576000" lon="-106.996183000">
        <ele>1730.010</ele>
        <time>2015-02-07T19:34:31Z</time>
        <name>WPT.458</name>
      </trkpt>
      <trkpt lat="33.971534000" lon="-106.996058000">
        <ele>1729.720</ele>
        <time>2015-02-07T19:34:32Z</time>
        <name>WPT.459</name>
      </trkpt>
      <trkpt lat="33.971496000" lon="-106.995942000">
        <ele>1728.940</ele>
        <time>2015-02-07T19:34:33Z</time>
        <name>WPT.460</name>
      </trkpt>
      <trkpt lat="33.971456000" lon="-106.995834000">
        <ele>1728.560</ele>
        <time>2015-02-07T19:34:34Z</time>
        <name>WPT.461</name>
      </trkpt>
      <trkpt lat="33.971413000" lon="-106.995726000">
        <ele>1728.270</ele>
        <time>2015-02-07T19:34:35Z</time>
        <name>WPT.462</name>
      </trkpt>
      <trkpt lat="33.971367000" lon="-106.995614000">
        <ele>1728.180</ele>
        <time>2015-02-07T19:34:36Z</time>
        <name>WPT.463</name>
      </trkpt>
      <trkpt lat="33.971316000" lon="-106.995497000">
        <ele>1728.190</ele>
        <time>2015-02-07T19:34:37Z</time>
        <name>WPT.464</name>
      </trkpt>
      <trkpt lat="33.971264000" lon="-106.995376000">
        <ele>1728.190</ele>
        <time>2015-02-07T19:34:38Z</time>
        <name>WPT.465</name>
      </trkpt>
      <trkpt lat="33.971210000" lon="-106.995258000">
        <ele>1728.200</ele>
        <time>2015-02-07T19:34:39Z</time>
        <name>WPT.466</name>
      </trkpt>
      <trkpt lat="33.971155000" lon="-106.995143000">
        <ele>1728.110</ele>
        <time>2015-02-07T19:34:40Z</time>
        <name>WPT.467</name>
      </trkpt>
      <trkpt lat="33.971097000" lon="-106.995035000">
        <ele>1728.120</ele>
        <time>2015-02-07T19:34:41Z</time>
        <name>WPT.468</name>
      </trkpt>
      <trkpt lat="33.971035000" lon="-106.994937000">
        <ele>1728.120</ele>
        <time>2015-02-07T19:34:42Z</time>
        <name>WPT.469</name>
      </trkpt>
      <trkpt lat="33.970966000" lon="-106.994854000">
        <ele>1728.130</ele>
        <time>2015-02-07T19:34:43Z</time>
        <name>WPT.470</name>
      </trkpt>
      <trkpt lat="33.970894000" lon="-106.994784000">
        <ele>1728.430</ele>
        <time>2015-02-07T19:34:44Z</time>
        <name>WPT.471</name>
      </trkpt>
      <trkpt lat="33.970817000" lon="-106.994728000">
        <ele>1728.730</ele>
        <time>2015-02-07T19:34:45Z</time>
        <name>WPT.472</name>
      </trkpt>
      <trkpt lat="33.970735000" lon="-106.994677000">
        <ele>1728.930</ele>
        <time>2015-02-07T19:34:46Z</time>
        <name>WPT.473</name>
      </trkpt>
      <trkpt lat="33.970647000" lon="-106.994633000">
        <ele>1729.420</ele>
        <time>2015-02-07T19:34:47Z</time>
        <name>WPT.474</name>
      </trkpt>
      <trkpt lat="33.970551000" lon="-106.994592000">
        <ele>1731.090</ele>
        <time>2015-02-07T19:34:48Z</time>
        <name>WPT.475</name>
      </trkpt>
      <trkpt lat="33.970450000" lon="-106.994551000">
        <ele>1731.490</ele>
        <time>2015-02-07T19:34:49Z</time>
        <name>WPT.476</name>
      </trkpt>
      <trkpt lat="33.970346000" lon="-106.994511000">
        <ele>1731.580</ele>
        <time>2015-02-07T19:34:50Z</time>
        <name>WPT.477</name>
      </trkpt>
      <trkpt lat="33.970240000" lon="-106.994473000">
        <ele>1731.580</ele>
        <time>2015-02-07T19:34:51Z</time>
        <name>WPT.478</name>
      </trkpt>
      <trkpt lat="33.970129000" lon="-106.994436000">
        <ele>1731.380</ele>
        <time>2015-02-07T19:34:52Z</time>
        <name>WPT.479</name>
      </trkpt>
      <trkpt lat="33.970019000" lon="-106.994392000">
        <ele>1731.380</ele>
        <time>2015-02-07T19:34:53Z</time>
        <name>WPT.480</name>
      </trkpt>
      <trkpt lat="33.969920000" lon="-106.994341000">
        <ele>1731.480</ele>
        <time>2015-02-07T19:34:54Z</time>
        <name>WPT.481</name>
      </trkpt>
      <trkpt lat="33.969825000" lon="-106.994285000">
        <ele>1731.580</ele>
        <time>2015-02-07T19:34:55Z</time>
        <name>WPT.482</name>
      </trkpt>
      <trkpt lat="33.969730000" lon="-106.994230000">
        <ele>1731.580</ele>
        <time>2015-02-07T19:34:56Z</time>
        <name>WPT.483</name>
      </trkpt>
      <trkpt lat="33.969638000" lon="-106.994174000">
        <ele>1731.770</ele>
        <time>2015-02-07T19:34:57Z</time>
        <name>WPT.484</name>
      </trkpt>
      <trkpt lat="33.969542000" lon="-106.994115000">
        <ele>1732.550</ele>
        <time>2015-02-07T19:34:58Z</time>
        <name>WPT.485</name>
      </trkpt>
      <trkpt lat="33.969436000" lon="-106.994053000">
        <ele>1732.940</ele>
        <time>2015-02-07T19:34:59Z</time>
        <name>WPT.486</name>
      </trkpt>
      <trkpt lat="33.969322000" lon="-106.993988000">
        <ele>1735.000</ele>
        <time>2015-02-07T19:35:00Z</time>
        <name>WPT.487</name>
      </trkpt>
      <trkpt lat="33.969198000" lon="-106.993920000">
        <ele>1737.240</ele>
        <time>2015-02-07T19:35:01Z</time>
        <name>WPT.488</name>
      </trkpt>
      <trkpt lat="33.969063000" lon="-106.993851000">
        <ele>1736.350</ele>
        <time>2015-02-07T19:35:02Z</time>
        <name>WPT.489</name>
      </trkpt>
      <trkpt lat="33.968918000" lon="-106.993780000">
        <ele>1736.330</ele>
        <time>2015-02-07T19:35:03Z</time>
        <name>WPT.490</name>
      </trkpt>
      <trkpt lat="33.968768000" lon="-106.993710000">
        <ele>1737.700</ele>
        <time>2015-02-07T19:35:04Z</time>
        <name>WPT.491</name>
      </trkpt>
      <trkpt lat="33.968620000" lon="-106.993638000">
        <ele>1737.890</ele>
        <time>2015-02-07T19:35:05Z</time>
        <name>WPT.492</name>
      </trkpt>
      <trkpt lat="33.968480000" lon="-106.993569000">
        <ele>1737.690</ele>
        <time>2015-02-07T19:35:06Z</time>
        <name>WPT.493</name>
      </trkpt>
      <trkpt lat="33.968354000" lon="-106.993504000">
        <ele>1736.700</ele>
        <time>2015-02-07T19:35:07Z</time>
        <name>WPT.494</name>
      </trkpt>
      <trkpt lat="33.968248000" lon="-106.993449000">
        <ele>1734.040</ele>
        <time>2015-02-07T19:35:08Z</time>
        <name>WPT.495</name>
      </trkpt>
      <trkpt lat="33.968157000" lon="-106.993400000">
        <ele>1733.640</ele>
        <time>2015-02-07T19:35:09Z</time>
        <name>WPT.496</name>
      </trkpt>
      <trkpt lat="33.968071000" lon="-106.993352000">
        <ele>1733.640</ele>
        <time>2015-02-07T19:35:10Z</time>
        <name>WPT.497</name>
      </trkpt>
      <trkpt lat="33.967983000" lon="-106.993301000">
        <ele>1735.210</ele>
        <time>2015-02-07T19:35:11Z</time>
        <name>WPT.498</name>
      </trkpt>
      <trkpt lat="33.967893000" lon="-106.993239000">
        <ele>1736.680</ele>
        <time>2015-02-07T19:35:12Z</time>
        <name>WPT.499</name>
      </trkpt>
      <trkpt lat="33.967808000" lon="-106.993161000">
        <ele>1737.550</ele>
        <time>2015-02-07T19:35:13Z</time>
        <name>WPT.500</name>
      </trkpt>
      <trkpt lat="33.967730000" lon="-106.993074000">
        <ele>1737.650</ele>
        <time>2015-02-07T19:35:14Z</time>
        <name>WPT.501</name>
      </trkpt>
      <trkpt lat="33.967659000" lon="-106.992986000">
        <ele>1737.740</ele>
        <time>2015-02-07T19:35:15Z</time>
        <name>WPT.502</name>
      </trkpt>
      <trkpt lat="33.967589000" lon="-106.992899000">
        <ele>1737.730</ele>
        <time>2015-02-07T19:35:16Z</time>
        <name>WPT.503</name>
      </trkpt>
      <trkpt lat="33.967514000" lon="-106.992815000">
        <ele>1737.730</ele>
        <time>2015-02-07T19:35:17Z</time>
        <name>WPT.504</name>
      </trkpt>
      <trkpt lat="33.967428000" lon="-106.992740000">
        <ele>1737.620</ele>
        <time>2015-02-07T19:35:18Z</time>
        <name>WPT.505</name>
      </trkpt>
      <trkpt lat="33.967331000" lon="-106.992683000">
        <ele>1737.620</ele>
        <time>2015-02-07T19:35:19Z</time>
        <name>WPT.506</name>
      </trkpt>
      <trkpt lat="33.967226000" lon="-106.992645000">
        <ele>1737.610</ele>
        <time>2015-02-07T19:35:20Z</time>
        <name>WPT.507</name>
      </trkpt>
      <trkpt lat="33.967113000" lon="-106.992620000">
        <ele>1737.610</ele>
        <time>2015-02-07T19:35:21Z</time>
        <name>WPT.508</name>
      </trkpt>
      <trkpt lat="33.966995000" lon="-106.992599000">
        <ele>1737.510</ele>
        <time>2015-02-07T19:35:22Z</time>
        <name>WPT.509</name>
      </trkpt>
      <trkpt lat="33.966868000" lon="-106.992578000">
        <ele>1732.980</ele>
        <time>2015-02-07T19:35:23Z</time>
        <name>WPT.510</name>
      </trkpt>
      <trkpt lat="33.966734000" lon="-106.992559000">
        <ele>1732.000</ele>
        <time>2015-02-07T19:35:24Z</time>
        <name>WPT.511</name>
      </trkpt>
      <trkpt lat="33.966605000" lon="-106.992545000">
        <ele>1731.900</ele>
        <time>2015-02-07T19:35:25Z</time>
        <name>WPT.512</name>
      </trkpt>
      <trkpt lat="33.966490000" lon="-106.992536000">
        <ele>1730.130</ele>
        <time>2015-02-07T19:35:26Z</time>
        <name>WPT.513</name>
      </trkpt>
      <trkpt lat="33.966389000" lon="-106.992534000">
        <ele>1726.300</ele>
        <time>2015-02-07T19:35:27Z</time>
        <name>WPT.514</name>
      </trkpt>
      <trkpt lat="33.966291000" lon="-106.992536000">
        <ele>1726.200</ele>
        <time>2015-02-07T19:35:28Z</time>
        <name>WPT.515</name>
      </trkpt>
      <trkpt lat="33.966194000" lon="-106.992542000">
        <ele>1725.130</ele>
        <time>2015-02-07T19:35:29Z</time>
        <name>WPT.516</name>
      </trkpt>
      <trkpt lat="33.966109000" lon="-106.992551000">
        <ele>1724.540</ele>
        <time>2015-02-07T19:35:30Z</time>
        <name>WPT.517</name>
      </trkpt>
      <trkpt lat="33.966037000" lon="-106.992561000">
        <ele>1723.460</ele>
        <time>2015-02-07T19:35:31Z</time>
        <name>WPT.518</name>
      </trkpt>
      <trkpt lat="33.965965000" lon="-106.992575000">
        <ele>1723.270</ele>
        <time>2015-02-07T19:35:32Z</time>
        <name>WPT.519</name>
      </trkpt>
      <trkpt lat="33.965890000" lon="-106.992594000">
        <ele>1722.290</ele>
        <time>2015-02-07T19:35:33Z</time>
        <name>WPT.520</name>
      </trkpt>
      <trkpt lat="33.965814000" lon="-106.992615000">
        <ele>1720.820</ele>
        <time>2015-02-07T19:35:34Z</time>
        <name>WPT.521</name>
      </trkpt>
      <trkpt lat="33.965737000" lon="-106.992637000">
        <ele>1720.820</ele>
        <time>2015-02-07T19:35:35Z</time>
        <name>WPT.522</name>
      </trkpt>
      <trkpt lat="33.965659000" lon="-106.992658000">
        <ele>1720.820</ele>
        <time>2015-02-07T19:35:36Z</time>
        <name>WPT.523</name>
      </trkpt>
      <trkpt lat="33.965580000" lon="-106.992684000">
        <ele>1720.820</ele>
        <time>2015-02-07T19:35:37Z</time>
        <name>WPT.524</name>
      </trkpt>
      <trkpt lat="33.965501000" lon="-106.992714000">
        <ele>1720.920</ele>
        <time>2015-02-07T19:35:38Z</time>
        <name>WPT.525</name>
      </trkpt>
      <trkpt lat="33.965425000" lon="-106.992749000">
        <ele>1720.630</ele>
        <time>2015-02-07T19:35:39Z</time>
        <name>WPT.526</name>
      </trkpt>
      <trkpt lat="33.965350000" lon="-106.992790000">
        <ele>1720.240</ele>
        <time>2015-02-07T19:35:40Z</time>
        <name>WPT.527</name>
      </trkpt>
      <trkpt lat="33.965274000" lon="-106.992839000">
        <ele>1719.360</ele>
        <time>2015-02-07T19:35:41Z</time>
        <name>WPT.528</name>
      </trkpt>
      <trkpt lat="33.965199000" lon="-106.992893000">
        <ele>1719.460</ele>
        <time>2015-02-07T19:35:42Z</time>
        <name>WPT.529</name>
      </trkpt>
      <trkpt lat="33.965123000" lon="-106.992952000">
        <ele>1719.370</ele>
        <time>2015-02-07T19:35:43Z</time>
        <name>WPT.530</name>
      </trkpt>
      <trkpt lat="33.965051000" lon="-106.993018000">
        <ele>1718.290</ele>
        <time>2015-02-07T19:35:44Z</time>
        <name>WPT.531</name>
      </trkpt>
      <trkpt lat="33.964983000" lon="-106.993090000">
        <ele>1718.300</ele>
        <time>2015-02-07T19:35:45Z</time>
        <name>WPT.532</name>
      </trkpt>
      <trkpt lat="33.964917000" lon="-106.993163000">
        <ele>1718.010</ele>
        <time>2015-02-07T19:35:46Z</time>
        <name>WPT.533</name>
      </trkpt>
      <trkpt lat="33.964853000" lon="-106.993230000">
        <ele>1715.360</ele>
        <time>2015-02-07T19:35:47Z</time>
        <name>WPT.534</name>
      </trkpt>
      <trkpt lat="33.964790000" lon="-106.993284000">
        <ele>1714.780</ele>
        <time>2015-02-07T19:35:48Z</time>
        <name>WPT.535</name>
      </trkpt>
      <trkpt lat="33.964728000" lon="-106.993317000">
        <ele>1714.690</ele>
        <time>2015-02-07T19:35:49Z</time>
        <name>WPT.536</name>
      </trkpt>
      <trkpt lat="33.964666000" lon="-106.993330000">
        <ele>1714.510</ele>
        <time>2015-02-07T19:35:50Z</time>
        <name>WPT.537</name>
      </trkpt>
      <trkpt lat="33.964603000" lon="-106.993333000">
        <ele>1714.520</ele>
        <time>2015-02-07T19:35:51Z</time>
        <name>WPT.538</name>
      </trkpt>
      <trkpt lat="33.964538000" lon="-106.993328000">
        <ele>1714.440</ele>
        <time>2015-02-07T19:35:52Z</time>
        <name>WPT.539</name>
      </trkpt>
      <trkpt lat="33.964466000" lon="-106.993312000">
        <ele>1714.060</ele>
        <time>2015-02-07T19:35:53Z</time>
        <name>WPT.540</name>
      </trkpt>
      <trkpt lat="33.964386000" lon="-106.993286000">
        <ele>1713.890</ele>
        <time>2015-02-07T19:35:54Z</time>
        <name>WPT.541</name>
      </trkpt>
      <trkpt lat="33.964300000" lon="-106.993256000">
        <ele>1713.920</ele>
        <time>2015-02-07T19:35:55Z</time>
        <name>WPT.542</name>
      </trkpt>
      <trkpt lat="33.964214000" lon="-106.993226000">
        <ele>1713.060</ele>
        <time>2015-02-07T19:35:56Z</time>
        <name>WPT.543</name>
      </trkpt>
      <trkpt lat="33.964126000" lon="-106.993198000">
        <ele>1712.780</ele>
        <time>2015-02-07T19:35:57Z</time>
        <name>WPT.544</name>
      </trkpt>
      <trkpt lat="33.964038000" lon="-106.993169000">
        <ele>1712.700</ele>
        <time>2015-02-07T19:35:58Z</time>
        <name>WPT.545</name>
      </trkpt>
      <trkpt lat="33.963953000" lon="-106.993142000">
        <ele>1712.710</ele>
        <time>2015-02-07T19:35:59Z</time>
        <name>WPT.546</name>
      </trkpt>
      <trkpt lat="33.963871000" lon="-106.993119000">
        <ele>1712.720</ele>
        <time>2015-02-07T19:36:00Z</time>
        <name>WPT.547</name>
      </trkpt>
      <trkpt lat="33.963792000" lon="-106.993101000">
        <ele>1712.730</ele>
        <time>2015-02-07T19:36:01Z</time>
        <name>WPT.548</name>
      </trkpt>
      <trkpt lat="33.963714000" lon="-106.993090000">
        <ele>1712.740</ele>
        <time>2015-02-07T19:36:02Z</time>
        <name>WPT.549</name>
      </trkpt>
      <trkpt lat="33.963634000" lon="-106.993085000">
        <ele>1712.750</ele>
        <time>2015-02-07T19:36:03Z</time>
        <name>WPT.550</name>
      </trkpt>
      <trkpt lat="33.963551000" lon="-106.993081000">
        <ele>1712.760</ele>
        <time>2015-02-07T19:36:04Z</time>
        <name>WPT.551</name>
      </trkpt>
      <trkpt lat="33.963468000" lon="-106.993073000">
        <ele>1712.780</ele>
        <time>2015-02-07T19:36:05Z</time>
        <name>WPT.552</name>
      </trkpt>
      <trkpt lat="33.963385000" lon="-106.993065000">
        <ele>1712.790</ele>
        <time>2015-02-07T19:36:06Z</time>
        <name>WPT.553</name>
      </trkpt>
      <trkpt lat="33.963301000" lon="-106.993058000">
        <ele>1712.900</ele>
        <time>2015-02-07T19:36:07Z</time>
        <name>WPT.554</name>
      </trkpt>
      <trkpt lat="33.963214000" lon="-106.993056000">
        <ele>1712.910</ele>
        <time>2015-02-07T19:36:08Z</time>
        <name>WPT.555</name>
      </trkpt>
      <trkpt lat="33.963122000" lon="-106.993057000">
        <ele>1712.930</ele>
        <time>2015-02-07T19:36:09Z</time>
        <name>WPT.556</name>
      </trkpt>
      <trkpt lat="33.963025000" lon="-106.993061000">
        <ele>1712.840</ele>
        <time>2015-02-07T19:36:10Z</time>
        <name>WPT.557</name>
      </trkpt>
      <trkpt lat="33.962924000" lon="-106.993060000">
        <ele>1712.360</ele>
        <time>2015-02-07T19:36:11Z</time>
        <name>WPT.558</name>
      </trkpt>
      <trkpt lat="33.962820000" lon="-106.993050000">
        <ele>1712.070</ele>
        <time>2015-02-07T19:36:12Z</time>
        <name>WPT.559</name>
      </trkpt>
      <trkpt lat="33.962715000" lon="-106.993025000">
        <ele>1712.090</ele>
        <time>2015-02-07T19:36:13Z</time>
        <name>WPT.560</name>
      </trkpt>
      <trkpt lat="33.962609000" lon="-106.992987000">
        <ele>1712.200</ele>
        <time>2015-02-07T19:36:14Z</time>
        <name>WPT.561</name>
      </trkpt>
      <trkpt lat="33.962506000" lon="-106.992942000">
        <ele>1712.110</ele>
        <time>2015-02-07T19:36:15Z</time>
        <name>WPT.562</name>
      </trkpt>
      <trkpt lat="33.962402000" lon="-106.992897000">
        <ele>1711.730</ele>
        <time>2015-02-07T19:36:16Z</time>
        <name>WPT.563</name>
      </trkpt>
      <trkpt lat="33.962298000" lon="-106.992857000">
        <ele>1710.950</ele>
        <time>2015-02-07T19:36:17Z</time>
        <name>WPT.564</name>
      </trkpt>
      <trkpt lat="33.962200000" lon="-106.992825000">
        <ele>1706.640</ele>
        <time>2015-02-07T19:36:18Z</time>
        <name>WPT.565</name>
      </trkpt>
      <trkpt lat="33.962107000" lon="-106.992805000">
        <ele>1704.300</ele>
        <time>2015-02-07T19:36:19Z</time>
        <name>WPT.566</name>
      </trkpt>
      <trkpt lat="33.962022000" lon="-106.992788000">
        <ele>1704.320</ele>
        <time>2015-02-07T19:36:20Z</time>
        <name>WPT.567</name>
      </trkpt>
      <trkpt lat="33.961948000" lon="-106.992768000">
        <ele>1704.330</ele>
        <time>2015-02-07T19:36:21Z</time>
        <name>WPT.568</name>
      </trkpt>
      <trkpt lat="33.961882000" lon="-106.992741000">
        <ele>1704.250</ele>
        <time>2015-02-07T19:36:22Z</time>
        <name>WPT.569</name>
      </trkpt>
      <trkpt lat="33.961816000" lon="-106.992711000">
        <ele>1704.370</ele>
        <time>2015-02-07T19:36:23Z</time>
        <name>WPT.570</name>
      </trkpt>
      <trkpt lat="33.961746000" lon="-106.992674000">
        <ele>1704.190</ele>
        <time>2015-02-07T19:36:24Z</time>
        <name>WPT.571</name>
      </trkpt>
      <trkpt lat="33.961672000" lon="-106.992633000">
        <ele>1704.010</ele>
        <time>2015-02-07T19:36:25Z</time>
        <name>WPT.572</name>
      </trkpt>
      <trkpt lat="33.961590000" lon="-106.992586000">
        <ele>1704.220</ele>
        <time>2015-02-07T19:36:26Z</time>
        <name>WPT.573</name>
      </trkpt>
      <trkpt lat="33.961503000" lon="-106.992530000">
        <ele>1704.230</ele>
        <time>2015-02-07T19:36:27Z</time>
        <name>WPT.574</name>
      </trkpt>
      <trkpt lat="33.961412000" lon="-106.992461000">
        <ele>1704.240</ele>
        <time>2015-02-07T19:36:28Z</time>
        <name>WPT.575</name>
      </trkpt>
      <trkpt lat="33.961321000" lon="-106.992382000">
        <ele>1704.550</ele>
        <time>2015-02-07T19:36:29Z</time>
        <name>WPT.576</name>
      </trkpt>
      <trkpt lat="33.961232000" lon="-106.992293000">
        <ele>1704.560</ele>
        <time>2015-02-07T19:36:30Z</time>
        <name>WPT.577</name>
      </trkpt>
      <trkpt lat="33.961146000" lon="-106.992201000">
        <ele>1704.570</ele>
        <time>2015-02-07T19:36:31Z</time>
        <name>WPT.578</name>
      </trkpt>
      <trkpt lat="33.961057000" lon="-106.992108000">
        <ele>1704.580</ele>
        <time>2015-02-07T19:36:32Z</time>
        <name>WPT.579</name>
      </trkpt>
      <trkpt lat="33.960963000" lon="-106.992021000">
        <ele>1704.790</ele>
        <time>2015-02-07T19:36:33Z</time>
        <name>WPT.580</name>
      </trkpt>
      <trkpt lat="33.960863000" lon="-106.991945000">
        <ele>1704.700</ele>
        <time>2015-02-07T19:36:34Z</time>
        <name>WPT.581</name>
      </trkpt>
      <trkpt lat="33.960756000" lon="-106.991882000">
        <ele>1704.320</ele>
        <time>2015-02-07T19:36:35Z</time>
        <name>WPT.582</name>
      </trkpt>
      <trkpt lat="33.960642000" lon="-106.991836000">
        <ele>1704.330</ele>
        <time>2015-02-07T19:36:36Z</time>
        <name>WPT.583</name>
      </trkpt>
      <trkpt lat="33.960531000" lon="-106.991807000">
        <ele>1704.340</ele>
        <time>2015-02-07T19:36:37Z</time>
        <name>WPT.584</name>
      </trkpt>
      <trkpt lat="33.960423000" lon="-106.991792000">
        <ele>1704.740</ele>
        <time>2015-02-07T19:36:38Z</time>
        <name>WPT.585</name>
      </trkpt>
      <trkpt lat="33.960316000" lon="-106.991784000">
        <ele>1704.850</ele>
        <time>2015-02-07T19:36:39Z</time>
        <name>WPT.586</name>
      </trkpt>
      <trkpt lat="33.960211000" lon="-106.991771000">
        <ele>1704.950</ele>
        <time>2015-02-07T19:36:40Z</time>
        <name>WPT.587</name>
      </trkpt>
      <trkpt lat="33.960106000" lon="-106.991755000">
        <ele>1704.960</ele>
        <time>2015-02-07T19:36:41Z</time>
        <name>WPT.588</name>
      </trkpt>
      <trkpt lat="33.960000000" lon="-106.991737000">
        <ele>1705.070</ele>
        <time>2015-02-07T19:36:42Z</time>
        <name>WPT.589</name>
      </trkpt>
      <trkpt lat="33.959891000" lon="-106.991720000">
        <ele>1705.070</ele>
        <time>2015-02-07T19:36:43Z</time>
        <name>WPT.590</name>
      </trkpt>
      <trkpt lat="33.959773000" lon="-106.991704000">
        <ele>1705.080</ele>
        <time>2015-02-07T19:36:44Z</time>
        <name>WPT.591</name>
      </trkpt>
      <trkpt lat="33.959648000" lon="-106.991687000">
        <ele>1705.090</ele>
        <time>2015-02-07T19:36:45Z</time>
        <name>WPT.592</name>
      </trkpt>
      <trkpt lat="33.959523000" lon="-106.991668000">
        <ele>1704.990</ele>
        <time>2015-02-07T19:36:46Z</time>
        <name>WPT.593</name>
      </trkpt>
      <trkpt lat="33.959399000" lon="-106.991649000">
        <ele>1704.900</ele>
        <time>2015-02-07T19:36:47Z</time>
        <name>WPT.594</name>
      </trkpt>
      <trkpt lat="33.959274000" lon="-106.991631000">
        <ele>1704.610</ele>
        <time>2015-02-07T19:36:48Z</time>
        <name>WPT.595</name>
      </trkpt>
      <trkpt lat="33.959147000" lon="-106.991616000">
        <ele>1701.610</ele>
        <time>2015-02-07T19:36:49Z</time>
        <name>WPT.596</name>
      </trkpt>
      <trkpt lat="33.959020000" lon="-106.991604000">
        <ele>1701.420</ele>
        <time>2015-02-07T19:36:50Z</time>
        <name>WPT.597</name>
      </trkpt>
      <trkpt lat="33.958892000" lon="-106.991593000">
        <ele>1701.420</ele>
        <time>2015-02-07T19:36:51Z</time>
        <name>WPT.598</name>
      </trkpt>
      <trkpt lat="33.958765000" lon="-106.991582000">
        <ele>1700.950</ele>
        <time>2015-02-07T19:36:52Z</time>
        <name>WPT.599</name>
      </trkpt>
      <trkpt lat="33.958642000" lon="-106.991572000">
        <ele>1700.080</ele>
        <time>2015-02-07T19:36:53Z</time>
        <name>WPT.600</name>
      </trkpt>
      <trkpt lat="33.958538000" lon="-106.991562000">
        <ele>1699.400</ele>
        <time>2015-02-07T19:36:54Z</time>
        <name>WPT.601</name>
      </trkpt>
      <trkpt lat="33.958449000" lon="-106.991554000">
        <ele>1699.510</ele>
        <time>2015-02-07T19:36:55Z</time>
        <name>WPT.602</name>
      </trkpt>
      <trkpt lat="33.958371000" lon="-106.991548000">
        <ele>1699.910</ele>
        <time>2015-02-07T19:36:56Z</time>
        <name>WPT.603</name>
      </trkpt>
      <trkpt lat="33.958307000" lon="-106.991540000">
        <ele>1699.910</ele>
        <time>2015-02-07T19:36:57Z</time>
        <name>WPT.604</name>
      </trkpt>
      <trkpt lat="33.958224000" lon="-106.991531000">
        <ele>1699.920</ele>
        <time>2015-02-07T19:36:58Z</time>
        <name>WPT.605</name>
      </trkpt>
      <trkpt lat="33.958131000" lon="-106.991525000">
        <ele>1700.020</ele>
        <time>2015-02-07T19:36:59Z</time>
        <name>WPT.606</name>
      </trkpt>
      <trkpt lat="33.958029000" lon="-106.991518000">
        <ele>1700.900</ele>
        <time>2015-02-07T19:37:00Z</time>
        <name>WPT.607</name>
      </trkpt>
      <trkpt lat="33.957915000" lon="-106.991511000">
        <ele>1701.780</ele>
        <time>2015-02-07T19:37:01Z</time>
        <name>WPT.608</name>
      </trkpt>
      <trkpt lat="33.957799000" lon="-106.991499000">
        <ele>1702.560</ele>
        <time>2015-02-07T19:37:02Z</time>
        <name>WPT.609</name>
      </trkpt>
      <trkpt lat="33.957682000" lon="-106.991484000">
        <ele>1704.220</ele>
        <time>2015-02-07T19:37:03Z</time>
        <name>WPT.610</name>
      </trkpt>
      <trkpt lat="33.957563000" lon="-106.991467000">
        <ele>1704.310</ele>
        <time>2015-02-07T19:37:04Z</time>
        <name>WPT.611</name>
      </trkpt>
      <trkpt lat="33.957448000" lon="-106.991451000">
        <ele>1703.630</ele>
        <time>2015-02-07T19:37:05Z</time>
        <name>WPT.612</name>
      </trkpt>
      <trkpt lat="33.957350000" lon="-106.991436000">
        <ele>1701.980</ele>
        <time>2015-02-07T19:37:06Z</time>
        <name>WPT.613</name>
      </trkpt>
      <trkpt lat="33.957271000" lon="-106.991422000">
        <ele>1696.640</ele>
        <time>2015-02-07T19:37:07Z</time>
        <name>WPT.614</name>
      </trkpt>
      <trkpt lat="33.957195000" lon="-106.991411000">
        <ele>1701.510</ele>
        <time>2015-02-07T19:37:08Z</time>
        <name>WPT.615</name>
      </trkpt>
      <trkpt lat="33.957114000" lon="-106.991409000">
        <ele>1701.420</ele>
        <time>2015-02-07T19:37:09Z</time>
        <name>WPT.616</name>
      </trkpt>
      <trkpt lat="33.957022000" lon="-106.991416000">
        <ele>1701.420</ele>
        <time>2015-02-07T19:37:10Z</time>
        <name>WPT.617</name>
      </trkpt>
      <trkpt lat="33.956926000" lon="-106.991433000">
        <ele>1701.420</ele>
        <time>2015-02-07T19:37:11Z</time>
        <name>WPT.618</name>
      </trkpt>
      <trkpt lat="33.956831000" lon="-106.991460000">
        <ele>1700.450</ele>
        <time>2015-02-07T19:37:12Z</time>
        <name>WPT.619</name>
      </trkpt>
      <trkpt lat="33.956734000" lon="-106.991496000">
        <ele>1698.610</ele>
        <time>2015-02-07T19:37:13Z</time>
        <name>WPT.620</name>
      </trkpt>
      <trkpt lat="33.956636000" lon="-106.991542000">
        <ele>1698.610</ele>
        <time>2015-02-07T19:37:14Z</time>
        <name>WPT.621</name>
      </trkpt>
      <trkpt lat="33.956541000" lon="-106.991597000">
        <ele>1698.720</ele>
        <time>2015-02-07T19:37:15Z</time>
        <name>WPT.622</name>
      </trkpt>
      <trkpt lat="33.956449000" lon="-106.991660000">
        <ele>1699.300</ele>
        <time>2015-02-07T19:37:16Z</time>
        <name>WPT.623</name>
      </trkpt>
      <trkpt lat="33.956362000" lon="-106.991731000">
        <ele>1699.400</ele>
        <time>2015-02-07T19:37:17Z</time>
        <name>WPT.624</name>
      </trkpt>
      <trkpt lat="33.956277000" lon="-106.991814000">
        <ele>1699.110</ele>
        <time>2015-02-07T19:37:18Z</time>
        <name>WPT.625</name>
      </trkpt>
      <trkpt lat="33.956192000" lon="-106.991901000">
        <ele>1697.650</ele>
        <time>2015-02-07T19:37:19Z</time>
        <name>WPT.626</name>
      </trkpt>
      <trkpt lat="33.956105000" lon="-106.991989000">
        <ele>1697.560</ele>
        <time>2015-02-07T19:37:20Z</time>
        <name>WPT.627</name>
      </trkpt>
      <trkpt lat="33.956018000" lon="-106.992070000">
        <ele>1694.740</ele>
        <time>2015-02-07T19:37:21Z</time>
        <name>WPT.628</name>
      </trkpt>
      <trkpt lat="33.955931000" lon="-106.992140000">
        <ele>1693.970</ele>
        <time>2015-02-07T19:37:22Z</time>
        <name>WPT.629</name>
      </trkpt>
      <trkpt lat="33.955835000" lon="-106.992198000">
        <ele>1693.980</ele>
        <time>2015-02-07T19:37:23Z</time>
        <name>WPT.630</name>
      </trkpt>
      <trkpt lat="33.955728000" lon="-106.992239000">
        <ele>1693.880</ele>
        <time>2015-02-07T19:37:24Z</time>
        <name>WPT.631</name>
      </trkpt>
      <trkpt lat="33.955613000" lon="-106.992267000">
        <ele>1693.890</ele>
        <time>2015-02-07T19:37:25Z</time>
        <name>WPT.632</name>
      </trkpt>
      <trkpt lat="33.955493000" lon="-106.992290000">
        <ele>1694.470</ele>
        <time>2015-02-07T19:37:26Z</time>
        <name>WPT.633</name>
      </trkpt>
      <trkpt lat="33.955371000" lon="-106.992314000">
        <ele>1693.990</ele>
        <time>2015-02-07T19:37:27Z</time>
        <name>WPT.634</name>
      </trkpt>
      <trkpt lat="33.955250000" lon="-106.992339000">
        <ele>1693.700</ele>
        <time>2015-02-07T19:37:28Z</time>
        <name>WPT.635</name>
      </trkpt>
      <trkpt lat="33.955132000" lon="-106.992366000">
        <ele>1693.800</ele>
        <time>2015-02-07T19:37:29Z</time>
        <name>WPT.636</name>
      </trkpt>
      <trkpt lat="33.955015000" lon="-106.992396000">
        <ele>1692.920</ele>
        <time>2015-02-07T19:37:30Z</time>
        <name>WPT.637</name>
      </trkpt>
      <trkpt lat="33.954902000" lon="-106.992429000">
        <ele>1692.830</ele>
        <time>2015-02-07T19:37:31Z</time>
        <name>WPT.638</name>
      </trkpt>
      <trkpt lat="33.954791000" lon="-106.992467000">
        <ele>1692.530</ele>
        <time>2015-02-07T19:37:32Z</time>
        <name>WPT.639</name>
      </trkpt>
      <trkpt lat="33.954680000" lon="-106.992503000">
        <ele>1694.670</ele>
        <time>2015-02-07T19:37:33Z</time>
        <name>WPT.640</name>
      </trkpt>
      <trkpt lat="33.954570000" lon="-106.992528000">
        <ele>1690.290</ele>
        <time>2015-02-07T19:37:34Z</time>
        <name>WPT.641</name>
      </trkpt>
      <trkpt lat="33.954462000" lon="-106.992545000">
        <ele>1690.390</ele>
        <time>2015-02-07T19:37:35Z</time>
        <name>WPT.642</name>
      </trkpt>
      <trkpt lat="33.954354000" lon="-106.992557000">
        <ele>1690.680</ele>
        <time>2015-02-07T19:37:36Z</time>
        <name>WPT.643</name>
      </trkpt>
      <trkpt lat="33.954247000" lon="-106.992561000">
        <ele>1691.750</ele>
        <time>2015-02-07T19:37:37Z</time>
        <name>WPT.644</name>
      </trkpt>
      <trkpt lat="33.954141000" lon="-106.992562000">
        <ele>1692.040</ele>
        <time>2015-02-07T19:37:38Z</time>
        <name>WPT.645</name>
      </trkpt>
      <trkpt lat="33.954040000" lon="-106.992567000">
        <ele>1692.430</ele>
        <time>2015-02-07T19:37:39Z</time>
        <name>WPT.646</name>
      </trkpt>
      <trkpt lat="33.953942000" lon="-106.992586000">
        <ele>1692.430</ele>
        <time>2015-02-07T19:37:40Z</time>
        <name>WPT.647</name>
      </trkpt>
      <trkpt lat="33.953847000" lon="-106.992619000">
        <ele>1692.420</ele>
        <time>2015-02-07T19:37:41Z</time>
        <name>WPT.648</name>
      </trkpt>
      <trkpt lat="33.953747000" lon="-106.992671000">
        <ele>1692.420</ele>
        <time>2015-02-07T19:37:42Z</time>
        <name>WPT.649</name>
      </trkpt>
      <trkpt lat="33.953646000" lon="-106.992741000">
        <ele>1692.320</ele>
        <time>2015-02-07T19:37:43Z</time>
        <name>WPT.650</name>
      </trkpt>
      <trkpt lat="33.953543000" lon="-106.992829000">
        <ele>1692.320</ele>
        <time>2015-02-07T19:37:44Z</time>
        <name>WPT.651</name>
      </trkpt>
      <trkpt lat="33.953490000" lon="-106.992880000">
        <ele>1692.600</ele>
        <time>2015-02-07T19:37:45Z</time>
        <name>WPT.652</name>
      </trkpt>
      <trkpt lat="33.953329000" lon="-106.993039000">
        <ele>1692.600</ele>
        <time>2015-02-07T19:37:46Z</time>
        <name>WPT.653</name>
      </trkpt>
      <trkpt lat="33.953221000" lon="-106.993145000">
        <ele>1693.570</ele>
        <time>2015-02-07T19:37:47Z</time>
        <name>WPT.654</name>
      </trkpt>
      <trkpt lat="33.953114000" lon="-106.993251000">
        <ele>1689.960</ele>
        <time>2015-02-07T19:37:48Z</time>
        <name>WPT.655</name>
      </trkpt>
      <trkpt lat="33.953009000" lon="-106.993353000">
        <ele>1692.100</ele>
        <time>2015-02-07T19:37:49Z</time>
        <name>WPT.656</name>
      </trkpt>
      <trkpt lat="33.952914000" lon="-106.993447000">
        <ele>1691.510</ele>
        <time>2015-02-07T19:37:50Z</time>
        <name>WPT.657</name>
      </trkpt>
      <trkpt lat="33.952824000" lon="-106.993540000">
        <ele>1689.850</ele>
        <time>2015-02-07T19:37:51Z</time>
        <name>WPT.658</name>
      </trkpt>
      <trkpt lat="33.952732000" lon="-106.993632000">
        <ele>1689.850</ele>
        <time>2015-02-07T19:37:52Z</time>
        <name>WPT.659</name>
      </trkpt>
      <trkpt lat="33.952634000" lon="-106.993717000">
        <ele>1689.750</ele>
        <time>2015-02-07T19:37:53Z</time>
        <name>WPT.660</name>
      </trkpt>
      <trkpt lat="33.952528000" lon="-106.993784000">
        <ele>1689.840</ele>
        <time>2015-02-07T19:37:54Z</time>
        <name>WPT.661</name>
      </trkpt>
      <trkpt lat="33.952416000" lon="-106.993825000">
        <ele>1690.520</ele>
        <time>2015-02-07T19:37:55Z</time>
        <name>WPT.662</name>
      </trkpt>
      <trkpt lat="33.952294000" lon="-106.993849000">
        <ele>1691.980</ele>
        <time>2015-02-07T19:37:56Z</time>
        <name>WPT.663</name>
      </trkpt>
      <trkpt lat="33.952165000" lon="-106.993877000">
        <ele>1694.690</ele>
        <time>2015-02-07T19:37:57Z</time>
        <name>WPT.664</name>
      </trkpt>
      <trkpt lat="33.952030000" lon="-106.993918000">
        <ele>1695.660</ele>
        <time>2015-02-07T19:37:58Z</time>
        <name>WPT.665</name>
      </trkpt>
      <trkpt lat="33.951890000" lon="-106.993968000">
        <ele>1695.550</ele>
        <time>2015-02-07T19:37:59Z</time>
        <name>WPT.666</name>
      </trkpt>
      <trkpt lat="33.951750000" lon="-106.994023000">
        <ele>1695.440</ele>
        <time>2015-02-07T19:38:00Z</time>
        <name>WPT.667</name>
      </trkpt>
      <trkpt lat="33.951611000" lon="-106.994081000">
        <ele>1695.030</ele>
        <time>2015-02-07T19:38:01Z</time>
        <name>WPT.668</name>
      </trkpt>
      <trkpt lat="33.951475000" lon="-106.994141000">
        <ele>1694.730</ele>
        <time>2015-02-07T19:38:02Z</time>
        <name>WPT.669</name>
      </trkpt>
      <trkpt lat="33.951344000" lon="-106.994203000">
        <ele>1694.820</ele>
        <time>2015-02-07T19:38:03Z</time>
        <name>WPT.670</name>
      </trkpt>
      <trkpt lat="33.951215000" lon="-106.994268000">
        <ele>1695.190</ele>
        <time>2015-02-07T19:38:04Z</time>
        <name>WPT.671</name>
      </trkpt>
      <trkpt lat="33.951087000" lon="-106.994332000">
        <ele>1694.110</ele>
        <time>2015-02-07T19:38:05Z</time>
        <name>WPT.672</name>
      </trkpt>
      <trkpt lat="33.950959000" lon="-106.994392000">
        <ele>1694.010</ele>
        <time>2015-02-07T19:38:06Z</time>
        <name>WPT.673</name>
      </trkpt>
      <trkpt lat="33.950828000" lon="-106.994446000">
        <ele>1694.000</ele>
        <time>2015-02-07T19:38:07Z</time>
        <name>WPT.674</name>
      </trkpt>
      <trkpt lat="33.950694000" lon="-106.994491000">
        <ele>1693.990</ele>
        <time>2015-02-07T19:38:08Z</time>
        <name>WPT.675</name>
      </trkpt>
      <trkpt lat="33.950558000" lon="-106.994527000">
        <ele>1692.130</ele>
        <time>2015-02-07T19:38:09Z</time>
        <name>WPT.676</name>
      </trkpt>
      <trkpt lat="33.950420000" lon="-106.994555000">
        <ele>1692.120</ele>
        <time>2015-02-07T19:38:10Z</time>
        <name>WPT.677</name>
      </trkpt>
      <trkpt lat="33.950284000" lon="-106.994576000">
        <ele>1692.210</ele>
        <time>2015-02-07T19:38:11Z</time>
        <name>WPT.678</name>
      </trkpt>
      <trkpt lat="33.950157000" lon="-106.994599000">
        <ele>1692.010</ele>
        <time>2015-02-07T19:38:12Z</time>
        <name>WPT.679</name>
      </trkpt>
      <trkpt lat="33.950034000" lon="-106.994628000">
        <ele>1691.220</ele>
        <time>2015-02-07T19:38:13Z</time>
        <name>WPT.680</name>
      </trkpt>
      <trkpt lat="33.949912000" lon="-106.994669000">
        <ele>1688.010</ele>
        <time>2015-02-07T19:38:14Z</time>
        <name>WPT.681</name>
      </trkpt>
      <trkpt lat="33.949793000" lon="-106.994719000">
        <ele>1689.170</ele>
        <time>2015-02-07T19:38:15Z</time>
        <name>WPT.682</name>
      </trkpt>
      <trkpt lat="33.949675000" lon="-106.994769000">
        <ele>1689.160</ele>
        <time>2015-02-07T19:38:16Z</time>
        <name>WPT.683</name>
      </trkpt>
      <trkpt lat="33.949556000" lon="-106.994818000">
        <ele>1689.160</ele>
        <time>2015-02-07T19:38:17Z</time>
        <name>WPT.684</name>
      </trkpt>
      <trkpt lat="33.949430000" lon="-106.994868000">
        <ele>1689.150</ele>
        <time>2015-02-07T19:38:18Z</time>
        <name>WPT.685</name>
      </trkpt>
      <trkpt lat="33.949301000" lon="-106.994919000">
        <ele>1689.730</ele>
        <time>2015-02-07T19:38:19Z</time>
        <name>WPT.686</name>
      </trkpt>
      <trkpt lat="33.949174000" lon="-106.994970000">
        <ele>1689.630</ele>
        <time>2015-02-07T19:38:20Z</time>
        <name>WPT.687</name>
      </trkpt>
      <trkpt lat="33.949051000" lon="-106.995023000">
        <ele>1687.680</ele>
        <time>2015-02-07T19:38:21Z</time>
        <name>WPT.688</name>
      </trkpt>
      <trkpt lat="33.948938000" lon="-106.995075000">
        <ele>1687.870</ele>
        <time>2015-02-07T19:38:22Z</time>
        <name>WPT.689</name>
      </trkpt>
      <trkpt lat="33.948846000" lon="-106.995123000">
        <ele>1684.950</ele>
        <time>2015-02-07T19:38:23Z</time>
        <name>WPT.690</name>
      </trkpt>
      <trkpt lat="33.948767000" lon="-106.995175000">
        <ele>1684.950</ele>
        <time>2015-02-07T19:38:24Z</time>
        <name>WPT.691</name>
      </trkpt>
      <trkpt lat="33.948690000" lon="-106.995236000">
        <ele>1685.140</ele>
        <time>2015-02-07T19:38:25Z</time>
        <name>WPT.692</name>
      </trkpt>
      <trkpt lat="33.948614000" lon="-106.995309000">
        <ele>1685.820</ele>
        <time>2015-02-07T19:38:26Z</time>
        <name>WPT.693</name>
      </trkpt>
      <trkpt lat="33.948537000" lon="-106.995389000">
        <ele>1687.080</ele>
        <time>2015-02-07T19:38:27Z</time>
        <name>WPT.694</name>
      </trkpt>
      <trkpt lat="33.948457000" lon="-106.995469000">
        <ele>1687.180</ele>
        <time>2015-02-07T19:38:28Z</time>
        <name>WPT.695</name>
      </trkpt>
      <trkpt lat="33.948375000" lon="-106.995549000">
        <ele>1687.170</ele>
        <time>2015-02-07T19:38:29Z</time>
        <name>WPT.696</name>
      </trkpt>
      <trkpt lat="33.948296000" lon="-106.995627000">
        <ele>1687.170</ele>
        <time>2015-02-07T19:38:30Z</time>
        <name>WPT.697</name>
      </trkpt>
      <trkpt lat="33.948225000" lon="-106.995707000">
        <ele>1687.160</ele>
        <time>2015-02-07T19:38:31Z</time>
        <name>WPT.698</name>
      </trkpt>
      <trkpt lat="33.948169000" lon="-106.995797000">
        <ele>1687.160</ele>
        <time>2015-02-07T19:38:32Z</time>
        <name>WPT.699</name>
      </trkpt>
      <trkpt lat="33.948135000" lon="-106.995895000">
        <ele>1686.960</ele>
        <time>2015-02-07T19:38:33Z</time>
        <name>WPT.700</name>
      </trkpt>
      <trkpt lat="33.948122000" lon="-106.996000000">
        <ele>1686.850</ele>
        <time>2015-02-07T19:38:34Z</time>
        <name>WPT.701</name>
      </trkpt>
      <trkpt lat="33.948128000" lon="-106.996113000">
        <ele>1686.850</ele>
        <time>2015-02-07T19:38:35Z</time>
        <name>WPT.702</name>
      </trkpt>
      <trkpt lat="33.948150000" lon="-106.996228000">
        <ele>1687.040</ele>
        <time>2015-02-07T19:38:36Z</time>
        <name>WPT.703</name>
      </trkpt>
      <trkpt lat="33.948177000" lon="-106.996339000">
        <ele>1689.470</ele>
        <time>2015-02-07T19:38:37Z</time>
        <name>WPT.704</name>
      </trkpt>
      <trkpt lat="33.948205000" lon="-106.996444000">
        <ele>1690.630</ele>
        <time>2015-02-07T19:38:38Z</time>
        <name>WPT.705</name>
      </trkpt>
      <trkpt lat="33.948233000" lon="-106.996546000">
        <ele>1690.720</ele>
        <time>2015-02-07T19:38:39Z</time>
        <name>WPT.706</name>
      </trkpt>
      <trkpt lat="33.948261000" lon="-106.996649000">
        <ele>1691.000</ele>
        <time>2015-02-07T19:38:40Z</time>
        <name>WPT.707</name>
      </trkpt>
      <trkpt lat="33.948286000" lon="-106.996756000">
        <ele>1692.750</ele>
        <time>2015-02-07T19:38:41Z</time>
        <name>WPT.708</name>
      </trkpt>
      <trkpt lat="33.948305000" lon="-106.996868000">
        <ele>1693.130</ele>
        <time>2015-02-07T19:38:42Z</time>
        <name>WPT.709</name>
      </trkpt>
      <trkpt lat="33.948315000" lon="-106.996979000">
        <ele>1693.410</ele>
        <time>2015-02-07T19:38:43Z</time>
        <name>WPT.710</name>
      </trkpt>
      <trkpt lat="33.948310000" lon="-106.997086000">
        <ele>1693.410</ele>
        <time>2015-02-07T19:38:44Z</time>
        <name>WPT.711</name>
      </trkpt>
      <trkpt lat="33.948290000" lon="-106.997186000">
        <ele>1693.400</ele>
        <time>2015-02-07T19:38:45Z</time>
        <name>WPT.712</name>
      </trkpt>
      <trkpt lat="33.948254000" lon="-106.997272000">
        <ele>1693.400</ele>
        <time>2015-02-07T19:38:46Z</time>
        <name>WPT.713</name>
      </trkpt>
      <trkpt lat="33.948214000" lon="-106.997336000">
        <ele>1693.290</ele>
        <time>2015-02-07T19:38:47Z</time>
        <name>WPT.714</name>
      </trkpt>
      <trkpt lat="33.948169000" lon="-106.997382000">
        <ele>1692.610</ele>
        <time>2015-02-07T19:38:48Z</time>
        <name>WPT.715</name>
      </trkpt>
      <trkpt lat="33.948112000" lon="-106.997427000">
        <ele>1692.120</ele>
        <time>2015-02-07T19:38:49Z</time>
        <name>WPT.716</name>
      </trkpt>
      <trkpt lat="33.948042000" lon="-106.997476000">
        <ele>1691.440</ele>
        <time>2015-02-07T19:38:50Z</time>
        <name>WPT.717</name>
      </trkpt>
      <trkpt lat="33.947960000" lon="-106.997525000">
        <ele>1691.340</ele>
        <time>2015-02-07T19:38:51Z</time>
        <name>WPT.718</name>
      </trkpt>
      <trkpt lat="33.947877000" lon="-106.997572000">
        <ele>1690.850</ele>
        <time>2015-02-07T19:38:52Z</time>
        <name>WPT.719</name>
      </trkpt>
      <trkpt lat="33.947798000" lon="-106.997619000">
        <ele>1690.070</ele>
        <time>2015-02-07T19:38:53Z</time>
        <name>WPT.720</name>
      </trkpt>
      <trkpt lat="33.947726000" lon="-106.997666000">
        <ele>1689.590</ele>
        <time>2015-02-07T19:38:54Z</time>
        <name>WPT.721</name>
      </trkpt>
      <trkpt lat="33.947663000" lon="-106.997701000">
        <ele>1689.490</ele>
        <time>2015-02-07T19:38:55Z</time>
        <name>WPT.722</name>
      </trkpt>
      <trkpt lat="33.947609000" lon="-106.997720000">
        <ele>1689.590</ele>
        <time>2015-02-07T19:38:56Z</time>
        <name>WPT.723</name>
      </trkpt>
      <trkpt lat="33.947552000" lon="-106.997720000">
        <ele>1689.490</ele>
        <time>2015-02-07T19:38:57Z</time>
        <name>WPT.724</name>
      </trkpt>
      <trkpt lat="33.947489000" lon="-106.997704000">
        <ele>1689.690</ele>
        <time>2015-02-07T19:38:58Z</time>
        <name>WPT.725</name>
      </trkpt>
      <trkpt lat="33.947413000" lon="-106.997669000">
        <ele>1690.170</ele>
        <time>2015-02-07T19:38:59Z</time>
        <name>WPT.726</name>
      </trkpt>
      <trkpt lat="33.947329000" lon="-106.997618000">
        <ele>1691.920</ele>
        <time>2015-02-07T19:39:00Z</time>
        <name>WPT.727</name>
      </trkpt>
      <trkpt lat="33.947243000" lon="-106.997559000">
        <ele>1692.310</ele>
        <time>2015-02-07T19:39:01Z</time>
        <name>WPT.728</name>
      </trkpt>
      <trkpt lat="33.947156000" lon="-106.997500000">
        <ele>1692.600</ele>
        <time>2015-02-07T19:39:02Z</time>
        <name>WPT.729</name>
      </trkpt>
      <trkpt lat="33.947067000" lon="-106.997450000">
        <ele>1692.500</ele>
        <time>2015-02-07T19:39:03Z</time>
        <name>WPT.730</name>
      </trkpt>
      <trkpt lat="33.946974000" lon="-106.997417000">
        <ele>1692.500</ele>
        <time>2015-02-07T19:39:04Z</time>
        <name>WPT.731</name>
      </trkpt>
      <trkpt lat="33.946877000" lon="-106.997409000">
        <ele>1692.500</ele>
        <time>2015-02-07T19:39:05Z</time>
        <name>WPT.732</name>
      </trkpt>
      <trkpt lat="33.946780000" lon="-106.997425000">
        <ele>1692.310</ele>
        <time>2015-02-07T19:39:06Z</time>
        <name>WPT.733</name>
      </trkpt>
      <trkpt lat="33.946686000" lon="-106.997463000">
        <ele>1692.310</ele>
        <time>2015-02-07T19:39:07Z</time>
        <name>WPT.734</name>
      </trkpt>
      <trkpt lat="33.946591000" lon="-106.997516000">
        <ele>1692.010</ele>
        <time>2015-02-07T19:39:08Z</time>
        <name>WPT.735</name>
      </trkpt>
      <trkpt lat="33.946494000" lon="-106.997572000">
        <ele>1691.820</ele>
        <time>2015-02-07T19:39:09Z</time>
        <name>WPT.736</name>
      </trkpt>
      <trkpt lat="33.946393000" lon="-106.997621000">
        <ele>1692.110</ele>
        <time>2015-02-07T19:39:10Z</time>
        <name>WPT.737</name>
      </trkpt>
      <trkpt lat="33.946285000" lon="-106.997660000">
        <ele>1692.200</ele>
        <time>2015-02-07T19:39:11Z</time>
        <name>WPT.738</name>
      </trkpt>
      <trkpt lat="33.946174000" lon="-106.997690000">
        <ele>1692.500</ele>
        <time>2015-02-07T19:39:12Z</time>
        <name>WPT.739</name>
      </trkpt>
      <trkpt lat="33.946066000" lon="-106.997720000">
        <ele>1693.270</ele>
        <time>2015-02-07T19:39:13Z</time>
        <name>WPT.740</name>
      </trkpt>
      <trkpt lat="33.945961000" lon="-106.997761000">
        <ele>1693.950</ele>
        <time>2015-02-07T19:39:14Z</time>
        <name>WPT.741</name>
      </trkpt>
      <trkpt lat="33.945861000" lon="-106.997818000">
        <ele>1693.950</ele>
        <time>2015-02-07T19:39:15Z</time>
        <name>WPT.742</name>
      </trkpt>
      <trkpt lat="33.945769000" lon="-106.997888000">
        <ele>1694.430</ele>
        <time>2015-02-07T19:39:16Z</time>
        <name>WPT.743</name>
      </trkpt>
      <trkpt lat="33.945679000" lon="-106.997960000">
        <ele>1695.110</ele>
        <time>2015-02-07T19:39:17Z</time>
        <name>WPT.744</name>
      </trkpt>
      <trkpt lat="33.945584000" lon="-106.998024000">
        <ele>1695.300</ele>
        <time>2015-02-07T19:39:18Z</time>
        <name>WPT.745</name>
      </trkpt>
      <trkpt lat="33.945482000" lon="-106.998078000">
        <ele>1695.290</ele>
        <time>2015-02-07T19:39:19Z</time>
        <name>WPT.746</name>
      </trkpt>
      <trkpt lat="33.945377000" lon="-106.998120000">
        <ele>1695.580</ele>
        <time>2015-02-07T19:39:20Z</time>
        <name>WPT.747</name>
      </trkpt>
      <trkpt lat="33.945271000" lon="-106.998160000">
        <ele>1696.840</ele>
        <time>2015-02-07T19:39:21Z</time>
        <name>WPT.748</name>
      </trkpt>
      <trkpt lat="33.945167000" lon="-106.998199000">
        <ele>1696.740</ele>
        <time>2015-02-07T19:39:22Z</time>
        <name>WPT.749</name>
      </trkpt>
      <trkpt lat="33.945062000" lon="-106.998234000">
        <ele>1696.740</ele>
        <time>2015-02-07T19:39:23Z</time>
        <name>WPT.750</name>
      </trkpt>
      <trkpt lat="33.944959000" lon="-106.998262000">
        <ele>1696.340</ele>
        <time>2015-02-07T19:39:24Z</time>
        <name>WPT.751</name>
      </trkpt>
      <trkpt lat="33.944863000" lon="-106.998290000">
        <ele>1695.950</ele>
        <time>2015-02-07T19:39:25Z</time>
        <name>WPT.752</name>
      </trkpt>
      <trkpt lat="33.944768000" lon="-106.998328000">
        <ele>1695.940</ele>
        <time>2015-02-07T19:39:26Z</time>
        <name>WPT.753</name>
      </trkpt>
      <trkpt lat="33.944674000" lon="-106.998371000">
        <ele>1695.940</ele>
        <time>2015-02-07T19:39:27Z</time>
        <name>WPT.754</name>
      </trkpt>
      <trkpt lat="33.944579000" lon="-106.998415000">
        <ele>1696.040</ele>
        <time>2015-02-07T19:39:28Z</time>
        <name>WPT.755</name>
      </trkpt>
      <trkpt lat="33.944487000" lon="-106.998456000">
        <ele>1696.910</ele>
        <time>2015-02-07T19:39:29Z</time>
        <name>WPT.756</name>
      </trkpt>
      <trkpt lat="33.944398000" lon="-106.998498000">
        <ele>1697.290</ele>
        <time>2015-02-07T19:39:30Z</time>
        <name>WPT.757</name>
      </trkpt>
      <trkpt lat="33.944308000" lon="-106.998547000">
        <ele>1697.490</ele>
        <time>2015-02-07T19:39:31Z</time>
        <name>WPT.758</name>
      </trkpt>
      <trkpt lat="33.944218000" lon="-106.998602000">
        <ele>1697.580</ele>
        <time>2015-02-07T19:39:32Z</time>
        <name>WPT.759</name>
      </trkpt>
      <trkpt lat="33.944124000" lon="-106.998663000">
        <ele>1698.260</ele>
        <time>2015-02-07T19:39:33Z</time>
        <name>WPT.760</name>
      </trkpt>
      <trkpt lat="33.944024000" lon="-106.998731000">
        <ele>1700.000</ele>
        <time>2015-02-07T19:39:34Z</time>
        <name>WPT.761</name>
      </trkpt>
      <trkpt lat="33.943919000" lon="-106.998805000">
        <ele>1700.880</ele>
        <time>2015-02-07T19:39:35Z</time>
        <name>WPT.762</name>
      </trkpt>
      <trkpt lat="33.943815000" lon="-106.998879000">
        <ele>1701.650</ele>
        <time>2015-02-07T19:39:36Z</time>
        <name>WPT.763</name>
      </trkpt>
      <trkpt lat="33.943715000" lon="-106.998949000">
        <ele>1701.160</ele>
        <time>2015-02-07T19:39:37Z</time>
        <name>WPT.764</name>
      </trkpt>
      <trkpt lat="33.943626000" lon="-106.999012000">
        <ele>1699.990</ele>
        <time>2015-02-07T19:39:38Z</time>
        <name>WPT.765</name>
      </trkpt>
      <trkpt lat="33.943555000" lon="-106.999061000">
        <ele>1699.980</ele>
        <time>2015-02-07T19:39:39Z</time>
        <name>WPT.766</name>
      </trkpt>
      <trkpt lat="33.943500000" lon="-106.999098000">
        <ele>1699.010</ele>
        <time>2015-02-07T19:39:40Z</time>
        <name>WPT.767</name>
      </trkpt>
      <trkpt lat="33.943458000" lon="-106.999127000">
        <ele>1698.520</ele>
        <time>2015-02-07T19:39:41Z</time>
        <name>WPT.768</name>
      </trkpt>
      <trkpt lat="33.943427000" lon="-106.999149000">
        <ele>1698.520</ele>
        <time>2015-02-07T19:39:42Z</time>
        <name>WPT.769</name>
      </trkpt>
      <trkpt lat="33.943402000" lon="-106.999167000">
        <ele>1698.530</ele>
        <time>2015-02-07T19:39:43Z</time>
        <name>WPT.770</name>
      </trkpt>
      <trkpt lat="33.943377000" lon="-106.999184000">
        <ele>1698.530</ele>
        <time>2015-02-07T19:39:44Z</time>
        <name>WPT.771</name>
      </trkpt>
      <trkpt lat="33.943347000" lon="-106.999204000">
        <ele>1698.530</ele>
        <time>2015-02-07T19:39:45Z</time>
        <name>WPT.772</name>
      </trkpt>
      <trkpt lat="33.943308000" lon="-106.999232000">
        <ele>1698.730</ele>
        <time>2015-02-07T19:39:46Z</time>
        <name>WPT.773</name>
      </trkpt>
      <trkpt lat="33.943257000" lon="-106.999270000">
        <ele>1699.410</ele>
        <time>2015-02-07T19:39:47Z</time>
        <name>WPT.774</name>
      </trkpt>
      <trkpt lat="33.943197000" lon="-106.999317000">
        <ele>1699.800</ele>
        <time>2015-02-07T19:39:48Z</time>
        <name>WPT.775</name>
      </trkpt>
      <trkpt lat="33.943130000" lon="-106.999369000">
        <ele>1700.000</ele>
        <time>2015-02-07T19:39:49Z</time>
        <name>WPT.776</name>
      </trkpt>
      <trkpt lat="33.943057000" lon="-106.999425000">
        <ele>1700.580</ele>
        <time>2015-02-07T19:39:50Z</time>
        <name>WPT.777</name>
      </trkpt>
      <trkpt lat="33.942979000" lon="-106.999481000">
        <ele>1700.870</ele>
        <time>2015-02-07T19:39:51Z</time>
        <name>WPT.778</name>
      </trkpt>
      <trkpt lat="33.942900000" lon="-106.999532000">
        <ele>1700.780</ele>
        <time>2015-02-07T19:39:52Z</time>
        <name>WPT.779</name>
      </trkpt>
      <trkpt lat="33.942815000" lon="-106.999576000">
        <ele>1701.070</ele>
        <time>2015-02-07T19:39:53Z</time>
        <name>WPT.780</name>
      </trkpt>
      <trkpt lat="33.942725000" lon="-106.999608000">
        <ele>1704.370</ele>
        <time>2015-02-07T19:39:54Z</time>
        <name>WPT.781</name>
      </trkpt>
      <trkpt lat="33.942629000" lon="-106.999629000">
        <ele>1704.570</ele>
        <time>2015-02-07T19:39:55Z</time>
        <name>WPT.782</name>
      </trkpt>
      <trkpt lat="33.942534000" lon="-106.999643000">
        <ele>1704.660</ele>
        <time>2015-02-07T19:39:56Z</time>
        <name>WPT.783</name>
      </trkpt>
      <trkpt lat="33.942437000" lon="-106.999660000">
        <ele>1705.540</ele>
        <time>2015-02-07T19:39:57Z</time>
        <name>WPT.784</name>
      </trkpt>
      <trkpt lat="33.942339000" lon="-106.999679000">
        <ele>1705.730</ele>
        <time>2015-02-07T19:39:58Z</time>
        <name>WPT.785</name>
      </trkpt>
      <trkpt lat="33.942247000" lon="-106.999703000">
        <ele>1705.830</ele>
        <time>2015-02-07T19:39:59Z</time>
        <name>WPT.786</name>
      </trkpt>
      <trkpt lat="33.942164000" lon="-106.999727000">
        <ele>1706.020</ele>
        <time>2015-02-07T19:40:00Z</time>
        <name>WPT.787</name>
      </trkpt>
      <trkpt lat="33.942083000" lon="-106.999750000">
        <ele>1706.410</ele>
        <time>2015-02-07T19:40:01Z</time>
        <name>WPT.788</name>
      </trkpt>
      <trkpt lat="33.942002000" lon="-106.999774000">
        <ele>1707.590</ele>
        <time>2015-02-07T19:40:02Z</time>
        <name>WPT.789</name>
      </trkpt>
      <trkpt lat="33.941915000" lon="-106.999794000">
        <ele>1709.260</ele>
        <time>2015-02-07T19:40:03Z</time>
        <name>WPT.790</name>
      </trkpt>
      <trkpt lat="33.941823000" lon="-106.999812000">
        <ele>1710.730</ele>
        <time>2015-02-07T19:40:04Z</time>
        <name>WPT.791</name>
      </trkpt>
      <trkpt lat="33.941729000" lon="-106.999826000">
        <ele>1711.410</ele>
        <time>2015-02-07T19:40:05Z</time>
        <name>WPT.792</name>
      </trkpt>
      <trkpt lat="33.941631000" lon="-106.999838000">
        <ele>1711.700</ele>
        <time>2015-02-07T19:40:06Z</time>
        <name>WPT.793</name>
      </trkpt>
      <trkpt lat="33.941529000" lon="-106.999853000">
        <ele>1711.690</ele>
        <time>2015-02-07T19:40:07Z</time>
        <name>WPT.794</name>
      </trkpt>
      <trkpt lat="33.941427000" lon="-106.999875000">
        <ele>1711.590</ele>
        <time>2015-02-07T19:40:08Z</time>
        <name>WPT.795</name>
      </trkpt>
      <trkpt lat="33.941323000" lon="-106.999905000">
        <ele>1712.270</ele>
        <time>2015-02-07T19:40:09Z</time>
        <name>WPT.796</name>
      </trkpt>
      <trkpt lat="33.941220000" lon="-106.999943000">
        <ele>1712.460</ele>
        <time>2015-02-07T19:40:10Z</time>
        <name>WPT.797</name>
      </trkpt>
      <trkpt lat="33.941120000" lon="-106.999988000">
        <ele>1712.850</ele>
        <time>2015-02-07T19:40:11Z</time>
        <name>WPT.798</name>
      </trkpt>
      <trkpt lat="33.941021000" lon="-107.000038000">
        <ele>1713.430</ele>
        <time>2015-02-07T19:40:12Z</time>
        <name>WPT.799</name>
      </trkpt>
      <trkpt lat="33.940922000" lon="-107.000091000">
        <ele>1714.710</ele>
        <time>2015-02-07T19:40:13Z</time>
        <name>WPT.800</name>
      </trkpt>
      <trkpt lat="33.940824000" lon="-107.000141000">
        <ele>1714.700</ele>
        <time>2015-02-07T19:40:14Z</time>
        <name>WPT.801</name>
      </trkpt>
      <trkpt lat="33.940724000" lon="-107.000185000">
        <ele>1715.680</ele>
        <time>2015-02-07T19:40:15Z</time>
        <name>WPT.802</name>
      </trkpt>
      <trkpt lat="33.940625000" lon="-107.000221000">
        <ele>1715.970</ele>
        <time>2015-02-07T19:40:16Z</time>
        <name>WPT.803</name>
      </trkpt>
      <trkpt lat="33.940525000" lon="-107.000250000">
        <ele>1715.960</ele>
        <time>2015-02-07T19:40:17Z</time>
        <name>WPT.804</name>
      </trkpt>
      <trkpt lat="33.940425000" lon="-107.000275000">
        <ele>1715.960</ele>
        <time>2015-02-07T19:40:18Z</time>
        <name>WPT.805</name>
      </trkpt>
      <trkpt lat="33.940326000" lon="-107.000303000">
        <ele>1716.050</ele>
        <time>2015-02-07T19:40:19Z</time>
        <name>WPT.806</name>
      </trkpt>
      <trkpt lat="33.940231000" lon="-107.000337000">
        <ele>1716.050</ele>
        <time>2015-02-07T19:40:20Z</time>
        <name>WPT.807</name>
      </trkpt>
      <trkpt lat="33.940137000" lon="-107.000378000">
        <ele>1716.040</ele>
        <time>2015-02-07T19:40:21Z</time>
        <name>WPT.808</name>
      </trkpt>
      <trkpt lat="33.940041000" lon="-107.000432000">
        <ele>1716.040</ele>
        <time>2015-02-07T19:40:22Z</time>
        <name>WPT.809</name>
      </trkpt>
      <trkpt lat="33.939942000" lon="-107.000507000">
        <ele>1716.030</ele>
        <time>2015-02-07T19:40:23Z</time>
        <name>WPT.810</name>
      </trkpt>
      <trkpt lat="33.939844000" lon="-107.000600000">
        <ele>1716.030</ele>
        <time>2015-02-07T19:40:24Z</time>
        <name>WPT.811</name>
      </trkpt>
      <trkpt lat="33.939746000" lon="-107.000703000">
        <ele>1716.120</ele>
        <time>2015-02-07T19:40:25Z</time>
        <name>WPT.812</name>
      </trkpt>
      <trkpt lat="33.939646000" lon="-107.000811000">
        <ele>1716.510</ele>
        <time>2015-02-07T19:40:26Z</time>
        <name>WPT.813</name>
      </trkpt>
      <trkpt lat="33.939545000" lon="-107.000924000">
        <ele>1716.800</ele>
        <time>2015-02-07T19:40:27Z</time>
        <name>WPT.814</name>
      </trkpt>
      <trkpt lat="33.939445000" lon="-107.001038000">
        <ele>1716.800</ele>
        <time>2015-02-07T19:40:28Z</time>
        <name>WPT.815</name>
      </trkpt>
      <trkpt lat="33.939346000" lon="-107.001152000">
        <ele>1716.990</ele>
        <time>2015-02-07T19:40:29Z</time>
        <name>WPT.816</name>
      </trkpt>
      <trkpt lat="33.939250000" lon="-107.001263000">
        <ele>1717.680</ele>
        <time>2015-02-07T19:40:30Z</time>
        <name>WPT.817</name>
      </trkpt>
      <trkpt lat="33.939160000" lon="-107.001371000">
        <ele>1718.060</ele>
        <time>2015-02-07T19:40:31Z</time>
        <name>WPT.818</name>
      </trkpt>
      <trkpt lat="33.939076000" lon="-107.001480000">
        <ele>1718.450</ele>
        <time>2015-02-07T19:40:32Z</time>
        <name>WPT.819</name>
      </trkpt>
      <trkpt lat="33.938999000" lon="-107.001588000">
        <ele>1718.940</ele>
        <time>2015-02-07T19:40:33Z</time>
        <name>WPT.820</name>
      </trkpt>
      <trkpt lat="33.938928000" lon="-107.001696000">
        <ele>1718.740</ele>
        <time>2015-02-07T19:40:34Z</time>
        <name>WPT.821</name>
      </trkpt>
      <trkpt lat="33.938863000" lon="-107.001811000">
        <ele>1718.740</ele>
        <time>2015-02-07T19:40:35Z</time>
        <name>WPT.822</name>
      </trkpt>
      <trkpt lat="33.938807000" lon="-107.001935000">
        <ele>1718.150</ele>
        <time>2015-02-07T19:40:36Z</time>
        <name>WPT.823</name>
      </trkpt>
      <trkpt lat="33.938765000" lon="-107.002067000">
        <ele>1716.960</ele>
        <time>2015-02-07T19:40:37Z</time>
        <name>WPT.824</name>
      </trkpt>
      <trkpt lat="33.938743000" lon="-107.002204000">
        <ele>1716.370</ele>
        <time>2015-02-07T19:40:38Z</time>
        <name>WPT.825</name>
      </trkpt>
      <trkpt lat="33.938735000" lon="-107.002345000">
        <ele>1716.570</ele>
        <time>2015-02-07T19:40:39Z</time>
        <name>WPT.826</name>
      </trkpt>
      <trkpt lat="33.938733000" lon="-107.002494000">
        <ele>1718.050</ele>
        <time>2015-02-07T19:40:40Z</time>
        <name>WPT.827</name>
      </trkpt>
      <trkpt lat="33.938732000" lon="-107.002647000">
        <ele>1718.050</ele>
        <time>2015-02-07T19:40:41Z</time>
        <name>WPT.828</name>
      </trkpt>
      <trkpt lat="33.938728000" lon="-107.002799000">
        <ele>1719.130</ele>
        <time>2015-02-07T19:40:42Z</time>
        <name>WPT.829</name>
      </trkpt>
      <trkpt lat="33.938721000" lon="-107.002948000">
        <ele>1718.930</ele>
        <time>2015-02-07T19:40:43Z</time>
        <name>WPT.830</name>
      </trkpt>
      <trkpt lat="33.938709000" lon="-107.003091000">
        <ele>1718.930</ele>
        <time>2015-02-07T19:40:44Z</time>
        <name>WPT.831</name>
      </trkpt>
      <trkpt lat="33.938696000" lon="-107.003227000">
        <ele>1719.120</ele>
        <time>2015-02-07T19:40:45Z</time>
        <name>WPT.832</name>
      </trkpt>
      <trkpt lat="33.938684000" lon="-107.003340000">
        <ele>1719.120</ele>
        <time>2015-02-07T19:40:46Z</time>
        <name>WPT.833</name>
      </trkpt>
      <trkpt lat="33.938673000" lon="-107.003423000">
        <ele>1718.340</ele>
        <time>2015-02-07T19:40:47Z</time>
        <name>WPT.834</name>
      </trkpt>
      <trkpt lat="33.938667000" lon="-107.003478000">
        <ele>1716.570</ele>
        <time>2015-02-07T19:40:48Z</time>
        <name>WPT.835</name>
      </trkpt>
      <trkpt lat="33.938665000" lon="-107.003513000">
        <ele>1715.590</ele>
        <time>2015-02-07T19:40:49Z</time>
        <name>WPT.836</name>
      </trkpt>
      <trkpt lat="33.938664000" lon="-107.003517000">
        <ele>1715.400</ele>
        <time>2015-02-07T19:40:50Z</time>
        <name>WPT.837</name>
      </trkpt>
      <trkpt lat="33.938664000" lon="-107.003531000">
        <ele>1715.300</ele>
        <time>2015-02-07T19:40:51Z</time>
        <name>WPT.838</name>
      </trkpt>
      <trkpt lat="33.938668000" lon="-107.003535000">
        <ele>1714.680</ele>
        <time>2015-02-07T19:41:03Z</time>
        <name>WPT.839</name>
      </trkpt>
      <trkpt lat="33.938667000" lon="-107.003554000">
        <ele>1714.780</ele>
        <time>2015-02-07T19:41:04Z</time>
        <name>WPT.840</name>
      </trkpt>
      <trkpt lat="33.938663000" lon="-107.003579000">
        <ele>1714.780</ele>
        <time>2015-02-07T19:41:05Z</time>
        <name>WPT.841</name>
      </trkpt>
      <trkpt lat="33.938660000" lon="-107.003610000">
        <ele>1714.790</ele>
        <time>2015-02-07T19:41:06Z</time>
        <name>WPT.842</name>
      </trkpt>
      <trkpt lat="33.938659000" lon="-107.003651000">
        <ele>1714.790</ele>
        <time>2015-02-07T19:41:07Z</time>
        <name>WPT.843</name>
      </trkpt>
      <trkpt lat="33.938659000" lon="-107.003700000">
        <ele>1714.800</ele>
        <time>2015-02-07T19:41:08Z</time>
        <name>WPT.844</name>
      </trkpt>
      <trkpt lat="33.938659000" lon="-107.003757000">
        <ele>1714.800</ele>
        <time>2015-02-07T19:41:09Z</time>
        <name>WPT.845</name>
      </trkpt>
      <trkpt lat="33.938659000" lon="-107.003819000">
        <ele>1714.810</ele>
        <time>2015-02-07T19:41:10Z</time>
        <name>WPT.846</name>
      </trkpt>
      <trkpt lat="33.938659000" lon="-107.003884000">
        <ele>1714.810</ele>
        <time>2015-02-07T19:41:11Z</time>
        <name>WPT.847</name>
      </trkpt>
      <trkpt lat="33.938654000" lon="-107.003951000">
        <ele>1714.810</ele>
        <time>2015-02-07T19:41:12Z</time>
        <name>WPT.848</name>
      </trkpt>
      <trkpt lat="33.938639000" lon="-107.004022000">
        <ele>1714.920</ele>
        <time>2015-02-07T19:41:13Z</time>
        <name>WPT.849</name>
      </trkpt>
      <trkpt lat="33.938612000" lon="-107.004095000">
        <ele>1714.920</ele>
        <time>2015-02-07T19:41:14Z</time>
        <name>WPT.850</name>
      </trkpt>
      <trkpt lat="33.938576000" lon="-107.004163000">
        <ele>1714.820</ele>
        <time>2015-02-07T19:41:15Z</time>
        <name>WPT.851</name>
      </trkpt>
      <trkpt lat="33.938532000" lon="-107.004222000">
        <ele>1714.830</ele>
        <time>2015-02-07T19:41:16Z</time>
        <name>WPT.852</name>
      </trkpt>
      <trkpt lat="33.938478000" lon="-107.004273000">
        <ele>1714.830</ele>
        <time>2015-02-07T19:41:17Z</time>
        <name>WPT.853</name>
      </trkpt>
      <trkpt lat="33.938411000" lon="-107.004315000">
        <ele>1714.830</ele>
        <time>2015-02-07T19:41:18Z</time>
        <name>WPT.854</name>
      </trkpt>
      <trkpt lat="33.938335000" lon="-107.004354000">
        <ele>1715.520</ele>
        <time>2015-02-07T19:41:19Z</time>
        <name>WPT.855</name>
      </trkpt>
      <trkpt lat="33.938254000" lon="-107.004387000">
        <ele>1717.300</ele>
        <time>2015-02-07T19:41:20Z</time>
        <name>WPT.856</name>
      </trkpt>
      <trkpt lat="33.938171000" lon="-107.004415000">
        <ele>1717.490</ele>
        <time>2015-02-07T19:41:21Z</time>
        <name>WPT.857</name>
      </trkpt>
      <trkpt lat="33.938085000" lon="-107.004442000">
        <ele>1718.080</ele>
        <time>2015-02-07T19:41:22Z</time>
        <name>WPT.858</name>
      </trkpt>
      <trkpt lat="33.937998000" lon="-107.004471000">
        <ele>1718.180</ele>
        <time>2015-02-07T19:41:23Z</time>
        <name>WPT.859</name>
      </trkpt>
      <trkpt lat="33.937919000" lon="-107.004505000">
        <ele>1718.380</ele>
        <time>2015-02-07T19:41:24Z</time>
        <name>WPT.860</name>
      </trkpt>
      <trkpt lat="33.937854000" lon="-107.004543000">
        <ele>1718.670</ele>
        <time>2015-02-07T19:41:25Z</time>
        <name>WPT.861</name>
      </trkpt>
      <trkpt lat="33.937801000" lon="-107.004583000">
        <ele>1720.150</ele>
        <time>2015-02-07T19:41:26Z</time>
        <name>WPT.862</name>
      </trkpt>
      <trkpt lat="33.937756000" lon="-107.004624000">
        <ele>1720.240</ele>
        <time>2015-02-07T19:41:27Z</time>
        <name>WPT.863</name>
      </trkpt>
      <trkpt lat="33.937710000" lon="-107.004672000">
        <ele>1720.340</ele>
        <time>2015-02-07T19:41:28Z</time>
        <name>WPT.864</name>
      </trkpt>
      <trkpt lat="33.937658000" lon="-107.004731000">
        <ele>1722.900</ele>
        <time>2015-02-07T19:41:29Z</time>
        <name>WPT.865</name>
      </trkpt>
      <trkpt lat="33.937598000" lon="-107.004803000">
        <ele>1722.990</ele>
        <time>2015-02-07T19:41:30Z</time>
        <name>WPT.866</name>
      </trkpt>
      <trkpt lat="33.937529000" lon="-107.004884000">
        <ele>1725.840</ele>
        <time>2015-02-07T19:41:31Z</time>
        <name>WPT.867</name>
      </trkpt>
      <trkpt lat="33.937450000" lon="-107.004969000">
        <ele>1728.000</ele>
        <time>2015-02-07T19:41:32Z</time>
        <name>WPT.868</name>
      </trkpt>
      <trkpt lat="33.937360000" lon="-107.005052000">
        <ele>1728.090</ele>
        <time>2015-02-07T19:41:33Z</time>
        <name>WPT.869</name>
      </trkpt>
      <trkpt lat="33.937261000" lon="-107.005130000">
        <ele>1728.080</ele>
        <time>2015-02-07T19:41:34Z</time>
        <name>WPT.870</name>
      </trkpt>
      <trkpt lat="33.937158000" lon="-107.005205000">
        <ele>1727.970</ele>
        <time>2015-02-07T19:41:35Z</time>
        <name>WPT.871</name>
      </trkpt>
      <trkpt lat="33.937055000" lon="-107.005280000">
        <ele>1728.360</ele>
        <time>2015-02-07T19:41:36Z</time>
        <name>WPT.872</name>
      </trkpt>
      <trkpt lat="33.936949000" lon="-107.005360000">
        <ele>1729.140</ele>
        <time>2015-02-07T19:41:37Z</time>
        <name>WPT.873</name>
      </trkpt>
      <trkpt lat="33.936846000" lon="-107.005450000">
        <ele>1729.230</ele>
        <time>2015-02-07T19:41:38Z</time>
        <name>WPT.874</name>
      </trkpt>
      <trkpt lat="33.936751000" lon="-107.005555000">
        <ele>1729.520</ele>
        <time>2015-02-07T19:41:39Z</time>
        <name>WPT.875</name>
      </trkpt>
      <trkpt lat="33.936661000" lon="-107.005673000">
        <ele>1729.810</ele>
        <time>2015-02-07T19:41:40Z</time>
        <name>WPT.876</name>
      </trkpt>
      <trkpt lat="33.936572000" lon="-107.005797000">
        <ele>1731.480</ele>
        <time>2015-02-07T19:41:41Z</time>
        <name>WPT.877</name>
      </trkpt>
      <trkpt lat="33.936480000" lon="-107.005923000">
        <ele>1733.830</ele>
        <time>2015-02-07T19:41:42Z</time>
        <name>WPT.878</name>
      </trkpt>
      <trkpt lat="33.936389000" lon="-107.006049000">
        <ele>1733.620</ele>
        <time>2015-02-07T19:41:43Z</time>
        <name>WPT.879</name>
      </trkpt>
      <trkpt lat="33.936301000" lon="-107.006174000">
        <ele>1733.520</ele>
        <time>2015-02-07T19:41:44Z</time>
        <name>WPT.880</name>
      </trkpt>
      <trkpt lat="33.936212000" lon="-107.006299000">
        <ele>1733.220</ele>
        <time>2015-02-07T19:41:45Z</time>
        <name>WPT.881</name>
      </trkpt>
      <trkpt lat="33.936128000" lon="-107.006427000">
        <ele>1733.310</ele>
        <time>2015-02-07T19:41:46Z</time>
        <name>WPT.882</name>
      </trkpt>
      <trkpt lat="33.936048000" lon="-107.006565000">
        <ele>1733.690</ele>
        <time>2015-02-07T19:41:47Z</time>
        <name>WPT.883</name>
      </trkpt>
      <trkpt lat="33.935969000" lon="-107.006712000">
        <ele>1737.330</ele>
        <time>2015-02-07T19:41:48Z</time>
        <name>WPT.884</name>
      </trkpt>
      <trkpt lat="33.935886000" lon="-107.006866000">
        <ele>1736.820</ele>
        <time>2015-02-07T19:41:49Z</time>
        <name>WPT.885</name>
      </trkpt>
      <trkpt lat="33.935801000" lon="-107.007025000">
        <ele>1737.800</ele>
        <time>2015-02-07T19:41:50Z</time>
        <name>WPT.886</name>
      </trkpt>
      <trkpt lat="33.935715000" lon="-107.007186000">
        <ele>1741.240</ele>
        <time>2015-02-07T19:41:51Z</time>
        <name>WPT.887</name>
      </trkpt>
      <trkpt lat="33.935632000" lon="-107.007347000">
        <ele>1739.660</ele>
        <time>2015-02-07T19:41:52Z</time>
        <name>WPT.888</name>
      </trkpt>
      <trkpt lat="33.935553000" lon="-107.007505000">
        <ele>1739.160</ele>
        <time>2015-02-07T19:41:53Z</time>
        <name>WPT.889</name>
      </trkpt>
      <trkpt lat="33.935475000" lon="-107.007653000">
        <ele>1739.150</ele>
        <time>2015-02-07T19:41:54Z</time>
        <name>WPT.890</name>
      </trkpt>
      <trkpt lat="33.935397000" lon="-107.007790000">
        <ele>1739.250</ele>
        <time>2015-02-07T19:41:55Z</time>
        <name>WPT.891</name>
      </trkpt>
      <trkpt lat="33.935327000" lon="-107.007912000">
        <ele>1738.850</ele>
        <time>2015-02-07T19:41:56Z</time>
        <name>WPT.892</name>
      </trkpt>
      <trkpt lat="33.935266000" lon="-107.008013000">
        <ele>1734.520</ele>
        <time>2015-02-07T19:41:57Z</time>
        <name>WPT.893</name>
      </trkpt>
      <trkpt lat="33.935212000" lon="-107.008092000">
        <ele>1734.320</ele>
        <time>2015-02-07T19:41:58Z</time>
        <name>WPT.894</name>
      </trkpt>
      <trkpt lat="33.935158000" lon="-107.008153000">
        <ele>1733.440</ele>
        <time>2015-02-07T19:41:59Z</time>
        <name>WPT.895</name>
      </trkpt>
      <trkpt lat="33.935106000" lon="-107.008196000">
        <ele>1732.840</ele>
        <time>2015-02-07T19:42:00Z</time>
        <name>WPT.896</name>
      </trkpt>
      <trkpt lat="33.935059000" lon="-107.008225000">
        <ele>1731.570</ele>
        <time>2015-02-07T19:42:01Z</time>
        <name>WPT.897</name>
      </trkpt>
      <trkpt lat="33.935015000" lon="-107.008243000">
        <ele>1730.780</ele>
        <time>2015-02-07T19:42:02Z</time>
        <name>WPT.898</name>
      </trkpt>
      <trkpt lat="33.934969000" lon="-107.008256000">
        <ele>1730.780</ele>
        <time>2015-02-07T19:42:03Z</time>
        <name>WPT.899</name>
      </trkpt>
      <trkpt lat="33.934917000" lon="-107.008266000">
        <ele>1730.780</ele>
        <time>2015-02-07T19:42:04Z</time>
        <name>WPT.900</name>
      </trkpt>
      <trkpt lat="33.934855000" lon="-107.008275000">
        <ele>1730.780</ele>
        <time>2015-02-07T19:42:05Z</time>
        <name>WPT.901</name>
      </trkpt>
      <trkpt lat="33.934785000" lon="-107.008291000">
        <ele>1730.880</ele>
        <time>2015-02-07T19:42:06Z</time>
        <name>WPT.902</name>
      </trkpt>
      <trkpt lat="33.934711000" lon="-107.008322000">
        <ele>1731.180</ele>
        <time>2015-02-07T19:42:07Z</time>
        <name>WPT.903</name>
      </trkpt>
      <trkpt lat="33.934637000" lon="-107.008371000">
        <ele>1733.740</ele>
        <time>2015-02-07T19:42:08Z</time>
        <name>WPT.904</name>
      </trkpt>
      <trkpt lat="33.934564000" lon="-107.008434000">
        <ele>1734.720</ele>
        <time>2015-02-07T19:42:09Z</time>
        <name>WPT.905</name>
      </trkpt>
      <trkpt lat="33.934491000" lon="-107.008507000">
        <ele>1735.900</ele>
        <time>2015-02-07T19:42:10Z</time>
        <name>WPT.906</name>
      </trkpt>
      <trkpt lat="33.934414000" lon="-107.008579000">
        <ele>1735.800</ele>
        <time>2015-02-07T19:42:11Z</time>
        <name>WPT.907</name>
      </trkpt>
      <trkpt lat="33.934329000" lon="-107.008647000">
        <ele>1735.900</ele>
        <time>2015-02-07T19:42:12Z</time>
        <name>WPT.908</name>
      </trkpt>
      <trkpt lat="33.934239000" lon="-107.008708000">
        <ele>1736.090</ele>
        <time>2015-02-07T19:42:13Z</time>
        <name>WPT.909</name>
      </trkpt>
      <trkpt lat="33.934146000" lon="-107.008768000">
        <ele>1736.190</ele>
        <time>2015-02-07T19:42:14Z</time>
        <name>WPT.910</name>
      </trkpt>
      <trkpt lat="33.934058000" lon="-107.008831000">
        <ele>1736.190</ele>
        <time>2015-02-07T19:42:15Z</time>
        <name>WPT.911</name>
      </trkpt>
      <trkpt lat="33.933978000" lon="-107.008905000">
        <ele>1736.380</ele>
        <time>2015-02-07T19:42:16Z</time>
        <name>WPT.912</name>
      </trkpt>
      <trkpt lat="33.933904000" lon="-107.008990000">
        <ele>1736.380</ele>
        <time>2015-02-07T19:42:17Z</time>
        <name>WPT.913</name>
      </trkpt>
      <trkpt lat="33.933838000" lon="-107.009086000">
        <ele>1736.380</ele>
        <time>2015-02-07T19:42:18Z</time>
        <name>WPT.914</name>
      </trkpt>
      <trkpt lat="33.933776000" lon="-107.009189000">
        <ele>1736.380</ele>
        <time>2015-02-07T19:42:19Z</time>
        <name>WPT.915</name>
      </trkpt>
      <trkpt lat="33.933722000" lon="-107.009301000">
        <ele>1736.380</ele>
        <time>2015-02-07T19:42:20Z</time>
        <name>WPT.916</name>
      </trkpt>
      <trkpt lat="33.933673000" lon="-107.009418000">
        <ele>1736.480</ele>
        <time>2015-02-07T19:42:21Z</time>
        <name>WPT.917</name>
      </trkpt>
      <trkpt lat="33.933627000" lon="-107.009537000">
        <ele>1736.470</ele>
        <time>2015-02-07T19:42:22Z</time>
        <name>WPT.918</name>
      </trkpt>
      <trkpt lat="33.933577000" lon="-107.009655000">
        <ele>1737.060</ele>
        <time>2015-02-07T19:42:23Z</time>
        <name>WPT.919</name>
      </trkpt>
      <trkpt lat="33.933522000" lon="-107.009770000">
        <ele>1738.440</ele>
        <time>2015-02-07T19:42:24Z</time>
        <name>WPT.920</name>
      </trkpt>
      <trkpt lat="33.933462000" lon="-107.009883000">
        <ele>1738.930</ele>
        <time>2015-02-07T19:42:25Z</time>
        <name>WPT.921</name>
      </trkpt>
      <trkpt lat="33.933402000" lon="-107.009992000">
        <ele>1739.020</ele>
        <time>2015-02-07T19:42:26Z</time>
        <name>WPT.922</name>
      </trkpt>
      <trkpt lat="33.933341000" lon="-107.010094000">
        <ele>1739.120</ele>
        <time>2015-02-07T19:42:27Z</time>
        <name>WPT.923</name>
      </trkpt>
      <trkpt lat="33.933284000" lon="-107.010181000">
        <ele>1739.110</ele>
        <time>2015-02-07T19:42:28Z</time>
        <name>WPT.924</name>
      </trkpt>
      <trkpt lat="33.933236000" lon="-107.010247000">
        <ele>1739.110</ele>
        <time>2015-02-07T19:42:29Z</time>
        <name>WPT.925</name>
      </trkpt>
      <trkpt lat="33.933202000" lon="-107.010287000">
        <ele>1736.750</ele>
        <time>2015-02-07T19:42:30Z</time>
        <name>WPT.926</name>
      </trkpt>
      <trkpt lat="33.933186000" lon="-107.010308000">
        <ele>1734.000</ele>
        <time>2015-02-07T19:42:31Z</time>
        <name>WPT.927</name>
      </trkpt>
      <trkpt lat="33.933185000" lon="-107.010307000">
        <ele>1733.710</ele>
        <time>2015-02-07T19:42:32Z</time>
        <name>WPT.928</name>
      </trkpt>
      <trkpt lat="33.933175000" lon="-107.010309000">
        <ele>1733.810</ele>
        <time>2015-02-07T19:42:33Z</time>
        <name>WPT.929</name>
      </trkpt>
      <trkpt lat="33.933175000" lon="-107.010299000">
        <ele>1734.250</ele>
        <time>2015-02-07T19:42:42Z</time>
        <name>WPT.930</name>
      </trkpt>
      <trkpt lat="33.933172000" lon="-107.010303000">
        <ele>1734.260</ele>
        <time>2015-02-07T19:42:43Z</time>
        <name>WPT.931</name>
      </trkpt>
      <trkpt lat="33.933159000" lon="-107.010321000">
        <ele>1734.560</ele>
        <time>2015-02-07T19:42:44Z</time>
        <name>WPT.932</name>
      </trkpt>
      <trkpt lat="33.933140000" lon="-107.010350000">
        <ele>1734.760</ele>
        <time>2015-02-07T19:42:45Z</time>
        <name>WPT.933</name>
      </trkpt>
      <trkpt lat="33.933114000" lon="-107.010390000">
        <ele>1735.260</ele>
        <time>2015-02-07T19:42:46Z</time>
        <name>WPT.934</name>
      </trkpt>
      <trkpt lat="33.933084000" lon="-107.010436000">
        <ele>1736.340</ele>
        <time>2015-02-07T19:42:47Z</time>
        <name>WPT.935</name>
      </trkpt>
      <trkpt lat="33.933051000" lon="-107.010490000">
        <ele>1737.430</ele>
        <time>2015-02-07T19:42:48Z</time>
        <name>WPT.936</name>
      </trkpt>
      <trkpt lat="33.933015000" lon="-107.010554000">
        <ele>1738.510</ele>
        <time>2015-02-07T19:42:49Z</time>
        <name>WPT.937</name>
      </trkpt>
      <trkpt lat="33.932980000" lon="-107.010631000">
        <ele>1738.510</ele>
        <time>2015-02-07T19:42:50Z</time>
        <name>WPT.938</name>
      </trkpt>
      <trkpt lat="33.932952000" lon="-107.010721000">
        <ele>1738.510</ele>
        <time>2015-02-07T19:42:51Z</time>
        <name>WPT.939</name>
      </trkpt>
      <trkpt lat="33.932937000" lon="-107.010821000">
        <ele>1738.910</ele>
        <time>2015-02-07T19:42:52Z</time>
        <name>WPT.940</name>
      </trkpt>
      <trkpt lat="33.932930000" lon="-107.010929000">
        <ele>1739.200</ele>
        <time>2015-02-07T19:42:53Z</time>
        <name>WPT.941</name>
      </trkpt>
      <trkpt lat="33.932925000" lon="-107.011042000">
        <ele>1739.300</ele>
        <time>2015-02-07T19:42:54Z</time>
        <name>WPT.942</name>
      </trkpt>
      <trkpt lat="33.932920000" lon="-107.011155000">
        <ele>1739.790</ele>
        <time>2015-02-07T19:42:55Z</time>
        <name>WPT.943</name>
      </trkpt>
      <trkpt lat="33.932908000" lon="-107.011268000">
        <ele>1742.450</ele>
        <time>2015-02-07T19:42:56Z</time>
        <name>WPT.944</name>
      </trkpt>
      <trkpt lat="33.932884000" lon="-107.011379000">
        <ele>1742.740</ele>
        <time>2015-02-07T19:42:57Z</time>
        <name>WPT.945</name>
      </trkpt>
      <trkpt lat="33.932838000" lon="-107.011485000">
        <ele>1742.730</ele>
        <time>2015-02-07T19:42:58Z</time>
        <name>WPT.946</name>
      </trkpt>
      <trkpt lat="33.932771000" lon="-107.011581000">
        <ele>1742.730</ele>
        <time>2015-02-07T19:42:59Z</time>
        <name>WPT.947</name>
      </trkpt>
      <trkpt lat="33.932684000" lon="-107.011666000">
        <ele>1742.830</ele>
        <time>2015-02-07T19:43:00Z</time>
        <name>WPT.948</name>
      </trkpt>
      <trkpt lat="33.932579000" lon="-107.011734000">
        <ele>1743.710</ele>
        <time>2015-02-07T19:43:01Z</time>
        <name>WPT.949</name>
      </trkpt>
      <trkpt lat="33.932467000" lon="-107.011793000">
        <ele>1745.670</ele>
        <time>2015-02-07T19:43:02Z</time>
        <name>WPT.950</name>
      </trkpt>
      <trkpt lat="33.932355000" lon="-107.011855000">
        <ele>1745.860</ele>
        <time>2015-02-07T19:43:03Z</time>
        <name>WPT.951</name>
      </trkpt>
      <trkpt lat="33.932250000" lon="-107.011931000">
        <ele>1746.050</ele>
        <time>2015-02-07T19:43:04Z</time>
        <name>WPT.952</name>
      </trkpt>
      <trkpt lat="33.932154000" lon="-107.012023000">
        <ele>1746.140</ele>
        <time>2015-02-07T19:43:05Z</time>
        <name>WPT.953</name>
      </trkpt>
      <trkpt lat="33.932066000" lon="-107.012132000">
        <ele>1746.330</ele>
        <time>2015-02-07T19:43:06Z</time>
        <name>WPT.954</name>
      </trkpt>
      <trkpt lat="33.931987000" lon="-107.012255000">
        <ele>1746.530</ele>
        <time>2015-02-07T19:43:07Z</time>
        <name>WPT.955</name>
      </trkpt>
      <trkpt lat="33.931913000" lon="-107.012386000">
        <ele>1746.520</ele>
        <time>2015-02-07T19:43:08Z</time>
        <name>WPT.956</name>
      </trkpt>
      <trkpt lat="33.931843000" lon="-107.012519000">
        <ele>1746.610</ele>
        <time>2015-02-07T19:43:09Z</time>
        <name>WPT.957</name>
      </trkpt>
      <trkpt lat="33.931772000" lon="-107.012651000">
        <ele>1746.600</ele>
        <time>2015-02-07T19:43:10Z</time>
        <name>WPT.958</name>
      </trkpt>
      <trkpt lat="33.931696000" lon="-107.012780000">
        <ele>1746.600</ele>
        <time>2015-02-07T19:43:11Z</time>
        <name>WPT.959</name>
      </trkpt>
      <trkpt lat="33.931616000" lon="-107.012906000">
        <ele>1746.590</ele>
        <time>2015-02-07T19:43:12Z</time>
        <name>WPT.960</name>
      </trkpt>
      <trkpt lat="33.931531000" lon="-107.013031000">
        <ele>1746.580</ele>
        <time>2015-02-07T19:43:13Z</time>
        <name>WPT.961</name>
      </trkpt>
      <trkpt lat="33.931442000" lon="-107.013153000">
        <ele>1746.580</ele>
        <time>2015-02-07T19:43:14Z</time>
        <name>WPT.962</name>
      </trkpt>
      <trkpt lat="33.931343000" lon="-107.013269000">
        <ele>1746.570</ele>
        <time>2015-02-07T19:43:15Z</time>
        <name>WPT.963</name>
      </trkpt>
      <trkpt lat="33.931236000" lon="-107.013377000">
        <ele>1746.570</ele>
        <time>2015-02-07T19:43:16Z</time>
        <name>WPT.964</name>
      </trkpt>
      <trkpt lat="33.931123000" lon="-107.013478000">
        <ele>1746.560</ele>
        <time>2015-02-07T19:43:17Z</time>
        <name>WPT.965</name>
      </trkpt>
      <trkpt lat="33.931006000" lon="-107.013572000">
        <ele>1746.560</ele>
        <time>2015-02-07T19:43:18Z</time>
        <name>WPT.966</name>
      </trkpt>
      <trkpt lat="33.930892000" lon="-107.013666000">
        <ele>1746.850</ele>
        <time>2015-02-07T19:43:19Z</time>
        <name>WPT.967</name>
      </trkpt>
      <trkpt lat="33.930785000" lon="-107.013769000">
        <ele>1747.040</ele>
        <time>2015-02-07T19:43:20Z</time>
        <name>WPT.968</name>
      </trkpt>
      <trkpt lat="33.930686000" lon="-107.013883000">
        <ele>1747.230</ele>
        <time>2015-02-07T19:43:21Z</time>
        <name>WPT.969</name>
      </trkpt>
      <trkpt lat="33.930594000" lon="-107.014009000">
        <ele>1746.930</ele>
        <time>2015-02-07T19:43:22Z</time>
        <name>WPT.970</name>
      </trkpt>
      <trkpt lat="33.930504000" lon="-107.014144000">
        <ele>1747.020</ele>
        <time>2015-02-07T19:43:23Z</time>
        <name>WPT.971</name>
      </trkpt>
      <trkpt lat="33.930414000" lon="-107.014279000">
        <ele>1748.780</ele>
        <time>2015-02-07T19:43:24Z</time>
        <name>WPT.972</name>
      </trkpt>
      <trkpt lat="33.930321000" lon="-107.014415000">
        <ele>1748.570</ele>
        <time>2015-02-07T19:43:25Z</time>
        <name>WPT.973</name>
      </trkpt>
      <trkpt lat="33.930222000" lon="-107.014549000">
        <ele>1748.660</ele>
        <time>2015-02-07T19:43:26Z</time>
        <name>WPT.974</name>
      </trkpt>
      <trkpt lat="33.930122000" lon="-107.014677000">
        <ele>1748.660</ele>
        <time>2015-02-07T19:43:27Z</time>
        <name>WPT.975</name>
      </trkpt>
      <trkpt lat="33.930026000" lon="-107.014798000">
        <ele>1748.650</ele>
        <time>2015-02-07T19:43:28Z</time>
        <name>WPT.976</name>
      </trkpt>
      <trkpt lat="33.929931000" lon="-107.014918000">
        <ele>1748.640</ele>
        <time>2015-02-07T19:43:29Z</time>
        <name>WPT.977</name>
      </trkpt>
      <trkpt lat="33.929836000" lon="-107.015044000">
        <ele>1748.630</ele>
        <time>2015-02-07T19:43:30Z</time>
        <name>WPT.978</name>
      </trkpt>
      <trkpt lat="33.929743000" lon="-107.015175000">
        <ele>1748.720</ele>
        <time>2015-02-07T19:43:31Z</time>
        <name>WPT.979</name>
      </trkpt>
      <trkpt lat="33.929654000" lon="-107.015313000">
        <ele>1748.910</ele>
        <time>2015-02-07T19:43:32Z</time>
        <name>WPT.980</name>
      </trkpt>
      <trkpt lat="33.929565000" lon="-107.015457000">
        <ele>1750.680</ele>
        <time>2015-02-07T19:43:33Z</time>
        <name>WPT.981</name>
      </trkpt>
      <trkpt lat="33.929474000" lon="-107.015608000">
        <ele>1752.340</ele>
        <time>2015-02-07T19:43:34Z</time>
        <name>WPT.982</name>
      </trkpt>
      <trkpt lat="33.929381000" lon="-107.015763000">
        <ele>1752.420</ele>
        <time>2015-02-07T19:43:35Z</time>
        <name>WPT.983</name>
      </trkpt>
      <trkpt lat="33.929284000" lon="-107.015921000">
        <ele>1755.170</ele>
        <time>2015-02-07T19:43:36Z</time>
        <name>WPT.984</name>
      </trkpt>
      <trkpt lat="33.929185000" lon="-107.016085000">
        <ele>1755.940</ele>
        <time>2015-02-07T19:43:37Z</time>
        <name>WPT.985</name>
      </trkpt>
      <trkpt lat="33.929084000" lon="-107.016252000">
        <ele>1756.220</ele>
        <time>2015-02-07T19:43:38Z</time>
        <name>WPT.986</name>
      </trkpt>
      <trkpt lat="33.928982000" lon="-107.016423000">
        <ele>1758.270</ele>
        <time>2015-02-07T19:43:39Z</time>
        <name>WPT.987</name>
      </trkpt>
      <trkpt lat="33.928879000" lon="-107.016597000">
        <ele>1760.310</ele>
        <time>2015-02-07T19:43:40Z</time>
        <name>WPT.988</name>
      </trkpt>
      <trkpt lat="33.928779000" lon="-107.016769000">
        <ele>1760.980</ele>
        <time>2015-02-07T19:43:41Z</time>
        <name>WPT.989</name>
      </trkpt>
      <trkpt lat="33.928685000" lon="-107.016938000">
        <ele>1760.770</ele>
        <time>2015-02-07T19:43:42Z</time>
        <name>WPT.990</name>
      </trkpt>
      <trkpt lat="33.928597000" lon="-107.017101000">
        <ele>1761.730</ele>
        <time>2015-02-07T19:43:43Z</time>
        <name>WPT.991</name>
      </trkpt>
      <trkpt lat="33.928514000" lon="-107.017257000">
        <ele>1761.910</ele>
        <time>2015-02-07T19:43:44Z</time>
        <name>WPT.992</name>
      </trkpt>
      <trkpt lat="33.928432000" lon="-107.017406000">
        <ele>1761.890</ele>
        <time>2015-02-07T19:43:45Z</time>
        <name>WPT.993</name>
      </trkpt>
      <trkpt lat="33.928352000" lon="-107.017548000">
        <ele>1760.200</ele>
        <time>2015-02-07T19:43:46Z</time>
        <name>WPT.994</name>
      </trkpt>
      <trkpt lat="33.928270000" lon="-107.017688000">
        <ele>1762.350</ele>
        <time>2015-02-07T19:43:47Z</time>
        <name>WPT.995</name>
      </trkpt>
      <trkpt lat="33.928188000" lon="-107.017827000">
        <ele>1762.440</ele>
        <time>2015-02-07T19:43:48Z</time>
        <name>WPT.996</name>
      </trkpt>
      <trkpt lat="33.928107000" lon="-107.017965000">
        <ele>1762.520</ele>
        <time>2015-02-07T19:43:49Z</time>
        <name>WPT.997</name>
      </trkpt>
      <trkpt lat="33.928027000" lon="-107.018105000">
        <ele>1762.600</ele>
        <time>2015-02-07T19:43:50Z</time>
        <name>WPT.998</name>
      </trkpt>
      <trkpt lat="33.927951000" lon="-107.018248000">
        <ele>1762.790</ele>
        <time>2015-02-07T19:43:51Z</time>
        <name>WPT.999</name>
      </trkpt>
      <trkpt lat="33.927878000" lon="-107.018394000">
        <ele>1762.770</ele>
        <time>2015-02-07T19:43:52Z</time>
        <name>WPT.1000</name>
      </trkpt>
      <trkpt lat="33.927807000" lon="-107.018542000">
        <ele>1762.860</ele>
        <time>2015-02-07T19:43:53Z</time>
        <name>WPT.1001</name>
      </trkpt>
      <trkpt lat="33.927738000" lon="-107.018690000">
        <ele>1764.810</ele>
        <time>2015-02-07T19:43:54Z</time>
        <name>WPT.1002</name>
      </trkpt>
      <trkpt lat="33.927670000" lon="-107.018840000">
        <ele>1765.980</ele>
        <time>2015-02-07T19:43:55Z</time>
        <name>WPT.1003</name>
      </trkpt>
      <trkpt lat="33.927606000" lon="-107.018989000">
        <ele>1766.550</ele>
        <time>2015-02-07T19:43:56Z</time>
        <name>WPT.1004</name>
      </trkpt>
      <trkpt lat="33.927547000" lon="-107.019136000">
        <ele>1766.540</ele>
        <time>2015-02-07T19:43:57Z</time>
        <name>WPT.1005</name>
      </trkpt>
      <trkpt lat="33.927495000" lon="-107.019282000">
        <ele>1766.530</ele>
        <time>2015-02-07T19:43:58Z</time>
        <name>WPT.1006</name>
      </trkpt>
      <trkpt lat="33.927452000" lon="-107.019428000">
        <ele>1766.520</ele>
        <time>2015-02-07T19:43:59Z</time>
        <name>WPT.1007</name>
      </trkpt>
      <trkpt lat="33.927418000" lon="-107.019573000">
        <ele>1766.800</ele>
        <time>2015-02-07T19:44:00Z</time>
        <name>WPT.1008</name>
      </trkpt>
      <trkpt lat="33.927389000" lon="-107.019714000">
        <ele>1766.990</ele>
        <time>2015-02-07T19:44:01Z</time>
        <name>WPT.1009</name>
      </trkpt>
      <trkpt lat="33.927359000" lon="-107.019848000">
        <ele>1766.980</ele>
        <time>2015-02-07T19:44:02Z</time>
        <name>WPT.1010</name>
      </trkpt>
      <trkpt lat="33.927325000" lon="-107.019972000">
        <ele>1766.970</ele>
        <time>2015-02-07T19:44:03Z</time>
        <name>WPT.1011</name>
      </trkpt>
      <trkpt lat="33.927286000" lon="-107.020093000">
        <ele>1767.060</ele>
        <time>2015-02-07T19:44:04Z</time>
        <name>WPT.1012</name>
      </trkpt>
      <trkpt lat="33.927238000" lon="-107.020215000">
        <ele>1767.750</ele>
        <time>2015-02-07T19:44:05Z</time>
        <name>WPT.1013</name>
      </trkpt>
      <trkpt lat="33.927183000" lon="-107.020337000">
        <ele>1768.430</ele>
        <time>2015-02-07T19:44:06Z</time>
        <name>WPT.1014</name>
      </trkpt>
      <trkpt lat="33.927122000" lon="-107.020457000">
        <ele>1769.500</ele>
        <time>2015-02-07T19:44:07Z</time>
        <name>WPT.1015</name>
      </trkpt>
      <trkpt lat="33.927062000" lon="-107.020572000">
        <ele>1769.990</ele>
        <time>2015-02-07T19:44:08Z</time>
        <name>WPT.1016</name>
      </trkpt>
      <trkpt lat="33.927002000" lon="-107.020686000">
        <ele>1770.370</ele>
        <time>2015-02-07T19:44:09Z</time>
        <name>WPT.1017</name>
      </trkpt>
      <trkpt lat="33.926943000" lon="-107.020801000">
        <ele>1772.140</ele>
        <time>2015-02-07T19:44:10Z</time>
        <name>WPT.1018</name>
      </trkpt>
      <trkpt lat="33.926882000" lon="-107.020919000">
        <ele>1772.030</ele>
        <time>2015-02-07T19:44:11Z</time>
        <name>WPT.1019</name>
      </trkpt>
      <trkpt lat="33.926820000" lon="-107.021035000">
        <ele>1772.120</ele>
        <time>2015-02-07T19:44:12Z</time>
        <name>WPT.1020</name>
      </trkpt>
      <trkpt lat="33.926760000" lon="-107.021138000">
        <ele>1771.920</ele>
        <time>2015-02-07T19:44:13Z</time>
        <name>WPT.1021</name>
      </trkpt>
      <trkpt lat="33.926702000" lon="-107.021225000">
        <ele>1772.210</ele>
        <time>2015-02-07T19:44:14Z</time>
        <name>WPT.1022</name>
      </trkpt>
      <trkpt lat="33.926643000" lon="-107.021296000">
        <ele>1772.400</ele>
        <time>2015-02-07T19:44:15Z</time>
        <name>WPT.1023</name>
      </trkpt>
      <trkpt lat="33.926579000" lon="-107.021353000">
        <ele>1772.400</ele>
        <time>2015-02-07T19:44:16Z</time>
        <name>WPT.1024</name>
      </trkpt>
      <trkpt lat="33.926508000" lon="-107.021400000">
        <ele>1772.400</ele>
        <time>2015-02-07T19:44:17Z</time>
        <name>WPT.1025</name>
      </trkpt>
      <trkpt lat="33.926424000" lon="-107.021444000">
        <ele>1772.490</ele>
        <time>2015-02-07T19:44:18Z</time>
        <name>WPT.1026</name>
      </trkpt>
      <trkpt lat="33.926329000" lon="-107.021491000">
        <ele>1773.180</ele>
        <time>2015-02-07T19:44:19Z</time>
        <name>WPT.1027</name>
      </trkpt>
      <trkpt lat="33.926226000" lon="-107.021548000">
        <ele>1773.180</ele>
        <time>2015-02-07T19:44:20Z</time>
        <name>WPT.1028</name>
      </trkpt>
      <trkpt lat="33.926116000" lon="-107.021614000">
        <ele>1773.170</ele>
        <time>2015-02-07T19:44:21Z</time>
        <name>WPT.1029</name>
      </trkpt>
      <trkpt lat="33.926000000" lon="-107.021691000">
        <ele>1773.070</ele>
        <time>2015-02-07T19:44:22Z</time>
        <name>WPT.1030</name>
      </trkpt>
      <trkpt lat="33.925878000" lon="-107.021770000">
        <ele>1771.990</ele>
        <time>2015-02-07T19:44:23Z</time>
        <name>WPT.1031</name>
      </trkpt>
      <trkpt lat="33.925751000" lon="-107.021850000">
        <ele>1771.590</ele>
        <time>2015-02-07T19:44:24Z</time>
        <name>WPT.1032</name>
      </trkpt>
      <trkpt lat="33.925622000" lon="-107.021931000">
        <ele>1771.490</ele>
        <time>2015-02-07T19:44:25Z</time>
        <name>WPT.1033</name>
      </trkpt>
      <trkpt lat="33.925491000" lon="-107.022013000">
        <ele>1769.420</ele>
        <time>2015-02-07T19:44:26Z</time>
        <name>WPT.1034</name>
      </trkpt>
      <trkpt lat="33.925359000" lon="-107.022091000">
        <ele>1768.530</ele>
        <time>2015-02-07T19:44:27Z</time>
        <name>WPT.1035</name>
      </trkpt>
      <trkpt lat="33.925224000" lon="-107.022159000">
        <ele>1768.530</ele>
        <time>2015-02-07T19:44:28Z</time>
        <name>WPT.1036</name>
      </trkpt>
      <trkpt lat="33.925083000" lon="-107.022218000">
        <ele>1767.840</ele>
        <time>2015-02-07T19:44:29Z</time>
        <name>WPT.1037</name>
      </trkpt>
      <trkpt lat="33.924934000" lon="-107.022259000">
        <ele>1766.460</ele>
        <time>2015-02-07T19:44:30Z</time>
        <name>WPT.1038</name>
      </trkpt>
      <trkpt lat="33.924778000" lon="-107.022288000">
        <ele>1764.690</ele>
        <time>2015-02-07T19:44:31Z</time>
        <name>WPT.1039</name>
      </trkpt>
      <trkpt lat="33.924614000" lon="-107.022312000">
        <ele>1764.780</ele>
        <time>2015-02-07T19:44:32Z</time>
        <name>WPT.1040</name>
      </trkpt>
      <trkpt lat="33.924447000" lon="-107.022328000">
        <ele>1764.490</ele>
        <time>2015-02-07T19:44:33Z</time>
        <name>WPT.1041</name>
      </trkpt>
      <trkpt lat="33.924280000" lon="-107.022341000">
        <ele>1764.190</ele>
        <time>2015-02-07T19:44:34Z</time>
        <name>WPT.1042</name>
      </trkpt>
      <trkpt lat="33.924119000" lon="-107.022354000">
        <ele>1762.220</ele>
        <time>2015-02-07T19:44:35Z</time>
        <name>WPT.1043</name>
      </trkpt>
      <trkpt lat="33.923972000" lon="-107.022374000">
        <ele>1759.960</ele>
        <time>2015-02-07T19:44:36Z</time>
        <name>WPT.1044</name>
      </trkpt>
      <trkpt lat="33.923843000" lon="-107.022400000">
        <ele>1758.680</ele>
        <time>2015-02-07T19:44:37Z</time>
        <name>WPT.1045</name>
      </trkpt>
      <trkpt lat="33.923725000" lon="-107.022433000">
        <ele>1755.930</ele>
        <time>2015-02-07T19:44:38Z</time>
        <name>WPT.1046</name>
      </trkpt>
      <trkpt lat="33.923610000" lon="-107.022469000">
        <ele>1756.230</ele>
        <time>2015-02-07T19:44:39Z</time>
        <name>WPT.1047</name>
      </trkpt>
      <trkpt lat="33.923498000" lon="-107.022499000">
        <ele>1756.030</ele>
        <time>2015-02-07T19:44:40Z</time>
        <name>WPT.1048</name>
      </trkpt>
      <trkpt lat="33.923395000" lon="-107.022513000">
        <ele>1754.950</ele>
        <time>2015-02-07T19:44:41Z</time>
        <name>WPT.1049</name>
      </trkpt>
      <trkpt lat="33.923306000" lon="-107.022507000">
        <ele>1754.760</ele>
        <time>2015-02-07T19:44:42Z</time>
        <name>WPT.1050</name>
      </trkpt>
      <trkpt lat="33.923226000" lon="-107.022483000">
        <ele>1754.270</ele>
        <time>2015-02-07T19:44:43Z</time>
        <name>WPT.1051</name>
      </trkpt>
      <trkpt lat="33.923151000" lon="-107.022443000">
        <ele>1754.080</ele>
        <time>2015-02-07T19:44:44Z</time>
        <name>WPT.1052</name>
      </trkpt>
      <trkpt lat="33.923084000" lon="-107.022390000">
        <ele>1753.780</ele>
        <time>2015-02-07T19:44:45Z</time>
        <name>WPT.1053</name>
      </trkpt>
      <trkpt lat="33.923015000" lon="-107.022330000">
        <ele>1753.690</ele>
        <time>2015-02-07T19:44:46Z</time>
        <name>WPT.1054</name>
      </trkpt>
      <trkpt lat="33.922939000" lon="-107.022263000">
        <ele>1753.690</ele>
        <time>2015-02-07T19:44:47Z</time>
        <name>WPT.1055</name>
      </trkpt>
      <trkpt lat="33.922857000" lon="-107.022192000">
        <ele>1753.690</ele>
        <time>2015-02-07T19:44:48Z</time>
        <name>WPT.1056</name>
      </trkpt>
      <trkpt lat="33.922772000" lon="-107.022118000">
        <ele>1753.690</ele>
        <time>2015-02-07T19:44:49Z</time>
        <name>WPT.1057</name>
      </trkpt>
      <trkpt lat="33.922688000" lon="-107.022042000">
        <ele>1753.790</ele>
        <time>2015-02-07T19:44:50Z</time>
        <name>WPT.1058</name>
      </trkpt>
      <trkpt lat="33.922605000" lon="-107.021967000">
        <ele>1754.280</ele>
        <time>2015-02-07T19:44:51Z</time>
        <name>WPT.1059</name>
      </trkpt>
      <trkpt lat="33.922519000" lon="-107.021894000">
        <ele>1754.580</ele>
        <time>2015-02-07T19:44:52Z</time>
        <name>WPT.1060</name>
      </trkpt>
      <trkpt lat="33.922430000" lon="-107.021834000">
        <ele>1754.570</ele>
        <time>2015-02-07T19:44:53Z</time>
        <name>WPT.1061</name>
      </trkpt>
      <trkpt lat="33.922342000" lon="-107.021794000">
        <ele>1753.590</ele>
        <time>2015-02-07T19:44:54Z</time>
        <name>WPT.1062</name>
      </trkpt>
      <trkpt lat="33.922260000" lon="-107.021771000">
        <ele>1750.640</ele>
        <time>2015-02-07T19:44:55Z</time>
        <name>WPT.1063</name>
      </trkpt>
      <trkpt lat="33.922184000" lon="-107.021763000">
        <ele>1749.760</ele>
        <time>2015-02-07T19:44:56Z</time>
        <name>WPT.1064</name>
      </trkpt>
      <trkpt lat="33.922119000" lon="-107.021761000">
        <ele>1748.970</ele>
        <time>2015-02-07T19:44:57Z</time>
        <name>WPT.1065</name>
      </trkpt>
      <trkpt lat="33.922065000" lon="-107.021763000">
        <ele>1748.580</ele>
        <time>2015-02-07T19:44:58Z</time>
        <name>WPT.1066</name>
      </trkpt>
      <trkpt lat="33.922016000" lon="-107.021769000">
        <ele>1748.680</ele>
        <time>2015-02-07T19:44:59Z</time>
        <name>WPT.1067</name>
      </trkpt>
      <trkpt lat="33.921964000" lon="-107.021776000">
        <ele>1748.680</ele>
        <time>2015-02-07T19:45:00Z</time>
        <name>WPT.1068</name>
      </trkpt>
      <trkpt lat="33.921902000" lon="-107.021785000">
        <ele>1748.680</ele>
        <time>2015-02-07T19:45:01Z</time>
        <name>WPT.1069</name>
      </trkpt>
      <trkpt lat="33.921833000" lon="-107.021790000">
        <ele>1749.570</ele>
        <time>2015-02-07T19:45:02Z</time>
        <name>WPT.1070</name>
      </trkpt>
      <trkpt lat="33.921756000" lon="-107.021788000">
        <ele>1750.360</ele>
        <time>2015-02-07T19:45:03Z</time>
        <name>WPT.1071</name>
      </trkpt>
      <trkpt lat="33.921674000" lon="-107.021775000">
        <ele>1750.360</ele>
        <time>2015-02-07T19:45:04Z</time>
        <name>WPT.1072</name>
      </trkpt>
      <trkpt lat="33.921591000" lon="-107.021749000">
        <ele>1750.360</ele>
        <time>2015-02-07T19:45:05Z</time>
        <name>WPT.1073</name>
      </trkpt>
      <trkpt lat="33.921507000" lon="-107.021709000">
        <ele>1750.360</ele>
        <time>2015-02-07T19:45:06Z</time>
        <name>WPT.1074</name>
      </trkpt>
      <trkpt lat="33.921427000" lon="-107.021654000">
        <ele>1750.360</ele>
        <time>2015-02-07T19:45:07Z</time>
        <name>WPT.1075</name>
      </trkpt>
      <trkpt lat="33.921359000" lon="-107.021584000">
        <ele>1750.260</ele>
        <time>2015-02-07T19:45:08Z</time>
        <name>WPT.1076</name>
      </trkpt>
      <trkpt lat="33.921304000" lon="-107.021501000">
        <ele>1750.260</ele>
        <time>2015-02-07T19:45:09Z</time>
        <name>WPT.1077</name>
      </trkpt>
      <trkpt lat="33.921255000" lon="-107.021418000">
        <ele>1749.180</ele>
        <time>2015-02-07T19:45:10Z</time>
        <name>WPT.1078</name>
      </trkpt>
      <trkpt lat="33.921203000" lon="-107.021347000">
        <ele>1748.290</ele>
        <time>2015-02-07T19:45:11Z</time>
        <name>WPT.1079</name>
      </trkpt>
      <trkpt lat="33.921146000" lon="-107.021293000">
        <ele>1746.720</ele>
        <time>2015-02-07T19:45:12Z</time>
        <name>WPT.1080</name>
      </trkpt>
      <trkpt lat="33.921086000" lon="-107.021253000">
        <ele>1746.230</ele>
        <time>2015-02-07T19:45:13Z</time>
        <name>WPT.1081</name>
      </trkpt>
      <trkpt lat="33.921025000" lon="-107.021225000">
        <ele>1745.840</ele>
        <time>2015-02-07T19:45:14Z</time>
        <name>WPT.1082</name>
      </trkpt>
      <trkpt lat="33.920956000" lon="-107.021205000">
        <ele>1745.840</ele>
        <time>2015-02-07T19:45:15Z</time>
        <name>WPT.1083</name>
      </trkpt>
      <trkpt lat="33.920877000" lon="-107.021186000">
        <ele>1745.840</ele>
        <time>2015-02-07T19:45:16Z</time>
        <name>WPT.1084</name>
      </trkpt>
      <trkpt lat="33.920790000" lon="-107.021164000">
        <ele>1745.850</ele>
        <time>2015-02-07T19:45:17Z</time>
        <name>WPT.1085</name>
      </trkpt>
      <trkpt lat="33.920694000" lon="-107.021140000">
        <ele>1746.040</ele>
        <time>2015-02-07T19:45:18Z</time>
        <name>WPT.1086</name>
      </trkpt>
      <trkpt lat="33.920594000" lon="-107.021113000">
        <ele>1747.130</ele>
        <time>2015-02-07T19:45:19Z</time>
        <name>WPT.1087</name>
      </trkpt>
      <trkpt lat="33.920492000" lon="-107.021079000">
        <ele>1748.210</ele>
        <time>2015-02-07T19:45:20Z</time>
        <name>WPT.1088</name>
      </trkpt>
      <trkpt lat="33.920384000" lon="-107.021038000">
        <ele>1748.210</ele>
        <time>2015-02-07T19:45:21Z</time>
        <name>WPT.1089</name>
      </trkpt>
      <trkpt lat="33.920267000" lon="-107.020993000">
        <ele>1748.210</ele>
        <time>2015-02-07T19:45:22Z</time>
        <name>WPT.1090</name>
      </trkpt>
      <trkpt lat="33.920144000" lon="-107.020951000">
        <ele>1748.210</ele>
        <time>2015-02-07T19:45:23Z</time>
        <name>WPT.1091</name>
      </trkpt>
      <trkpt lat="33.920015000" lon="-107.020918000">
        <ele>1748.210</ele>
        <time>2015-02-07T19:45:24Z</time>
        <name>WPT.1092</name>
      </trkpt>
      <trkpt lat="33.919881000" lon="-107.020894000">
        <ele>1748.500</ele>
        <time>2015-02-07T19:45:25Z</time>
        <name>WPT.1093</name>
      </trkpt>
      <trkpt lat="33.919739000" lon="-107.020880000">
        <ele>1750.950</ele>
        <time>2015-02-07T19:45:26Z</time>
        <name>WPT.1094</name>
      </trkpt>
      <trkpt lat="33.919590000" lon="-107.020877000">
        <ele>1751.240</ele>
        <time>2015-02-07T19:45:27Z</time>
        <name>WPT.1095</name>
      </trkpt>
      <trkpt lat="33.919440000" lon="-107.020883000">
        <ele>1750.650</ele>
        <time>2015-02-07T19:45:28Z</time>
        <name>WPT.1096</name>
      </trkpt>
      <trkpt lat="33.919290000" lon="-107.020896000">
        <ele>1750.450</ele>
        <time>2015-02-07T19:45:29Z</time>
        <name>WPT.1097</name>
      </trkpt>
      <trkpt lat="33.919142000" lon="-107.020912000">
        <ele>1750.540</ele>
        <time>2015-02-07T19:45:30Z</time>
        <name>WPT.1098</name>
      </trkpt>
      <trkpt lat="33.918999000" lon="-107.020925000">
        <ele>1750.140</ele>
        <time>2015-02-07T19:45:31Z</time>
        <name>WPT.1099</name>
      </trkpt>
      <trkpt lat="33.918869000" lon="-107.020931000">
        <ele>1748.560</ele>
        <time>2015-02-07T19:45:32Z</time>
        <name>WPT.1100</name>
      </trkpt>
      <trkpt lat="33.918751000" lon="-107.020930000">
        <ele>1746.980</ele>
        <time>2015-02-07T19:45:33Z</time>
        <name>WPT.1101</name>
      </trkpt>
      <trkpt lat="33.918635000" lon="-107.020917000">
        <ele>1745.210</ele>
        <time>2015-02-07T19:45:34Z</time>
        <name>WPT.1102</name>
      </trkpt>
      <trkpt lat="33.918521000" lon="-107.020884000">
        <ele>1744.910</ele>
        <time>2015-02-07T19:45:35Z</time>
        <name>WPT.1103</name>
      </trkpt>
      <trkpt lat="33.918413000" lon="-107.020832000">
        <ele>1744.810</ele>
        <time>2015-02-07T19:45:36Z</time>
        <name>WPT.1104</name>
      </trkpt>
      <trkpt lat="33.918298000" lon="-107.020775000">
        <ele>1745.110</ele>
        <time>2015-02-07T19:45:37Z</time>
        <name>WPT.1105</name>
      </trkpt>
      <trkpt lat="33.918174000" lon="-107.020720000">
        <ele>1746.680</ele>
        <time>2015-02-07T19:45:38Z</time>
        <name>WPT.1106</name>
      </trkpt>
      <trkpt lat="33.918041000" lon="-107.020672000">
        <ele>1747.850</ele>
        <time>2015-02-07T19:45:39Z</time>
        <name>WPT.1107</name>
      </trkpt>
      <trkpt lat="33.917904000" lon="-107.020628000">
        <ele>1748.340</ele>
        <time>2015-02-07T19:45:40Z</time>
        <name>WPT.1108</name>
      </trkpt>
      <trkpt lat="33.917764000" lon="-107.020589000">
        <ele>1748.230</ele>
        <time>2015-02-07T19:45:41Z</time>
        <name>WPT.1109</name>
      </trkpt>
      <trkpt lat="33.917626000" lon="-107.020547000">
        <ele>1747.440</ele>
        <time>2015-02-07T19:45:42Z</time>
        <name>WPT.1110</name>
      </trkpt>
      <trkpt lat="33.917486000" lon="-107.020499000">
        <ele>1746.060</ele>
        <time>2015-02-07T19:45:43Z</time>
        <name>WPT.1111</name>
      </trkpt>
      <trkpt lat="33.917344000" lon="-107.020449000">
        <ele>1746.150</ele>
        <time>2015-02-07T19:45:44Z</time>
        <name>WPT.1112</name>
      </trkpt>
      <trkpt lat="33.917206000" lon="-107.020395000">
        <ele>1746.050</ele>
        <time>2015-02-07T19:45:45Z</time>
        <name>WPT.1113</name>
      </trkpt>
      <trkpt lat="33.917067000" lon="-107.020339000">
        <ele>1745.740</ele>
        <time>2015-02-07T19:45:46Z</time>
        <name>WPT.1114</name>
      </trkpt>
      <trkpt lat="33.916930000" lon="-107.020280000">
        <ele>1743.380</ele>
        <time>2015-02-07T19:45:47Z</time>
        <name>WPT.1115</name>
      </trkpt>
      <trkpt lat="33.916796000" lon="-107.020217000">
        <ele>1743.470</ele>
        <time>2015-02-07T19:45:48Z</time>
        <name>WPT.1116</name>
      </trkpt>
      <trkpt lat="33.916660000" lon="-107.020154000">
        <ele>1743.070</ele>
        <time>2015-02-07T19:45:49Z</time>
        <name>WPT.1117</name>
      </trkpt>
      <trkpt lat="33.916524000" lon="-107.020093000">
        <ele>1741.890</ele>
        <time>2015-02-07T19:45:50Z</time>
        <name>WPT.1118</name>
      </trkpt>
      <trkpt lat="33.916388000" lon="-107.020035000">
        <ele>1739.230</ele>
        <time>2015-02-07T19:45:51Z</time>
        <name>WPT.1119</name>
      </trkpt>
      <trkpt lat="33.916252000" lon="-107.019983000">
        <ele>1738.340</ele>
        <time>2015-02-07T19:45:52Z</time>
        <name>WPT.1120</name>
      </trkpt>
      <trkpt lat="33.916117000" lon="-107.019934000">
        <ele>1738.340</ele>
        <time>2015-02-07T19:45:53Z</time>
        <name>WPT.1121</name>
      </trkpt>
      <trkpt lat="33.915984000" lon="-107.019886000">
        <ele>1738.240</ele>
        <time>2015-02-07T19:45:54Z</time>
        <name>WPT.1122</name>
      </trkpt>
      <trkpt lat="33.915850000" lon="-107.019832000">
        <ele>1738.140</ele>
        <time>2015-02-07T19:45:55Z</time>
        <name>WPT.1123</name>
      </trkpt>
      <trkpt lat="33.915710000" lon="-107.019772000">
        <ele>1737.940</ele>
        <time>2015-02-07T19:45:56Z</time>
        <name>WPT.1124</name>
      </trkpt>
      <trkpt lat="33.915569000" lon="-107.019708000">
        <ele>1737.740</ele>
        <time>2015-02-07T19:45:57Z</time>
        <name>WPT.1125</name>
      </trkpt>
      <trkpt lat="33.915425000" lon="-107.019642000">
        <ele>1738.130</ele>
        <time>2015-02-07T19:45:58Z</time>
        <name>WPT.1126</name>
      </trkpt>
      <trkpt lat="33.915280000" lon="-107.019577000">
        <ele>1738.130</ele>
        <time>2015-02-07T19:45:59Z</time>
        <name>WPT.1127</name>
      </trkpt>
      <trkpt lat="33.915133000" lon="-107.019513000">
        <ele>1738.130</ele>
        <time>2015-02-07T19:46:00Z</time>
        <name>WPT.1128</name>
      </trkpt>
      <trkpt lat="33.914987000" lon="-107.019448000">
        <ele>1738.120</ele>
        <time>2015-02-07T19:46:01Z</time>
        <name>WPT.1129</name>
      </trkpt>
      <trkpt lat="33.914843000" lon="-107.019379000">
        <ele>1738.020</ele>
        <time>2015-02-07T19:46:02Z</time>
        <name>WPT.1130</name>
      </trkpt>
      <trkpt lat="33.914701000" lon="-107.019310000">
        <ele>1738.010</ele>
        <time>2015-02-07T19:46:03Z</time>
        <name>WPT.1131</name>
      </trkpt>
      <trkpt lat="33.914556000" lon="-107.019240000">
        <ele>1737.910</ele>
        <time>2015-02-07T19:46:04Z</time>
        <name>WPT.1132</name>
      </trkpt>
      <trkpt lat="33.914407000" lon="-107.019174000">
        <ele>1738.100</ele>
        <time>2015-02-07T19:46:05Z</time>
        <name>WPT.1133</name>
      </trkpt>
      <trkpt lat="33.914260000" lon="-107.019115000">
        <ele>1738.190</ele>
        <time>2015-02-07T19:46:06Z</time>
        <name>WPT.1134</name>
      </trkpt>
      <trkpt lat="33.914122000" lon="-107.019057000">
        <ele>1737.100</ele>
        <time>2015-02-07T19:46:07Z</time>
        <name>WPT.1135</name>
      </trkpt>
      <trkpt lat="33.913991000" lon="-107.018993000">
        <ele>1736.210</ele>
        <time>2015-02-07T19:46:08Z</time>
        <name>WPT.1136</name>
      </trkpt>
      <trkpt lat="33.913859000" lon="-107.018921000">
        <ele>1735.900</ele>
        <time>2015-02-07T19:46:09Z</time>
        <name>WPT.1137</name>
      </trkpt>
      <trkpt lat="33.913730000" lon="-107.018847000">
        <ele>1734.230</ele>
        <time>2015-02-07T19:46:10Z</time>
        <name>WPT.1138</name>
      </trkpt>
      <trkpt lat="33.913606000" lon="-107.018782000">
        <ele>1732.840</ele>
        <time>2015-02-07T19:46:11Z</time>
        <name>WPT.1139</name>
      </trkpt>
      <trkpt lat="33.913482000" lon="-107.018738000">
        <ele>1731.270</ele>
        <time>2015-02-07T19:46:12Z</time>
        <name>WPT.1140</name>
      </trkpt>
      <trkpt lat="33.913359000" lon="-107.018716000">
        <ele>1729.890</ele>
        <time>2015-02-07T19:46:13Z</time>
        <name>WPT.1141</name>
      </trkpt>
      <trkpt lat="33.913242000" lon="-107.018705000">
        <ele>1728.210</ele>
        <time>2015-02-07T19:46:14Z</time>
        <name>WPT.1142</name>
      </trkpt>
      <trkpt lat="33.913136000" lon="-107.018688000">
        <ele>1727.330</ele>
        <time>2015-02-07T19:46:15Z</time>
        <name>WPT.1143</name>
      </trkpt>
      <trkpt lat="33.913046000" lon="-107.018661000">
        <ele>1725.950</ele>
        <time>2015-02-07T19:46:16Z</time>
        <name>WPT.1144</name>
      </trkpt>
      <trkpt lat="33.912967000" lon="-107.018620000">
        <ele>1724.670</ele>
        <time>2015-02-07T19:46:17Z</time>
        <name>WPT.1145</name>
      </trkpt>
      <trkpt lat="33.912896000" lon="-107.018559000">
        <ele>1724.870</ele>
        <time>2015-02-07T19:46:18Z</time>
        <name>WPT.1146</name>
      </trkpt>
      <trkpt lat="33.912831000" lon="-107.018471000">
        <ele>1724.970</ele>
        <time>2015-02-07T19:46:19Z</time>
        <name>WPT.1147</name>
      </trkpt>
      <trkpt lat="33.912764000" lon="-107.018361000">
        <ele>1725.950</ele>
        <time>2015-02-07T19:46:20Z</time>
        <name>WPT.1148</name>
      </trkpt>
      <trkpt lat="33.912695000" lon="-107.018234000">
        <ele>1727.230</ele>
        <time>2015-02-07T19:46:21Z</time>
        <name>WPT.1149</name>
      </trkpt>
      <trkpt lat="33.912622000" lon="-107.018090000">
        <ele>1730.270</ele>
        <time>2015-02-07T19:46:22Z</time>
        <name>WPT.1150</name>
      </trkpt>
      <trkpt lat="33.912540000" lon="-107.017933000">
        <ele>1729.190</ele>
        <time>2015-02-07T19:46:23Z</time>
        <name>WPT.1151</name>
      </trkpt>
      <trkpt lat="33.912450000" lon="-107.017770000">
        <ele>1729.280</ele>
        <time>2015-02-07T19:46:24Z</time>
        <name>WPT.1152</name>
      </trkpt>
      <trkpt lat="33.912358000" lon="-107.017603000">
        <ele>1729.170</ele>
        <time>2015-02-07T19:46:25Z</time>
        <name>WPT.1153</name>
      </trkpt>
      <trkpt lat="33.912272000" lon="-107.017438000">
        <ele>1728.680</ele>
        <time>2015-02-07T19:46:26Z</time>
        <name>WPT.1154</name>
      </trkpt>
      <trkpt lat="33.912182000" lon="-107.017280000">
        <ele>1726.900</ele>
        <time>2015-02-07T19:46:27Z</time>
        <name>WPT.1155</name>
      </trkpt>
      <trkpt lat="33.912079000" lon="-107.017137000">
        <ele>1727.580</ele>
        <time>2015-02-07T19:46:28Z</time>
        <name>WPT.1156</name>
      </trkpt>
      <trkpt lat="33.911961000" lon="-107.017014000">
        <ele>1726.200</ele>
        <time>2015-02-07T19:46:29Z</time>
        <name>WPT.1157</name>
      </trkpt>
      <trkpt lat="33.911834000" lon="-107.016922000">
        <ele>1726.190</ele>
        <time>2015-02-07T19:46:30Z</time>
        <name>WPT.1158</name>
      </trkpt>
      <trkpt lat="33.911711000" lon="-107.016871000">
        <ele>1726.380</ele>
        <time>2015-02-07T19:46:31Z</time>
        <name>WPT.1159</name>
      </trkpt>
      <trkpt lat="33.911591000" lon="-107.016862000">
        <ele>1724.500</ele>
        <time>2015-02-07T19:46:32Z</time>
        <name>WPT.1160</name>
      </trkpt>
      <trkpt lat="33.911476000" lon="-107.016892000">
        <ele>1723.220</ele>
        <time>2015-02-07T19:46:33Z</time>
        <name>WPT.1161</name>
      </trkpt>
      <trkpt lat="33.911366000" lon="-107.016957000">
        <ele>1723.120</ele>
        <time>2015-02-07T19:46:34Z</time>
        <name>WPT.1162</name>
      </trkpt>
      <trkpt lat="33.911258000" lon="-107.017050000">
        <ele>1723.210</ele>
        <time>2015-02-07T19:46:35Z</time>
        <name>WPT.1163</name>
      </trkpt>
      <trkpt lat="33.911154000" lon="-107.017167000">
        <ele>1724.390</ele>
        <time>2015-02-07T19:46:36Z</time>
        <name>WPT.1164</name>
      </trkpt>
      <trkpt lat="33.911055000" lon="-107.017305000">
        <ele>1725.950</ele>
        <time>2015-02-07T19:46:37Z</time>
        <name>WPT.1165</name>
      </trkpt>
      <trkpt lat="33.910964000" lon="-107.017462000">
        <ele>1728.600</ele>
        <time>2015-02-07T19:46:38Z</time>
        <name>WPT.1166</name>
      </trkpt>
      <trkpt lat="33.910882000" lon="-107.017633000">
        <ele>1729.760</ele>
        <time>2015-02-07T19:46:39Z</time>
        <name>WPT.1167</name>
      </trkpt>
      <trkpt lat="33.910803000" lon="-107.017813000">
        <ele>1730.340</ele>
        <time>2015-02-07T19:46:40Z</time>
        <name>WPT.1168</name>
      </trkpt>
      <trkpt lat="33.910724000" lon="-107.017997000">
        <ele>1730.330</ele>
        <time>2015-02-07T19:46:41Z</time>
        <name>WPT.1169</name>
      </trkpt>
      <trkpt lat="33.910640000" lon="-107.018184000">
        <ele>1730.410</ele>
        <time>2015-02-07T19:46:42Z</time>
        <name>WPT.1170</name>
      </trkpt>
      <trkpt lat="33.910549000" lon="-107.018364000">
        <ele>1730.690</ele>
        <time>2015-02-07T19:46:43Z</time>
        <name>WPT.1171</name>
      </trkpt>
      <trkpt lat="33.910451000" lon="-107.018535000">
        <ele>1730.680</ele>
        <time>2015-02-07T19:46:44Z</time>
        <name>WPT.1172</name>
      </trkpt>
      <trkpt lat="33.910355000" lon="-107.018699000">
        <ele>1730.770</ele>
        <time>2015-02-07T19:46:45Z</time>
        <name>WPT.1173</name>
      </trkpt>
      <trkpt lat="33.910262000" lon="-107.018854000">
        <ele>1730.760</ele>
        <time>2015-02-07T19:46:46Z</time>
        <name>WPT.1174</name>
      </trkpt>
      <trkpt lat="33.910172000" lon="-107.019001000">
        <ele>1730.740</ele>
        <time>2015-02-07T19:46:47Z</time>
        <name>WPT.1175</name>
      </trkpt>
      <trkpt lat="33.910088000" lon="-107.019139000">
        <ele>1730.730</ele>
        <time>2015-02-07T19:46:48Z</time>
        <name>WPT.1176</name>
      </trkpt>
      <trkpt lat="33.910009000" lon="-107.019267000">
        <ele>1730.920</ele>
        <time>2015-02-07T19:46:49Z</time>
        <name>WPT.1177</name>
      </trkpt>
      <trkpt lat="33.909931000" lon="-107.019382000">
        <ele>1731.300</ele>
        <time>2015-02-07T19:46:50Z</time>
        <name>WPT.1178</name>
      </trkpt>
      <trkpt lat="33.909851000" lon="-107.019481000">
        <ele>1731.290</ele>
        <time>2015-02-07T19:46:51Z</time>
        <name>WPT.1179</name>
      </trkpt>
      <trkpt lat="33.909765000" lon="-107.019566000">
        <ele>1731.280</ele>
        <time>2015-02-07T19:46:52Z</time>
        <name>WPT.1180</name>
      </trkpt>
      <trkpt lat="33.909671000" lon="-107.019640000">
        <ele>1731.270</ele>
        <time>2015-02-07T19:46:53Z</time>
        <name>WPT.1181</name>
      </trkpt>
      <trkpt lat="33.909572000" lon="-107.019703000">
        <ele>1731.460</ele>
        <time>2015-02-07T19:46:54Z</time>
        <name>WPT.1182</name>
      </trkpt>
      <trkpt lat="33.909467000" lon="-107.019753000">
        <ele>1731.350</ele>
        <time>2015-02-07T19:46:55Z</time>
        <name>WPT.1183</name>
      </trkpt>
      <trkpt lat="33.909358000" lon="-107.019786000">
        <ele>1730.660</ele>
        <time>2015-02-07T19:46:56Z</time>
        <name>WPT.1184</name>
      </trkpt>
      <trkpt lat="33.909244000" lon="-107.019803000">
        <ele>1730.650</ele>
        <time>2015-02-07T19:46:57Z</time>
        <name>WPT.1185</name>
      </trkpt>
      <trkpt lat="33.909125000" lon="-107.019798000">
        <ele>1730.650</ele>
        <time>2015-02-07T19:46:58Z</time>
        <name>WPT.1186</name>
      </trkpt>
      <trkpt lat="33.909007000" lon="-107.019774000">
        <ele>1730.640</ele>
        <time>2015-02-07T19:46:59Z</time>
        <name>WPT.1187</name>
      </trkpt>
      <trkpt lat="33.908891000" lon="-107.019735000">
        <ele>1730.340</ele>
        <time>2015-02-07T19:47:00Z</time>
        <name>WPT.1188</name>
      </trkpt>
      <trkpt lat="33.908776000" lon="-107.019690000">
        <ele>1729.740</ele>
        <time>2015-02-07T19:47:01Z</time>
        <name>WPT.1189</name>
      </trkpt>
      <trkpt lat="33.908660000" lon="-107.019643000">
        <ele>1729.540</ele>
        <time>2015-02-07T19:47:02Z</time>
        <name>WPT.1190</name>
      </trkpt>
      <trkpt lat="33.908543000" lon="-107.019598000">
        <ele>1729.540</ele>
        <time>2015-02-07T19:47:03Z</time>
        <name>WPT.1191</name>
      </trkpt>
      <trkpt lat="33.908422000" lon="-107.019563000">
        <ele>1729.530</ele>
        <time>2015-02-07T19:47:04Z</time>
        <name>WPT.1192</name>
      </trkpt>
      <trkpt lat="33.908295000" lon="-107.019539000">
        <ele>1728.940</ele>
        <time>2015-02-07T19:47:05Z</time>
        <name>WPT.1193</name>
      </trkpt>
      <trkpt lat="33.908165000" lon="-107.019525000">
        <ele>1727.750</ele>
        <time>2015-02-07T19:47:06Z</time>
        <name>WPT.1194</name>
      </trkpt>
      <trkpt lat="33.908028000" lon="-107.019520000">
        <ele>1726.960</ele>
        <time>2015-02-07T19:47:07Z</time>
        <name>WPT.1195</name>
      </trkpt>
      <trkpt lat="33.907886000" lon="-107.019524000">
        <ele>1726.960</ele>
        <time>2015-02-07T19:47:08Z</time>
        <name>WPT.1196</name>
      </trkpt>
      <trkpt lat="33.907740000" lon="-107.019536000">
        <ele>1726.080</ele>
        <time>2015-02-07T19:47:09Z</time>
        <name>WPT.1197</name>
      </trkpt>
      <trkpt lat="33.907592000" lon="-107.019555000">
        <ele>1724.800</ele>
        <time>2015-02-07T19:47:10Z</time>
        <name>WPT.1198</name>
      </trkpt>
      <trkpt lat="33.907445000" lon="-107.019580000">
        <ele>1724.700</ele>
        <time>2015-02-07T19:47:11Z</time>
        <name>WPT.1199</name>
      </trkpt>
      <trkpt lat="33.907304000" lon="-107.019607000">
        <ele>1724.600</ele>
        <time>2015-02-07T19:47:12Z</time>
        <name>WPT.1200</name>
      </trkpt>
      <trkpt lat="33.907169000" lon="-107.019633000">
        <ele>1721.840</ele>
        <time>2015-02-07T19:47:13Z</time>
        <name>WPT.1201</name>
      </trkpt>
      <trkpt lat="33.907036000" lon="-107.019649000">
        <ele>1720.570</ele>
        <time>2015-02-07T19:47:14Z</time>
        <name>WPT.1202</name>
      </trkpt>
      <trkpt lat="33.906911000" lon="-107.019655000">
        <ele>1719.980</ele>
        <time>2015-02-07T19:47:15Z</time>
        <name>WPT.1203</name>
      </trkpt>
      <trkpt lat="33.906799000" lon="-107.019657000">
        <ele>1716.250</ele>
        <time>2015-02-07T19:47:16Z</time>
        <name>WPT.1204</name>
      </trkpt>
      <trkpt lat="33.906703000" lon="-107.019656000">
        <ele>1713.010</ele>
        <time>2015-02-07T19:47:17Z</time>
        <name>WPT.1205</name>
      </trkpt>
      <trkpt lat="33.906620000" lon="-107.019651000">
        <ele>1712.330</ele>
        <time>2015-02-07T19:47:18Z</time>
        <name>WPT.1206</name>
      </trkpt>
      <trkpt lat="33.906540000" lon="-107.019641000">
        <ele>1712.040</ele>
        <time>2015-02-07T19:47:19Z</time>
        <name>WPT.1207</name>
      </trkpt>
      <trkpt lat="33.906460000" lon="-107.019620000">
        <ele>1712.050</ele>
        <time>2015-02-07T19:47:20Z</time>
        <name>WPT.1208</name>
      </trkpt>
      <trkpt lat="33.906382000" lon="-107.019588000">
        <ele>1712.060</ele>
        <time>2015-02-07T19:47:21Z</time>
        <name>WPT.1209</name>
      </trkpt>
      <trkpt lat="33.906310000" lon="-107.019545000">
        <ele>1712.360</ele>
        <time>2015-02-07T19:47:22Z</time>
        <name>WPT.1210</name>
      </trkpt>
      <trkpt lat="33.906248000" lon="-107.019489000">
        <ele>1712.960</ele>
        <time>2015-02-07T19:47:23Z</time>
        <name>WPT.1211</name>
      </trkpt>
      <trkpt lat="33.906199000" lon="-107.019420000">
        <ele>1713.060</ele>
        <time>2015-02-07T19:47:24Z</time>
        <name>WPT.1212</name>
      </trkpt>
      <trkpt lat="33.906161000" lon="-107.019338000">
        <ele>1713.360</ele>
        <time>2015-02-07T19:47:25Z</time>
        <name>WPT.1213</name>
      </trkpt>
      <trkpt lat="33.906125000" lon="-107.019240000">
        <ele>1715.830</ele>
        <time>2015-02-07T19:47:26Z</time>
        <name>WPT.1214</name>
      </trkpt>
      <trkpt lat="33.906087000" lon="-107.019129000">
        <ele>1716.620</ele>
        <time>2015-02-07T19:47:27Z</time>
        <name>WPT.1215</name>
      </trkpt>
      <trkpt lat="33.906042000" lon="-107.019011000">
        <ele>1716.420</ele>
        <time>2015-02-07T19:47:28Z</time>
        <name>WPT.1216</name>
      </trkpt>
      <trkpt lat="33.905990000" lon="-107.018891000">
        <ele>1716.520</ele>
        <time>2015-02-07T19:47:29Z</time>
        <name>WPT.1217</name>
      </trkpt>
      <trkpt lat="33.905931000" lon="-107.018768000">
        <ele>1717.210</ele>
        <time>2015-02-07T19:47:30Z</time>
        <name>WPT.1218</name>
      </trkpt>
      <trkpt lat="33.905864000" lon="-107.018638000">
        <ele>1719.770</ele>
        <time>2015-02-07T19:47:31Z</time>
        <name>WPT.1219</name>
      </trkpt>
      <trkpt lat="33.905787000" lon="-107.018498000">
        <ele>1719.770</ele>
        <time>2015-02-07T19:47:32Z</time>
        <name>WPT.1220</name>
      </trkpt>
      <trkpt lat="33.905699000" lon="-107.018352000">
        <ele>1719.770</ele>
        <time>2015-02-07T19:47:33Z</time>
        <name>WPT.1221</name>
      </trkpt>
      <trkpt lat="33.905604000" lon="-107.018205000">
        <ele>1719.760</ele>
        <time>2015-02-07T19:47:34Z</time>
        <name>WPT.1222</name>
      </trkpt>
      <trkpt lat="33.905502000" lon="-107.018059000">
        <ele>1720.640</ele>
        <time>2015-02-07T19:47:35Z</time>
        <name>WPT.1223</name>
      </trkpt>
      <trkpt lat="33.905400000" lon="-107.017913000">
        <ele>1720.250</ele>
        <time>2015-02-07T19:47:36Z</time>
        <name>WPT.1224</name>
      </trkpt>
      <trkpt lat="33.905293000" lon="-107.017773000">
        <ele>1720.440</ele>
        <time>2015-02-07T19:47:37Z</time>
        <name>WPT.1225</name>
      </trkpt>
      <trkpt lat="33.905182000" lon="-107.017643000">
        <ele>1719.950</ele>
        <time>2015-02-07T19:47:38Z</time>
        <name>WPT.1226</name>
      </trkpt>
      <trkpt lat="33.905062000" lon="-107.017524000">
        <ele>1717.780</ele>
        <time>2015-02-07T19:47:39Z</time>
        <name>WPT.1227</name>
      </trkpt>
      <trkpt lat="33.904937000" lon="-107.017416000">
        <ele>1717.880</ele>
        <time>2015-02-07T19:47:40Z</time>
        <name>WPT.1228</name>
      </trkpt>
      <trkpt lat="33.904806000" lon="-107.017321000">
        <ele>1717.870</ele>
        <time>2015-02-07T19:47:41Z</time>
        <name>WPT.1229</name>
      </trkpt>
      <trkpt lat="33.904677000" lon="-107.017241000">
        <ele>1716.790</ele>
        <time>2015-02-07T19:47:42Z</time>
        <name>WPT.1230</name>
      </trkpt>
      <trkpt lat="33.904559000" lon="-107.017175000">
        <ele>1713.150</ele>
        <time>2015-02-07T19:47:43Z</time>
        <name>WPT.1231</name>
      </trkpt>
      <trkpt lat="33.904456000" lon="-107.017118000">
        <ele>1710.790</ele>
        <time>2015-02-07T19:47:44Z</time>
        <name>WPT.1232</name>
      </trkpt>
      <trkpt lat="33.904357000" lon="-107.017062000">
        <ele>1710.700</ele>
        <time>2015-02-07T19:47:45Z</time>
        <name>WPT.1233</name>
      </trkpt>
      <trkpt lat="33.904261000" lon="-107.017000000">
        <ele>1710.700</ele>
        <time>2015-02-07T19:47:46Z</time>
        <name>WPT.1234</name>
      </trkpt>
      <trkpt lat="33.904168000" lon="-107.016929000">
        <ele>1710.710</ele>
        <time>2015-02-07T19:47:47Z</time>
        <name>WPT.1235</name>
      </trkpt>
      <trkpt lat="33.904071000" lon="-107.016847000">
        <ele>1710.710</ele>
        <time>2015-02-07T19:47:48Z</time>
        <name>WPT.1236</name>
      </trkpt>
      <trkpt lat="33.903965000" lon="-107.016759000">
        <ele>1711.110</ele>
        <time>2015-02-07T19:47:49Z</time>
        <name>WPT.1237</name>
      </trkpt>
      <trkpt lat="33.903850000" lon="-107.016666000">
        <ele>1712.680</ele>
        <time>2015-02-07T19:47:50Z</time>
        <name>WPT.1238</name>
      </trkpt>
      <trkpt lat="33.903730000" lon="-107.016569000">
        <ele>1713.270</ele>
        <time>2015-02-07T19:47:51Z</time>
        <name>WPT.1239</name>
      </trkpt>
      <trkpt lat="33.903602000" lon="-107.016468000">
        <ele>1714.250</ele>
        <time>2015-02-07T19:47:52Z</time>
        <name>WPT.1240</name>
      </trkpt>
      <trkpt lat="33.903469000" lon="-107.016369000">
        <ele>1714.740</ele>
        <time>2015-02-07T19:47:53Z</time>
        <name>WPT.1241</name>
      </trkpt>
      <trkpt lat="33.903336000" lon="-107.016276000">
        <ele>1714.940</ele>
        <time>2015-02-07T19:47:54Z</time>
        <name>WPT.1242</name>
      </trkpt>
      <trkpt lat="33.903210000" lon="-107.016192000">
        <ele>1714.740</ele>
        <time>2015-02-07T19:47:55Z</time>
        <name>WPT.1243</name>
      </trkpt>
      <trkpt lat="33.903095000" lon="-107.016116000">
        <ele>1710.510</ele>
        <time>2015-02-07T19:47:56Z</time>
        <name>WPT.1244</name>
      </trkpt>
      <trkpt lat="33.902992000" lon="-107.016048000">
        <ele>1710.120</ele>
        <time>2015-02-07T19:47:57Z</time>
        <name>WPT.1245</name>
      </trkpt>
      <trkpt lat="33.902907000" lon="-107.015987000">
        <ele>1710.120</ele>
        <time>2015-02-07T19:47:58Z</time>
        <name>WPT.1246</name>
      </trkpt>
      <trkpt lat="33.902834000" lon="-107.015932000">
        <ele>1709.730</ele>
        <time>2015-02-07T19:47:59Z</time>
        <name>WPT.1247</name>
      </trkpt>
      <trkpt lat="33.902773000" lon="-107.015882000">
        <ele>1706.880</ele>
        <time>2015-02-07T19:48:00Z</time>
        <name>WPT.1248</name>
      </trkpt>
      <trkpt lat="33.902724000" lon="-107.015840000">
        <ele>1706.300</ele>
        <time>2015-02-07T19:48:01Z</time>
        <name>WPT.1249</name>
      </trkpt>
      <trkpt lat="33.902687000" lon="-107.015807000">
        <ele>1706.310</ele>
        <time>2015-02-07T19:48:02Z</time>
        <name>WPT.1250</name>
      </trkpt>
      <trkpt lat="33.902667000" lon="-107.015787000">
        <ele>1706.220</ele>
        <time>2015-02-07T19:48:03Z</time>
        <name>WPT.1251</name>
      </trkpt>
      <trkpt lat="33.902663000" lon="-107.015783000">
        <ele>1706.220</ele>
        <time>2015-02-07T19:48:04Z</time>
        <name>WPT.1252</name>
      </trkpt>
      <trkpt lat="33.902653000" lon="-107.015771000">
        <ele>1706.030</ele>
        <time>2015-02-07T19:48:05Z</time>
        <name>WPT.1253</name>
      </trkpt>
      <trkpt lat="33.902636000" lon="-107.015747000">
        <ele>1706.140</ele>
        <time>2015-02-07T19:48:06Z</time>
        <name>WPT.1254</name>
      </trkpt>
      <trkpt lat="33.902610000" lon="-107.015702000">
        <ele>1706.150</ele>
        <time>2015-02-07T19:48:07Z</time>
        <name>WPT.1255</name>
      </trkpt>
      <trkpt lat="33.902573000" lon="-107.015631000">
        <ele>1707.530</ele>
        <time>2015-02-07T19:48:08Z</time>
        <name>WPT.1256</name>
      </trkpt>
      <trkpt lat="33.902531000" lon="-107.015538000">
        <ele>1708.910</ele>
        <time>2015-02-07T19:48:09Z</time>
        <name>WPT.1257</name>
      </trkpt>
      <trkpt lat="33.902487000" lon="-107.015425000">
        <ele>1709.010</ele>
        <time>2015-02-07T19:48:10Z</time>
        <name>WPT.1258</name>
      </trkpt>
      <trkpt lat="33.902438000" lon="-107.015300000">
        <ele>1708.920</ele>
        <time>2015-02-07T19:48:11Z</time>
        <name>WPT.1259</name>
      </trkpt>
      <trkpt lat="33.902381000" lon="-107.015166000">
        <ele>1709.120</ele>
        <time>2015-02-07T19:48:12Z</time>
        <name>WPT.1260</name>
      </trkpt>
      <trkpt lat="33.902319000" lon="-107.015024000">
        <ele>1710.890</ele>
        <time>2015-02-07T19:48:13Z</time>
        <name>WPT.1261</name>
      </trkpt>
      <trkpt lat="33.902255000" lon="-107.014877000">
        <ele>1712.470</ele>
        <time>2015-02-07T19:48:14Z</time>
        <name>WPT.1262</name>
      </trkpt>
      <trkpt lat="33.902188000" lon="-107.014725000">
        <ele>1712.470</ele>
        <time>2015-02-07T19:48:15Z</time>
        <name>WPT.1263</name>
      </trkpt>
      <trkpt lat="33.902117000" lon="-107.014570000">
        <ele>1712.470</ele>
        <time>2015-02-07T19:48:16Z</time>
        <name>WPT.1264</name>
      </trkpt>
      <trkpt lat="33.902045000" lon="-107.014418000">
        <ele>1713.250</ele>
        <time>2015-02-07T19:48:17Z</time>
        <name>WPT.1265</name>
      </trkpt>
      <trkpt lat="33.901972000" lon="-107.014268000">
        <ele>1713.840</ele>
        <time>2015-02-07T19:48:18Z</time>
        <name>WPT.1266</name>
      </trkpt>
      <trkpt lat="33.901901000" lon="-107.014119000">
        <ele>1713.740</ele>
        <time>2015-02-07T19:48:19Z</time>
        <name>WPT.1267</name>
      </trkpt>
      <trkpt lat="33.901830000" lon="-107.013971000">
        <ele>1713.250</ele>
        <time>2015-02-07T19:48:20Z</time>
        <name>WPT.1268</name>
      </trkpt>
      <trkpt lat="33.901762000" lon="-107.013823000">
        <ele>1713.250</ele>
        <time>2015-02-07T19:48:21Z</time>
        <name>WPT.1269</name>
      </trkpt>
      <trkpt lat="33.901699000" lon="-107.013674000">
        <ele>1713.340</ele>
        <time>2015-02-07T19:48:22Z</time>
        <name>WPT.1270</name>
      </trkpt>
      <trkpt lat="33.901639000" lon="-107.013523000">
        <ele>1713.050</ele>
        <time>2015-02-07T19:48:23Z</time>
        <name>WPT.1271</name>
      </trkpt>
      <trkpt lat="33.901585000" lon="-107.013365000">
        <ele>1711.960</ele>
        <time>2015-02-07T19:48:24Z</time>
        <name>WPT.1272</name>
      </trkpt>
      <trkpt lat="33.901538000" lon="-107.013205000">
        <ele>1710.880</ele>
        <time>2015-02-07T19:48:25Z</time>
        <name>WPT.1273</name>
      </trkpt>
      <trkpt lat="33.901495000" lon="-107.013050000">
        <ele>1711.280</ele>
        <time>2015-02-07T19:48:26Z</time>
        <name>WPT.1274</name>
      </trkpt>
      <trkpt lat="33.901450000" lon="-107.012900000">
        <ele>1709.410</ele>
        <time>2015-02-07T19:48:27Z</time>
        <name>WPT.1275</name>
      </trkpt>
      <trkpt lat="33.901397000" lon="-107.012754000">
        <ele>1709.210</ele>
        <time>2015-02-07T19:48:28Z</time>
        <name>WPT.1276</name>
      </trkpt>
      <trkpt lat="33.901332000" lon="-107.012612000">
        <ele>1708.620</ele>
        <time>2015-02-07T19:48:29Z</time>
        <name>WPT.1277</name>
      </trkpt>
      <trkpt lat="33.901259000" lon="-107.012472000">
        <ele>1708.820</ele>
        <time>2015-02-07T19:48:30Z</time>
        <name>WPT.1278</name>
      </trkpt>
      <trkpt lat="33.901186000" lon="-107.012333000">
        <ele>1708.720</ele>
        <time>2015-02-07T19:48:31Z</time>
        <name>WPT.1279</name>
      </trkpt>
      <trkpt lat="33.901111000" lon="-107.012194000">
        <ele>1708.430</ele>
        <time>2015-02-07T19:48:32Z</time>
        <name>WPT.1280</name>
      </trkpt>
      <trkpt lat="33.901038000" lon="-107.012055000">
        <ele>1704.890</ele>
        <time>2015-02-07T19:48:33Z</time>
        <name>WPT.1281</name>
      </trkpt>
      <trkpt lat="33.900963000" lon="-107.011912000">
        <ele>1705.490</ele>
        <time>2015-02-07T19:48:34Z</time>
        <name>WPT.1282</name>
      </trkpt>
      <trkpt lat="33.900890000" lon="-107.011767000">
        <ele>1705.490</ele>
        <time>2015-02-07T19:48:35Z</time>
        <name>WPT.1283</name>
      </trkpt>
      <trkpt lat="33.900825000" lon="-107.011621000">
        <ele>1705.390</ele>
        <time>2015-02-07T19:48:36Z</time>
        <name>WPT.1284</name>
      </trkpt>
      <trkpt lat="33.900769000" lon="-107.011471000">
        <ele>1704.020</ele>
        <time>2015-02-07T19:48:37Z</time>
        <name>WPT.1285</name>
      </trkpt>
      <trkpt lat="33.900717000" lon="-107.011316000">
        <ele>1703.830</ele>
        <time>2015-02-07T19:48:38Z</time>
        <name>WPT.1286</name>
      </trkpt>
      <trkpt lat="33.900668000" lon="-107.011159000">
        <ele>1703.150</ele>
        <time>2015-02-07T19:48:39Z</time>
        <name>WPT.1287</name>
      </trkpt>
      <trkpt lat="33.900621000" lon="-107.011000000">
        <ele>1703.160</ele>
        <time>2015-02-07T19:48:40Z</time>
        <name>WPT.1288</name>
      </trkpt>
      <trkpt lat="33.900577000" lon="-107.010840000">
        <ele>1703.060</ele>
        <time>2015-02-07T19:48:41Z</time>
        <name>WPT.1289</name>
      </trkpt>
      <trkpt lat="33.900538000" lon="-107.010677000">
        <ele>1702.870</ele>
        <time>2015-02-07T19:48:42Z</time>
        <name>WPT.1290</name>
      </trkpt>
      <trkpt lat="33.900500000" lon="-107.010508000">
        <ele>1702.580</ele>
        <time>2015-02-07T19:48:43Z</time>
        <name>WPT.1291</name>
      </trkpt>
      <trkpt lat="33.900462000" lon="-107.010335000">
        <ele>1702.590</ele>
        <time>2015-02-07T19:48:44Z</time>
        <name>WPT.1292</name>
      </trkpt>
      <trkpt lat="33.900423000" lon="-107.010156000">
        <ele>1702.590</ele>
        <time>2015-02-07T19:48:45Z</time>
        <name>WPT.1293</name>
      </trkpt>
      <trkpt lat="33.900385000" lon="-107.009973000">
        <ele>1702.500</ele>
        <time>2015-02-07T19:48:46Z</time>
        <name>WPT.1294</name>
      </trkpt>
      <trkpt lat="33.900347000" lon="-107.009786000">
        <ele>1702.500</ele>
        <time>2015-02-07T19:48:47Z</time>
        <name>WPT.1295</name>
      </trkpt>
      <trkpt lat="33.900309000" lon="-107.009595000">
        <ele>1702.110</ele>
        <time>2015-02-07T19:48:48Z</time>
        <name>WPT.1296</name>
      </trkpt>
      <trkpt lat="33.900272000" lon="-107.009401000">
        <ele>1702.310</ele>
        <time>2015-02-07T19:48:49Z</time>
        <name>WPT.1297</name>
      </trkpt>
      <trkpt lat="33.900233000" lon="-107.009203000">
        <ele>1703.670</ele>
        <time>2015-02-07T19:48:50Z</time>
        <name>WPT.1298</name>
      </trkpt>
      <trkpt lat="33.900194000" lon="-107.009002000">
        <ele>1705.640</ele>
        <time>2015-02-07T19:48:51Z</time>
        <name>WPT.1299</name>
      </trkpt>
      <trkpt lat="33.900154000" lon="-107.008800000">
        <ele>1705.340</ele>
        <time>2015-02-07T19:48:52Z</time>
        <name>WPT.1300</name>
      </trkpt>
      <trkpt lat="33.900114000" lon="-107.008597000">
        <ele>1705.240</ele>
        <time>2015-02-07T19:48:53Z</time>
        <name>WPT.1301</name>
      </trkpt>
      <trkpt lat="33.900071000" lon="-107.008393000">
        <ele>1705.140</ele>
        <time>2015-02-07T19:48:54Z</time>
        <name>WPT.1302</name>
      </trkpt>
      <trkpt lat="33.900027000" lon="-107.008190000">
        <ele>1705.040</ele>
        <time>2015-02-07T19:48:55Z</time>
        <name>WPT.1303</name>
      </trkpt>
      <trkpt lat="33.899981000" lon="-107.007987000">
        <ele>1704.740</ele>
        <time>2015-02-07T19:48:56Z</time>
        <name>WPT.1304</name>
      </trkpt>
      <trkpt lat="33.899933000" lon="-107.007784000">
        <ele>1703.080</ele>
        <time>2015-02-07T19:48:57Z</time>
        <name>WPT.1305</name>
      </trkpt>
      <trkpt lat="33.899882000" lon="-107.007581000">
        <ele>1701.430</ele>
        <time>2015-02-07T19:48:58Z</time>
        <name>WPT.1306</name>
      </trkpt>
      <trkpt lat="33.899828000" lon="-107.007381000">
        <ele>1700.940</ele>
        <time>2015-02-07T19:48:59Z</time>
        <name>WPT.1307</name>
      </trkpt>
      <trkpt lat="33.899771000" lon="-107.007182000">
        <ele>1700.550</ele>
        <time>2015-02-07T19:49:00Z</time>
        <name>WPT.1308</name>
      </trkpt>
      <trkpt lat="33.899711000" lon="-107.006985000">
        <ele>1699.670</ele>
        <time>2015-02-07T19:49:01Z</time>
        <name>WPT.1309</name>
      </trkpt>
      <trkpt lat="33.899649000" lon="-107.006789000">
        <ele>1696.560</ele>
        <time>2015-02-07T19:49:02Z</time>
        <name>WPT.1310</name>
      </trkpt>
      <trkpt lat="33.899587000" lon="-107.006591000">
        <ele>1695.980</ele>
        <time>2015-02-07T19:49:03Z</time>
        <name>WPT.1311</name>
      </trkpt>
      <trkpt lat="33.899525000" lon="-107.006393000">
        <ele>1695.790</ele>
        <time>2015-02-07T19:49:04Z</time>
        <name>WPT.1312</name>
      </trkpt>
      <trkpt lat="33.899461000" lon="-107.006195000">
        <ele>1695.790</ele>
        <time>2015-02-07T19:49:05Z</time>
        <name>WPT.1313</name>
      </trkpt>
      <trkpt lat="33.899402000" lon="-107.005995000">
        <ele>1695.600</ele>
        <time>2015-02-07T19:49:06Z</time>
        <name>WPT.1314</name>
      </trkpt>
      <trkpt lat="33.899355000" lon="-107.005793000">
        <ele>1694.530</ele>
        <time>2015-02-07T19:49:07Z</time>
        <name>WPT.1315</name>
      </trkpt>
      <trkpt lat="33.899316000" lon="-107.005591000">
        <ele>1692.490</ele>
        <time>2015-02-07T19:49:08Z</time>
        <name>WPT.1316</name>
      </trkpt>
      <trkpt lat="33.899287000" lon="-107.005392000">
        <ele>1691.720</ele>
        <time>2015-02-07T19:49:09Z</time>
        <name>WPT.1317</name>
      </trkpt>
      <trkpt lat="33.899262000" lon="-107.005207000">
        <ele>1688.120</ele>
        <time>2015-02-07T19:49:10Z</time>
        <name>WPT.1318</name>
      </trkpt>
      <trkpt lat="33.899242000" lon="-107.005039000">
        <ele>1686.570</ele>
        <time>2015-02-07T19:49:11Z</time>
        <name>WPT.1319</name>
      </trkpt>
      <trkpt lat="33.899223000" lon="-107.004876000">
        <ele>1685.990</ele>
        <time>2015-02-07T19:49:12Z</time>
        <name>WPT.1320</name>
      </trkpt>
      <trkpt lat="33.899209000" lon="-107.004705000">
        <ele>1685.900</ele>
        <time>2015-02-07T19:49:13Z</time>
        <name>WPT.1321</name>
      </trkpt>
      <trkpt lat="33.899192000" lon="-107.004528000">
        <ele>1685.520</ele>
        <time>2015-02-07T19:49:14Z</time>
        <name>WPT.1322</name>
      </trkpt>
      <trkpt lat="33.899177000" lon="-107.004351000">
        <ele>1684.940</ele>
        <time>2015-02-07T19:49:15Z</time>
        <name>WPT.1323</name>
      </trkpt>
      <trkpt lat="33.899158000" lon="-107.004184000">
        <ele>1681.840</ele>
        <time>2015-02-07T19:49:16Z</time>
        <name>WPT.1324</name>
      </trkpt>
      <trkpt lat="33.899136000" lon="-107.004033000">
        <ele>1678.640</ele>
        <time>2015-02-07T19:49:17Z</time>
        <name>WPT.1325</name>
      </trkpt>
      <trkpt lat="33.899117000" lon="-107.003911000">
        <ele>1677.970</ele>
        <time>2015-02-07T19:49:18Z</time>
        <name>WPT.1326</name>
      </trkpt>
      <trkpt lat="33.899108000" lon="-107.003811000">
        <ele>1675.060</ele>
        <time>2015-02-07T19:49:19Z</time>
        <name>WPT.1327</name>
      </trkpt>
      <trkpt lat="33.899105000" lon="-107.003722000">
        <ele>1675.080</ele>
        <time>2015-02-07T19:49:20Z</time>
        <name>WPT.1328</name>
      </trkpt>
      <trkpt lat="33.899107000" lon="-107.003635000">
        <ele>1675.090</ele>
        <time>2015-02-07T19:49:21Z</time>
        <name>WPT.1329</name>
      </trkpt>
      <trkpt lat="33.899117000" lon="-107.003553000">
        <ele>1675.200</ele>
        <time>2015-02-07T19:49:22Z</time>
        <name>WPT.1330</name>
      </trkpt>
      <trkpt lat="33.899145000" lon="-107.003469000">
        <ele>1676.080</ele>
        <time>2015-02-07T19:49:23Z</time>
        <name>WPT.1331</name>
      </trkpt>
      <trkpt lat="33.899191000" lon="-107.003390000">
        <ele>1677.260</ele>
        <time>2015-02-07T19:49:24Z</time>
        <name>WPT.1332</name>
      </trkpt>
      <trkpt lat="33.899247000" lon="-107.003315000">
        <ele>1677.170</ele>
        <time>2015-02-07T19:49:25Z</time>
        <name>WPT.1333</name>
      </trkpt>
      <trkpt lat="33.899311000" lon="-107.003237000">
        <ele>1677.170</ele>
        <time>2015-02-07T19:49:26Z</time>
        <name>WPT.1334</name>
      </trkpt>
      <trkpt lat="33.899387000" lon="-107.003152000">
        <ele>1677.270</ele>
        <time>2015-02-07T19:49:27Z</time>
        <name>WPT.1335</name>
      </trkpt>
      <trkpt lat="33.899467000" lon="-107.003054000">
        <ele>1677.370</ele>
        <time>2015-02-07T19:49:28Z</time>
        <name>WPT.1336</name>
      </trkpt>
      <trkpt lat="33.899541000" lon="-107.002944000">
        <ele>1677.770</ele>
        <time>2015-02-07T19:49:29Z</time>
        <name>WPT.1337</name>
      </trkpt>
      <trkpt lat="33.899606000" lon="-107.002827000">
        <ele>1678.450</ele>
        <time>2015-02-07T19:49:30Z</time>
        <name>WPT.1338</name>
      </trkpt>
      <trkpt lat="33.899664000" lon="-107.002699000">
        <ele>1679.130</ele>
        <time>2015-02-07T19:49:31Z</time>
        <name>WPT.1339</name>
      </trkpt>
      <trkpt lat="33.899709000" lon="-107.002554000">
        <ele>1679.230</ele>
        <time>2015-02-07T19:49:32Z</time>
        <name>WPT.1340</name>
      </trkpt>
      <trkpt lat="33.899748000" lon="-107.002393000">
        <ele>1681.760</ele>
        <time>2015-02-07T19:49:33Z</time>
        <name>WPT.1341</name>
      </trkpt>
      <trkpt lat="33.899792000" lon="-107.002231000">
        <ele>1680.490</ele>
        <time>2015-02-07T19:49:34Z</time>
        <name>WPT.1342</name>
      </trkpt>
      <trkpt lat="33.899846000" lon="-107.002076000">
        <ele>1680.880</ele>
        <time>2015-02-07T19:49:35Z</time>
        <name>WPT.1343</name>
      </trkpt>
      <trkpt lat="33.899903000" lon="-107.001929000">
        <ele>1681.460</ele>
        <time>2015-02-07T19:49:36Z</time>
        <name>WPT.1344</name>
      </trkpt>
      <trkpt lat="33.899947000" lon="-107.001779000">
        <ele>1681.070</ele>
        <time>2015-02-07T19:49:37Z</time>
        <name>WPT.1345</name>
      </trkpt>
      <trkpt lat="33.899973000" lon="-107.001627000">
        <ele>1680.770</ele>
        <time>2015-02-07T19:49:38Z</time>
        <name>WPT.1346</name>
      </trkpt>
      <trkpt lat="33.899989000" lon="-107.001477000">
        <ele>1680.770</ele>
        <time>2015-02-07T19:49:39Z</time>
        <name>WPT.1347</name>
      </trkpt>
      <trkpt lat="33.899997000" lon="-107.001326000">
        <ele>1680.770</ele>
        <time>2015-02-07T19:49:40Z</time>
        <name>WPT.1348</name>
      </trkpt>
      <trkpt lat="33.900001000" lon="-107.001178000">
        <ele>1680.860</ele>
        <time>2015-02-07T19:49:41Z</time>
        <name>WPT.1349</name>
      </trkpt>
      <trkpt lat="33.900013000" lon="-107.001027000">
        <ele>1680.570</ele>
        <time>2015-02-07T19:49:42Z</time>
        <name>WPT.1350</name>
      </trkpt>
      <trkpt lat="33.900037000" lon="-107.000878000">
        <ele>1680.560</ele>
        <time>2015-02-07T19:49:43Z</time>
        <name>WPT.1351</name>
      </trkpt>
      <trkpt lat="33.900067000" lon="-107.000733000">
        <ele>1680.660</ele>
        <time>2015-02-07T19:49:44Z</time>
        <name>WPT.1352</name>
      </trkpt>
      <trkpt lat="33.900103000" lon="-107.000590000">
        <ele>1680.650</ele>
        <time>2015-02-07T19:49:45Z</time>
        <name>WPT.1353</name>
      </trkpt>
      <trkpt lat="33.900144000" lon="-107.000448000">
        <ele>1680.650</ele>
        <time>2015-02-07T19:49:46Z</time>
        <name>WPT.1354</name>
      </trkpt>
      <trkpt lat="33.900188000" lon="-107.000309000">
        <ele>1680.740</ele>
        <time>2015-02-07T19:49:47Z</time>
        <name>WPT.1355</name>
      </trkpt>
      <trkpt lat="33.900241000" lon="-107.000167000">
        <ele>1680.740</ele>
        <time>2015-02-07T19:49:48Z</time>
        <name>WPT.1356</name>
      </trkpt>
      <trkpt lat="33.900300000" lon="-107.000028000">
        <ele>1680.640</ele>
        <time>2015-02-07T19:49:49Z</time>
        <name>WPT.1357</name>
      </trkpt>
      <trkpt lat="33.900370000" lon="-106.999886000">
        <ele>1680.630</ele>
        <time>2015-02-07T19:49:50Z</time>
        <name>WPT.1358</name>
      </trkpt>
      <trkpt lat="33.900522000" lon="-106.999759000">
        <ele>1680.330</ele>
        <time>2015-02-07T19:49:51Z</time>
        <name>WPT.1359</name>
      </trkpt>
      <trkpt lat="33.900671000" lon="-106.999615000">
        <ele>1679.940</ele>
        <time>2015-02-07T19:49:52Z</time>
        <name>WPT.1360</name>
      </trkpt>
      <trkpt lat="33.900814000" lon="-106.999470000">
        <ele>1678.960</ele>
        <time>2015-02-07T19:49:53Z</time>
        <name>WPT.1361</name>
      </trkpt>
      <trkpt lat="33.900917000" lon="-106.999334000">
        <ele>1679.040</ele>
        <time>2015-02-07T19:49:54Z</time>
        <name>WPT.1362</name>
      </trkpt>
      <trkpt lat="33.900995000" lon="-106.999198000">
        <ele>1678.450</ele>
        <time>2015-02-07T19:49:55Z</time>
        <name>WPT.1363</name>
      </trkpt>
      <trkpt lat="33.901059000" lon="-106.999059000">
        <ele>1678.250</ele>
        <time>2015-02-07T19:49:56Z</time>
        <name>WPT.1364</name>
      </trkpt>
      <trkpt lat="33.901116000" lon="-106.998911000">
        <ele>1678.340</ele>
        <time>2015-02-07T19:49:57Z</time>
        <name>WPT.1365</name>
      </trkpt>
      <trkpt lat="33.901181000" lon="-106.998755000">
        <ele>1678.340</ele>
        <time>2015-02-07T19:49:58Z</time>
        <name>WPT.1366</name>
      </trkpt>
      <trkpt lat="33.901258000" lon="-106.998596000">
        <ele>1678.330</ele>
        <time>2015-02-07T19:49:59Z</time>
        <name>WPT.1367</name>
      </trkpt>
      <trkpt lat="33.901344000" lon="-106.998440000">
        <ele>1677.840</ele>
        <time>2015-02-07T19:50:00Z</time>
        <name>WPT.1368</name>
      </trkpt>
      <trkpt lat="33.901433000" lon="-106.998286000">
        <ele>1674.430</ele>
        <time>2015-02-07T19:50:01Z</time>
        <name>WPT.1369</name>
      </trkpt>
      <trkpt lat="33.901514000" lon="-106.998129000">
        <ele>1674.330</ele>
        <time>2015-02-07T19:50:02Z</time>
        <name>WPT.1370</name>
      </trkpt>
      <trkpt lat="33.901592000" lon="-106.997968000">
        <ele>1674.720</ele>
        <time>2015-02-07T19:50:03Z</time>
        <name>WPT.1371</name>
      </trkpt>
      <trkpt lat="33.901657000" lon="-106.997799000">
        <ele>1679.580</ele>
        <time>2015-02-07T19:50:04Z</time>
        <name>WPT.1372</name>
      </trkpt>
      <trkpt lat="33.901716000" lon="-106.997623000">
        <ele>1678.800</ele>
        <time>2015-02-07T19:50:05Z</time>
        <name>WPT.1373</name>
      </trkpt>
      <trkpt lat="33.901766000" lon="-106.997443000">
        <ele>1678.690</ele>
        <time>2015-02-07T19:50:06Z</time>
        <name>WPT.1374</name>
      </trkpt>
      <trkpt lat="33.901802000" lon="-106.997261000">
        <ele>1677.810</ele>
        <time>2015-02-07T19:50:07Z</time>
        <name>WPT.1375</name>
      </trkpt>
      <trkpt lat="33.901820000" lon="-106.997071000">
        <ele>1677.520</ele>
        <time>2015-02-07T19:50:08Z</time>
        <name>WPT.1376</name>
      </trkpt>
      <trkpt lat="33.901824000" lon="-106.996875000">
        <ele>1677.220</ele>
        <time>2015-02-07T19:50:09Z</time>
        <name>WPT.1377</name>
      </trkpt>
      <trkpt lat="33.901820000" lon="-106.996674000">
        <ele>1676.530</ele>
        <time>2015-02-07T19:50:10Z</time>
        <name>WPT.1378</name>
      </trkpt>
      <trkpt lat="33.901817000" lon="-106.996468000">
        <ele>1676.430</ele>
        <time>2015-02-07T19:50:11Z</time>
        <name>WPT.1379</name>
      </trkpt>
      <trkpt lat="33.901821000" lon="-106.996259000">
        <ele>1676.420</ele>
        <time>2015-02-07T19:50:12Z</time>
        <name>WPT.1380</name>
      </trkpt>
      <trkpt lat="33.901828000" lon="-106.996051000">
        <ele>1676.420</ele>
        <time>2015-02-07T19:50:13Z</time>
        <name>WPT.1381</name>
      </trkpt>
      <trkpt lat="33.901840000" lon="-106.995842000">
        <ele>1676.410</ele>
        <time>2015-02-07T19:50:14Z</time>
        <name>WPT.1382</name>
      </trkpt>
      <trkpt lat="33.901855000" lon="-106.995634000">
        <ele>1676.410</ele>
        <time>2015-02-07T19:50:15Z</time>
        <name>WPT.1383</name>
      </trkpt>
      <trkpt lat="33.901871000" lon="-106.995424000">
        <ele>1676.400</ele>
        <time>2015-02-07T19:50:16Z</time>
        <name>WPT.1384</name>
      </trkpt>
      <trkpt lat="33.901889000" lon="-106.995215000">
        <ele>1676.390</ele>
        <time>2015-02-07T19:50:17Z</time>
        <name>WPT.1385</name>
      </trkpt>
      <trkpt lat="33.901911000" lon="-106.995009000">
        <ele>1676.190</ele>
        <time>2015-02-07T19:50:18Z</time>
        <name>WPT.1386</name>
      </trkpt>
      <trkpt lat="33.901934000" lon="-106.994812000">
        <ele>1672.000</ele>
        <time>2015-02-07T19:50:19Z</time>
        <name>WPT.1387</name>
      </trkpt>
      <trkpt lat="33.901951000" lon="-106.994629000">
        <ele>1670.730</ele>
        <time>2015-02-07T19:50:20Z</time>
        <name>WPT.1388</name>
      </trkpt>
      <trkpt lat="33.901959000" lon="-106.994452000">
        <ele>1667.810</ele>
        <time>2015-02-07T19:50:21Z</time>
        <name>WPT.1389</name>
      </trkpt>
      <trkpt lat="33.901953000" lon="-106.994282000">
        <ele>1666.640</ele>
        <time>2015-02-07T19:50:22Z</time>
        <name>WPT.1390</name>
      </trkpt>
      <trkpt lat="33.901945000" lon="-106.994128000">
        <ele>1666.540</ele>
        <time>2015-02-07T19:50:23Z</time>
        <name>WPT.1391</name>
      </trkpt>
      <trkpt lat="33.901941000" lon="-106.993995000">
        <ele>1662.160</ele>
        <time>2015-02-07T19:50:24Z</time>
        <name>WPT.1392</name>
      </trkpt>
      <trkpt lat="33.901942000" lon="-106.993873000">
        <ele>1660.800</ele>
        <time>2015-02-07T19:50:25Z</time>
        <name>WPT.1393</name>
      </trkpt>
      <trkpt lat="33.901955000" lon="-106.993753000">
        <ele>1660.800</ele>
        <time>2015-02-07T19:50:26Z</time>
        <name>WPT.1394</name>
      </trkpt>
      <trkpt lat="33.901978000" lon="-106.993627000">
        <ele>1660.890</ele>
        <time>2015-02-07T19:50:27Z</time>
        <name>WPT.1395</name>
      </trkpt>
      <trkpt lat="33.902010000" lon="-106.993486000">
        <ele>1660.990</ele>
        <time>2015-02-07T19:50:28Z</time>
        <name>WPT.1396</name>
      </trkpt>
      <trkpt lat="33.902051000" lon="-106.993332000">
        <ele>1662.440</ele>
        <time>2015-02-07T19:50:29Z</time>
        <name>WPT.1397</name>
      </trkpt>
      <trkpt lat="33.902100000" lon="-106.993167000">
        <ele>1662.830</ele>
        <time>2015-02-07T19:50:30Z</time>
        <name>WPT.1398</name>
      </trkpt>
      <trkpt lat="33.902153000" lon="-106.992995000">
        <ele>1662.930</ele>
        <time>2015-02-07T19:50:31Z</time>
        <name>WPT.1399</name>
      </trkpt>
      <trkpt lat="33.902204000" lon="-106.992816000">
        <ele>1663.610</ele>
        <time>2015-02-07T19:50:32Z</time>
        <name>WPT.1400</name>
      </trkpt>
      <trkpt lat="33.902251000" lon="-106.992635000">
        <ele>1663.120</ele>
        <time>2015-02-07T19:50:33Z</time>
        <name>WPT.1401</name>
      </trkpt>
      <trkpt lat="33.902292000" lon="-106.992457000">
        <ele>1663.110</ele>
        <time>2015-02-07T19:50:34Z</time>
        <name>WPT.1402</name>
      </trkpt>
      <trkpt lat="33.902325000" lon="-106.992281000">
        <ele>1663.500</ele>
        <time>2015-02-07T19:50:35Z</time>
        <name>WPT.1403</name>
      </trkpt>
      <trkpt lat="33.902354000" lon="-106.992105000">
        <ele>1664.370</ele>
        <time>2015-02-07T19:50:36Z</time>
        <name>WPT.1404</name>
      </trkpt>
      <trkpt lat="33.902382000" lon="-106.991937000">
        <ele>1663.980</ele>
        <time>2015-02-07T19:50:37Z</time>
        <name>WPT.1405</name>
      </trkpt>
      <trkpt lat="33.902406000" lon="-106.991788000">
        <ele>1663.490</ele>
        <time>2015-02-07T19:50:38Z</time>
        <name>WPT.1406</name>
      </trkpt>
      <trkpt lat="33.902421000" lon="-106.991656000">
        <ele>1659.790</ele>
        <time>2015-02-07T19:50:39Z</time>
        <name>WPT.1407</name>
      </trkpt>
      <trkpt lat="33.902427000" lon="-106.991541000">
        <ele>1658.720</ele>
        <time>2015-02-07T19:50:40Z</time>
        <name>WPT.1408</name>
      </trkpt>
      <trkpt lat="33.902425000" lon="-106.991447000">
        <ele>1658.530</ele>
        <time>2015-02-07T19:50:41Z</time>
        <name>WPT.1409</name>
      </trkpt>
      <trkpt lat="33.902422000" lon="-106.991379000">
        <ele>1656.480</ele>
        <time>2015-02-07T19:50:42Z</time>
        <name>WPT.1410</name>
      </trkpt>
      <trkpt lat="33.902423000" lon="-106.991337000">
        <ele>1655.800</ele>
        <time>2015-02-07T19:50:43Z</time>
        <name>WPT.1411</name>
      </trkpt>
      <trkpt lat="33.902424000" lon="-106.991320000">
        <ele>1655.510</ele>
        <time>2015-02-07T19:50:44Z</time>
        <name>WPT.1412</name>
      </trkpt>
      <trkpt lat="33.902422000" lon="-106.991307000">
        <ele>1654.730</ele>
        <time>2015-02-07T19:50:46Z</time>
        <name>WPT.1413</name>
      </trkpt>
      <trkpt lat="33.902419000" lon="-106.991318000">
        <ele>1654.830</ele>
        <time>2015-02-07T19:50:56Z</time>
        <name>WPT.1414</name>
      </trkpt>
      <trkpt lat="33.902420000" lon="-106.991292000">
        <ele>1654.830</ele>
        <time>2015-02-07T19:50:57Z</time>
        <name>WPT.1415</name>
      </trkpt>
      <trkpt lat="33.902424000" lon="-106.991258000">
        <ele>1654.830</ele>
        <time>2015-02-07T19:50:58Z</time>
        <name>WPT.1416</name>
      </trkpt>
      <trkpt lat="33.902431000" lon="-106.991209000">
        <ele>1654.920</ele>
        <time>2015-02-07T19:50:59Z</time>
        <name>WPT.1417</name>
      </trkpt>
      <trkpt lat="33.902445000" lon="-106.991137000">
        <ele>1655.020</ele>
        <time>2015-02-07T19:51:00Z</time>
        <name>WPT.1418</name>
      </trkpt>
      <trkpt lat="33.902466000" lon="-106.991046000">
        <ele>1655.020</ele>
        <time>2015-02-07T19:51:01Z</time>
        <name>WPT.1419</name>
      </trkpt>
      <trkpt lat="33.902491000" lon="-106.990941000">
        <ele>1655.020</ele>
        <time>2015-02-07T19:51:02Z</time>
        <name>WPT.1420</name>
      </trkpt>
      <trkpt lat="33.902519000" lon="-106.990825000">
        <ele>1655.210</ele>
        <time>2015-02-07T19:51:03Z</time>
        <name>WPT.1421</name>
      </trkpt>
      <trkpt lat="33.902546000" lon="-106.990702000">
        <ele>1657.840</ele>
        <time>2015-02-07T19:51:04Z</time>
        <name>WPT.1422</name>
      </trkpt>
      <trkpt lat="33.902572000" lon="-106.990574000">
        <ele>1658.420</ele>
        <time>2015-02-07T19:51:05Z</time>
        <name>WPT.1423</name>
      </trkpt>
      <trkpt lat="33.902597000" lon="-106.990446000">
        <ele>1657.450</ele>
        <time>2015-02-07T19:51:06Z</time>
        <name>WPT.1424</name>
      </trkpt>
      <trkpt lat="33.902619000" lon="-106.990319000">
        <ele>1655.990</ele>
        <time>2015-02-07T19:51:07Z</time>
        <name>WPT.1425</name>
      </trkpt>
      <trkpt lat="33.902642000" lon="-106.990191000">
        <ele>1656.080</ele>
        <time>2015-02-07T19:51:08Z</time>
        <name>WPT.1426</name>
      </trkpt>
      <trkpt lat="33.902664000" lon="-106.990063000">
        <ele>1655.890</ele>
        <time>2015-02-07T19:51:09Z</time>
        <name>WPT.1427</name>
      </trkpt>
      <trkpt lat="33.902685000" lon="-106.989937000">
        <ele>1655.890</ele>
        <time>2015-02-07T19:51:10Z</time>
        <name>WPT.1428</name>
      </trkpt>
      <trkpt lat="33.902706000" lon="-106.989812000">
        <ele>1655.790</ele>
        <time>2015-02-07T19:51:11Z</time>
        <name>WPT.1429</name>
      </trkpt>
      <trkpt lat="33.902725000" lon="-106.989688000">
        <ele>1655.690</ele>
        <time>2015-02-07T19:51:12Z</time>
        <name>WPT.1430</name>
      </trkpt>
      <trkpt lat="33.902746000" lon="-106.989565000">
        <ele>1655.300</ele>
        <time>2015-02-07T19:51:13Z</time>
        <name>WPT.1431</name>
      </trkpt>
      <trkpt lat="33.902767000" lon="-106.989443000">
        <ele>1654.520</ele>
        <time>2015-02-07T19:51:14Z</time>
        <name>WPT.1432</name>
      </trkpt>
      <trkpt lat="33.902792000" lon="-106.989323000">
        <ele>1654.520</ele>
        <time>2015-02-07T19:51:15Z</time>
        <name>WPT.1433</name>
      </trkpt>
      <trkpt lat="33.902820000" lon="-106.989202000">
        <ele>1654.420</ele>
        <time>2015-02-07T19:51:16Z</time>
        <name>WPT.1434</name>
      </trkpt>
      <trkpt lat="33.902851000" lon="-106.989082000">
        <ele>1654.420</ele>
        <time>2015-02-07T19:51:17Z</time>
        <name>WPT.1435</name>
      </trkpt>
      <trkpt lat="33.902881000" lon="-106.988961000">
        <ele>1654.420</ele>
        <time>2015-02-07T19:51:18Z</time>
        <name>WPT.1436</name>
      </trkpt>
      <trkpt lat="33.902913000" lon="-106.988837000">
        <ele>1654.420</ele>
        <time>2015-02-07T19:51:19Z</time>
        <name>WPT.1437</name>
      </trkpt>
      <trkpt lat="33.902945000" lon="-106.988713000">
        <ele>1654.220</ele>
        <time>2015-02-07T19:51:20Z</time>
        <name>WPT.1438</name>
      </trkpt>
      <trkpt lat="33.902974000" lon="-106.988588000">
        <ele>1653.440</ele>
        <time>2015-02-07T19:51:21Z</time>
        <name>WPT.1439</name>
      </trkpt>
      <trkpt lat="33.902999000" lon="-106.988461000">
        <ele>1653.150</ele>
        <time>2015-02-07T19:51:22Z</time>
        <name>WPT.1440</name>
      </trkpt>
      <trkpt lat="33.903018000" lon="-106.988332000">
        <ele>1653.340</ele>
        <time>2015-02-07T19:51:23Z</time>
        <name>WPT.1441</name>
      </trkpt>
      <trkpt lat="33.903031000" lon="-106.988202000">
        <ele>1653.440</ele>
        <time>2015-02-07T19:51:24Z</time>
        <name>WPT.1442</name>
      </trkpt>
      <trkpt lat="33.903035000" lon="-106.988071000">
        <ele>1653.240</ele>
        <time>2015-02-07T19:51:25Z</time>
        <name>WPT.1443</name>
      </trkpt>
      <trkpt lat="33.903033000" lon="-106.987943000">
        <ele>1653.240</ele>
        <time>2015-02-07T19:51:26Z</time>
        <name>WPT.1444</name>
      </trkpt>
      <trkpt lat="33.903021000" lon="-106.987816000">
        <ele>1653.240</ele>
        <time>2015-02-07T19:51:27Z</time>
        <name>WPT.1445</name>
      </trkpt>
      <trkpt lat="33.903000000" lon="-106.987695000">
        <ele>1652.360</ele>
        <time>2015-02-07T19:51:28Z</time>
        <name>WPT.1446</name>
      </trkpt>
      <trkpt lat="33.902974000" lon="-106.987583000">
        <ele>1649.630</ele>
        <time>2015-02-07T19:51:29Z</time>
        <name>WPT.1447</name>
      </trkpt>
      <trkpt lat="33.902938000" lon="-106.987479000">
        <ele>1649.730</ele>
        <time>2015-02-07T19:51:30Z</time>
        <name>WPT.1448</name>
      </trkpt>
      <trkpt lat="33.902888000" lon="-106.987383000">
        <ele>1649.730</ele>
        <time>2015-02-07T19:51:31Z</time>
        <name>WPT.1449</name>
      </trkpt>
      <trkpt lat="33.902828000" lon="-106.987289000">
        <ele>1649.730</ele>
        <time>2015-02-07T19:51:32Z</time>
        <name>WPT.1450</name>
      </trkpt>
      <trkpt lat="33.902764000" lon="-106.987196000">
        <ele>1649.820</ele>
        <time>2015-02-07T19:51:33Z</time>
        <name>WPT.1451</name>
      </trkpt>
      <trkpt lat="33.902706000" lon="-106.987098000">
        <ele>1650.020</ele>
        <time>2015-02-07T19:51:34Z</time>
        <name>WPT.1452</name>
      </trkpt>
      <trkpt lat="33.902654000" lon="-106.986995000">
        <ele>1650.010</ele>
        <time>2015-02-07T19:51:35Z</time>
        <name>WPT.1453</name>
      </trkpt>
      <trkpt lat="33.902613000" lon="-106.986890000">
        <ele>1649.920</ele>
        <time>2015-02-07T19:51:36Z</time>
        <name>WPT.1454</name>
      </trkpt>
      <trkpt lat="33.902590000" lon="-106.986777000">
        <ele>1649.910</ele>
        <time>2015-02-07T19:51:37Z</time>
        <name>WPT.1455</name>
      </trkpt>
      <trkpt lat="33.902592000" lon="-106.986661000">
        <ele>1649.720</ele>
        <time>2015-02-07T19:51:38Z</time>
        <name>WPT.1456</name>
      </trkpt>
      <trkpt lat="33.902611000" lon="-106.986552000">
        <ele>1649.230</ele>
        <time>2015-02-07T19:51:39Z</time>
        <name>WPT.1457</name>
      </trkpt>
      <trkpt lat="33.902644000" lon="-106.986448000">
        <ele>1647.770</ele>
        <time>2015-02-07T19:51:40Z</time>
        <name>WPT.1458</name>
      </trkpt>
      <trkpt lat="33.902686000" lon="-106.986349000">
        <ele>1647.960</ele>
        <time>2015-02-07T19:51:41Z</time>
        <name>WPT.1459</name>
      </trkpt>
      <trkpt lat="33.902736000" lon="-106.986256000">
        <ele>1647.960</ele>
        <time>2015-02-07T19:51:42Z</time>
        <name>WPT.1460</name>
      </trkpt>
      <trkpt lat="33.902784000" lon="-106.986164000">
        <ele>1648.050</ele>
        <time>2015-02-07T19:51:43Z</time>
        <name>WPT.1461</name>
      </trkpt>
      <trkpt lat="33.902827000" lon="-106.986079000">
        <ele>1647.950</ele>
        <time>2015-02-07T19:51:44Z</time>
        <name>WPT.1462</name>
      </trkpt>
      <trkpt lat="33.902859000" lon="-106.986003000">
        <ele>1646.980</ele>
        <time>2015-02-07T19:51:45Z</time>
        <name>WPT.1463</name>
      </trkpt>
      <trkpt lat="33.902880000" lon="-106.985934000">
        <ele>1645.810</ele>
        <time>2015-02-07T19:51:46Z</time>
        <name>WPT.1464</name>
      </trkpt>
      <trkpt lat="33.902887000" lon="-106.985864000">
        <ele>1645.520</ele>
        <time>2015-02-07T19:51:47Z</time>
        <name>WPT.1465</name>
      </trkpt>
      <trkpt lat="33.902879000" lon="-106.985794000">
        <ele>1645.520</ele>
        <time>2015-02-07T19:51:48Z</time>
        <name>WPT.1466</name>
      </trkpt>
      <trkpt lat="33.902853000" lon="-106.985722000">
        <ele>1645.710</ele>
        <time>2015-02-07T19:51:49Z</time>
        <name>WPT.1467</name>
      </trkpt>
      <trkpt lat="33.902814000" lon="-106.985644000">
        <ele>1645.610</ele>
        <time>2015-02-07T19:51:50Z</time>
        <name>WPT.1468</name>
      </trkpt>
      <trkpt lat="33.902764000" lon="-106.985563000">
        <ele>1647.170</ele>
        <time>2015-02-07T19:51:51Z</time>
        <name>WPT.1469</name>
      </trkpt>
      <trkpt lat="33.902705000" lon="-106.985477000">
        <ele>1646.970</ele>
        <time>2015-02-07T19:51:52Z</time>
        <name>WPT.1470</name>
      </trkpt>
      <trkpt lat="33.902640000" lon="-106.985388000">
        <ele>1647.060</ele>
        <time>2015-02-07T19:51:53Z</time>
        <name>WPT.1471</name>
      </trkpt>
      <trkpt lat="33.902573000" lon="-106.985288000">
        <ele>1647.260</ele>
        <time>2015-02-07T19:51:54Z</time>
        <name>WPT.1472</name>
      </trkpt>
      <trkpt lat="33.902512000" lon="-106.985187000">
        <ele>1647.250</ele>
        <time>2015-02-07T19:51:55Z</time>
        <name>WPT.1473</name>
      </trkpt>
      <trkpt lat="33.902458000" lon="-106.985094000">
        <ele>1646.380</ele>
        <time>2015-02-07T19:51:56Z</time>
        <name>WPT.1474</name>
      </trkpt>
      <trkpt lat="33.902420000" lon="-106.985007000">
        <ele>1644.330</ele>
        <time>2015-02-07T19:51:57Z</time>
        <name>WPT.1475</name>
      </trkpt>
      <trkpt lat="33.902401000" lon="-106.984914000">
        <ele>1644.430</ele>
        <time>2015-02-07T19:51:58Z</time>
        <name>WPT.1476</name>
      </trkpt>
      <trkpt lat="33.902384000" lon="-106.984818000">
        <ele>1644.430</ele>
        <time>2015-02-07T19:51:59Z</time>
        <name>WPT.1477</name>
      </trkpt>
      <trkpt lat="33.902370000" lon="-106.984713000">
        <ele>1644.420</ele>
        <time>2015-02-07T19:52:00Z</time>
        <name>WPT.1478</name>
      </trkpt>
      <trkpt lat="33.902355000" lon="-106.984605000">
        <ele>1644.420</ele>
        <time>2015-02-07T19:52:01Z</time>
        <name>WPT.1479</name>
      </trkpt>
      <trkpt lat="33.902332000" lon="-106.984493000">
        <ele>1644.520</ele>
        <time>2015-02-07T19:52:02Z</time>
        <name>WPT.1480</name>
      </trkpt>
      <trkpt lat="33.902297000" lon="-106.984372000">
        <ele>1645.000</ele>
        <time>2015-02-07T19:52:03Z</time>
        <name>WPT.1481</name>
      </trkpt>
      <trkpt lat="33.902256000" lon="-106.984250000">
        <ele>1646.070</ele>
        <time>2015-02-07T19:52:04Z</time>
        <name>WPT.1482</name>
      </trkpt>
      <trkpt lat="33.902194000" lon="-106.984124000">
        <ele>1645.770</ele>
        <time>2015-02-07T19:52:05Z</time>
        <name>WPT.1483</name>
      </trkpt>
      <trkpt lat="33.902132000" lon="-106.984004000">
        <ele>1645.670</ele>
        <time>2015-02-07T19:52:06Z</time>
        <name>WPT.1484</name>
      </trkpt>
      <trkpt lat="33.902077000" lon="-106.983885000">
        <ele>1645.670</ele>
        <time>2015-02-07T19:52:07Z</time>
        <name>WPT.1485</name>
      </trkpt>
      <trkpt lat="33.902033000" lon="-106.983764000">
        <ele>1645.660</ele>
        <time>2015-02-07T19:52:08Z</time>
        <name>WPT.1486</name>
      </trkpt>
      <trkpt lat="33.902012000" lon="-106.983645000">
        <ele>1645.370</ele>
        <time>2015-02-07T19:52:09Z</time>
        <name>WPT.1487</name>
      </trkpt>
      <trkpt lat="33.902012000" lon="-106.983526000">
        <ele>1643.610</ele>
        <time>2015-02-07T19:52:10Z</time>
        <name>WPT.1488</name>
      </trkpt>
      <trkpt lat="33.902018000" lon="-106.983407000">
        <ele>1643.800</ele>
        <time>2015-02-07T19:52:11Z</time>
        <name>WPT.1489</name>
      </trkpt>
      <trkpt lat="33.902025000" lon="-106.983290000">
        <ele>1643.790</ele>
        <time>2015-02-07T19:52:12Z</time>
        <name>WPT.1490</name>
      </trkpt>
      <trkpt lat="33.902033000" lon="-106.983176000">
        <ele>1643.790</ele>
        <time>2015-02-07T19:52:13Z</time>
        <name>WPT.1491</name>
      </trkpt>
      <trkpt lat="33.902037000" lon="-106.983075000">
        <ele>1643.690</ele>
        <time>2015-02-07T19:52:14Z</time>
        <name>WPT.1492</name>
      </trkpt>
      <trkpt lat="33.902033000" lon="-106.982985000">
        <ele>1643.690</ele>
        <time>2015-02-07T19:52:15Z</time>
        <name>WPT.1493</name>
      </trkpt>
      <trkpt lat="33.902023000" lon="-106.982898000">
        <ele>1643.680</ele>
        <time>2015-02-07T19:52:16Z</time>
        <name>WPT.1494</name>
      </trkpt>
      <trkpt lat="33.902008000" lon="-106.982812000">
        <ele>1643.680</ele>
        <time>2015-02-07T19:52:17Z</time>
        <name>WPT.1495</name>
      </trkpt>
      <trkpt lat="33.901981000" lon="-106.982730000">
        <ele>1643.580</ele>
        <time>2015-02-07T19:52:18Z</time>
        <name>WPT.1496</name>
      </trkpt>
      <trkpt lat="33.901952000" lon="-106.982649000">
        <ele>1643.480</ele>
        <time>2015-02-07T19:52:19Z</time>
        <name>WPT.1497</name>
      </trkpt>
      <trkpt lat="33.901921000" lon="-106.982569000">
        <ele>1643.280</ele>
        <time>2015-02-07T19:52:20Z</time>
        <name>WPT.1498</name>
      </trkpt>
      <trkpt lat="33.901884000" lon="-106.982489000">
        <ele>1642.980</ele>
        <time>2015-02-07T19:52:21Z</time>
        <name>WPT.1499</name>
      </trkpt>
      <trkpt lat="33.901840000" lon="-106.982412000">
        <ele>1642.970</ele>
        <time>2015-02-07T19:52:22Z</time>
        <name>WPT.1500</name>
      </trkpt>
      <trkpt lat="33.901788000" lon="-106.982343000">
        <ele>1642.970</ele>
        <time>2015-02-07T19:52:23Z</time>
        <name>WPT.1501</name>
      </trkpt>
      <trkpt lat="33.901731000" lon="-106.982284000">
        <ele>1642.860</ele>
        <time>2015-02-07T19:52:24Z</time>
        <name>WPT.1502</name>
      </trkpt>
      <trkpt lat="33.901672000" lon="-106.982237000">
        <ele>1642.760</ele>
        <time>2015-02-07T19:52:25Z</time>
        <name>WPT.1503</name>
      </trkpt>
      <trkpt lat="33.901616000" lon="-106.982196000">
        <ele>1642.760</ele>
        <time>2015-02-07T19:52:26Z</time>
        <name>WPT.1504</name>
      </trkpt>
      <trkpt lat="33.901569000" lon="-106.982157000">
        <ele>1642.750</ele>
        <time>2015-02-07T19:52:27Z</time>
        <name>WPT.1505</name>
      </trkpt>
      <trkpt lat="33.901541000" lon="-106.982138000">
        <ele>1642.740</ele>
        <time>2015-02-07T19:52:28Z</time>
        <name>WPT.1506</name>
      </trkpt>
      <trkpt lat="33.901531000" lon="-106.982128000">
        <ele>1641.860</ele>
        <time>2015-02-07T19:52:30Z</time>
        <name>WPT.1507</name>
      </trkpt>
      <trkpt lat="33.901530000" lon="-106.982125000">
        <ele>1641.750</ele>
        <time>2015-02-07T19:52:31Z</time>
        <name>WPT.1508</name>
      </trkpt>
      <trkpt lat="33.901519000" lon="-106.982126000">
        <ele>1641.750</ele>
        <time>2015-02-07T19:52:32Z</time>
        <name>WPT.1509</name>
      </trkpt>
      <trkpt lat="33.901522000" lon="-106.982131000">
        <ele>1641.740</ele>
        <time>2015-02-07T19:52:34Z</time>
        <name>WPT.1510</name>
      </trkpt>
      <trkpt lat="33.901520000" lon="-106.982111000">
        <ele>1641.830</ele>
        <time>2015-02-07T19:52:35Z</time>
        <name>WPT.1511</name>
      </trkpt>
      <trkpt lat="33.901511000" lon="-106.982074000">
        <ele>1642.210</ele>
        <time>2015-02-07T19:52:36Z</time>
        <name>WPT.1512</name>
      </trkpt>
      <trkpt lat="33.901497000" lon="-106.982026000">
        <ele>1642.690</ele>
        <time>2015-02-07T19:52:37Z</time>
        <name>WPT.1513</name>
      </trkpt>
      <trkpt lat="33.901476000" lon="-106.981971000">
        <ele>1642.970</ele>
        <time>2015-02-07T19:52:38Z</time>
        <name>WPT.1514</name>
      </trkpt>
      <trkpt lat="33.901450000" lon="-106.981921000">
        <ele>1642.970</ele>
        <time>2015-02-07T19:52:39Z</time>
        <name>WPT.1515</name>
      </trkpt>
      <trkpt lat="33.901419000" lon="-106.981888000">
        <ele>1642.960</ele>
        <time>2015-02-07T19:52:40Z</time>
        <name>WPT.1516</name>
      </trkpt>
      <trkpt lat="33.901387000" lon="-106.981874000">
        <ele>1642.950</ele>
        <time>2015-02-07T19:52:41Z</time>
        <name>WPT.1517</name>
      </trkpt>
      <trkpt lat="33.901358000" lon="-106.981882000">
        <ele>1642.950</ele>
        <time>2015-02-07T19:52:42Z</time>
        <name>WPT.1518</name>
      </trkpt>
      <trkpt lat="33.901327000" lon="-106.981907000">
        <ele>1642.940</ele>
        <time>2015-02-07T19:52:43Z</time>
        <name>WPT.1519</name>
      </trkpt>
      <trkpt lat="33.901293000" lon="-106.981938000">
        <ele>1643.030</ele>
        <time>2015-02-07T19:52:44Z</time>
        <name>WPT.1520</name>
      </trkpt>
      <trkpt lat="33.901262000" lon="-106.981968000">
        <ele>1642.930</ele>
        <time>2015-02-07T19:52:45Z</time>
        <name>WPT.1521</name>
      </trkpt>
      <trkpt lat="33.901232000" lon="-106.981994000">
        <ele>1642.920</ele>
        <time>2015-02-07T19:52:46Z</time>
        <name>WPT.1522</name>
      </trkpt>
      <trkpt lat="33.901205000" lon="-106.982015000">
        <ele>1642.910</ele>
        <time>2015-02-07T19:52:47Z</time>
        <name>WPT.1523</name>
      </trkpt>
      <trkpt lat="33.901180000" lon="-106.982029000">
        <ele>1643.010</ele>
        <time>2015-02-07T19:52:48Z</time>
        <name>WPT.1524</name>
      </trkpt>
      <trkpt lat="33.901152000" lon="-106.982045000">
        <ele>1643.090</ele>
        <time>2015-02-07T19:52:49Z</time>
        <name>WPT.1525</name>
      </trkpt>
      <trkpt lat="33.901125000" lon="-106.982050000">
        <ele>1643.960</ele>
        <time>2015-02-07T19:52:50Z</time>
        <name>WPT.1526</name>
      </trkpt>
      <trkpt lat="33.901097000" lon="-106.982037000">
        <ele>1643.950</ele>
        <time>2015-02-07T19:52:51Z</time>
        <name>WPT.1527</name>
      </trkpt>
      <trkpt lat="33.901072000" lon="-106.982009000">
        <ele>1643.950</ele>
        <time>2015-02-07T19:52:52Z</time>
        <name>WPT.1528</name>
      </trkpt>
      <trkpt lat="33.901057000" lon="-106.981969000">
        <ele>1643.940</ele>
        <time>2015-02-07T19:52:53Z</time>
        <name>WPT.1529</name>
      </trkpt>
      <trkpt lat="33.901044000" lon="-106.981927000">
        <ele>1643.930</ele>
        <time>2015-02-07T19:52:54Z</time>
        <name>WPT.1530</name>
      </trkpt>
      <trkpt lat="33.901035000" lon="-106.981881000">
        <ele>1643.920</ele>
        <time>2015-02-07T19:52:55Z</time>
        <name>WPT.1531</name>
      </trkpt>
      <trkpt lat="33.901028000" lon="-106.981828000">
        <ele>1644.010</ele>
        <time>2015-02-07T19:52:56Z</time>
        <name>WPT.1532</name>
      </trkpt>
      <trkpt lat="33.901027000" lon="-106.981767000">
        <ele>1644.490</ele>
        <time>2015-02-07T19:52:57Z</time>
        <name>WPT.1533</name>
      </trkpt>
      <trkpt lat="33.901024000" lon="-106.981712000">
        <ele>1644.580</ele>
        <time>2015-02-07T19:52:58Z</time>
        <name>WPT.1534</name>
      </trkpt>
      <trkpt lat="33.901020000" lon="-106.981667000">
        <ele>1644.480</ele>
        <time>2015-02-07T19:52:59Z</time>
        <name>WPT.1535</name>
      </trkpt>
      <trkpt lat="33.901014000" lon="-106.981633000">
        <ele>1644.470</ele>
        <time>2015-02-07T19:53:00Z</time>
        <name>WPT.1536</name>
      </trkpt>
      <trkpt lat="33.901009000" lon="-106.981606000">
        <ele>1644.370</ele>
        <time>2015-02-07T19:53:01Z</time>
        <name>WPT.1537</name>
      </trkpt>
      <trkpt lat="33.901005000" lon="-106.981578000">
        <ele>1644.360</ele>
        <time>2015-02-07T19:53:02Z</time>
        <name>WPT.1538</name>
      </trkpt>
      <trkpt lat="33.901000000" lon="-106.981548000">
        <ele>1644.160</ele>
        <time>2015-02-07T19:53:03Z</time>
        <name>WPT.1539</name>
      </trkpt>
      <trkpt lat="33.900998000" lon="-106.981524000">
        <ele>1644.050</ele>
        <time>2015-02-07T19:53:04Z</time>
        <name>WPT.1540</name>
      </trkpt>
      <trkpt lat="33.900993000" lon="-106.981504000">
        <ele>1644.050</ele>
        <time>2015-02-07T19:53:05Z</time>
        <name>WPT.1541</name>
      </trkpt>
      <trkpt lat="33.900993000" lon="-106.981498000">
        <ele>1643.850</ele>
        <time>2015-02-07T19:53:06Z</time>
        <name>WPT.1542</name>
      </trkpt>
      <trkpt lat="33.900991000" lon="-106.981478000">
        <ele>1643.550</ele>
        <time>2015-02-07T19:53:07Z</time>
        <name>WPT.1543</name>
      </trkpt>
      <trkpt lat="33.900994000" lon="-106.981477000">
        <ele>1643.340</ele>
        <time>2015-02-07T19:53:10Z</time>
        <name>WPT.1544</name>
      </trkpt>
      <trkpt lat="33.900991000" lon="-106.981462000">
        <ele>1643.330</ele>
        <time>2015-02-07T19:53:11Z</time>
        <name>WPT.1545</name>
      </trkpt>
      <trkpt lat="33.900981000" lon="-106.981432000">
        <ele>1643.420</ele>
        <time>2015-02-07T19:53:12Z</time>
        <name>WPT.1546</name>
      </trkpt>
      <trkpt lat="33.900972000" lon="-106.981407000">
        <ele>1643.510</ele>
        <time>2015-02-07T19:53:13Z</time>
        <name>WPT.1547</name>
      </trkpt>
      <trkpt lat="33.900966000" lon="-106.981389000">
        <ele>1643.510</ele>
        <time>2015-02-07T19:53:14Z</time>
        <name>WPT.1548</name>
      </trkpt>
      <trkpt lat="33.900960000" lon="-106.981370000">
        <ele>1643.400</ele>
        <time>2015-02-07T19:53:15Z</time>
        <name>WPT.1549</name>
      </trkpt>
      <trkpt lat="33.900955000" lon="-106.981354000">
        <ele>1643.400</ele>
        <time>2015-02-07T19:53:16Z</time>
        <name>WPT.1550</name>
      </trkpt>
      <trkpt lat="33.900952000" lon="-106.981341000">
        <ele>1643.390</ele>
        <time>2015-02-07T19:53:17Z</time>
        <name>WPT.1551</name>
      </trkpt>
      <trkpt lat="33.900951000" lon="-106.981336000">
        <ele>1643.380</ele>
        <time>2015-02-07T19:53:18Z</time>
        <name>WPT.1552</name>
      </trkpt>
      <trkpt lat="33.900951000" lon="-106.981321000">
        <ele>1643.380</ele>
        <time>2015-02-07T19:53:19Z</time>
        <name>WPT.1553</name>
      </trkpt>
      <trkpt lat="33.900951000" lon="-106.981316000">
        <ele>1643.370</ele>
        <time>2015-02-07T19:53:20Z</time>
        <name>WPT.1554</name>
      </trkpt>
      <trkpt lat="33.900949000" lon="-106.981296000">
        <ele>1643.370</ele>
        <time>2015-02-07T19:53:21Z</time>
        <name>WPT.1555</name>
      </trkpt>
      <trkpt lat="33.900957000" lon="-106.981284000">
        <ele>1643.190</ele>
        <time>2015-02-07T19:53:36Z</time>
        <name>WPT.1556</name>
      </trkpt>
      <trkpt lat="33.900959000" lon="-106.981275000">
        <ele>1643.190</ele>
        <time>2015-02-07T19:53:37Z</time>
        <name>WPT.1557</name>
      </trkpt>
      <trkpt lat="33.900956000" lon="-106.981260000">
        <ele>1643.090</ele>
        <time>2015-02-07T19:53:38Z</time>
        <name>WPT.1558</name>
      </trkpt>
      <trkpt lat="33.900951000" lon="-106.981242000">
        <ele>1643.080</ele>
        <time>2015-02-07T19:53:39Z</time>
        <name>WPT.1559</name>
      </trkpt>
      <trkpt lat="33.900946000" lon="-106.981218000">
        <ele>1643.080</ele>
        <time>2015-02-07T19:53:40Z</time>
        <name>WPT.1560</name>
      </trkpt>
      <trkpt lat="33.900945000" lon="-106.981193000">
        <ele>1642.880</ele>
        <time>2015-02-07T19:53:41Z</time>
        <name>WPT.1561</name>
      </trkpt>
      <trkpt lat="33.900945000" lon="-106.981165000">
        <ele>1642.870</ele>
        <time>2015-02-07T19:53:42Z</time>
        <name>WPT.1562</name>
      </trkpt>
      <trkpt lat="33.900947000" lon="-106.981134000">
        <ele>1642.870</ele>
        <time>2015-02-07T19:53:43Z</time>
        <name>WPT.1563</name>
      </trkpt>
      <trkpt lat="33.900949000" lon="-106.981106000">
        <ele>1642.670</ele>
        <time>2015-02-07T19:53:44Z</time>
        <name>WPT.1564</name>
      </trkpt>
      <trkpt lat="33.900948000" lon="-106.981101000">
        <ele>1642.370</ele>
        <time>2015-02-07T19:53:45Z</time>
        <name>WPT.1565</name>
      </trkpt>
      <trkpt lat="33.900945000" lon="-106.981081000">
        <ele>1642.460</ele>
        <time>2015-02-07T19:53:46Z</time>
        <name>WPT.1566</name>
      </trkpt>
      <trkpt lat="33.900933000" lon="-106.981088000">
        <ele>1642.140</ele>
        <time>2015-02-07T19:53:53Z</time>
        <name>WPT.1567</name>
      </trkpt>
      <trkpt lat="33.900940000" lon="-106.981068000">
        <ele>1642.230</ele>
        <time>2015-02-07T19:53:54Z</time>
        <name>WPT.1568</name>
      </trkpt>
      <trkpt lat="33.900961000" lon="-106.981038000">
        <ele>1642.130</ele>
        <time>2015-02-07T19:53:55Z</time>
        <name>WPT.1569</name>
      </trkpt>
      <trkpt lat="33.900995000" lon="-106.981003000">
        <ele>1642.120</ele>
        <time>2015-02-07T19:53:56Z</time>
        <name>WPT.1570</name>
      </trkpt>
      <trkpt lat="33.901024000" lon="-106.980962000">
        <ele>1642.120</ele>
        <time>2015-02-07T19:53:57Z</time>
        <name>WPT.1571</name>
      </trkpt>
      <trkpt lat="33.901049000" lon="-106.980915000">
        <ele>1642.110</ele>
        <time>2015-02-07T19:53:58Z</time>
        <name>WPT.1572</name>
      </trkpt>
      <trkpt lat="33.901067000" lon="-106.980861000">
        <ele>1642.110</ele>
        <time>2015-02-07T19:53:59Z</time>
        <name>WPT.1573</name>
      </trkpt>
      <trkpt lat="33.901074000" lon="-106.980805000">
        <ele>1642.000</ele>
        <time>2015-02-07T19:54:00Z</time>
        <name>WPT.1574</name>
      </trkpt>
      <trkpt lat="33.901069000" lon="-106.980756000">
        <ele>1641.320</ele>
        <time>2015-02-07T19:54:01Z</time>
        <name>WPT.1575</name>
      </trkpt>
      <trkpt lat="33.901061000" lon="-106.980718000">
        <ele>1640.440</ele>
        <time>2015-02-07T19:54:02Z</time>
        <name>WPT.1576</name>
      </trkpt>
      <trkpt lat="33.901052000" lon="-106.980686000">
        <ele>1640.430</ele>
        <time>2015-02-07T19:54:03Z</time>
        <name>WPT.1577</name>
      </trkpt>
      <trkpt lat="33.901037000" lon="-106.980654000">
        <ele>1639.650</ele>
        <time>2015-02-07T19:54:04Z</time>
        <name>WPT.1578</name>
      </trkpt>
      <trkpt lat="33.901017000" lon="-106.980618000">
        <ele>1639.740</ele>
        <time>2015-02-07T19:54:05Z</time>
        <name>WPT.1579</name>
      </trkpt>
      <trkpt lat="33.900991000" lon="-106.980574000">
        <ele>1639.640</ele>
        <time>2015-02-07T19:54:06Z</time>
        <name>WPT.1580</name>
      </trkpt>
      <trkpt lat="33.900960000" lon="-106.980518000">
        <ele>1639.640</ele>
        <time>2015-02-07T19:54:07Z</time>
        <name>WPT.1581</name>
      </trkpt>
      <trkpt lat="33.900925000" lon="-106.980453000">
        <ele>1639.640</ele>
        <time>2015-02-07T19:54:08Z</time>
        <name>WPT.1582</name>
      </trkpt>
      <trkpt lat="33.900889000" lon="-106.980386000">
        <ele>1639.630</ele>
        <time>2015-02-07T19:54:09Z</time>
        <name>WPT.1583</name>
      </trkpt>
      <trkpt lat="33.900852000" lon="-106.980319000">
        <ele>1639.530</ele>
        <time>2015-02-07T19:54:10Z</time>
        <name>WPT.1584</name>
      </trkpt>
      <trkpt lat="33.900817000" lon="-106.980255000">
        <ele>1639.530</ele>
        <time>2015-02-07T19:54:11Z</time>
        <name>WPT.1585</name>
      </trkpt>
      <trkpt lat="33.900787000" lon="-106.980198000">
        <ele>1639.530</ele>
        <time>2015-02-07T19:54:12Z</time>
        <name>WPT.1586</name>
      </trkpt>
      <trkpt lat="33.900761000" lon="-106.980141000">
        <ele>1639.520</ele>
        <time>2015-02-07T19:54:13Z</time>
        <name>WPT.1587</name>
      </trkpt>
      <trkpt lat="33.900737000" lon="-106.980073000">
        <ele>1639.620</ele>
        <time>2015-02-07T19:54:14Z</time>
        <name>WPT.1588</name>
      </trkpt>
      <trkpt lat="33.900711000" lon="-106.979989000">
        <ele>1639.710</ele>
        <time>2015-02-07T19:54:15Z</time>
        <name>WPT.1589</name>
      </trkpt>
      <trkpt lat="33.900690000" lon="-106.979894000">
        <ele>1641.170</ele>
        <time>2015-02-07T19:54:16Z</time>
        <name>WPT.1590</name>
      </trkpt>
      <trkpt lat="33.900673000" lon="-106.979793000">
        <ele>1641.650</ele>
        <time>2015-02-07T19:54:17Z</time>
        <name>WPT.1591</name>
      </trkpt>
      <trkpt lat="33.900660000" lon="-106.979692000">
        <ele>1641.740</ele>
        <time>2015-02-07T19:54:18Z</time>
        <name>WPT.1592</name>
      </trkpt>
      <trkpt lat="33.900650000" lon="-106.979594000">
        <ele>1641.740</ele>
        <time>2015-02-07T19:54:19Z</time>
        <name>WPT.1593</name>
      </trkpt>
      <trkpt lat="33.900638000" lon="-106.979498000">
        <ele>1641.740</ele>
        <time>2015-02-07T19:54:20Z</time>
        <name>WPT.1594</name>
      </trkpt>
      <trkpt lat="33.900627000" lon="-106.979394000">
        <ele>1641.830</ele>
        <time>2015-02-07T19:54:21Z</time>
        <name>WPT.1595</name>
      </trkpt>
      <trkpt lat="33.900616000" lon="-106.979280000">
        <ele>1642.020</ele>
        <time>2015-02-07T19:54:22Z</time>
        <name>WPT.1596</name>
      </trkpt>
      <trkpt lat="33.900608000" lon="-106.979155000">
        <ele>1641.820</ele>
        <time>2015-02-07T19:54:23Z</time>
        <name>WPT.1597</name>
      </trkpt>
      <trkpt lat="33.900603000" lon="-106.979023000">
        <ele>1641.530</ele>
        <time>2015-02-07T19:54:24Z</time>
        <name>WPT.1598</name>
      </trkpt>
      <trkpt lat="33.900604000" lon="-106.978883000">
        <ele>1641.720</ele>
        <time>2015-02-07T19:54:25Z</time>
        <name>WPT.1599</name>
      </trkpt>
      <trkpt lat="33.900606000" lon="-106.978739000">
        <ele>1641.610</ele>
        <time>2015-02-07T19:54:26Z</time>
        <name>WPT.1600</name>
      </trkpt>
      <trkpt lat="33.900609000" lon="-106.978597000">
        <ele>1641.710</ele>
        <time>2015-02-07T19:54:27Z</time>
        <name>WPT.1601</name>
      </trkpt>
      <trkpt lat="33.900615000" lon="-106.978460000">
        <ele>1641.700</ele>
        <time>2015-02-07T19:54:28Z</time>
        <name>WPT.1602</name>
      </trkpt>
      <trkpt lat="33.900621000" lon="-106.978328000">
        <ele>1641.700</ele>
        <time>2015-02-07T19:54:29Z</time>
        <name>WPT.1603</name>
      </trkpt>
      <trkpt lat="33.900627000" lon="-106.978201000">
        <ele>1641.790</ele>
        <time>2015-02-07T19:54:30Z</time>
        <name>WPT.1604</name>
      </trkpt>
      <trkpt lat="33.900634000" lon="-106.978072000">
        <ele>1642.080</ele>
        <time>2015-02-07T19:54:31Z</time>
        <name>WPT.1605</name>
      </trkpt>
      <trkpt lat="33.900643000" lon="-106.977936000">
        <ele>1641.300</ele>
        <time>2015-02-07T19:54:32Z</time>
        <name>WPT.1606</name>
      </trkpt>
      <trkpt lat="33.900653000" lon="-106.977793000">
        <ele>1641.100</ele>
        <time>2015-02-07T19:54:33Z</time>
        <name>WPT.1607</name>
      </trkpt>
      <trkpt lat="33.900660000" lon="-106.977645000">
        <ele>1641.100</ele>
        <time>2015-02-07T19:54:34Z</time>
        <name>WPT.1608</name>
      </trkpt>
      <trkpt lat="33.900661000" lon="-106.977492000">
        <ele>1641.090</ele>
        <time>2015-02-07T19:54:35Z</time>
        <name>WPT.1609</name>
      </trkpt>
      <trkpt lat="33.900654000" lon="-106.977337000">
        <ele>1642.260</ele>
        <time>2015-02-07T19:54:36Z</time>
        <name>WPT.1610</name>
      </trkpt>
      <trkpt lat="33.900641000" lon="-106.977179000">
        <ele>1642.930</ele>
        <time>2015-02-07T19:54:37Z</time>
        <name>WPT.1611</name>
      </trkpt>
      <trkpt lat="33.900625000" lon="-106.977016000">
        <ele>1641.270</ele>
        <time>2015-02-07T19:54:38Z</time>
        <name>WPT.1612</name>
      </trkpt>
      <trkpt lat="33.900609000" lon="-106.976852000">
        <ele>1641.170</ele>
        <time>2015-02-07T19:54:39Z</time>
        <name>WPT.1613</name>
      </trkpt>
      <trkpt lat="33.900593000" lon="-106.976688000">
        <ele>1640.580</ele>
        <time>2015-02-07T19:54:40Z</time>
        <name>WPT.1614</name>
      </trkpt>
      <trkpt lat="33.900578000" lon="-106.976525000">
        <ele>1639.020</ele>
        <time>2015-02-07T19:54:41Z</time>
        <name>WPT.1615</name>
      </trkpt>
      <trkpt lat="33.900563000" lon="-106.976364000">
        <ele>1636.870</ele>
        <time>2015-02-07T19:54:42Z</time>
        <name>WPT.1616</name>
      </trkpt>
      <trkpt lat="33.900545000" lon="-106.976207000">
        <ele>1639.500</ele>
        <time>2015-02-07T19:54:43Z</time>
        <name>WPT.1617</name>
      </trkpt>
      <trkpt lat="33.900529000" lon="-106.976050000">
        <ele>1638.610</ele>
        <time>2015-02-07T19:54:44Z</time>
        <name>WPT.1618</name>
      </trkpt>
      <trkpt lat="33.900521000" lon="-106.975894000">
        <ele>1638.320</ele>
        <time>2015-02-07T19:54:45Z</time>
        <name>WPT.1619</name>
      </trkpt>
      <trkpt lat="33.900520000" lon="-106.975739000">
        <ele>1636.560</ele>
        <time>2015-02-07T19:54:46Z</time>
        <name>WPT.1620</name>
      </trkpt>
      <trkpt lat="33.900522000" lon="-106.975588000">
        <ele>1636.660</ele>
        <time>2015-02-07T19:54:47Z</time>
        <name>WPT.1621</name>
      </trkpt>
      <trkpt lat="33.900524000" lon="-106.975443000">
        <ele>1636.460</ele>
        <time>2015-02-07T19:54:48Z</time>
        <name>WPT.1622</name>
      </trkpt>
      <trkpt lat="33.900521000" lon="-106.975306000">
        <ele>1636.650</ele>
        <time>2015-02-07T19:54:49Z</time>
        <name>WPT.1623</name>
      </trkpt>
      <trkpt lat="33.900511000" lon="-106.975186000">
        <ele>1635.190</ele>
        <time>2015-02-07T19:54:50Z</time>
        <name>WPT.1624</name>
      </trkpt>
      <trkpt lat="33.900499000" lon="-106.975087000">
        <ele>1633.040</ele>
        <time>2015-02-07T19:54:51Z</time>
        <name>WPT.1625</name>
      </trkpt>
      <trkpt lat="33.900483000" lon="-106.975003000">
        <ele>1632.650</ele>
        <time>2015-02-07T19:54:52Z</time>
        <name>WPT.1626</name>
      </trkpt>
      <trkpt lat="33.900462000" lon="-106.974922000">
        <ele>1632.260</ele>
        <time>2015-02-07T19:54:53Z</time>
        <name>WPT.1627</name>
      </trkpt>
      <trkpt lat="33.900438000" lon="-106.974842000">
        <ele>1631.970</ele>
        <time>2015-02-07T19:54:54Z</time>
        <name>WPT.1628</name>
      </trkpt>
      <trkpt lat="33.900415000" lon="-106.974767000">
        <ele>1628.850</ele>
        <time>2015-02-07T19:54:55Z</time>
        <name>WPT.1629</name>
      </trkpt>
      <trkpt lat="33.900396000" lon="-106.974697000">
        <ele>1629.920</ele>
        <time>2015-02-07T19:54:56Z</time>
        <name>WPT.1630</name>
      </trkpt>
      <trkpt lat="33.900389000" lon="-106.974630000">
        <ele>1634.680</ele>
        <time>2015-02-07T19:54:57Z</time>
        <name>WPT.1631</name>
      </trkpt>
      <trkpt lat="33.900393000" lon="-106.974559000">
        <ele>1633.510</ele>
        <time>2015-02-07T19:54:58Z</time>
        <name>WPT.1632</name>
      </trkpt>
      <trkpt lat="33.900410000" lon="-106.974483000">
        <ele>1632.050</ele>
        <time>2015-02-07T19:54:59Z</time>
        <name>WPT.1633</name>
      </trkpt>
      <trkpt lat="33.900447000" lon="-106.974406000">
        <ele>1633.020</ele>
        <time>2015-02-07T19:55:00Z</time>
        <name>WPT.1634</name>
      </trkpt>
      <trkpt lat="33.900507000" lon="-106.974339000">
        <ele>1635.550</ele>
        <time>2015-02-07T19:55:01Z</time>
        <name>WPT.1635</name>
      </trkpt>
      <trkpt lat="33.900583000" lon="-106.974285000">
        <ele>1632.820</ele>
        <time>2015-02-07T19:55:02Z</time>
        <name>WPT.1636</name>
      </trkpt>
      <trkpt lat="33.900671000" lon="-106.974234000">
        <ele>1634.380</ele>
        <time>2015-02-07T19:55:03Z</time>
        <name>WPT.1637</name>
      </trkpt>
      <trkpt lat="33.900770000" lon="-106.974183000">
        <ele>1634.280</ele>
        <time>2015-02-07T19:55:04Z</time>
        <name>WPT.1638</name>
      </trkpt>
      <trkpt lat="33.900876000" lon="-106.974129000">
        <ele>1634.470</ele>
        <time>2015-02-07T19:55:05Z</time>
        <name>WPT.1639</name>
      </trkpt>
      <trkpt lat="33.900984000" lon="-106.974071000">
        <ele>1634.560</ele>
        <time>2015-02-07T19:55:06Z</time>
        <name>WPT.1640</name>
      </trkpt>
      <trkpt lat="33.901091000" lon="-106.974005000">
        <ele>1634.560</ele>
        <time>2015-02-07T19:55:07Z</time>
        <name>WPT.1641</name>
      </trkpt>
      <trkpt lat="33.901194000" lon="-106.973936000">
        <ele>1634.560</ele>
        <time>2015-02-07T19:55:08Z</time>
        <name>WPT.1642</name>
      </trkpt>
      <trkpt lat="33.901291000" lon="-106.973866000">
        <ele>1634.560</ele>
        <time>2015-02-07T19:55:09Z</time>
        <name>WPT.1643</name>
      </trkpt>
      <trkpt lat="33.901379000" lon="-106.973793000">
        <ele>1635.240</ele>
        <time>2015-02-07T19:55:10Z</time>
        <name>WPT.1644</name>
      </trkpt>
      <trkpt lat="33.901448000" lon="-106.973709000">
        <ele>1633.190</ele>
        <time>2015-02-07T19:55:11Z</time>
        <name>WPT.1645</name>
      </trkpt>
      <trkpt lat="33.901503000" lon="-106.973608000">
        <ele>1633.280</ele>
        <time>2015-02-07T19:55:12Z</time>
        <name>WPT.1646</name>
      </trkpt>
      <trkpt lat="33.901560000" lon="-106.973492000">
        <ele>1633.380</ele>
        <time>2015-02-07T19:55:13Z</time>
        <name>WPT.1647</name>
      </trkpt>
      <trkpt lat="33.901618000" lon="-106.973368000">
        <ele>1633.860</ele>
        <time>2015-02-07T19:55:14Z</time>
        <name>WPT.1648</name>
      </trkpt>
      <trkpt lat="33.901672000" lon="-106.973245000">
        <ele>1633.860</ele>
        <time>2015-02-07T19:55:15Z</time>
        <name>WPT.1649</name>
      </trkpt>
      <trkpt lat="33.901723000" lon="-106.973128000">
        <ele>1633.860</ele>
        <time>2015-02-07T19:55:16Z</time>
        <name>WPT.1650</name>
      </trkpt>
      <trkpt lat="33.901765000" lon="-106.973018000">
        <ele>1633.660</ele>
        <time>2015-02-07T19:55:17Z</time>
        <name>WPT.1651</name>
      </trkpt>
      <trkpt lat="33.901801000" lon="-106.972910000">
        <ele>1633.170</ele>
        <time>2015-02-07T19:55:18Z</time>
        <name>WPT.1652</name>
      </trkpt>
      <trkpt lat="33.901834000" lon="-106.972807000">
        <ele>1631.810</ele>
        <time>2015-02-07T19:55:19Z</time>
        <name>WPT.1653</name>
      </trkpt>
      <trkpt lat="33.901862000" lon="-106.972709000">
        <ele>1629.960</ele>
        <time>2015-02-07T19:55:20Z</time>
        <name>WPT.1654</name>
      </trkpt>
      <trkpt lat="33.901888000" lon="-106.972615000">
        <ele>1628.790</ele>
        <time>2015-02-07T19:55:21Z</time>
        <name>WPT.1655</name>
      </trkpt>
      <trkpt lat="33.901910000" lon="-106.972519000">
        <ele>1628.590</ele>
        <time>2015-02-07T19:55:22Z</time>
        <name>WPT.1656</name>
      </trkpt>
      <trkpt lat="33.901929000" lon="-106.972423000">
        <ele>1628.200</ele>
        <time>2015-02-07T19:55:23Z</time>
        <name>WPT.1657</name>
      </trkpt>
      <trkpt lat="33.901950000" lon="-106.972326000">
        <ele>1628.010</ele>
        <time>2015-02-07T19:55:24Z</time>
        <name>WPT.1658</name>
      </trkpt>
      <trkpt lat="33.901974000" lon="-106.972233000">
        <ele>1627.910</ele>
        <time>2015-02-07T19:55:25Z</time>
        <name>WPT.1659</name>
      </trkpt>
      <trkpt lat="33.902003000" lon="-106.972145000">
        <ele>1627.520</ele>
        <time>2015-02-07T19:55:26Z</time>
        <name>WPT.1660</name>
      </trkpt>
      <trkpt lat="33.902037000" lon="-106.972064000">
        <ele>1626.060</ele>
        <time>2015-02-07T19:55:27Z</time>
        <name>WPT.1661</name>
      </trkpt>
      <trkpt lat="33.902075000" lon="-106.971991000">
        <ele>1625.570</ele>
        <time>2015-02-07T19:55:28Z</time>
        <name>WPT.1662</name>
      </trkpt>
      <trkpt lat="33.902119000" lon="-106.971931000">
        <ele>1626.060</ele>
        <time>2015-02-07T19:55:29Z</time>
        <name>WPT.1663</name>
      </trkpt>
      <trkpt lat="33.902172000" lon="-106.971889000">
        <ele>1625.960</ele>
        <time>2015-02-07T19:55:30Z</time>
        <name>WPT.1664</name>
      </trkpt>
      <trkpt lat="33.902227000" lon="-106.971857000">
        <ele>1625.960</ele>
        <time>2015-02-07T19:55:31Z</time>
        <name>WPT.1665</name>
      </trkpt>
      <trkpt lat="33.902277000" lon="-106.971820000">
        <ele>1625.960</ele>
        <time>2015-02-07T19:55:32Z</time>
        <name>WPT.1666</name>
      </trkpt>
      <trkpt lat="33.902322000" lon="-106.971775000">
        <ele>1625.860</ele>
        <time>2015-02-07T19:55:33Z</time>
        <name>WPT.1667</name>
      </trkpt>
      <trkpt lat="33.902363000" lon="-106.971723000">
        <ele>1625.660</ele>
        <time>2015-02-07T19:55:34Z</time>
        <name>WPT.1668</name>
      </trkpt>
      <trkpt lat="33.902404000" lon="-106.971665000">
        <ele>1625.560</ele>
        <time>2015-02-07T19:55:35Z</time>
        <name>WPT.1669</name>
      </trkpt>
      <trkpt lat="33.902448000" lon="-106.971605000">
        <ele>1625.470</ele>
        <time>2015-02-07T19:55:36Z</time>
        <name>WPT.1670</name>
      </trkpt>
      <trkpt lat="33.902489000" lon="-106.971551000">
        <ele>1625.370</ele>
        <time>2015-02-07T19:55:37Z</time>
        <name>WPT.1671</name>
      </trkpt>
      <trkpt lat="33.902526000" lon="-106.971507000">
        <ele>1624.490</ele>
        <time>2015-02-07T19:55:38Z</time>
        <name>WPT.1672</name>
      </trkpt>
      <trkpt lat="33.902558000" lon="-106.971471000">
        <ele>1624.000</ele>
        <time>2015-02-07T19:55:39Z</time>
        <name>WPT.1673</name>
      </trkpt>
      <trkpt lat="33.902588000" lon="-106.971442000">
        <ele>1622.930</ele>
        <time>2015-02-07T19:55:40Z</time>
        <name>WPT.1674</name>
      </trkpt>
      <trkpt lat="33.902611000" lon="-106.971420000">
        <ele>1622.740</ele>
        <time>2015-02-07T19:55:41Z</time>
        <name>WPT.1675</name>
      </trkpt>
      <trkpt lat="33.902627000" lon="-106.971411000">
        <ele>1621.670</ele>
        <time>2015-02-07T19:55:42Z</time>
        <name>WPT.1676</name>
      </trkpt>
      <trkpt lat="33.902629000" lon="-106.971408000">
        <ele>1621.280</ele>
        <time>2015-02-07T19:55:43Z</time>
        <name>WPT.1677</name>
      </trkpt>
      <trkpt lat="33.902638000" lon="-106.971398000">
        <ele>1621.280</ele>
        <time>2015-02-07T19:55:44Z</time>
        <name>WPT.1678</name>
      </trkpt>
      <trkpt lat="33.902655000" lon="-106.971377000">
        <ele>1621.180</ele>
        <time>2015-02-07T19:55:45Z</time>
        <name>WPT.1679</name>
      </trkpt>
      <trkpt lat="33.902675000" lon="-106.971345000">
        <ele>1621.180</ele>
        <time>2015-02-07T19:55:46Z</time>
        <name>WPT.1680</name>
      </trkpt>
      <trkpt lat="33.902697000" lon="-106.971299000">
        <ele>1621.180</ele>
        <time>2015-02-07T19:55:47Z</time>
        <name>WPT.1681</name>
      </trkpt>
      <trkpt lat="33.902718000" lon="-106.971240000">
        <ele>1621.180</ele>
        <time>2015-02-07T19:55:48Z</time>
        <name>WPT.1682</name>
      </trkpt>
      <trkpt lat="33.902735000" lon="-106.971168000">
        <ele>1621.180</ele>
        <time>2015-02-07T19:55:49Z</time>
        <name>WPT.1683</name>
      </trkpt>
      <trkpt lat="33.902746000" lon="-106.971084000">
        <ele>1621.180</ele>
        <time>2015-02-07T19:55:50Z</time>
        <name>WPT.1684</name>
      </trkpt>
      <trkpt lat="33.902751000" lon="-106.970998000">
        <ele>1621.170</ele>
        <time>2015-02-07T19:55:51Z</time>
        <name>WPT.1685</name>
      </trkpt>
      <trkpt lat="33.902756000" lon="-106.970912000">
        <ele>1621.170</ele>
        <time>2015-02-07T19:55:52Z</time>
        <name>WPT.1686</name>
      </trkpt>
      <trkpt lat="33.902760000" lon="-106.970833000">
        <ele>1620.980</ele>
        <time>2015-02-07T19:55:53Z</time>
        <name>WPT.1687</name>
      </trkpt>
      <trkpt lat="33.902769000" lon="-106.970767000">
        <ele>1620.000</ele>
        <time>2015-02-07T19:55:54Z</time>
        <name>WPT.1688</name>
      </trkpt>
      <trkpt lat="33.902784000" lon="-106.970715000">
        <ele>1619.130</ele>
        <time>2015-02-07T19:55:55Z</time>
        <name>WPT.1689</name>
      </trkpt>
      <trkpt lat="33.902800000" lon="-106.970668000">
        <ele>1618.540</ele>
        <time>2015-02-07T19:55:56Z</time>
        <name>WPT.1690</name>
      </trkpt>
      <trkpt lat="33.902821000" lon="-106.970621000">
        <ele>1617.670</ele>
        <time>2015-02-07T19:55:57Z</time>
        <name>WPT.1691</name>
      </trkpt>
      <trkpt lat="33.902851000" lon="-106.970574000">
        <ele>1617.960</ele>
        <time>2015-02-07T19:55:58Z</time>
        <name>WPT.1692</name>
      </trkpt>
      <trkpt lat="33.902882000" lon="-106.970528000">
        <ele>1617.180</ele>
        <time>2015-02-07T19:55:59Z</time>
        <name>WPT.1693</name>
      </trkpt>
      <trkpt lat="33.902917000" lon="-106.970474000">
        <ele>1617.180</ele>
        <time>2015-02-07T19:56:00Z</time>
        <name>WPT.1694</name>
      </trkpt>
      <trkpt lat="33.902953000" lon="-106.970412000">
        <ele>1617.570</ele>
        <time>2015-02-07T19:56:01Z</time>
        <name>WPT.1695</name>
      </trkpt>
      <trkpt lat="33.902991000" lon="-106.970340000">
        <ele>1617.570</ele>
        <time>2015-02-07T19:56:02Z</time>
        <name>WPT.1696</name>
      </trkpt>
      <trkpt lat="33.903028000" lon="-106.970257000">
        <ele>1617.570</ele>
        <time>2015-02-07T19:56:03Z</time>
        <name>WPT.1697</name>
      </trkpt>
      <trkpt lat="33.903064000" lon="-106.970164000">
        <ele>1617.660</ele>
        <time>2015-02-07T19:56:04Z</time>
        <name>WPT.1698</name>
      </trkpt>
      <trkpt lat="33.903097000" lon="-106.970060000">
        <ele>1617.660</ele>
        <time>2015-02-07T19:56:05Z</time>
        <name>WPT.1699</name>
      </trkpt>
      <trkpt lat="33.903126000" lon="-106.969949000">
        <ele>1617.760</ele>
        <time>2015-02-07T19:56:06Z</time>
        <name>WPT.1700</name>
      </trkpt>
      <trkpt lat="33.903149000" lon="-106.969837000">
        <ele>1617.850</ele>
        <time>2015-02-07T19:56:07Z</time>
        <name>WPT.1701</name>
      </trkpt>
      <trkpt lat="33.903167000" lon="-106.969725000">
        <ele>1617.850</ele>
        <time>2015-02-07T19:56:08Z</time>
        <name>WPT.1702</name>
      </trkpt>
      <trkpt lat="33.903186000" lon="-106.969616000">
        <ele>1617.850</ele>
        <time>2015-02-07T19:56:09Z</time>
        <name>WPT.1703</name>
      </trkpt>
      <trkpt lat="33.903209000" lon="-106.969510000">
        <ele>1617.560</ele>
        <time>2015-02-07T19:56:10Z</time>
        <name>WPT.1704</name>
      </trkpt>
      <trkpt lat="33.903238000" lon="-106.969407000">
        <ele>1617.260</ele>
        <time>2015-02-07T19:56:11Z</time>
        <name>WPT.1705</name>
      </trkpt>
      <trkpt lat="33.903276000" lon="-106.969305000">
        <ele>1617.260</ele>
        <time>2015-02-07T19:56:12Z</time>
        <name>WPT.1706</name>
      </trkpt>
      <trkpt lat="33.903322000" lon="-106.969206000">
        <ele>1617.260</ele>
        <time>2015-02-07T19:56:13Z</time>
        <name>WPT.1707</name>
      </trkpt>
      <trkpt lat="33.903373000" lon="-106.969111000">
        <ele>1617.260</ele>
        <time>2015-02-07T19:56:14Z</time>
        <name>WPT.1708</name>
      </trkpt>
      <trkpt lat="33.903424000" lon="-106.969026000">
        <ele>1617.060</ele>
        <time>2015-02-07T19:56:15Z</time>
        <name>WPT.1709</name>
      </trkpt>
      <trkpt lat="33.903475000" lon="-106.968955000">
        <ele>1616.480</ele>
        <time>2015-02-07T19:56:16Z</time>
        <name>WPT.1710</name>
      </trkpt>
      <trkpt lat="33.903525000" lon="-106.968897000">
        <ele>1614.920</ele>
        <time>2015-02-07T19:56:17Z</time>
        <name>WPT.1711</name>
      </trkpt>
      <trkpt lat="33.903577000" lon="-106.968851000">
        <ele>1614.630</ele>
        <time>2015-02-07T19:56:18Z</time>
        <name>WPT.1712</name>
      </trkpt>
      <trkpt lat="33.903632000" lon="-106.968818000">
        <ele>1614.630</ele>
        <time>2015-02-07T19:56:19Z</time>
        <name>WPT.1713</name>
      </trkpt>
      <trkpt lat="33.903696000" lon="-106.968795000">
        <ele>1614.630</ele>
        <time>2015-02-07T19:56:20Z</time>
        <name>WPT.1714</name>
      </trkpt>
      <trkpt lat="33.903767000" lon="-106.968787000">
        <ele>1614.630</ele>
        <time>2015-02-07T19:56:21Z</time>
        <name>WPT.1715</name>
      </trkpt>
      <trkpt lat="33.903838000" lon="-106.968795000">
        <ele>1614.530</ele>
        <time>2015-02-07T19:56:22Z</time>
        <name>WPT.1716</name>
      </trkpt>
      <trkpt lat="33.903908000" lon="-106.968820000">
        <ele>1614.430</ele>
        <time>2015-02-07T19:56:23Z</time>
        <name>WPT.1717</name>
      </trkpt>
      <trkpt lat="33.903979000" lon="-106.968852000">
        <ele>1614.430</ele>
        <time>2015-02-07T19:56:24Z</time>
        <name>WPT.1718</name>
      </trkpt>
      <trkpt lat="33.904051000" lon="-106.968878000">
        <ele>1614.330</ele>
        <time>2015-02-07T19:56:25Z</time>
        <name>WPT.1719</name>
      </trkpt>
      <trkpt lat="33.904122000" lon="-106.968898000">
        <ele>1614.330</ele>
        <time>2015-02-07T19:56:26Z</time>
        <name>WPT.1720</name>
      </trkpt>
      <trkpt lat="33.904192000" lon="-106.968919000">
        <ele>1614.330</ele>
        <time>2015-02-07T19:56:27Z</time>
        <name>WPT.1721</name>
      </trkpt>
      <trkpt lat="33.904262000" lon="-106.968945000">
        <ele>1614.230</ele>
        <time>2015-02-07T19:56:28Z</time>
        <name>WPT.1722</name>
      </trkpt>
      <trkpt lat="33.904330000" lon="-106.968974000">
        <ele>1614.230</ele>
        <time>2015-02-07T19:56:29Z</time>
        <name>WPT.1723</name>
      </trkpt>
      <trkpt lat="33.904396000" lon="-106.969001000">
        <ele>1612.580</ele>
        <time>2015-02-07T19:56:30Z</time>
        <name>WPT.1724</name>
      </trkpt>
      <trkpt lat="33.904460000" lon="-106.969028000">
        <ele>1613.160</ele>
        <time>2015-02-07T19:56:31Z</time>
        <name>WPT.1725</name>
      </trkpt>
      <trkpt lat="33.904528000" lon="-106.969051000">
        <ele>1612.960</ele>
        <time>2015-02-07T19:56:32Z</time>
        <name>WPT.1726</name>
      </trkpt>
      <trkpt lat="33.904601000" lon="-106.969069000">
        <ele>1612.770</ele>
        <time>2015-02-07T19:56:33Z</time>
        <name>WPT.1727</name>
      </trkpt>
      <trkpt lat="33.904681000" lon="-106.969086000">
        <ele>1613.060</ele>
        <time>2015-02-07T19:56:34Z</time>
        <name>WPT.1728</name>
      </trkpt>
      <trkpt lat="33.904765000" lon="-106.969096000">
        <ele>1613.540</ele>
        <time>2015-02-07T19:56:35Z</time>
        <name>WPT.1729</name>
      </trkpt>
      <trkpt lat="33.904841000" lon="-106.969093000">
        <ele>1613.540</ele>
        <time>2015-02-07T19:56:36Z</time>
        <name>WPT.1730</name>
      </trkpt>
      <trkpt lat="33.904914000" lon="-106.969080000">
        <ele>1613.440</ele>
        <time>2015-02-07T19:56:37Z</time>
        <name>WPT.1731</name>
      </trkpt>
      <trkpt lat="33.904981000" lon="-106.969052000">
        <ele>1613.250</ele>
        <time>2015-02-07T19:56:38Z</time>
        <name>WPT.1732</name>
      </trkpt>
      <trkpt lat="33.905048000" lon="-106.969016000">
        <ele>1612.570</ele>
        <time>2015-02-07T19:56:39Z</time>
        <name>WPT.1733</name>
      </trkpt>
      <trkpt lat="33.905113000" lon="-106.968972000">
        <ele>1612.470</ele>
        <time>2015-02-07T19:56:40Z</time>
        <name>WPT.1734</name>
      </trkpt>
      <trkpt lat="33.905174000" lon="-106.968924000">
        <ele>1611.590</ele>
        <time>2015-02-07T19:56:41Z</time>
        <name>WPT.1735</name>
      </trkpt>
      <trkpt lat="33.905229000" lon="-106.968870000">
        <ele>1611.390</ele>
        <time>2015-02-07T19:56:42Z</time>
        <name>WPT.1736</name>
      </trkpt>
      <trkpt lat="33.905281000" lon="-106.968813000">
        <ele>1611.200</ele>
        <time>2015-02-07T19:56:43Z</time>
        <name>WPT.1737</name>
      </trkpt>
      <trkpt lat="33.905333000" lon="-106.968753000">
        <ele>1610.810</ele>
        <time>2015-02-07T19:56:44Z</time>
        <name>WPT.1738</name>
      </trkpt>
      <trkpt lat="33.905383000" lon="-106.968686000">
        <ele>1610.610</ele>
        <time>2015-02-07T19:56:45Z</time>
        <name>WPT.1739</name>
      </trkpt>
      <trkpt lat="33.905432000" lon="-106.968612000">
        <ele>1610.510</ele>
        <time>2015-02-07T19:56:46Z</time>
        <name>WPT.1740</name>
      </trkpt>
      <trkpt lat="33.905484000" lon="-106.968535000">
        <ele>1610.510</ele>
        <time>2015-02-07T19:56:47Z</time>
        <name>WPT.1741</name>
      </trkpt>
      <trkpt lat="33.905535000" lon="-106.968460000">
        <ele>1610.410</ele>
        <time>2015-02-07T19:56:48Z</time>
        <name>WPT.1742</name>
      </trkpt>
      <trkpt lat="33.905584000" lon="-106.968387000">
        <ele>1610.120</ele>
        <time>2015-02-07T19:56:49Z</time>
        <name>WPT.1743</name>
      </trkpt>
      <trkpt lat="33.905630000" lon="-106.968312000">
        <ele>1609.930</ele>
        <time>2015-02-07T19:56:50Z</time>
        <name>WPT.1744</name>
      </trkpt>
      <trkpt lat="33.905675000" lon="-106.968239000">
        <ele>1609.930</ele>
        <time>2015-02-07T19:56:51Z</time>
        <name>WPT.1745</name>
      </trkpt>
      <trkpt lat="33.905715000" lon="-106.968176000">
        <ele>1609.630</ele>
        <time>2015-02-07T19:56:52Z</time>
        <name>WPT.1746</name>
      </trkpt>
      <trkpt lat="33.905744000" lon="-106.968129000">
        <ele>1608.070</ele>
        <time>2015-02-07T19:56:53Z</time>
        <name>WPT.1747</name>
      </trkpt>
      <trkpt lat="33.905762000" lon="-106.968102000">
        <ele>1607.390</ele>
        <time>2015-02-07T19:56:54Z</time>
        <name>WPT.1748</name>
      </trkpt>
      <trkpt lat="33.905764000" lon="-106.968098000">
        <ele>1607.300</ele>
        <time>2015-02-07T19:56:55Z</time>
        <name>WPT.1749</name>
      </trkpt>
      <trkpt lat="33.905773000" lon="-106.968084000">
        <ele>1607.290</ele>
        <time>2015-02-07T19:56:56Z</time>
        <name>WPT.1750</name>
      </trkpt>
      <trkpt lat="33.905763000" lon="-106.968084000">
        <ele>1607.390</ele>
        <time>2015-02-07T19:57:11Z</time>
        <name>WPT.1751</name>
      </trkpt>
      <trkpt lat="33.905753000" lon="-106.968084000">
        <ele>1607.480</ele>
        <time>2015-02-07T19:57:18Z</time>
        <name>WPT.1752</name>
      </trkpt>
      <trkpt lat="33.905726000" lon="-106.968086000">
        <ele>1607.480</ele>
        <time>2015-02-07T19:57:19Z</time>
        <name>WPT.1753</name>
      </trkpt>
      <trkpt lat="33.905737000" lon="-106.968078000">
        <ele>1607.980</ele>
        <time>2015-02-07T19:57:51Z</time>
        <name>WPT.1754</name>
      </trkpt>
      <trkpt lat="33.905746000" lon="-106.968061000">
        <ele>1607.980</ele>
        <time>2015-02-07T19:57:52Z</time>
        <name>WPT.1755</name>
      </trkpt>
      <trkpt lat="33.905758000" lon="-106.968030000">
        <ele>1608.660</ele>
        <time>2015-02-07T19:57:53Z</time>
        <name>WPT.1756</name>
      </trkpt>
      <trkpt lat="33.905776000" lon="-106.967991000">
        <ele>1608.950</ele>
        <time>2015-02-07T19:57:54Z</time>
        <name>WPT.1757</name>
      </trkpt>
      <trkpt lat="33.905798000" lon="-106.967942000">
        <ele>1608.460</ele>
        <time>2015-02-07T19:57:55Z</time>
        <name>WPT.1758</name>
      </trkpt>
      <trkpt lat="33.905824000" lon="-106.967883000">
        <ele>1608.460</ele>
        <time>2015-02-07T19:57:56Z</time>
        <name>WPT.1759</name>
      </trkpt>
      <trkpt lat="33.905849000" lon="-106.967821000">
        <ele>1608.460</ele>
        <time>2015-02-07T19:57:57Z</time>
        <name>WPT.1760</name>
      </trkpt>
      <trkpt lat="33.905873000" lon="-106.967756000">
        <ele>1608.460</ele>
        <time>2015-02-07T19:57:58Z</time>
        <name>WPT.1761</name>
      </trkpt>
      <trkpt lat="33.905897000" lon="-106.967688000">
        <ele>1608.470</ele>
        <time>2015-02-07T19:57:59Z</time>
        <name>WPT.1762</name>
      </trkpt>
      <trkpt lat="33.905917000" lon="-106.967618000">
        <ele>1608.270</ele>
        <time>2015-02-07T19:58:00Z</time>
        <name>WPT.1763</name>
      </trkpt>
      <trkpt lat="33.905931000" lon="-106.967548000">
        <ele>1608.080</ele>
        <time>2015-02-07T19:58:01Z</time>
        <name>WPT.1764</name>
      </trkpt>
      <trkpt lat="33.905939000" lon="-106.967479000">
        <ele>1607.790</ele>
        <time>2015-02-07T19:58:02Z</time>
        <name>WPT.1765</name>
      </trkpt>
      <trkpt lat="33.905943000" lon="-106.967415000">
        <ele>1607.790</ele>
        <time>2015-02-07T19:58:03Z</time>
        <name>WPT.1766</name>
      </trkpt>
      <trkpt lat="33.905944000" lon="-106.967363000">
        <ele>1607.490</ele>
        <time>2015-02-07T19:58:04Z</time>
        <name>WPT.1767</name>
      </trkpt>
      <trkpt lat="33.905946000" lon="-106.967315000">
        <ele>1606.620</ele>
        <time>2015-02-07T19:58:05Z</time>
        <name>WPT.1768</name>
      </trkpt>
      <trkpt lat="33.905954000" lon="-106.967263000">
        <ele>1606.620</ele>
        <time>2015-02-07T19:58:06Z</time>
        <name>WPT.1769</name>
      </trkpt>
      <trkpt lat="33.905973000" lon="-106.967213000">
        <ele>1606.620</ele>
        <time>2015-02-07T19:58:07Z</time>
        <name>WPT.1770</name>
      </trkpt>
      <trkpt lat="33.906002000" lon="-106.967170000">
        <ele>1606.520</ele>
        <time>2015-02-07T19:58:08Z</time>
        <name>WPT.1771</name>
      </trkpt>
      <trkpt lat="33.906040000" lon="-106.967142000">
        <ele>1606.430</ele>
        <time>2015-02-07T19:58:09Z</time>
        <name>WPT.1772</name>
      </trkpt>
      <trkpt lat="33.906085000" lon="-106.967129000">
        <ele>1606.330</ele>
        <time>2015-02-07T19:58:10Z</time>
        <name>WPT.1773</name>
      </trkpt>
      <trkpt lat="33.906132000" lon="-106.967127000">
        <ele>1606.330</ele>
        <time>2015-02-07T19:58:11Z</time>
        <name>WPT.1774</name>
      </trkpt>
      <trkpt lat="33.906179000" lon="-106.967131000">
        <ele>1606.140</ele>
        <time>2015-02-07T19:58:12Z</time>
        <name>WPT.1775</name>
      </trkpt>
      <trkpt lat="33.906224000" lon="-106.967137000">
        <ele>1605.850</ele>
        <time>2015-02-07T19:58:13Z</time>
        <name>WPT.1776</name>
      </trkpt>
      <trkpt lat="33.906269000" lon="-106.967141000">
        <ele>1605.750</ele>
        <time>2015-02-07T19:58:14Z</time>
        <name>WPT.1777</name>
      </trkpt>
      <trkpt lat="33.906318000" lon="-106.967140000">
        <ele>1605.750</ele>
        <time>2015-02-07T19:58:15Z</time>
        <name>WPT.1778</name>
      </trkpt>
      <trkpt lat="33.906367000" lon="-106.967135000">
        <ele>1605.650</ele>
        <time>2015-02-07T19:58:16Z</time>
        <name>WPT.1779</name>
      </trkpt>
      <trkpt lat="33.906414000" lon="-106.967120000">
        <ele>1605.560</ele>
        <time>2015-02-07T19:58:17Z</time>
        <name>WPT.1780</name>
      </trkpt>
      <trkpt lat="33.906456000" lon="-106.967092000">
        <ele>1605.460</ele>
        <time>2015-02-07T19:58:18Z</time>
        <name>WPT.1781</name>
      </trkpt>
      <trkpt lat="33.906491000" lon="-106.967052000">
        <ele>1605.460</ele>
        <time>2015-02-07T19:58:19Z</time>
        <name>WPT.1782</name>
      </trkpt>
      <trkpt lat="33.906516000" lon="-106.967002000">
        <ele>1605.270</ele>
        <time>2015-02-07T19:58:20Z</time>
        <name>WPT.1783</name>
      </trkpt>
      <trkpt lat="33.906528000" lon="-106.966947000">
        <ele>1604.780</ele>
        <time>2015-02-07T19:58:21Z</time>
        <name>WPT.1784</name>
      </trkpt>
      <trkpt lat="33.906527000" lon="-106.966892000">
        <ele>1604.210</ele>
        <time>2015-02-07T19:58:22Z</time>
        <name>WPT.1785</name>
      </trkpt>
      <trkpt lat="33.906512000" lon="-106.966839000">
        <ele>1604.300</ele>
        <time>2015-02-07T19:58:23Z</time>
        <name>WPT.1786</name>
      </trkpt>
      <trkpt lat="33.906484000" lon="-106.966786000">
        <ele>1604.880</ele>
        <time>2015-02-07T19:58:24Z</time>
        <name>WPT.1787</name>
      </trkpt>
      <trkpt lat="33.906450000" lon="-106.966733000">
        <ele>1605.080</ele>
        <time>2015-02-07T19:58:25Z</time>
        <name>WPT.1788</name>
      </trkpt>
      <trkpt lat="33.906416000" lon="-106.966680000">
        <ele>1605.080</ele>
        <time>2015-02-07T19:58:26Z</time>
        <name>WPT.1789</name>
      </trkpt>
      <trkpt lat="33.906386000" lon="-106.966628000">
        <ele>1604.980</ele>
        <time>2015-02-07T19:58:27Z</time>
        <name>WPT.1790</name>
      </trkpt>
      <trkpt lat="33.906359000" lon="-106.966580000">
        <ele>1604.980</ele>
        <time>2015-02-07T19:58:28Z</time>
        <name>WPT.1791</name>
      </trkpt>
      <trkpt lat="33.906332000" lon="-106.966532000">
        <ele>1604.880</ele>
        <time>2015-02-07T19:58:29Z</time>
        <name>WPT.1792</name>
      </trkpt>
      <trkpt lat="33.906309000" lon="-106.966485000">
        <ele>1604.210</ele>
        <time>2015-02-07T19:58:30Z</time>
        <name>WPT.1793</name>
      </trkpt>
      <trkpt lat="33.906285000" lon="-106.966434000">
        <ele>1604.110</ele>
        <time>2015-02-07T19:58:31Z</time>
        <name>WPT.1794</name>
      </trkpt>
      <trkpt lat="33.906260000" lon="-106.966381000">
        <ele>1603.920</ele>
        <time>2015-02-07T19:58:32Z</time>
        <name>WPT.1795</name>
      </trkpt>
      <trkpt lat="33.906235000" lon="-106.966328000">
        <ele>1603.920</ele>
        <time>2015-02-07T19:58:33Z</time>
        <name>WPT.1796</name>
      </trkpt>
      <trkpt lat="33.906208000" lon="-106.966281000">
        <ele>1603.920</ele>
        <time>2015-02-07T19:58:34Z</time>
        <name>WPT.1797</name>
      </trkpt>
      <trkpt lat="33.906180000" lon="-106.966237000">
        <ele>1603.830</ele>
        <time>2015-02-07T19:58:35Z</time>
        <name>WPT.1798</name>
      </trkpt>
      <trkpt lat="33.906158000" lon="-106.966201000">
        <ele>1603.440</ele>
        <time>2015-02-07T19:58:36Z</time>
        <name>WPT.1799</name>
      </trkpt>
      <trkpt lat="33.906146000" lon="-106.966184000">
        <ele>1602.670</ele>
        <time>2015-02-07T19:58:37Z</time>
        <name>WPT.1800</name>
      </trkpt>
      <trkpt lat="33.906144000" lon="-106.966180000">
        <ele>1602.290</ele>
        <time>2015-02-07T19:58:38Z</time>
        <name>WPT.1801</name>
      </trkpt>
      <trkpt lat="33.906136000" lon="-106.966168000">
        <ele>1602.090</ele>
        <time>2015-02-07T19:58:39Z</time>
        <name>WPT.1802</name>
      </trkpt>
      <trkpt lat="33.906137000" lon="-106.966170000">
        <ele>1602.010</ele>
        <time>2015-02-07T19:59:08Z</time>
        <name>WPT.1803</name>
      </trkpt>
      <trkpt lat="33.906160000" lon="-106.966086000">
        <ele>1602.110</ele>
        <time>2015-02-07T19:59:52Z</time>
        <name>WPT.1804</name>
      </trkpt>
      <trkpt lat="33.906149000" lon="-106.966076000">
        <ele>1602.120</ele>
        <time>2015-02-07T19:59:55Z</time>
        <name>WPT.1805</name>
      </trkpt>
      <trkpt lat="33.906145000" lon="-106.966056000">
        <ele>1602.120</ele>
        <time>2015-02-07T19:59:56Z</time>
        <name>WPT.1806</name>
      </trkpt>
      <trkpt lat="33.906144000" lon="-106.966030000">
        <ele>1602.120</ele>
        <time>2015-02-07T19:59:57Z</time>
        <name>WPT.1807</name>
      </trkpt>
      <trkpt lat="33.906146000" lon="-106.965997000">
        <ele>1602.120</ele>
        <time>2015-02-07T19:59:58Z</time>
        <name>WPT.1808</name>
      </trkpt>
      <trkpt lat="33.906148000" lon="-106.965959000">
        <ele>1602.130</ele>
        <time>2015-02-07T19:59:59Z</time>
        <name>WPT.1809</name>
      </trkpt>
      <trkpt lat="33.906152000" lon="-106.965919000">
        <ele>1601.980</ele>
        <time>2015-02-07T20:00:00Z</time>
        <name>WPT.1810</name>
      </trkpt>
      <trkpt lat="33.906158000" lon="-106.965874000">
        <ele>1601.990</ele>
        <time>2015-02-07T20:00:01Z</time>
        <name>WPT.1811</name>
      </trkpt>
      <trkpt lat="33.906173000" lon="-106.965824000">
        <ele>1601.990</ele>
        <time>2015-02-07T20:00:02Z</time>
        <name>WPT.1812</name>
      </trkpt>
      <trkpt lat="33.906191000" lon="-106.965779000">
        <ele>1601.990</ele>
        <time>2015-02-07T20:00:03Z</time>
        <name>WPT.1813</name>
      </trkpt>
      <trkpt lat="33.906209000" lon="-106.965754000">
        <ele>1601.990</ele>
        <time>2015-02-07T20:00:04Z</time>
        <name>WPT.1814</name>
      </trkpt>
      <trkpt lat="33.906236000" lon="-106.965732000">
        <ele>1601.790</ele>
        <time>2015-02-07T20:00:05Z</time>
        <name>WPT.1815</name>
      </trkpt>
      <trkpt lat="33.906276000" lon="-106.965711000">
        <ele>1601.600</ele>
        <time>2015-02-07T20:00:06Z</time>
        <name>WPT.1816</name>
      </trkpt>
      <trkpt lat="33.906325000" lon="-106.965698000">
        <ele>1601.700</ele>
        <time>2015-02-07T20:00:07Z</time>
        <name>WPT.1817</name>
      </trkpt>
      <trkpt lat="33.906380000" lon="-106.965696000">
        <ele>1601.600</ele>
        <time>2015-02-07T20:00:08Z</time>
        <name>WPT.1818</name>
      </trkpt>
      <trkpt lat="33.906434000" lon="-106.965707000">
        <ele>1601.700</ele>
        <time>2015-02-07T20:00:09Z</time>
        <name>WPT.1819</name>
      </trkpt>
      <trkpt lat="33.906484000" lon="-106.965720000">
        <ele>1601.600</ele>
        <time>2015-02-07T20:00:10Z</time>
        <name>WPT.1820</name>
      </trkpt>
      <trkpt lat="33.906532000" lon="-106.965732000">
        <ele>1601.600</ele>
        <time>2015-02-07T20:00:11Z</time>
        <name>WPT.1821</name>
      </trkpt>
      <trkpt lat="33.906580000" lon="-106.965736000">
        <ele>1601.600</ele>
        <time>2015-02-07T20:00:12Z</time>
        <name>WPT.1822</name>
      </trkpt>
      <trkpt lat="33.906629000" lon="-106.965743000">
        <ele>1601.600</ele>
        <time>2015-02-07T20:00:13Z</time>
        <name>WPT.1823</name>
      </trkpt>
      <trkpt lat="33.906677000" lon="-106.965751000">
        <ele>1601.500</ele>
        <time>2015-02-07T20:00:14Z</time>
        <name>WPT.1824</name>
      </trkpt>
      <trkpt lat="33.906722000" lon="-106.965757000">
        <ele>1601.500</ele>
        <time>2015-02-07T20:00:15Z</time>
        <name>WPT.1825</name>
      </trkpt>
      <trkpt lat="33.906781000" lon="-106.965770000">
        <ele>1601.500</ele>
        <time>2015-02-07T20:00:16Z</time>
        <name>WPT.1826</name>
      </trkpt>
      <trkpt lat="33.906828000" lon="-106.965766000">
        <ele>1601.400</ele>
        <time>2015-02-07T20:00:17Z</time>
        <name>WPT.1827</name>
      </trkpt>
      <trkpt lat="33.906867000" lon="-106.965753000">
        <ele>1601.210</ele>
        <time>2015-02-07T20:00:18Z</time>
        <name>WPT.1828</name>
      </trkpt>
      <trkpt lat="33.906902000" lon="-106.965736000">
        <ele>1601.110</ele>
        <time>2015-02-07T20:00:19Z</time>
        <name>WPT.1829</name>
      </trkpt>
      <trkpt lat="33.906939000" lon="-106.965714000">
        <ele>1601.110</ele>
        <time>2015-02-07T20:00:20Z</time>
        <name>WPT.1830</name>
      </trkpt>
      <trkpt lat="33.906980000" lon="-106.965687000">
        <ele>1601.110</ele>
        <time>2015-02-07T20:00:21Z</time>
        <name>WPT.1831</name>
      </trkpt>
      <trkpt lat="33.907023000" lon="-106.965658000">
        <ele>1601.110</ele>
        <time>2015-02-07T20:00:22Z</time>
        <name>WPT.1832</name>
      </trkpt>
      <trkpt lat="33.907065000" lon="-106.965634000">
        <ele>1601.010</ele>
        <time>2015-02-07T20:00:23Z</time>
        <name>WPT.1833</name>
      </trkpt>
      <trkpt lat="33.907109000" lon="-106.965616000">
        <ele>1601.010</ele>
        <time>2015-02-07T20:00:24Z</time>
        <name>WPT.1834</name>
      </trkpt>
      <trkpt lat="33.907156000" lon="-106.965601000">
        <ele>1601.010</ele>
        <time>2015-02-07T20:00:25Z</time>
        <name>WPT.1835</name>
      </trkpt>
      <trkpt lat="33.907206000" lon="-106.965588000">
        <ele>1601.000</ele>
        <time>2015-02-07T20:00:26Z</time>
        <name>WPT.1836</name>
      </trkpt>
      <trkpt lat="33.907258000" lon="-106.965581000">
        <ele>1601.000</ele>
        <time>2015-02-07T20:00:27Z</time>
        <name>WPT.1837</name>
      </trkpt>
      <trkpt lat="33.907310000" lon="-106.965579000">
        <ele>1600.900</ele>
        <time>2015-02-07T20:00:28Z</time>
        <name>WPT.1838</name>
      </trkpt>
      <trkpt lat="33.907360000" lon="-106.965574000">
        <ele>1600.510</ele>
        <time>2015-02-07T20:00:29Z</time>
        <name>WPT.1839</name>
      </trkpt>
      <trkpt lat="33.907411000" lon="-106.965563000">
        <ele>1600.220</ele>
        <time>2015-02-07T20:00:30Z</time>
        <name>WPT.1840</name>
      </trkpt>
      <trkpt lat="33.907457000" lon="-106.965548000">
        <ele>1600.120</ele>
        <time>2015-02-07T20:00:31Z</time>
        <name>WPT.1841</name>
      </trkpt>
      <trkpt lat="33.909267000" lon="-106.954966000">
        <ele>1592.110</ele>
        <time>2015-02-07T20:51:21Z</time>
        <name>WPT.1842</name>
      </trkpt>
      <trkpt lat="33.909293000" lon="-106.954933000">
        <ele>1592.010</ele>
        <time>2015-02-07T20:51:22Z</time>
        <name>WPT.1843</name>
      </trkpt>
      <trkpt lat="33.909314000" lon="-106.954894000">
        <ele>1591.920</ele>
        <time>2015-02-07T20:51:23Z</time>
        <name>WPT.1844</name>
      </trkpt>
      <trkpt lat="33.909323000" lon="-106.954841000">
        <ele>1591.920</ele>
        <time>2015-02-07T20:51:24Z</time>
        <name>WPT.1845</name>
      </trkpt>
      <trkpt lat="33.909375000" lon="-106.954766000">
        <ele>1548.240</ele>
        <time>2015-02-07T20:51:25Z</time>
        <name>WPT.1846</name>
      </trkpt>
      <trkpt lat="33.909426000" lon="-106.954682000">
        <ele>1550.490</ele>
        <time>2015-02-07T20:51:26Z</time>
        <name>WPT.1847</name>
      </trkpt>
      <trkpt lat="33.909469000" lon="-106.954614000">
        <ele>1551.680</ele>
        <time>2015-02-07T20:51:27Z</time>
        <name>WPT.1848</name>
      </trkpt>
      <trkpt lat="33.909510000" lon="-106.954558000">
        <ele>1552.650</ele>
        <time>2015-02-07T20:51:28Z</time>
        <name>WPT.1849</name>
      </trkpt>
      <trkpt lat="33.909550000" lon="-106.954500000">
        <ele>1553.310</ele>
        <time>2015-02-07T20:51:29Z</time>
        <name>WPT.1850</name>
      </trkpt>
      <trkpt lat="33.909586000" lon="-106.954445000">
        <ele>1553.890</ele>
        <time>2015-02-07T20:51:30Z</time>
        <name>WPT.1851</name>
      </trkpt>
      <trkpt lat="33.909619000" lon="-106.954396000">
        <ele>1554.520</ele>
        <time>2015-02-07T20:51:31Z</time>
        <name>WPT.1852</name>
      </trkpt>
      <trkpt lat="33.909651000" lon="-106.954350000">
        <ele>1554.990</ele>
        <time>2015-02-07T20:51:32Z</time>
        <name>WPT.1853</name>
      </trkpt>
      <trkpt lat="33.909684000" lon="-106.954313000">
        <ele>1555.360</ele>
        <time>2015-02-07T20:51:33Z</time>
        <name>WPT.1854</name>
      </trkpt>
      <trkpt lat="33.909714000" lon="-106.954279000">
        <ele>1555.650</ele>
        <time>2015-02-07T20:51:34Z</time>
        <name>WPT.1855</name>
      </trkpt>
      <trkpt lat="33.909746000" lon="-106.954248000">
        <ele>1555.870</ele>
        <time>2015-02-07T20:51:35Z</time>
        <name>WPT.1856</name>
      </trkpt>
      <trkpt lat="33.909778000" lon="-106.954217000">
        <ele>1556.120</ele>
        <time>2015-02-07T20:51:36Z</time>
        <name>WPT.1857</name>
      </trkpt>
      <trkpt lat="33.909800000" lon="-106.954179000">
        <ele>1556.300</ele>
        <time>2015-02-07T20:51:37Z</time>
        <name>WPT.1858</name>
      </trkpt>
      <trkpt lat="33.909820000" lon="-106.954136000">
        <ele>1556.440</ele>
        <time>2015-02-07T20:51:38Z</time>
        <name>WPT.1859</name>
      </trkpt>
      <trkpt lat="33.909838000" lon="-106.954089000">
        <ele>1556.460</ele>
        <time>2015-02-07T20:51:39Z</time>
        <name>WPT.1860</name>
      </trkpt>
      <trkpt lat="33.909847000" lon="-106.954036000">
        <ele>1556.200</ele>
        <time>2015-02-07T20:51:40Z</time>
        <name>WPT.1861</name>
      </trkpt>
      <trkpt lat="33.909847000" lon="-106.953976000">
        <ele>1556.400</ele>
        <time>2015-02-07T20:51:41Z</time>
        <name>WPT.1862</name>
      </trkpt>
      <trkpt lat="33.909849000" lon="-106.953915000">
        <ele>1556.490</ele>
        <time>2015-02-07T20:51:42Z</time>
        <name>WPT.1863</name>
      </trkpt>
      <trkpt lat="33.909854000" lon="-106.953863000">
        <ele>1556.570</ele>
        <time>2015-02-07T20:51:43Z</time>
        <name>WPT.1864</name>
      </trkpt>
      <trkpt lat="33.909855000" lon="-106.953805000">
        <ele>1556.540</ele>
        <time>2015-02-07T20:51:44Z</time>
        <name>WPT.1865</name>
      </trkpt>
      <trkpt lat="33.909857000" lon="-106.953748000">
        <ele>1556.690</ele>
        <time>2015-02-07T20:51:45Z</time>
        <name>WPT.1866</name>
      </trkpt>
      <trkpt lat="33.909857000" lon="-106.953688000">
        <ele>1556.650</ele>
        <time>2015-02-07T20:51:46Z</time>
        <name>WPT.1867</name>
      </trkpt>
      <trkpt lat="33.909854000" lon="-106.953622000">
        <ele>1556.600</ele>
        <time>2015-02-07T20:51:47Z</time>
        <name>WPT.1868</name>
      </trkpt>
      <trkpt lat="33.909850000" lon="-106.953553000">
        <ele>1556.460</ele>
        <time>2015-02-07T20:51:48Z</time>
        <name>WPT.1869</name>
      </trkpt>
      <trkpt lat="33.909849000" lon="-106.953479000">
        <ele>1556.410</ele>
        <time>2015-02-07T20:51:49Z</time>
        <name>WPT.1870</name>
      </trkpt>
      <trkpt lat="33.909856000" lon="-106.953406000">
        <ele>1556.450</ele>
        <time>2015-02-07T20:51:50Z</time>
        <name>WPT.1871</name>
      </trkpt>
      <trkpt lat="33.909867000" lon="-106.953336000">
        <ele>1556.390</ele>
        <time>2015-02-07T20:51:51Z</time>
        <name>WPT.1872</name>
      </trkpt>
      <trkpt lat="33.909884000" lon="-106.953270000">
        <ele>1556.330</ele>
        <time>2015-02-07T20:51:52Z</time>
        <name>WPT.1873</name>
      </trkpt>
      <trkpt lat="33.909914000" lon="-106.953211000">
        <ele>1556.360</ele>
        <time>2015-02-07T20:51:53Z</time>
        <name>WPT.1874</name>
      </trkpt>
      <trkpt lat="33.909959000" lon="-106.953158000">
        <ele>1556.380</ele>
        <time>2015-02-07T20:51:54Z</time>
        <name>WPT.1875</name>
      </trkpt>
      <trkpt lat="33.910016000" lon="-106.953104000">
        <ele>1556.400</ele>
        <time>2015-02-07T20:51:55Z</time>
        <name>WPT.1876</name>
      </trkpt>
      <trkpt lat="33.910083000" lon="-106.953046000">
        <ele>1556.500</ele>
        <time>2015-02-07T20:51:56Z</time>
        <name>WPT.1877</name>
      </trkpt>
      <trkpt lat="33.910157000" lon="-106.952986000">
        <ele>1556.780</ele>
        <time>2015-02-07T20:51:57Z</time>
        <name>WPT.1878</name>
      </trkpt>
      <trkpt lat="33.910235000" lon="-106.952927000">
        <ele>1556.570</ele>
        <time>2015-02-07T20:51:58Z</time>
        <name>WPT.1879</name>
      </trkpt>
      <trkpt lat="33.910315000" lon="-106.952875000">
        <ele>1556.190</ele>
        <time>2015-02-07T20:51:59Z</time>
        <name>WPT.1880</name>
      </trkpt>
      <trkpt lat="33.910397000" lon="-106.952834000">
        <ele>1555.710</ele>
        <time>2015-02-07T20:52:00Z</time>
        <name>WPT.1881</name>
      </trkpt>
      <trkpt lat="33.910479000" lon="-106.952800000">
        <ele>1555.150</ele>
        <time>2015-02-07T20:52:01Z</time>
        <name>WPT.1882</name>
      </trkpt>
      <trkpt lat="33.910560000" lon="-106.952770000">
        <ele>1554.690</ele>
        <time>2015-02-07T20:52:02Z</time>
        <name>WPT.1883</name>
      </trkpt>
      <trkpt lat="33.910636000" lon="-106.952746000">
        <ele>1553.860</ele>
        <time>2015-02-07T20:52:03Z</time>
        <name>WPT.1884</name>
      </trkpt>
      <trkpt lat="33.910709000" lon="-106.952733000">
        <ele>1553.890</ele>
        <time>2015-02-07T20:52:04Z</time>
        <name>WPT.1885</name>
      </trkpt>
      <trkpt lat="33.910784000" lon="-106.952724000">
        <ele>1553.920</ele>
        <time>2015-02-07T20:52:05Z</time>
        <name>WPT.1886</name>
      </trkpt>
      <trkpt lat="33.910856000" lon="-106.952706000">
        <ele>1553.850</ele>
        <time>2015-02-07T20:52:06Z</time>
        <name>WPT.1887</name>
      </trkpt>
      <trkpt lat="33.910929000" lon="-106.952685000">
        <ele>1553.870</ele>
        <time>2015-02-07T20:52:07Z</time>
        <name>WPT.1888</name>
      </trkpt>
      <trkpt lat="33.911001000" lon="-106.952663000">
        <ele>1554.260</ele>
        <time>2015-02-07T20:52:08Z</time>
        <name>WPT.1889</name>
      </trkpt>
      <trkpt lat="33.911070000" lon="-106.952629000">
        <ele>1553.690</ele>
        <time>2015-02-07T20:52:09Z</time>
        <name>WPT.1890</name>
      </trkpt>
      <trkpt lat="33.911145000" lon="-106.952593000">
        <ele>1553.700</ele>
        <time>2015-02-07T20:52:10Z</time>
        <name>WPT.1891</name>
      </trkpt>
      <trkpt lat="33.911219000" lon="-106.952558000">
        <ele>1553.610</ele>
        <time>2015-02-07T20:52:11Z</time>
        <name>WPT.1892</name>
      </trkpt>
      <trkpt lat="33.911291000" lon="-106.952523000">
        <ele>1553.420</ele>
        <time>2015-02-07T20:52:12Z</time>
        <name>WPT.1893</name>
      </trkpt>
      <trkpt lat="33.911357000" lon="-106.952484000">
        <ele>1553.510</ele>
        <time>2015-02-07T20:52:13Z</time>
        <name>WPT.1894</name>
      </trkpt>
      <trkpt lat="33.911421000" lon="-106.952448000">
        <ele>1553.220</ele>
        <time>2015-02-07T20:52:14Z</time>
        <name>WPT.1895</name>
      </trkpt>
      <trkpt lat="33.911496000" lon="-106.952424000">
        <ele>1553.020</ele>
        <time>2015-02-07T20:52:15Z</time>
        <name>WPT.1896</name>
      </trkpt>
      <trkpt lat="33.911572000" lon="-106.952400000">
        <ele>1553.010</ele>
        <time>2015-02-07T20:52:16Z</time>
        <name>WPT.1897</name>
      </trkpt>
      <trkpt lat="33.911648000" lon="-106.952376000">
        <ele>1553.000</ele>
        <time>2015-02-07T20:52:17Z</time>
        <name>WPT.1898</name>
      </trkpt>
      <trkpt lat="33.911717000" lon="-106.952352000">
        <ele>1552.990</ele>
        <time>2015-02-07T20:52:18Z</time>
        <name>WPT.1899</name>
      </trkpt>
      <trkpt lat="33.911789000" lon="-106.952328000">
        <ele>1552.970</ele>
        <time>2015-02-07T20:52:19Z</time>
        <name>WPT.1900</name>
      </trkpt>
      <trkpt lat="33.911862000" lon="-106.952304000">
        <ele>1552.860</ele>
        <time>2015-02-07T20:52:20Z</time>
        <name>WPT.1901</name>
      </trkpt>
      <trkpt lat="33.911933000" lon="-106.952274000">
        <ele>1552.840</ele>
        <time>2015-02-07T20:52:21Z</time>
        <name>WPT.1902</name>
      </trkpt>
      <trkpt lat="33.912004000" lon="-106.952243000">
        <ele>1552.250</ele>
        <time>2015-02-07T20:52:22Z</time>
        <name>WPT.1903</name>
      </trkpt>
      <trkpt lat="33.912077000" lon="-106.952210000">
        <ele>1551.190</ele>
        <time>2015-02-07T20:52:23Z</time>
        <name>WPT.1904</name>
      </trkpt>
      <trkpt lat="33.912147000" lon="-106.952170000">
        <ele>1551.200</ele>
        <time>2015-02-07T20:52:24Z</time>
        <name>WPT.1905</name>
      </trkpt>
      <trkpt lat="33.912212000" lon="-106.952120000">
        <ele>1551.200</ele>
        <time>2015-02-07T20:52:25Z</time>
        <name>WPT.1906</name>
      </trkpt>
      <trkpt lat="33.912280000" lon="-106.952061000">
        <ele>1551.200</ele>
        <time>2015-02-07T20:52:26Z</time>
        <name>WPT.1907</name>
      </trkpt>
      <trkpt lat="33.912346000" lon="-106.951994000">
        <ele>1551.200</ele>
        <time>2015-02-07T20:52:27Z</time>
        <name>WPT.1908</name>
      </trkpt>
      <trkpt lat="33.912409000" lon="-106.951919000">
        <ele>1551.190</ele>
        <time>2015-02-07T20:52:28Z</time>
        <name>WPT.1909</name>
      </trkpt>
      <trkpt lat="33.912466000" lon="-106.951836000">
        <ele>1551.190</ele>
        <time>2015-02-07T20:52:29Z</time>
        <name>WPT.1910</name>
      </trkpt>
      <trkpt lat="33.912522000" lon="-106.951748000">
        <ele>1551.180</ele>
        <time>2015-02-07T20:52:30Z</time>
        <name>WPT.1911</name>
      </trkpt>
      <trkpt lat="33.912577000" lon="-106.951657000">
        <ele>1550.980</ele>
        <time>2015-02-07T20:52:31Z</time>
        <name>WPT.1912</name>
      </trkpt>
      <trkpt lat="33.912629000" lon="-106.951567000">
        <ele>1550.780</ele>
        <time>2015-02-07T20:52:32Z</time>
        <name>WPT.1913</name>
      </trkpt>
      <trkpt lat="33.912680000" lon="-106.951477000">
        <ele>1550.670</ele>
        <time>2015-02-07T20:52:33Z</time>
        <name>WPT.1914</name>
      </trkpt>
      <trkpt lat="33.912729000" lon="-106.951386000">
        <ele>1550.660</ele>
        <time>2015-02-07T20:52:34Z</time>
        <name>WPT.1915</name>
      </trkpt>
      <trkpt lat="33.912763000" lon="-106.951286000">
        <ele>1550.560</ele>
        <time>2015-02-07T20:52:35Z</time>
        <name>WPT.1916</name>
      </trkpt>
      <trkpt lat="33.912784000" lon="-106.951183000">
        <ele>1550.260</ele>
        <time>2015-02-07T20:52:36Z</time>
        <name>WPT.1917</name>
      </trkpt>
      <trkpt lat="33.912793000" lon="-106.951082000">
        <ele>1550.260</ele>
        <time>2015-02-07T20:52:37Z</time>
        <name>WPT.1918</name>
      </trkpt>
      <trkpt lat="33.912790000" lon="-106.950988000">
        <ele>1550.060</ele>
        <time>2015-02-07T20:52:38Z</time>
        <name>WPT.1919</name>
      </trkpt>
      <trkpt lat="33.912778000" lon="-106.950900000">
        <ele>1548.710</ele>
        <time>2015-02-07T20:52:39Z</time>
        <name>WPT.1920</name>
      </trkpt>
      <trkpt lat="33.912766000" lon="-106.950820000">
        <ele>1546.500</ele>
        <time>2015-02-07T20:52:40Z</time>
        <name>WPT.1921</name>
      </trkpt>
      <trkpt lat="33.912749000" lon="-106.950744000">
        <ele>1548.720</ele>
        <time>2015-02-07T20:52:41Z</time>
        <name>WPT.1922</name>
      </trkpt>
      <trkpt lat="33.912727000" lon="-106.950672000">
        <ele>1548.620</ele>
        <time>2015-02-07T20:52:42Z</time>
        <name>WPT.1923</name>
      </trkpt>
      <trkpt lat="33.912708000" lon="-106.950598000">
        <ele>1548.420</ele>
        <time>2015-02-07T20:52:43Z</time>
        <name>WPT.1924</name>
      </trkpt>
      <trkpt lat="33.912685000" lon="-106.950522000">
        <ele>1548.600</ele>
        <time>2015-02-07T20:52:44Z</time>
        <name>WPT.1925</name>
      </trkpt>
      <trkpt lat="33.912663000" lon="-106.950441000">
        <ele>1549.730</ele>
        <time>2015-02-07T20:52:45Z</time>
        <name>WPT.1926</name>
      </trkpt>
      <trkpt lat="33.912640000" lon="-106.950359000">
        <ele>1549.030</ele>
        <time>2015-02-07T20:52:46Z</time>
        <name>WPT.1927</name>
      </trkpt>
      <trkpt lat="33.912618000" lon="-106.950277000">
        <ele>1544.810</ele>
        <time>2015-02-07T20:52:47Z</time>
        <name>WPT.1928</name>
      </trkpt>
      <trkpt lat="33.912598000" lon="-106.950190000">
        <ele>1549.130</ele>
        <time>2015-02-07T20:52:48Z</time>
        <name>WPT.1929</name>
      </trkpt>
      <trkpt lat="33.912581000" lon="-106.950100000">
        <ele>1545.570</ele>
        <time>2015-02-07T20:52:49Z</time>
        <name>WPT.1930</name>
      </trkpt>
      <trkpt lat="33.912561000" lon="-106.950004000">
        <ele>1549.500</ele>
        <time>2015-02-07T20:52:50Z</time>
        <name>WPT.1931</name>
      </trkpt>
      <trkpt lat="33.912545000" lon="-106.949904000">
        <ele>1549.080</ele>
        <time>2015-02-07T20:52:51Z</time>
        <name>WPT.1932</name>
      </trkpt>
      <trkpt lat="33.912535000" lon="-106.949804000">
        <ele>1549.050</ele>
        <time>2015-02-07T20:52:52Z</time>
        <name>WPT.1933</name>
      </trkpt>
      <trkpt lat="33.912524000" lon="-106.949703000">
        <ele>1549.010</ele>
        <time>2015-02-07T20:52:53Z</time>
        <name>WPT.1934</name>
      </trkpt>
      <trkpt lat="33.912514000" lon="-106.949603000">
        <ele>1548.880</ele>
        <time>2015-02-07T20:52:54Z</time>
        <name>WPT.1935</name>
      </trkpt>
      <trkpt lat="33.912505000" lon="-106.949499000">
        <ele>1548.270</ele>
        <time>2015-02-07T20:52:55Z</time>
        <name>WPT.1936</name>
      </trkpt>
      <trkpt lat="33.912500000" lon="-106.949391000">
        <ele>1547.570</ele>
        <time>2015-02-07T20:52:56Z</time>
        <name>WPT.1937</name>
      </trkpt>
      <trkpt lat="33.912496000" lon="-106.949281000">
        <ele>1547.640</ele>
        <time>2015-02-07T20:52:57Z</time>
        <name>WPT.1938</name>
      </trkpt>
      <trkpt lat="33.912493000" lon="-106.949170000">
        <ele>1547.620</ele>
        <time>2015-02-07T20:52:58Z</time>
        <name>WPT.1939</name>
      </trkpt>
      <trkpt lat="33.912490000" lon="-106.949056000">
        <ele>1547.590</ele>
        <time>2015-02-07T20:52:59Z</time>
        <name>WPT.1940</name>
      </trkpt>
      <trkpt lat="33.912492000" lon="-106.948942000">
        <ele>1547.660</ele>
        <time>2015-02-07T20:53:00Z</time>
        <name>WPT.1941</name>
      </trkpt>
      <trkpt lat="33.912498000" lon="-106.948831000">
        <ele>1547.630</ele>
        <time>2015-02-07T20:53:01Z</time>
        <name>WPT.1942</name>
      </trkpt>
      <trkpt lat="33.912506000" lon="-106.948723000">
        <ele>1546.930</ele>
        <time>2015-02-07T20:53:02Z</time>
        <name>WPT.1943</name>
      </trkpt>
      <trkpt lat="33.912515000" lon="-106.948616000">
        <ele>1546.330</ele>
        <time>2015-02-07T20:53:03Z</time>
        <name>WPT.1944</name>
      </trkpt>
      <trkpt lat="33.912524000" lon="-106.948507000">
        <ele>1546.310</ele>
        <time>2015-02-07T20:53:04Z</time>
        <name>WPT.1945</name>
      </trkpt>
      <trkpt lat="33.912538000" lon="-106.948401000">
        <ele>1546.290</ele>
        <time>2015-02-07T20:53:05Z</time>
        <name>WPT.1946</name>
      </trkpt>
      <trkpt lat="33.912556000" lon="-106.948297000">
        <ele>1546.270</ele>
        <time>2015-02-07T20:53:06Z</time>
        <name>WPT.1947</name>
      </trkpt>
      <trkpt lat="33.912577000" lon="-106.948195000">
        <ele>1546.150</ele>
        <time>2015-02-07T20:53:07Z</time>
        <name>WPT.1948</name>
      </trkpt>
      <trkpt lat="33.912601000" lon="-106.948094000">
        <ele>1546.130</ele>
        <time>2015-02-07T20:53:08Z</time>
        <name>WPT.1949</name>
      </trkpt>
      <trkpt lat="33.912626000" lon="-106.947991000">
        <ele>1546.100</ele>
        <time>2015-02-07T20:53:09Z</time>
        <name>WPT.1950</name>
      </trkpt>
      <trkpt lat="33.912651000" lon="-106.947883000">
        <ele>1546.080</ele>
        <time>2015-02-07T20:53:10Z</time>
        <name>WPT.1951</name>
      </trkpt>
      <trkpt lat="33.912679000" lon="-106.947776000">
        <ele>1545.950</ele>
        <time>2015-02-07T20:53:11Z</time>
        <name>WPT.1952</name>
      </trkpt>
      <trkpt lat="33.912711000" lon="-106.947669000">
        <ele>1546.120</ele>
        <time>2015-02-07T20:53:12Z</time>
        <name>WPT.1953</name>
      </trkpt>
      <trkpt lat="33.912747000" lon="-106.947564000">
        <ele>1546.370</ele>
        <time>2015-02-07T20:53:13Z</time>
        <name>WPT.1954</name>
      </trkpt>
      <trkpt lat="33.912791000" lon="-106.947463000">
        <ele>1544.900</ele>
        <time>2015-02-07T20:53:14Z</time>
        <name>WPT.1955</name>
      </trkpt>
      <trkpt lat="33.912843000" lon="-106.947366000">
        <ele>1545.170</ele>
        <time>2015-02-07T20:53:15Z</time>
        <name>WPT.1956</name>
      </trkpt>
      <trkpt lat="33.912897000" lon="-106.947268000">
        <ele>1544.670</ele>
        <time>2015-02-07T20:53:16Z</time>
        <name>WPT.1957</name>
      </trkpt>
      <trkpt lat="33.912953000" lon="-106.947169000">
        <ele>1544.840</ele>
        <time>2015-02-07T20:53:17Z</time>
        <name>WPT.1958</name>
      </trkpt>
      <trkpt lat="33.913007000" lon="-106.947064000">
        <ele>1544.720</ele>
        <time>2015-02-07T20:53:18Z</time>
        <name>WPT.1959</name>
      </trkpt>
      <trkpt lat="33.913059000" lon="-106.946956000">
        <ele>1544.600</ele>
        <time>2015-02-07T20:53:19Z</time>
        <name>WPT.1960</name>
      </trkpt>
      <trkpt lat="33.913109000" lon="-106.946849000">
        <ele>1543.330</ele>
        <time>2015-02-07T20:53:20Z</time>
        <name>WPT.1961</name>
      </trkpt>
      <trkpt lat="33.913162000" lon="-106.946741000">
        <ele>1543.410</ele>
        <time>2015-02-07T20:53:21Z</time>
        <name>WPT.1962</name>
      </trkpt>
      <trkpt lat="33.913216000" lon="-106.946630000">
        <ele>1543.210</ele>
        <time>2015-02-07T20:53:22Z</time>
        <name>WPT.1963</name>
      </trkpt>
      <trkpt lat="33.913264000" lon="-106.946512000">
        <ele>1543.100</ele>
        <time>2015-02-07T20:53:23Z</time>
        <name>WPT.1964</name>
      </trkpt>
      <trkpt lat="33.913308000" lon="-106.946388000">
        <ele>1543.080</ele>
        <time>2015-02-07T20:53:24Z</time>
        <name>WPT.1965</name>
      </trkpt>
      <trkpt lat="33.913348000" lon="-106.946259000">
        <ele>1542.050</ele>
        <time>2015-02-07T20:53:25Z</time>
        <name>WPT.1966</name>
      </trkpt>
      <trkpt lat="33.913391000" lon="-106.946127000">
        <ele>1542.030</ele>
        <time>2015-02-07T20:53:26Z</time>
        <name>WPT.1967</name>
      </trkpt>
      <trkpt lat="33.913434000" lon="-106.945992000">
        <ele>1541.920</ele>
        <time>2015-02-07T20:53:27Z</time>
        <name>WPT.1968</name>
      </trkpt>
      <trkpt lat="33.913473000" lon="-106.945854000">
        <ele>1541.800</ele>
        <time>2015-02-07T20:53:28Z</time>
        <name>WPT.1969</name>
      </trkpt>
      <trkpt lat="33.913512000" lon="-106.945715000">
        <ele>1541.690</ele>
        <time>2015-02-07T20:53:29Z</time>
        <name>WPT.1970</name>
      </trkpt>
      <trkpt lat="33.913548000" lon="-106.945575000">
        <ele>1541.580</ele>
        <time>2015-02-07T20:53:30Z</time>
        <name>WPT.1971</name>
      </trkpt>
      <trkpt lat="33.913579000" lon="-106.945434000">
        <ele>1541.660</ele>
        <time>2015-02-07T20:53:31Z</time>
        <name>WPT.1972</name>
      </trkpt>
      <trkpt lat="33.913607000" lon="-106.945294000">
        <ele>1541.540</ele>
        <time>2015-02-07T20:53:32Z</time>
        <name>WPT.1973</name>
      </trkpt>
      <trkpt lat="33.913636000" lon="-106.945156000">
        <ele>1541.430</ele>
        <time>2015-02-07T20:53:33Z</time>
        <name>WPT.1974</name>
      </trkpt>
      <trkpt lat="33.913665000" lon="-106.945023000">
        <ele>1541.310</ele>
        <time>2015-02-07T20:53:34Z</time>
        <name>WPT.1975</name>
      </trkpt>
      <trkpt lat="33.913687000" lon="-106.944889000">
        <ele>1541.290</ele>
        <time>2015-02-07T20:53:35Z</time>
        <name>WPT.1976</name>
      </trkpt>
      <trkpt lat="33.913702000" lon="-106.944756000">
        <ele>1541.270</ele>
        <time>2015-02-07T20:53:36Z</time>
        <name>WPT.1977</name>
      </trkpt>
      <trkpt lat="33.913716000" lon="-106.944623000">
        <ele>1541.150</ele>
        <time>2015-02-07T20:53:37Z</time>
        <name>WPT.1978</name>
      </trkpt>
      <trkpt lat="33.913724000" lon="-106.944491000">
        <ele>1541.030</ele>
        <time>2015-02-07T20:53:38Z</time>
        <name>WPT.1979</name>
      </trkpt>
      <trkpt lat="33.913734000" lon="-106.944362000">
        <ele>1540.150</ele>
        <time>2015-02-07T20:53:39Z</time>
        <name>WPT.1980</name>
      </trkpt>
      <trkpt lat="33.913746000" lon="-106.944236000">
        <ele>1538.230</ele>
        <time>2015-02-07T20:53:40Z</time>
        <name>WPT.1981</name>
      </trkpt>
      <trkpt lat="33.913763000" lon="-106.944114000">
        <ele>1538.060</ele>
        <time>2015-02-07T20:53:41Z</time>
        <name>WPT.1982</name>
      </trkpt>
      <trkpt lat="33.913774000" lon="-106.943998000">
        <ele>1537.690</ele>
        <time>2015-02-07T20:53:42Z</time>
        <name>WPT.1983</name>
      </trkpt>
      <trkpt lat="33.913771000" lon="-106.943892000">
        <ele>1536.940</ele>
        <time>2015-02-07T20:53:43Z</time>
        <name>WPT.1984</name>
      </trkpt>
      <trkpt lat="33.913750000" lon="-106.943799000">
        <ele>1535.800</ele>
        <time>2015-02-07T20:53:44Z</time>
        <name>WPT.1985</name>
      </trkpt>
      <trkpt lat="33.913723000" lon="-106.943728000">
        <ele>1534.960</ele>
        <time>2015-02-07T20:53:45Z</time>
        <name>WPT.1986</name>
      </trkpt>
      <trkpt lat="33.913693000" lon="-106.943661000">
        <ele>1535.280</ele>
        <time>2015-02-07T20:53:46Z</time>
        <name>WPT.1987</name>
      </trkpt>
      <trkpt lat="33.913660000" lon="-106.943590000">
        <ele>1535.780</ele>
        <time>2015-02-07T20:53:47Z</time>
        <name>WPT.1988</name>
      </trkpt>
      <trkpt lat="33.913622000" lon="-106.943516000">
        <ele>1535.890</ele>
        <time>2015-02-07T20:53:48Z</time>
        <name>WPT.1989</name>
      </trkpt>
      <trkpt lat="33.913582000" lon="-106.943442000">
        <ele>1535.910</ele>
        <time>2015-02-07T20:53:49Z</time>
        <name>WPT.1990</name>
      </trkpt>
      <trkpt lat="33.913542000" lon="-106.943369000">
        <ele>1536.020</ele>
        <time>2015-02-07T20:53:50Z</time>
        <name>WPT.1991</name>
      </trkpt>
      <trkpt lat="33.913502000" lon="-106.943296000">
        <ele>1536.030</ele>
        <time>2015-02-07T20:53:51Z</time>
        <name>WPT.1992</name>
      </trkpt>
      <trkpt lat="33.913465000" lon="-106.943225000">
        <ele>1536.050</ele>
        <time>2015-02-07T20:53:52Z</time>
        <name>WPT.1993</name>
      </trkpt>
      <trkpt lat="33.913428000" lon="-106.943153000">
        <ele>1535.960</ele>
        <time>2015-02-07T20:53:53Z</time>
        <name>WPT.1994</name>
      </trkpt>
      <trkpt lat="33.913392000" lon="-106.943077000">
        <ele>1535.970</ele>
        <time>2015-02-07T20:53:54Z</time>
        <name>WPT.1995</name>
      </trkpt>
      <trkpt lat="33.913366000" lon="-106.943000000">
        <ele>1535.880</ele>
        <time>2015-02-07T20:53:55Z</time>
        <name>WPT.1996</name>
      </trkpt>
      <trkpt lat="33.913347000" lon="-106.942921000">
        <ele>1535.130</ele>
        <time>2015-02-07T20:53:56Z</time>
        <name>WPT.1997</name>
      </trkpt>
      <trkpt lat="33.913337000" lon="-106.942841000">
        <ele>1533.910</ele>
        <time>2015-02-07T20:53:57Z</time>
        <name>WPT.1998</name>
      </trkpt>
      <trkpt lat="33.913340000" lon="-106.942762000">
        <ele>1533.280</ele>
        <time>2015-02-07T20:53:58Z</time>
        <name>WPT.1999</name>
      </trkpt>
      <trkpt lat="33.913354000" lon="-106.942686000">
        <ele>1533.600</ele>
        <time>2015-02-07T20:53:59Z</time>
        <name>WPT.2000</name>
      </trkpt>
      <trkpt lat="33.913388000" lon="-106.942626000">
        <ele>1533.630</ele>
        <time>2015-02-07T20:54:00Z</time>
        <name>WPT.2001</name>
      </trkpt>
      <trkpt lat="33.913440000" lon="-106.942586000">
        <ele>1533.650</ele>
        <time>2015-02-07T20:54:01Z</time>
        <name>WPT.2002</name>
      </trkpt>
      <trkpt lat="33.913492000" lon="-106.942552000">
        <ele>1533.580</ele>
        <time>2015-02-07T20:54:02Z</time>
        <name>WPT.2003</name>
      </trkpt>
      <trkpt lat="33.913544000" lon="-106.942521000">
        <ele>1532.940</ele>
        <time>2015-02-07T20:54:03Z</time>
        <name>WPT.2004</name>
      </trkpt>
      <trkpt lat="33.913597000" lon="-106.942490000">
        <ele>1532.590</ele>
        <time>2015-02-07T20:54:04Z</time>
        <name>WPT.2005</name>
      </trkpt>
      <trkpt lat="33.913646000" lon="-106.942461000">
        <ele>1532.530</ele>
        <time>2015-02-07T20:54:05Z</time>
        <name>WPT.2006</name>
      </trkpt>
      <trkpt lat="33.913689000" lon="-106.942436000">
        <ele>1532.560</ele>
        <time>2015-02-07T20:54:06Z</time>
        <name>WPT.2007</name>
      </trkpt>
      <trkpt lat="33.913728000" lon="-106.942415000">
        <ele>1532.600</ele>
        <time>2015-02-07T20:54:07Z</time>
        <name>WPT.2008</name>
      </trkpt>
      <trkpt lat="33.913763000" lon="-106.942395000">
        <ele>1532.540</ele>
        <time>2015-02-07T20:54:08Z</time>
        <name>WPT.2009</name>
      </trkpt>
      <trkpt lat="33.913794000" lon="-106.942377000">
        <ele>1532.470</ele>
        <time>2015-02-07T20:54:09Z</time>
        <name>WPT.2010</name>
      </trkpt>
      <trkpt lat="33.913822000" lon="-106.942359000">
        <ele>1532.410</ele>
        <time>2015-02-07T20:54:10Z</time>
        <name>WPT.2011</name>
      </trkpt>
      <trkpt lat="33.913848000" lon="-106.942344000">
        <ele>1532.250</ele>
        <time>2015-02-07T20:54:11Z</time>
        <name>WPT.2012</name>
      </trkpt>
      <trkpt lat="33.913871000" lon="-106.942335000">
        <ele>1531.330</ele>
        <time>2015-02-07T20:54:12Z</time>
        <name>WPT.2013</name>
      </trkpt>
      <trkpt lat="33.913890000" lon="-106.942330000">
        <ele>1531.480</ele>
        <time>2015-02-07T20:54:13Z</time>
        <name>WPT.2014</name>
      </trkpt>
      <trkpt lat="33.913900000" lon="-106.942328000">
        <ele>1531.520</ele>
        <time>2015-02-07T20:54:14Z</time>
        <name>WPT.2015</name>
      </trkpt>
      <trkpt lat="33.913919000" lon="-106.942329000">
        <ele>1531.460</ele>
        <time>2015-02-07T20:54:15Z</time>
        <name>WPT.2016</name>
      </trkpt>
      <trkpt lat="33.913932000" lon="-106.942325000">
        <ele>1531.510</ele>
        <time>2015-02-07T20:54:16Z</time>
        <name>WPT.2017</name>
      </trkpt>
      <trkpt lat="33.913945000" lon="-106.942318000">
        <ele>1531.540</ele>
        <time>2015-02-07T20:54:17Z</time>
        <name>WPT.2018</name>
      </trkpt>
      <trkpt lat="33.913957000" lon="-106.942309000">
        <ele>1531.580</ele>
        <time>2015-02-07T20:54:18Z</time>
        <name>WPT.2019</name>
      </trkpt>
      <trkpt lat="33.913961000" lon="-106.942297000">
        <ele>1531.620</ele>
        <time>2015-02-07T20:54:19Z</time>
        <name>WPT.2020</name>
      </trkpt>
      <trkpt lat="33.913970000" lon="-106.942283000">
        <ele>1531.750</ele>
        <time>2015-02-07T20:54:20Z</time>
        <name>WPT.2021</name>
      </trkpt>
      <trkpt lat="33.913973000" lon="-106.942267000">
        <ele>1531.880</ele>
        <time>2015-02-07T20:54:21Z</time>
        <name>WPT.2022</name>
      </trkpt>
      <trkpt lat="33.913977000" lon="-106.942250000">
        <ele>1531.910</ele>
        <time>2015-02-07T20:54:22Z</time>
        <name>WPT.2023</name>
      </trkpt>
      <trkpt lat="33.913982000" lon="-106.942231000">
        <ele>1531.940</ele>
        <time>2015-02-07T20:54:23Z</time>
        <name>WPT.2024</name>
      </trkpt>
      <trkpt lat="33.913988000" lon="-106.942215000">
        <ele>1532.060</ele>
        <time>2015-02-07T20:54:24Z</time>
        <name>WPT.2025</name>
      </trkpt>
      <trkpt lat="33.913987000" lon="-106.942201000">
        <ele>1533.110</ele>
        <time>2015-02-07T20:54:25Z</time>
        <name>WPT.2026</name>
      </trkpt>
      <trkpt lat="33.913987000" lon="-106.942195000">
        <ele>1533.050</ele>
        <time>2015-02-07T20:54:27Z</time>
        <name>WPT.2027</name>
      </trkpt>
      <trkpt lat="33.913996000" lon="-106.942179000">
        <ele>1533.070</ele>
        <time>2015-02-07T20:54:28Z</time>
        <name>WPT.2028</name>
      </trkpt>
      <trkpt lat="33.913996000" lon="-106.942166000">
        <ele>1533.210</ele>
        <time>2015-02-07T20:54:39Z</time>
        <name>WPT.2029</name>
      </trkpt>
      <trkpt lat="33.913995000" lon="-106.942152000">
        <ele>1533.330</ele>
        <time>2015-02-07T20:54:41Z</time>
        <name>WPT.2030</name>
      </trkpt>
      <trkpt lat="33.913995000" lon="-106.942141000">
        <ele>1533.340</ele>
        <time>2015-02-07T20:54:42Z</time>
        <name>WPT.2031</name>
      </trkpt>
      <trkpt lat="33.913994000" lon="-106.942130000">
        <ele>1533.340</ele>
        <time>2015-02-07T20:54:43Z</time>
        <name>WPT.2032</name>
      </trkpt>
      <trkpt lat="33.913991000" lon="-106.942094000">
        <ele>1533.540</ele>
        <time>2015-02-07T20:54:44Z</time>
        <name>WPT.2033</name>
      </trkpt>
      <trkpt lat="33.913988000" lon="-106.942078000">
        <ele>1533.450</ele>
        <time>2015-02-07T20:54:45Z</time>
        <name>WPT.2034</name>
      </trkpt>
      <trkpt lat="33.913985000" lon="-106.942055000">
        <ele>1533.460</ele>
        <time>2015-02-07T20:54:46Z</time>
        <name>WPT.2035</name>
      </trkpt>
      <trkpt lat="33.913981000" lon="-106.942033000">
        <ele>1533.460</ele>
        <time>2015-02-07T20:54:47Z</time>
        <name>WPT.2036</name>
      </trkpt>
      <trkpt lat="33.913977000" lon="-106.942010000">
        <ele>1533.460</ele>
        <time>2015-02-07T20:54:48Z</time>
        <name>WPT.2037</name>
      </trkpt>
      <trkpt lat="33.913973000" lon="-106.941984000">
        <ele>1533.470</ele>
        <time>2015-02-07T20:54:49Z</time>
        <name>WPT.2038</name>
      </trkpt>
      <trkpt lat="33.913968000" lon="-106.941956000">
        <ele>1533.470</ele>
        <time>2015-02-07T20:54:50Z</time>
        <name>WPT.2039</name>
      </trkpt>
      <trkpt lat="33.913963000" lon="-106.941927000">
        <ele>1533.470</ele>
        <time>2015-02-07T20:54:51Z</time>
        <name>WPT.2040</name>
      </trkpt>
      <trkpt lat="33.913955000" lon="-106.941892000">
        <ele>1533.480</ele>
        <time>2015-02-07T20:54:52Z</time>
        <name>WPT.2041</name>
      </trkpt>
      <trkpt lat="33.913947000" lon="-106.941853000">
        <ele>1533.670</ele>
        <time>2015-02-07T20:54:53Z</time>
        <name>WPT.2042</name>
      </trkpt>
      <trkpt lat="33.913935000" lon="-106.941810000">
        <ele>1534.440</ele>
        <time>2015-02-07T20:54:54Z</time>
        <name>WPT.2043</name>
      </trkpt>
      <trkpt lat="33.913920000" lon="-106.941762000">
        <ele>1535.110</ele>
        <time>2015-02-07T20:54:55Z</time>
        <name>WPT.2044</name>
      </trkpt>
      <trkpt lat="33.913900000" lon="-106.941709000">
        <ele>1535.290</ele>
        <time>2015-02-07T20:54:56Z</time>
        <name>WPT.2045</name>
      </trkpt>
      <trkpt lat="33.913872000" lon="-106.941645000">
        <ele>1535.570</ele>
        <time>2015-02-07T20:54:57Z</time>
        <name>WPT.2046</name>
      </trkpt>
      <trkpt lat="33.913838000" lon="-106.941572000">
        <ele>1536.130</ele>
        <time>2015-02-07T20:54:58Z</time>
        <name>WPT.2047</name>
      </trkpt>
      <trkpt lat="33.913788000" lon="-106.941498000">
        <ele>1536.100</ele>
        <time>2015-02-07T20:54:59Z</time>
        <name>WPT.2048</name>
      </trkpt>
      <trkpt lat="33.913736000" lon="-106.941429000">
        <ele>1536.070</ele>
        <time>2015-02-07T20:55:00Z</time>
        <name>WPT.2049</name>
      </trkpt>
      <trkpt lat="33.913678000" lon="-106.941365000">
        <ele>1536.140</ele>
        <time>2015-02-07T20:55:01Z</time>
        <name>WPT.2050</name>
      </trkpt>
      <trkpt lat="33.913614000" lon="-106.941306000">
        <ele>1536.120</ele>
        <time>2015-02-07T20:55:02Z</time>
        <name>WPT.2051</name>
      </trkpt>
      <trkpt lat="33.913546000" lon="-106.941253000">
        <ele>1536.850</ele>
        <time>2015-02-07T20:55:03Z</time>
        <name>WPT.2052</name>
      </trkpt>
      <trkpt lat="33.913474000" lon="-106.941207000">
        <ele>1538.250</ele>
        <time>2015-02-07T20:55:04Z</time>
        <name>WPT.2053</name>
      </trkpt>
      <trkpt lat="33.913393000" lon="-106.941168000">
        <ele>1538.100</ele>
        <time>2015-02-07T20:55:05Z</time>
        <name>WPT.2054</name>
      </trkpt>
      <trkpt lat="33.913312000" lon="-106.941138000">
        <ele>1538.330</ele>
        <time>2015-02-07T20:55:06Z</time>
        <name>WPT.2055</name>
      </trkpt>
      <trkpt lat="33.913227000" lon="-106.941117000">
        <ele>1538.460</ele>
        <time>2015-02-07T20:55:07Z</time>
        <name>WPT.2056</name>
      </trkpt>
      <trkpt lat="33.913141000" lon="-106.941111000">
        <ele>1539.070</ele>
        <time>2015-02-07T20:55:08Z</time>
        <name>WPT.2057</name>
      </trkpt>
      <trkpt lat="33.913056000" lon="-106.941120000">
        <ele>1539.960</ele>
        <time>2015-02-07T20:55:09Z</time>
        <name>WPT.2058</name>
      </trkpt>
      <trkpt lat="33.912965000" lon="-106.941137000">
        <ele>1541.500</ele>
        <time>2015-02-07T20:55:10Z</time>
        <name>WPT.2059</name>
      </trkpt>
      <trkpt lat="33.912866000" lon="-106.941163000">
        <ele>1541.220</ele>
        <time>2015-02-07T20:55:11Z</time>
        <name>WPT.2060</name>
      </trkpt>
      <trkpt lat="33.912767000" lon="-106.941196000">
        <ele>1540.940</ele>
        <time>2015-02-07T20:55:12Z</time>
        <name>WPT.2061</name>
      </trkpt>
      <trkpt lat="33.912669000" lon="-106.941238000">
        <ele>1540.860</ele>
        <time>2015-02-07T20:55:13Z</time>
        <name>WPT.2062</name>
      </trkpt>
      <trkpt lat="33.912570000" lon="-106.941287000">
        <ele>1540.970</ele>
        <time>2015-02-07T20:55:14Z</time>
        <name>WPT.2063</name>
      </trkpt>
      <trkpt lat="33.912471000" lon="-106.941341000">
        <ele>1543.080</ele>
        <time>2015-02-07T20:55:15Z</time>
        <name>WPT.2064</name>
      </trkpt>
      <trkpt lat="33.912370000" lon="-106.941396000">
        <ele>1544.220</ele>
        <time>2015-02-07T20:55:16Z</time>
        <name>WPT.2065</name>
      </trkpt>
      <trkpt lat="33.912271000" lon="-106.941447000">
        <ele>1544.390</ele>
        <time>2015-02-07T20:55:17Z</time>
        <name>WPT.2066</name>
      </trkpt>
      <trkpt lat="33.912175000" lon="-106.941487000">
        <ele>1544.370</ele>
        <time>2015-02-07T20:55:18Z</time>
        <name>WPT.2067</name>
      </trkpt>
      <trkpt lat="33.912079000" lon="-106.941518000">
        <ele>1544.940</ele>
        <time>2015-02-07T20:55:19Z</time>
        <name>WPT.2068</name>
      </trkpt>
      <trkpt lat="33.911983000" lon="-106.941540000">
        <ele>1546.160</ele>
        <time>2015-02-07T20:55:20Z</time>
        <name>WPT.2069</name>
      </trkpt>
      <trkpt lat="33.911892000" lon="-106.941553000">
        <ele>1547.630</ele>
        <time>2015-02-07T20:55:21Z</time>
        <name>WPT.2070</name>
      </trkpt>
      <trkpt lat="33.911802000" lon="-106.941554000">
        <ele>1548.220</ele>
        <time>2015-02-07T20:55:22Z</time>
        <name>WPT.2071</name>
      </trkpt>
      <trkpt lat="33.911708000" lon="-106.941543000">
        <ele>1548.720</ele>
        <time>2015-02-07T20:55:23Z</time>
        <name>WPT.2072</name>
      </trkpt>
      <trkpt lat="33.911622000" lon="-106.941531000">
        <ele>1548.640</ele>
        <time>2015-02-07T20:55:24Z</time>
        <name>WPT.2073</name>
      </trkpt>
      <trkpt lat="33.911538000" lon="-106.941514000">
        <ele>1548.460</ele>
        <time>2015-02-07T20:55:25Z</time>
        <name>WPT.2074</name>
      </trkpt>
      <trkpt lat="33.911457000" lon="-106.941482000">
        <ele>1548.390</ele>
        <time>2015-02-07T20:55:26Z</time>
        <name>WPT.2075</name>
      </trkpt>
      <trkpt lat="33.911377000" lon="-106.941436000">
        <ele>1548.310</ele>
        <time>2015-02-07T20:55:27Z</time>
        <name>WPT.2076</name>
      </trkpt>
      <trkpt lat="33.911301000" lon="-106.941383000">
        <ele>1548.240</ele>
        <time>2015-02-07T20:55:28Z</time>
        <name>WPT.2077</name>
      </trkpt>
      <trkpt lat="33.911222000" lon="-106.941329000">
        <ele>1548.170</ele>
        <time>2015-02-07T20:55:29Z</time>
        <name>WPT.2078</name>
      </trkpt>
      <trkpt lat="33.911142000" lon="-106.941281000">
        <ele>1548.390</ele>
        <time>2015-02-07T20:55:30Z</time>
        <name>WPT.2079</name>
      </trkpt>
      <trkpt lat="33.911060000" lon="-106.941239000">
        <ele>1549.670</ele>
        <time>2015-02-07T20:55:31Z</time>
        <name>WPT.2080</name>
      </trkpt>
      <trkpt lat="33.910978000" lon="-106.941201000">
        <ele>1550.270</ele>
        <time>2015-02-07T20:55:32Z</time>
        <name>WPT.2081</name>
      </trkpt>
      <trkpt lat="33.910898000" lon="-106.941167000">
        <ele>1550.190</ele>
        <time>2015-02-07T20:55:33Z</time>
        <name>WPT.2082</name>
      </trkpt>
      <trkpt lat="33.910826000" lon="-106.941142000">
        <ele>1550.120</ele>
        <time>2015-02-07T20:55:34Z</time>
        <name>WPT.2083</name>
      </trkpt>
      <trkpt lat="33.910770000" lon="-106.941123000">
        <ele>1550.050</ele>
        <time>2015-02-07T20:55:35Z</time>
        <name>WPT.2084</name>
      </trkpt>
      <trkpt lat="33.910742000" lon="-106.941116000">
        <ele>1549.880</ele>
        <time>2015-02-07T20:55:36Z</time>
        <name>WPT.2085</name>
      </trkpt>
      <trkpt lat="33.910727000" lon="-106.941114000">
        <ele>1549.820</ele>
        <time>2015-02-07T20:55:37Z</time>
        <name>WPT.2086</name>
      </trkpt>
      <trkpt lat="33.910711000" lon="-106.941115000">
        <ele>1549.570</ele>
        <time>2015-02-07T20:55:41Z</time>
        <name>WPT.2087</name>
      </trkpt>
      <trkpt lat="33.910711000" lon="-106.941121000">
        <ele>1549.460</ele>
        <time>2015-02-07T20:55:43Z</time>
        <name>WPT.2088</name>
      </trkpt>
      <trkpt lat="33.910699000" lon="-106.941112000">
        <ele>1549.410</ele>
        <time>2015-02-07T20:55:44Z</time>
        <name>WPT.2089</name>
      </trkpt>
      <trkpt lat="33.910684000" lon="-106.941105000">
        <ele>1549.360</ele>
        <time>2015-02-07T20:55:45Z</time>
        <name>WPT.2090</name>
      </trkpt>
      <trkpt lat="33.910666000" lon="-106.941096000">
        <ele>1549.500</ele>
        <time>2015-02-07T20:55:46Z</time>
        <name>WPT.2091</name>
      </trkpt>
      <trkpt lat="33.910647000" lon="-106.941081000">
        <ele>1549.550</ele>
        <time>2015-02-07T20:55:47Z</time>
        <name>WPT.2092</name>
      </trkpt>
      <trkpt lat="33.910624000" lon="-106.941058000">
        <ele>1550.850</ele>
        <time>2015-02-07T20:55:48Z</time>
        <name>WPT.2093</name>
      </trkpt>
      <trkpt lat="33.910600000" lon="-106.941032000">
        <ele>1551.760</ele>
        <time>2015-02-07T20:55:49Z</time>
        <name>WPT.2094</name>
      </trkpt>
      <trkpt lat="33.910568000" lon="-106.940998000">
        <ele>1551.710</ele>
        <time>2015-02-07T20:55:50Z</time>
        <name>WPT.2095</name>
      </trkpt>
      <trkpt lat="33.910528000" lon="-106.940961000">
        <ele>1551.650</ele>
        <time>2015-02-07T20:55:51Z</time>
        <name>WPT.2096</name>
      </trkpt>
      <trkpt lat="33.910479000" lon="-106.940928000">
        <ele>1551.790</ele>
        <time>2015-02-07T20:55:52Z</time>
        <name>WPT.2097</name>
      </trkpt>
      <trkpt lat="33.910425000" lon="-106.940904000">
        <ele>1552.510</ele>
        <time>2015-02-07T20:55:53Z</time>
        <name>WPT.2098</name>
      </trkpt>
      <trkpt lat="33.910367000" lon="-106.940890000">
        <ele>1552.560</ele>
        <time>2015-02-07T20:55:54Z</time>
        <name>WPT.2099</name>
      </trkpt>
      <trkpt lat="33.910308000" lon="-106.940883000">
        <ele>1552.990</ele>
        <time>2015-02-07T20:55:55Z</time>
        <name>WPT.2100</name>
      </trkpt>
      <trkpt lat="33.910247000" lon="-106.940879000">
        <ele>1556.290</ele>
        <time>2015-02-07T20:55:56Z</time>
        <name>WPT.2101</name>
      </trkpt>
      <trkpt lat="33.910182000" lon="-106.940878000">
        <ele>1557.000</ele>
        <time>2015-02-07T20:55:57Z</time>
        <name>WPT.2102</name>
      </trkpt>
      <trkpt lat="33.910110000" lon="-106.940880000">
        <ele>1556.930</ele>
        <time>2015-02-07T20:55:58Z</time>
        <name>WPT.2103</name>
      </trkpt>
      <trkpt lat="33.910031000" lon="-106.940881000">
        <ele>1557.240</ele>
        <time>2015-02-07T20:55:59Z</time>
        <name>WPT.2104</name>
      </trkpt>
      <trkpt lat="33.909948000" lon="-106.940878000">
        <ele>1557.750</ele>
        <time>2015-02-07T20:56:00Z</time>
        <name>WPT.2105</name>
      </trkpt>
      <trkpt lat="33.909861000" lon="-106.940871000">
        <ele>1558.640</ele>
        <time>2015-02-07T20:56:01Z</time>
        <name>WPT.2106</name>
      </trkpt>
      <trkpt lat="33.909770000" lon="-106.940860000">
        <ele>1559.820</ele>
        <time>2015-02-07T20:56:02Z</time>
        <name>WPT.2107</name>
      </trkpt>
      <trkpt lat="33.909676000" lon="-106.940844000">
        <ele>1559.740</ele>
        <time>2015-02-07T20:56:03Z</time>
        <name>WPT.2108</name>
      </trkpt>
      <trkpt lat="33.909584000" lon="-106.940820000">
        <ele>1559.670</ele>
        <time>2015-02-07T20:56:04Z</time>
        <name>WPT.2109</name>
      </trkpt>
      <trkpt lat="33.909500000" lon="-106.940790000">
        <ele>1559.790</ele>
        <time>2015-02-07T20:56:05Z</time>
        <name>WPT.2110</name>
      </trkpt>
      <trkpt lat="33.909423000" lon="-106.940753000">
        <ele>1560.200</ele>
        <time>2015-02-07T20:56:06Z</time>
        <name>WPT.2111</name>
      </trkpt>
      <trkpt lat="33.909353000" lon="-106.940709000">
        <ele>1560.130</ele>
        <time>2015-02-07T20:56:07Z</time>
        <name>WPT.2112</name>
      </trkpt>
      <trkpt lat="33.909292000" lon="-106.940660000">
        <ele>1560.260</ele>
        <time>2015-02-07T20:56:08Z</time>
        <name>WPT.2113</name>
      </trkpt>
      <trkpt lat="33.909241000" lon="-106.940608000">
        <ele>1560.480</ele>
        <time>2015-02-07T20:56:09Z</time>
        <name>WPT.2114</name>
      </trkpt>
      <trkpt lat="33.909199000" lon="-106.940553000">
        <ele>1561.570</ele>
        <time>2015-02-07T20:56:10Z</time>
        <name>WPT.2115</name>
      </trkpt>
      <trkpt lat="33.909163000" lon="-106.940493000">
        <ele>1561.880</ele>
        <time>2015-02-07T20:56:11Z</time>
        <name>WPT.2116</name>
      </trkpt>
      <trkpt lat="33.909134000" lon="-106.940426000">
        <ele>1562.100</ele>
        <time>2015-02-07T20:56:12Z</time>
        <name>WPT.2117</name>
      </trkpt>
      <trkpt lat="33.909114000" lon="-106.940356000">
        <ele>1563.860</ele>
        <time>2015-02-07T20:56:13Z</time>
        <name>WPT.2118</name>
      </trkpt>
      <trkpt lat="33.909090000" lon="-106.940292000">
        <ele>1563.220</ele>
        <time>2015-02-07T20:56:14Z</time>
        <name>WPT.2119</name>
      </trkpt>
      <trkpt lat="33.909058000" lon="-106.940230000">
        <ele>1563.060</ele>
        <time>2015-02-07T20:56:15Z</time>
        <name>WPT.2120</name>
      </trkpt>
      <trkpt lat="33.909011000" lon="-106.940200000">
        <ele>1563.390</ele>
        <time>2015-02-07T20:56:16Z</time>
        <name>WPT.2121</name>
      </trkpt>
      <trkpt lat="33.908956000" lon="-106.940189000">
        <ele>1564.300</ele>
        <time>2015-02-07T20:56:17Z</time>
        <name>WPT.2122</name>
      </trkpt>
      <trkpt lat="33.908898000" lon="-106.940194000">
        <ele>1564.820</ele>
        <time>2015-02-07T20:56:18Z</time>
        <name>WPT.2123</name>
      </trkpt>
      <trkpt lat="33.908825000" lon="-106.940197000">
        <ele>1566.550</ele>
        <time>2015-02-07T20:56:19Z</time>
        <name>WPT.2124</name>
      </trkpt>
      <trkpt lat="33.908755000" lon="-106.940181000">
        <ele>1568.180</ele>
        <time>2015-02-07T20:56:20Z</time>
        <name>WPT.2125</name>
      </trkpt>
      <trkpt lat="33.908697000" lon="-106.940153000">
        <ele>1567.420</ele>
        <time>2015-02-07T20:56:21Z</time>
        <name>WPT.2126</name>
      </trkpt>
      <trkpt lat="33.908649000" lon="-106.940120000">
        <ele>1568.580</ele>
        <time>2015-02-07T20:56:22Z</time>
        <name>WPT.2127</name>
      </trkpt>
      <trkpt lat="33.908606000" lon="-106.940088000">
        <ele>1568.880</ele>
        <time>2015-02-07T20:56:23Z</time>
        <name>WPT.2128</name>
      </trkpt>
      <trkpt lat="33.908567000" lon="-106.940064000">
        <ele>1569.190</ele>
        <time>2015-02-07T20:56:24Z</time>
        <name>WPT.2129</name>
      </trkpt>
      <trkpt lat="33.908540000" lon="-106.940042000">
        <ele>1569.230</ele>
        <time>2015-02-07T20:56:25Z</time>
        <name>WPT.2130</name>
      </trkpt>
      <trkpt lat="33.908515000" lon="-106.940021000">
        <ele>1569.260</ele>
        <time>2015-02-07T20:56:26Z</time>
        <name>WPT.2131</name>
      </trkpt>
      <trkpt lat="33.908490000" lon="-106.939996000">
        <ele>1569.310</ele>
        <time>2015-02-07T20:56:27Z</time>
        <name>WPT.2132</name>
      </trkpt>
      <trkpt lat="33.908464000" lon="-106.939972000">
        <ele>1569.360</ele>
        <time>2015-02-07T20:56:28Z</time>
        <name>WPT.2133</name>
      </trkpt>
      <trkpt lat="33.908437000" lon="-106.939947000">
        <ele>1569.410</ele>
        <time>2015-02-07T20:56:29Z</time>
        <name>WPT.2134</name>
      </trkpt>
      <trkpt lat="33.908409000" lon="-106.939920000">
        <ele>1569.570</ele>
        <time>2015-02-07T20:56:30Z</time>
        <name>WPT.2135</name>
      </trkpt>
      <trkpt lat="33.908380000" lon="-106.939886000">
        <ele>1569.530</ele>
        <time>2015-02-07T20:56:31Z</time>
        <name>WPT.2136</name>
      </trkpt>
      <trkpt lat="33.908349000" lon="-106.939845000">
        <ele>1569.500</ele>
        <time>2015-02-07T20:56:32Z</time>
        <name>WPT.2137</name>
      </trkpt>
      <trkpt lat="33.908319000" lon="-106.939796000">
        <ele>1569.460</ele>
        <time>2015-02-07T20:56:33Z</time>
        <name>WPT.2138</name>
      </trkpt>
      <trkpt lat="33.908293000" lon="-106.939741000">
        <ele>1569.340</ele>
        <time>2015-02-07T20:56:34Z</time>
        <name>WPT.2139</name>
      </trkpt>
      <trkpt lat="33.908271000" lon="-106.939680000">
        <ele>1568.160</ele>
        <time>2015-02-07T20:56:35Z</time>
        <name>WPT.2140</name>
      </trkpt>
      <trkpt lat="33.908253000" lon="-106.939615000">
        <ele>1568.340</ele>
        <time>2015-02-07T20:56:36Z</time>
        <name>WPT.2141</name>
      </trkpt>
      <trkpt lat="33.908239000" lon="-106.939549000">
        <ele>1568.220</ele>
        <time>2015-02-07T20:56:37Z</time>
        <name>WPT.2142</name>
      </trkpt>
      <trkpt lat="33.908227000" lon="-106.939481000">
        <ele>1567.910</ele>
        <time>2015-02-07T20:56:38Z</time>
        <name>WPT.2143</name>
      </trkpt>
      <trkpt lat="33.908216000" lon="-106.939410000">
        <ele>1567.800</ele>
        <time>2015-02-07T20:56:39Z</time>
        <name>WPT.2144</name>
      </trkpt>
      <trkpt lat="33.908205000" lon="-106.939334000">
        <ele>1567.790</ele>
        <time>2015-02-07T20:56:40Z</time>
        <name>WPT.2145</name>
      </trkpt>
      <trkpt lat="33.908198000" lon="-106.939256000">
        <ele>1567.290</ele>
        <time>2015-02-07T20:56:41Z</time>
        <name>WPT.2146</name>
      </trkpt>
      <trkpt lat="33.908195000" lon="-106.939176000">
        <ele>1566.700</ele>
        <time>2015-02-07T20:56:42Z</time>
        <name>WPT.2147</name>
      </trkpt>
      <trkpt lat="33.908201000" lon="-106.939095000">
        <ele>1564.580</ele>
        <time>2015-02-07T20:56:43Z</time>
        <name>WPT.2148</name>
      </trkpt>
      <trkpt lat="33.908212000" lon="-106.939012000">
        <ele>1563.440</ele>
        <time>2015-02-07T20:56:44Z</time>
        <name>WPT.2149</name>
      </trkpt>
      <trkpt lat="33.908226000" lon="-106.938929000">
        <ele>1563.260</ele>
        <time>2015-02-07T20:56:45Z</time>
        <name>WPT.2150</name>
      </trkpt>
      <trkpt lat="33.908240000" lon="-106.938848000">
        <ele>1564.320</ele>
        <time>2015-02-07T20:56:46Z</time>
        <name>WPT.2151</name>
      </trkpt>
      <trkpt lat="33.908253000" lon="-106.938767000">
        <ele>1564.230</ele>
        <time>2015-02-07T20:56:47Z</time>
        <name>WPT.2152</name>
      </trkpt>
      <trkpt lat="33.908263000" lon="-106.938684000">
        <ele>1564.230</ele>
        <time>2015-02-07T20:56:48Z</time>
        <name>WPT.2153</name>
      </trkpt>
      <trkpt lat="33.908271000" lon="-106.938599000">
        <ele>1564.230</ele>
        <time>2015-02-07T20:56:49Z</time>
        <name>WPT.2154</name>
      </trkpt>
      <trkpt lat="33.908274000" lon="-106.938512000">
        <ele>1564.230</ele>
        <time>2015-02-07T20:56:50Z</time>
        <name>WPT.2155</name>
      </trkpt>
      <trkpt lat="33.908275000" lon="-106.938421000">
        <ele>1564.130</ele>
        <time>2015-02-07T20:56:51Z</time>
        <name>WPT.2156</name>
      </trkpt>
      <trkpt lat="33.908274000" lon="-106.938325000">
        <ele>1564.130</ele>
        <time>2015-02-07T20:56:52Z</time>
        <name>WPT.2157</name>
      </trkpt>
      <trkpt lat="33.908275000" lon="-106.938221000">
        <ele>1564.220</ele>
        <time>2015-02-07T20:56:53Z</time>
        <name>WPT.2158</name>
      </trkpt>
      <trkpt lat="33.908283000" lon="-106.938113000">
        <ele>1564.220</ele>
        <time>2015-02-07T20:56:54Z</time>
        <name>WPT.2159</name>
      </trkpt>
      <trkpt lat="33.908291000" lon="-106.937999000">
        <ele>1564.310</ele>
        <time>2015-02-07T20:56:55Z</time>
        <name>WPT.2160</name>
      </trkpt>
      <trkpt lat="33.908300000" lon="-106.937879000">
        <ele>1564.400</ele>
        <time>2015-02-07T20:56:56Z</time>
        <name>WPT.2161</name>
      </trkpt>
      <trkpt lat="33.908307000" lon="-106.937757000">
        <ele>1564.390</ele>
        <time>2015-02-07T20:56:57Z</time>
        <name>WPT.2162</name>
      </trkpt>
      <trkpt lat="33.908312000" lon="-106.937634000">
        <ele>1564.380</ele>
        <time>2015-02-07T20:56:58Z</time>
        <name>WPT.2163</name>
      </trkpt>
      <trkpt lat="33.908313000" lon="-106.937511000">
        <ele>1564.280</ele>
        <time>2015-02-07T20:56:59Z</time>
        <name>WPT.2164</name>
      </trkpt>
      <trkpt lat="33.908311000" lon="-106.937387000">
        <ele>1564.270</ele>
        <time>2015-02-07T20:57:00Z</time>
        <name>WPT.2165</name>
      </trkpt>
      <trkpt lat="33.908307000" lon="-106.937263000">
        <ele>1564.160</ele>
        <time>2015-02-07T20:57:01Z</time>
        <name>WPT.2166</name>
      </trkpt>
      <trkpt lat="33.908304000" lon="-106.937140000">
        <ele>1563.380</ele>
        <time>2015-02-07T20:57:02Z</time>
        <name>WPT.2167</name>
      </trkpt>
      <trkpt lat="33.908301000" lon="-106.937017000">
        <ele>1561.360</ele>
        <time>2015-02-07T20:57:03Z</time>
        <name>WPT.2168</name>
      </trkpt>
      <trkpt lat="33.908298000" lon="-106.936894000">
        <ele>1561.080</ele>
        <time>2015-02-07T20:57:04Z</time>
        <name>WPT.2169</name>
      </trkpt>
      <trkpt lat="33.908296000" lon="-106.936769000">
        <ele>1560.980</ele>
        <time>2015-02-07T20:57:05Z</time>
        <name>WPT.2170</name>
      </trkpt>
      <trkpt lat="33.908291000" lon="-106.936644000">
        <ele>1560.990</ele>
        <time>2015-02-07T20:57:06Z</time>
        <name>WPT.2171</name>
      </trkpt>
      <trkpt lat="33.908286000" lon="-106.936521000">
        <ele>1560.890</ele>
        <time>2015-02-07T20:57:07Z</time>
        <name>WPT.2172</name>
      </trkpt>
      <trkpt lat="33.908282000" lon="-106.936402000">
        <ele>1560.610</ele>
        <time>2015-02-07T20:57:08Z</time>
        <name>WPT.2173</name>
      </trkpt>
      <trkpt lat="33.908275000" lon="-106.936282000">
        <ele>1560.320</ele>
        <time>2015-02-07T20:57:09Z</time>
        <name>WPT.2174</name>
      </trkpt>
      <trkpt lat="33.908267000" lon="-106.936157000">
        <ele>1559.840</ele>
        <time>2015-02-07T20:57:10Z</time>
        <name>WPT.2175</name>
      </trkpt>
      <trkpt lat="33.908260000" lon="-106.936028000">
        <ele>1559.170</ele>
        <time>2015-02-07T20:57:11Z</time>
        <name>WPT.2176</name>
      </trkpt>
      <trkpt lat="33.908255000" lon="-106.935897000">
        <ele>1558.600</ele>
        <time>2015-02-07T20:57:12Z</time>
        <name>WPT.2177</name>
      </trkpt>
      <trkpt lat="33.908252000" lon="-106.935763000">
        <ele>1558.320</ele>
        <time>2015-02-07T20:57:13Z</time>
        <name>WPT.2178</name>
      </trkpt>
      <trkpt lat="33.908252000" lon="-106.935630000">
        <ele>1558.330</ele>
        <time>2015-02-07T20:57:14Z</time>
        <name>WPT.2179</name>
      </trkpt>
      <trkpt lat="33.908255000" lon="-106.935496000">
        <ele>1558.330</ele>
        <time>2015-02-07T20:57:15Z</time>
        <name>WPT.2180</name>
      </trkpt>
      <trkpt lat="33.908259000" lon="-106.935359000">
        <ele>1558.340</ele>
        <time>2015-02-07T20:57:16Z</time>
        <name>WPT.2181</name>
      </trkpt>
      <trkpt lat="33.908264000" lon="-106.935218000">
        <ele>1558.340</ele>
        <time>2015-02-07T20:57:17Z</time>
        <name>WPT.2182</name>
      </trkpt>
      <trkpt lat="33.908271000" lon="-106.935077000">
        <ele>1558.340</ele>
        <time>2015-02-07T20:57:18Z</time>
        <name>WPT.2183</name>
      </trkpt>
      <trkpt lat="33.908278000" lon="-106.934935000">
        <ele>1558.330</ele>
        <time>2015-02-07T20:57:19Z</time>
        <name>WPT.2184</name>
      </trkpt>
      <trkpt lat="33.908286000" lon="-106.934791000">
        <ele>1557.280</ele>
        <time>2015-02-07T20:57:20Z</time>
        <name>WPT.2185</name>
      </trkpt>
      <trkpt lat="33.908295000" lon="-106.934645000">
        <ele>1555.740</ele>
        <time>2015-02-07T20:57:21Z</time>
        <name>WPT.2186</name>
      </trkpt>
      <trkpt lat="33.908303000" lon="-106.934499000">
        <ele>1555.460</ele>
        <time>2015-02-07T20:57:22Z</time>
        <name>WPT.2187</name>
      </trkpt>
      <trkpt lat="33.908311000" lon="-106.934353000">
        <ele>1555.090</ele>
        <time>2015-02-07T20:57:23Z</time>
        <name>WPT.2188</name>
      </trkpt>
      <trkpt lat="33.908321000" lon="-106.934210000">
        <ele>1554.520</ele>
        <time>2015-02-07T20:57:24Z</time>
        <name>WPT.2189</name>
      </trkpt>
      <trkpt lat="33.908331000" lon="-106.934072000">
        <ele>1554.530</ele>
        <time>2015-02-07T20:57:25Z</time>
        <name>WPT.2190</name>
      </trkpt>
      <trkpt lat="33.908338000" lon="-106.933941000">
        <ele>1554.540</ele>
        <time>2015-02-07T20:57:26Z</time>
        <name>WPT.2191</name>
      </trkpt>
      <trkpt lat="33.908339000" lon="-106.933825000">
        <ele>1554.260</ele>
        <time>2015-02-07T20:57:27Z</time>
        <name>WPT.2192</name>
      </trkpt>
      <trkpt lat="33.908339000" lon="-106.933732000">
        <ele>1552.440</ele>
        <time>2015-02-07T20:57:28Z</time>
        <name>WPT.2193</name>
      </trkpt>
      <trkpt lat="33.908345000" lon="-106.933658000">
        <ele>1552.070</ele>
        <time>2015-02-07T20:57:29Z</time>
        <name>WPT.2194</name>
      </trkpt>
      <trkpt lat="33.908358000" lon="-106.933594000">
        <ele>1552.190</ele>
        <time>2015-02-07T20:57:30Z</time>
        <name>WPT.2195</name>
      </trkpt>
      <trkpt lat="33.908379000" lon="-106.933529000">
        <ele>1551.920</ele>
        <time>2015-02-07T20:57:31Z</time>
        <name>WPT.2196</name>
      </trkpt>
      <trkpt lat="33.908406000" lon="-106.933460000">
        <ele>1551.070</ele>
        <time>2015-02-07T20:57:32Z</time>
        <name>WPT.2197</name>
      </trkpt>
      <trkpt lat="33.908446000" lon="-106.933390000">
        <ele>1550.800</ele>
        <time>2015-02-07T20:57:33Z</time>
        <name>WPT.2198</name>
      </trkpt>
      <trkpt lat="33.908496000" lon="-106.933320000">
        <ele>1550.630</ele>
        <time>2015-02-07T20:57:34Z</time>
        <name>WPT.2199</name>
      </trkpt>
      <trkpt lat="33.908551000" lon="-106.933256000">
        <ele>1550.460</ele>
        <time>2015-02-07T20:57:35Z</time>
        <name>WPT.2200</name>
      </trkpt>
      <trkpt lat="33.908610000" lon="-106.933200000">
        <ele>1550.190</ele>
        <time>2015-02-07T20:57:36Z</time>
        <name>WPT.2201</name>
      </trkpt>
      <trkpt lat="33.908675000" lon="-106.933156000">
        <ele>1549.540</ele>
        <time>2015-02-07T20:57:37Z</time>
        <name>WPT.2202</name>
      </trkpt>
      <trkpt lat="33.908747000" lon="-106.933125000">
        <ele>1549.370</ele>
        <time>2015-02-07T20:57:38Z</time>
        <name>WPT.2203</name>
      </trkpt>
      <trkpt lat="33.908823000" lon="-106.933102000">
        <ele>1549.100</ele>
        <time>2015-02-07T20:57:39Z</time>
        <name>WPT.2204</name>
      </trkpt>
      <trkpt lat="33.908902000" lon="-106.933086000">
        <ele>1548.550</ele>
        <time>2015-02-07T20:57:40Z</time>
        <name>WPT.2205</name>
      </trkpt>
      <trkpt lat="33.908980000" lon="-106.933071000">
        <ele>1548.580</ele>
        <time>2015-02-07T20:57:41Z</time>
        <name>WPT.2206</name>
      </trkpt>
      <trkpt lat="33.909056000" lon="-106.933052000">
        <ele>1548.510</ele>
        <time>2015-02-07T20:57:42Z</time>
        <name>WPT.2207</name>
      </trkpt>
      <trkpt lat="33.909129000" lon="-106.933023000">
        <ele>1548.630</ele>
        <time>2015-02-07T20:57:43Z</time>
        <name>WPT.2208</name>
      </trkpt>
      <trkpt lat="33.909196000" lon="-106.932981000">
        <ele>1548.460</ele>
        <time>2015-02-07T20:57:44Z</time>
        <name>WPT.2209</name>
      </trkpt>
      <trkpt lat="33.909262000" lon="-106.932932000">
        <ele>1547.420</ele>
        <time>2015-02-07T20:57:45Z</time>
        <name>WPT.2210</name>
      </trkpt>
      <trkpt lat="33.909324000" lon="-106.932872000">
        <ele>1547.260</ele>
        <time>2015-02-07T20:57:46Z</time>
        <name>WPT.2211</name>
      </trkpt>
      <trkpt lat="33.909374000" lon="-106.932797000">
        <ele>1547.380</ele>
        <time>2015-02-07T20:57:47Z</time>
        <name>WPT.2212</name>
      </trkpt>
      <trkpt lat="33.909417000" lon="-106.932712000">
        <ele>1547.310</ele>
        <time>2015-02-07T20:57:48Z</time>
        <name>WPT.2213</name>
      </trkpt>
      <trkpt lat="33.909461000" lon="-106.932622000">
        <ele>1547.430</ele>
        <time>2015-02-07T20:57:49Z</time>
        <name>WPT.2214</name>
      </trkpt>
      <trkpt lat="33.909510000" lon="-106.932529000">
        <ele>1547.450</ele>
        <time>2015-02-07T20:57:50Z</time>
        <name>WPT.2215</name>
      </trkpt>
      <trkpt lat="33.909567000" lon="-106.932429000">
        <ele>1547.470</ele>
        <time>2015-02-07T20:57:51Z</time>
        <name>WPT.2216</name>
      </trkpt>
      <trkpt lat="33.909630000" lon="-106.932325000">
        <ele>1547.390</ele>
        <time>2015-02-07T20:57:52Z</time>
        <name>WPT.2217</name>
      </trkpt>
      <trkpt lat="33.909699000" lon="-106.932221000">
        <ele>1547.120</ele>
        <time>2015-02-07T20:57:53Z</time>
        <name>WPT.2218</name>
      </trkpt>
      <trkpt lat="33.909771000" lon="-106.932124000">
        <ele>1546.280</ele>
        <time>2015-02-07T20:57:54Z</time>
        <name>WPT.2219</name>
      </trkpt>
      <trkpt lat="33.909846000" lon="-106.932031000">
        <ele>1546.110</ele>
        <time>2015-02-07T20:57:55Z</time>
        <name>WPT.2220</name>
      </trkpt>
      <trkpt lat="33.909922000" lon="-106.931942000">
        <ele>1545.450</ele>
        <time>2015-02-07T20:57:56Z</time>
        <name>WPT.2221</name>
      </trkpt>
      <trkpt lat="33.909998000" lon="-106.931853000">
        <ele>1545.280</ele>
        <time>2015-02-07T20:57:57Z</time>
        <name>WPT.2222</name>
      </trkpt>
      <trkpt lat="33.910072000" lon="-106.931763000">
        <ele>1544.630</ele>
        <time>2015-02-07T20:57:58Z</time>
        <name>WPT.2223</name>
      </trkpt>
      <trkpt lat="33.910143000" lon="-106.931668000">
        <ele>1543.600</ele>
        <time>2015-02-07T20:57:59Z</time>
        <name>WPT.2224</name>
      </trkpt>
      <trkpt lat="33.910209000" lon="-106.931568000">
        <ele>1543.630</ele>
        <time>2015-02-07T20:58:00Z</time>
        <name>WPT.2225</name>
      </trkpt>
      <trkpt lat="33.910271000" lon="-106.931470000">
        <ele>1543.270</ele>
        <time>2015-02-07T20:58:01Z</time>
        <name>WPT.2226</name>
      </trkpt>
      <trkpt lat="33.910324000" lon="-106.931377000">
        <ele>1541.850</ele>
        <time>2015-02-07T20:58:02Z</time>
        <name>WPT.2227</name>
      </trkpt>
      <trkpt lat="33.910369000" lon="-106.931287000">
        <ele>1541.780</ele>
        <time>2015-02-07T20:58:03Z</time>
        <name>WPT.2228</name>
      </trkpt>
      <trkpt lat="33.910404000" lon="-106.931210000">
        <ele>1541.430</ele>
        <time>2015-02-07T20:58:04Z</time>
        <name>WPT.2229</name>
      </trkpt>
      <trkpt lat="33.910432000" lon="-106.931155000">
        <ele>1539.340</ele>
        <time>2015-02-07T20:58:05Z</time>
        <name>WPT.2230</name>
      </trkpt>
      <trkpt lat="33.910456000" lon="-106.931117000">
        <ele>1538.700</ele>
        <time>2015-02-07T20:58:06Z</time>
        <name>WPT.2231</name>
      </trkpt>
      <trkpt lat="33.910478000" lon="-106.931080000">
        <ele>1538.640</ele>
        <time>2015-02-07T20:58:07Z</time>
        <name>WPT.2232</name>
      </trkpt>
      <trkpt lat="33.910499000" lon="-106.931042000">
        <ele>1538.680</ele>
        <time>2015-02-07T20:58:08Z</time>
        <name>WPT.2233</name>
      </trkpt>
      <trkpt lat="33.910528000" lon="-106.931006000">
        <ele>1538.710</ele>
        <time>2015-02-07T20:58:09Z</time>
        <name>WPT.2234</name>
      </trkpt>
      <trkpt lat="33.910563000" lon="-106.930973000">
        <ele>1538.750</ele>
        <time>2015-02-07T20:58:10Z</time>
        <name>WPT.2235</name>
      </trkpt>
      <trkpt lat="33.910607000" lon="-106.930950000">
        <ele>1538.780</ele>
        <time>2015-02-07T20:58:11Z</time>
        <name>WPT.2236</name>
      </trkpt>
      <trkpt lat="33.910658000" lon="-106.930936000">
        <ele>1538.810</ele>
        <time>2015-02-07T20:58:12Z</time>
        <name>WPT.2237</name>
      </trkpt>
      <trkpt lat="33.910717000" lon="-106.930928000">
        <ele>1538.740</ele>
        <time>2015-02-07T20:58:13Z</time>
        <name>WPT.2238</name>
      </trkpt>
      <trkpt lat="33.910777000" lon="-106.930920000">
        <ele>1538.770</ele>
        <time>2015-02-07T20:58:14Z</time>
        <name>WPT.2239</name>
      </trkpt>
      <trkpt lat="33.910845000" lon="-106.930909000">
        <ele>1538.800</ele>
        <time>2015-02-07T20:58:15Z</time>
        <name>WPT.2240</name>
      </trkpt>
      <trkpt lat="33.910915000" lon="-106.930896000">
        <ele>1538.830</ele>
        <time>2015-02-07T20:58:16Z</time>
        <name>WPT.2241</name>
      </trkpt>
      <trkpt lat="33.910975000" lon="-106.930883000">
        <ele>1538.860</ele>
        <time>2015-02-07T20:58:17Z</time>
        <name>WPT.2242</name>
      </trkpt>
      <trkpt lat="33.911029000" lon="-106.930871000">
        <ele>1538.880</ele>
        <time>2015-02-07T20:58:18Z</time>
        <name>WPT.2243</name>
      </trkpt>
      <trkpt lat="33.911082000" lon="-106.930861000">
        <ele>1539.000</ele>
        <time>2015-02-07T20:58:19Z</time>
        <name>WPT.2244</name>
      </trkpt>
      <trkpt lat="33.911134000" lon="-106.930854000">
        <ele>1539.110</ele>
        <time>2015-02-07T20:58:20Z</time>
        <name>WPT.2245</name>
      </trkpt>
      <trkpt lat="33.911185000" lon="-106.930849000">
        <ele>1539.230</ele>
        <time>2015-02-07T20:58:21Z</time>
        <name>WPT.2246</name>
      </trkpt>
      <trkpt lat="33.911235000" lon="-106.930845000">
        <ele>1539.250</ele>
        <time>2015-02-07T20:58:22Z</time>
        <name>WPT.2247</name>
      </trkpt>
      <trkpt lat="33.911287000" lon="-106.930841000">
        <ele>1539.370</ele>
        <time>2015-02-07T20:58:23Z</time>
        <name>WPT.2248</name>
      </trkpt>
      <trkpt lat="33.911335000" lon="-106.930840000">
        <ele>1539.390</ele>
        <time>2015-02-07T20:58:24Z</time>
        <name>WPT.2249</name>
      </trkpt>
      <trkpt lat="33.911385000" lon="-106.930840000">
        <ele>1539.410</ele>
        <time>2015-02-07T20:58:25Z</time>
        <name>WPT.2250</name>
      </trkpt>
      <trkpt lat="33.911441000" lon="-106.930834000">
        <ele>1539.430</ele>
        <time>2015-02-07T20:58:26Z</time>
        <name>WPT.2251</name>
      </trkpt>
      <trkpt lat="33.911503000" lon="-106.930817000">
        <ele>1539.350</ele>
        <time>2015-02-07T20:58:27Z</time>
        <name>WPT.2252</name>
      </trkpt>
      <trkpt lat="33.911561000" lon="-106.930786000">
        <ele>1539.470</ele>
        <time>2015-02-07T20:58:28Z</time>
        <name>WPT.2253</name>
      </trkpt>
      <trkpt lat="33.911612000" lon="-106.930752000">
        <ele>1539.490</ele>
        <time>2015-02-07T20:58:29Z</time>
        <name>WPT.2254</name>
      </trkpt>
      <trkpt lat="33.911660000" lon="-106.930712000">
        <ele>1539.500</ele>
        <time>2015-02-07T20:58:30Z</time>
        <name>WPT.2255</name>
      </trkpt>
      <trkpt lat="33.911710000" lon="-106.930661000">
        <ele>1539.910</ele>
        <time>2015-02-07T20:58:31Z</time>
        <name>WPT.2256</name>
      </trkpt>
      <trkpt lat="33.911762000" lon="-106.930599000">
        <ele>1540.310</ele>
        <time>2015-02-07T20:58:32Z</time>
        <name>WPT.2257</name>
      </trkpt>
      <trkpt lat="33.911816000" lon="-106.930528000">
        <ele>1540.320</ele>
        <time>2015-02-07T20:58:33Z</time>
        <name>WPT.2258</name>
      </trkpt>
      <trkpt lat="33.911878000" lon="-106.930453000">
        <ele>1540.440</ele>
        <time>2015-02-07T20:58:34Z</time>
        <name>WPT.2259</name>
      </trkpt>
      <trkpt lat="33.911947000" lon="-106.930375000">
        <ele>1540.450</ele>
        <time>2015-02-07T20:58:35Z</time>
        <name>WPT.2260</name>
      </trkpt>
      <trkpt lat="33.912020000" lon="-106.930291000">
        <ele>1540.470</ele>
        <time>2015-02-07T20:58:36Z</time>
        <name>WPT.2261</name>
      </trkpt>
      <trkpt lat="33.912098000" lon="-106.930205000">
        <ele>1540.480</ele>
        <time>2015-02-07T20:58:37Z</time>
        <name>WPT.2262</name>
      </trkpt>
      <trkpt lat="33.912175000" lon="-106.930118000">
        <ele>1540.590</ele>
        <time>2015-02-07T20:58:38Z</time>
        <name>WPT.2263</name>
      </trkpt>
      <trkpt lat="33.912245000" lon="-106.930029000">
        <ele>1540.610</ele>
        <time>2015-02-07T20:58:39Z</time>
        <name>WPT.2264</name>
      </trkpt>
      <trkpt lat="33.912313000" lon="-106.929928000">
        <ele>1540.620</ele>
        <time>2015-02-07T20:58:40Z</time>
        <name>WPT.2265</name>
      </trkpt>
      <trkpt lat="33.912376000" lon="-106.929814000">
        <ele>1540.640</ele>
        <time>2015-02-07T20:58:41Z</time>
        <name>WPT.2266</name>
      </trkpt>
      <trkpt lat="33.912437000" lon="-106.929690000">
        <ele>1540.650</ele>
        <time>2015-02-07T20:58:42Z</time>
        <name>WPT.2267</name>
      </trkpt>
      <trkpt lat="33.912493000" lon="-106.929561000">
        <ele>1540.760</ele>
        <time>2015-02-07T20:58:43Z</time>
        <name>WPT.2268</name>
      </trkpt>
      <trkpt lat="33.912547000" lon="-106.929427000">
        <ele>1540.870</ele>
        <time>2015-02-07T20:58:44Z</time>
        <name>WPT.2269</name>
      </trkpt>
      <trkpt lat="33.912596000" lon="-106.929289000">
        <ele>1540.980</ele>
        <time>2015-02-07T20:58:45Z</time>
        <name>WPT.2270</name>
      </trkpt>
      <trkpt lat="33.912639000" lon="-106.929146000">
        <ele>1540.990</ele>
        <time>2015-02-07T20:58:46Z</time>
        <name>WPT.2271</name>
      </trkpt>
      <trkpt lat="33.912676000" lon="-106.929000000">
        <ele>1541.000</ele>
        <time>2015-02-07T20:58:47Z</time>
        <name>WPT.2272</name>
      </trkpt>
      <trkpt lat="33.912705000" lon="-106.928851000">
        <ele>1541.010</ele>
        <time>2015-02-07T20:58:48Z</time>
        <name>WPT.2273</name>
      </trkpt>
      <trkpt lat="33.912732000" lon="-106.928698000">
        <ele>1541.120</ele>
        <time>2015-02-07T20:58:49Z</time>
        <name>WPT.2274</name>
      </trkpt>
      <trkpt lat="33.912756000" lon="-106.928543000">
        <ele>1541.030</ele>
        <time>2015-02-07T20:58:50Z</time>
        <name>WPT.2275</name>
      </trkpt>
      <trkpt lat="33.912780000" lon="-106.928385000">
        <ele>1541.050</ele>
        <time>2015-02-07T20:58:51Z</time>
        <name>WPT.2276</name>
      </trkpt>
      <trkpt lat="33.912801000" lon="-106.928224000">
        <ele>1541.060</ele>
        <time>2015-02-07T20:58:52Z</time>
        <name>WPT.2277</name>
      </trkpt>
      <trkpt lat="33.912822000" lon="-106.928066000">
        <ele>1541.070</ele>
        <time>2015-02-07T20:58:53Z</time>
        <name>WPT.2278</name>
      </trkpt>
      <trkpt lat="33.912848000" lon="-106.927909000">
        <ele>1541.070</ele>
        <time>2015-02-07T20:58:54Z</time>
        <name>WPT.2279</name>
      </trkpt>
      <trkpt lat="33.912877000" lon="-106.927753000">
        <ele>1541.080</ele>
        <time>2015-02-07T20:58:55Z</time>
        <name>WPT.2280</name>
      </trkpt>
      <trkpt lat="33.912912000" lon="-106.927597000">
        <ele>1540.610</ele>
        <time>2015-02-07T20:58:56Z</time>
        <name>WPT.2281</name>
      </trkpt>
      <trkpt lat="33.912951000" lon="-106.927442000">
        <ele>1540.330</ele>
        <time>2015-02-07T20:58:57Z</time>
        <name>WPT.2282</name>
      </trkpt>
      <trkpt lat="33.912991000" lon="-106.927287000">
        <ele>1539.960</ele>
        <time>2015-02-07T20:58:58Z</time>
        <name>WPT.2283</name>
      </trkpt>
      <trkpt lat="33.913031000" lon="-106.927133000">
        <ele>1539.970</ele>
        <time>2015-02-07T20:58:59Z</time>
        <name>WPT.2284</name>
      </trkpt>
      <trkpt lat="33.913070000" lon="-106.926978000">
        <ele>1539.510</ele>
        <time>2015-02-07T20:59:00Z</time>
        <name>WPT.2285</name>
      </trkpt>
      <trkpt lat="33.913108000" lon="-106.926822000">
        <ele>1539.320</ele>
        <time>2015-02-07T20:59:01Z</time>
        <name>WPT.2286</name>
      </trkpt>
      <trkpt lat="33.913146000" lon="-106.926665000">
        <ele>1539.240</ele>
        <time>2015-02-07T20:59:02Z</time>
        <name>WPT.2287</name>
      </trkpt>
      <trkpt lat="33.913185000" lon="-106.926507000">
        <ele>1539.250</ele>
        <time>2015-02-07T20:59:03Z</time>
        <name>WPT.2288</name>
      </trkpt>
      <trkpt lat="33.913225000" lon="-106.926348000">
        <ele>1539.070</ele>
        <time>2015-02-07T20:59:04Z</time>
        <name>WPT.2289</name>
      </trkpt>
      <trkpt lat="33.913266000" lon="-106.926188000">
        <ele>1538.790</ele>
        <time>2015-02-07T20:59:05Z</time>
        <name>WPT.2290</name>
      </trkpt>
      <trkpt lat="33.913310000" lon="-106.926028000">
        <ele>1538.710</ele>
        <time>2015-02-07T20:59:06Z</time>
        <name>WPT.2291</name>
      </trkpt>
      <trkpt lat="33.913358000" lon="-106.925869000">
        <ele>1538.140</ele>
        <time>2015-02-07T20:59:07Z</time>
        <name>WPT.2292</name>
      </trkpt>
      <trkpt lat="33.913407000" lon="-106.925708000">
        <ele>1538.060</ele>
        <time>2015-02-07T20:59:08Z</time>
        <name>WPT.2293</name>
      </trkpt>
      <trkpt lat="33.913457000" lon="-106.925546000">
        <ele>1538.170</ele>
        <time>2015-02-07T20:59:09Z</time>
        <name>WPT.2294</name>
      </trkpt>
      <trkpt lat="33.913507000" lon="-106.925384000">
        <ele>1538.190</ele>
        <time>2015-02-07T20:59:10Z</time>
        <name>WPT.2295</name>
      </trkpt>
      <trkpt lat="33.913561000" lon="-106.925221000">
        <ele>1537.630</ele>
        <time>2015-02-07T20:59:11Z</time>
        <name>WPT.2296</name>
      </trkpt>
      <trkpt lat="33.913619000" lon="-106.925061000">
        <ele>1536.390</ele>
        <time>2015-02-07T20:59:12Z</time>
        <name>WPT.2297</name>
      </trkpt>
      <trkpt lat="33.913683000" lon="-106.924906000">
        <ele>1536.510</ele>
        <time>2015-02-07T20:59:13Z</time>
        <name>WPT.2298</name>
      </trkpt>
      <trkpt lat="33.913750000" lon="-106.924753000">
        <ele>1536.810</ele>
        <time>2015-02-07T20:59:14Z</time>
        <name>WPT.2299</name>
      </trkpt>
      <trkpt lat="33.913816000" lon="-106.924603000">
        <ele>1537.220</ele>
        <time>2015-02-07T20:59:15Z</time>
        <name>WPT.2300</name>
      </trkpt>
      <trkpt lat="33.913883000" lon="-106.924453000">
        <ele>1537.420</ele>
        <time>2015-02-07T20:59:16Z</time>
        <name>WPT.2301</name>
      </trkpt>
      <trkpt lat="33.913948000" lon="-106.924302000">
        <ele>1537.340</ele>
        <time>2015-02-07T20:59:17Z</time>
        <name>WPT.2302</name>
      </trkpt>
      <trkpt lat="33.914009000" lon="-106.924149000">
        <ele>1537.360</ele>
        <time>2015-02-07T20:59:18Z</time>
        <name>WPT.2303</name>
      </trkpt>
      <trkpt lat="33.914070000" lon="-106.923995000">
        <ele>1537.370</ele>
        <time>2015-02-07T20:59:19Z</time>
        <name>WPT.2304</name>
      </trkpt>
      <trkpt lat="33.914131000" lon="-106.923842000">
        <ele>1537.380</ele>
        <time>2015-02-07T20:59:20Z</time>
        <name>WPT.2305</name>
      </trkpt>
      <trkpt lat="33.914191000" lon="-106.923688000">
        <ele>1537.010</ele>
        <time>2015-02-07T20:59:21Z</time>
        <name>WPT.2306</name>
      </trkpt>
      <trkpt lat="33.914251000" lon="-106.923532000">
        <ele>1536.250</ele>
        <time>2015-02-07T20:59:22Z</time>
        <name>WPT.2307</name>
      </trkpt>
      <trkpt lat="33.914311000" lon="-106.923374000">
        <ele>1535.790</ele>
        <time>2015-02-07T20:59:23Z</time>
        <name>WPT.2308</name>
      </trkpt>
      <trkpt lat="33.914373000" lon="-106.923214000">
        <ele>1535.610</ele>
        <time>2015-02-07T20:59:24Z</time>
        <name>WPT.2309</name>
      </trkpt>
      <trkpt lat="33.914440000" lon="-106.923055000">
        <ele>1534.370</ele>
        <time>2015-02-07T20:59:25Z</time>
        <name>WPT.2310</name>
      </trkpt>
      <trkpt lat="33.914507000" lon="-106.922897000">
        <ele>1534.390</ele>
        <time>2015-02-07T20:59:26Z</time>
        <name>WPT.2311</name>
      </trkpt>
      <trkpt lat="33.914574000" lon="-106.922739000">
        <ele>1533.920</ele>
        <time>2015-02-07T20:59:27Z</time>
        <name>WPT.2312</name>
      </trkpt>
      <trkpt lat="33.914641000" lon="-106.922583000">
        <ele>1533.750</ele>
        <time>2015-02-07T20:59:28Z</time>
        <name>WPT.2313</name>
      </trkpt>
      <trkpt lat="33.914705000" lon="-106.922427000">
        <ele>1532.800</ele>
        <time>2015-02-07T20:59:29Z</time>
        <name>WPT.2314</name>
      </trkpt>
      <trkpt lat="33.914769000" lon="-106.922273000">
        <ele>1532.150</ele>
        <time>2015-02-07T20:59:30Z</time>
        <name>WPT.2315</name>
      </trkpt>
      <trkpt lat="33.914832000" lon="-106.922118000">
        <ele>1532.170</ele>
        <time>2015-02-07T20:59:31Z</time>
        <name>WPT.2316</name>
      </trkpt>
      <trkpt lat="33.914895000" lon="-106.921962000">
        <ele>1530.450</ele>
        <time>2015-02-07T20:59:32Z</time>
        <name>WPT.2317</name>
      </trkpt>
      <trkpt lat="33.914956000" lon="-106.921804000">
        <ele>1532.500</ele>
        <time>2015-02-07T20:59:33Z</time>
        <name>WPT.2318</name>
      </trkpt>
      <trkpt lat="33.915019000" lon="-106.921646000">
        <ele>1531.450</ele>
        <time>2015-02-07T20:59:34Z</time>
        <name>WPT.2319</name>
      </trkpt>
      <trkpt lat="33.915081000" lon="-106.921486000">
        <ele>1532.040</ele>
        <time>2015-02-07T20:59:35Z</time>
        <name>WPT.2320</name>
      </trkpt>
      <trkpt lat="33.915142000" lon="-106.921323000">
        <ele>1532.060</ele>
        <time>2015-02-07T20:59:36Z</time>
        <name>WPT.2321</name>
      </trkpt>
      <trkpt lat="33.915205000" lon="-106.921160000">
        <ele>1532.070</ele>
        <time>2015-02-07T20:59:37Z</time>
        <name>WPT.2322</name>
      </trkpt>
      <trkpt lat="33.915267000" lon="-106.920997000">
        <ele>1531.990</ele>
        <time>2015-02-07T20:59:38Z</time>
        <name>WPT.2323</name>
      </trkpt>
      <trkpt lat="33.915331000" lon="-106.920834000">
        <ele>1531.800</ele>
        <time>2015-02-07T20:59:39Z</time>
        <name>WPT.2324</name>
      </trkpt>
      <trkpt lat="33.915395000" lon="-106.920671000">
        <ele>1530.660</ele>
        <time>2015-02-07T20:59:40Z</time>
        <name>WPT.2325</name>
      </trkpt>
      <trkpt lat="33.915456000" lon="-106.920506000">
        <ele>1530.580</ele>
        <time>2015-02-07T20:59:41Z</time>
        <name>WPT.2326</name>
      </trkpt>
      <trkpt lat="33.915516000" lon="-106.920339000">
        <ele>1530.790</ele>
        <time>2015-02-07T20:59:42Z</time>
        <name>WPT.2327</name>
      </trkpt>
      <trkpt lat="33.915576000" lon="-106.920167000">
        <ele>1531.660</ele>
        <time>2015-02-07T20:59:43Z</time>
        <name>WPT.2328</name>
      </trkpt>
      <trkpt lat="33.915630000" lon="-106.919992000">
        <ele>1531.580</ele>
        <time>2015-02-07T20:59:44Z</time>
        <name>WPT.2329</name>
      </trkpt>
      <trkpt lat="33.915679000" lon="-106.919813000">
        <ele>1531.580</ele>
        <time>2015-02-07T20:59:45Z</time>
        <name>WPT.2330</name>
      </trkpt>
      <trkpt lat="33.915719000" lon="-106.919632000">
        <ele>1531.590</ele>
        <time>2015-02-07T20:59:46Z</time>
        <name>WPT.2331</name>
      </trkpt>
      <trkpt lat="33.915754000" lon="-106.919449000">
        <ele>1531.500</ele>
        <time>2015-02-07T20:59:47Z</time>
        <name>WPT.2332</name>
      </trkpt>
      <trkpt lat="33.915787000" lon="-106.919265000">
        <ele>1531.020</ele>
        <time>2015-02-07T20:59:48Z</time>
        <name>WPT.2333</name>
      </trkpt>
      <trkpt lat="33.915822000" lon="-106.919081000">
        <ele>1530.830</ele>
        <time>2015-02-07T20:59:49Z</time>
        <name>WPT.2334</name>
      </trkpt>
      <trkpt lat="33.915856000" lon="-106.918897000">
        <ele>1530.650</ele>
        <time>2015-02-07T20:59:50Z</time>
        <name>WPT.2335</name>
      </trkpt>
      <trkpt lat="33.915892000" lon="-106.918716000">
        <ele>1530.170</ele>
        <time>2015-02-07T20:59:51Z</time>
        <name>WPT.2336</name>
      </trkpt>
      <trkpt lat="33.915927000" lon="-106.918537000">
        <ele>1528.440</ele>
        <time>2015-02-07T20:59:52Z</time>
        <name>WPT.2337</name>
      </trkpt>
      <trkpt lat="33.915963000" lon="-106.918361000">
        <ele>1527.970</ele>
        <time>2015-02-07T20:59:53Z</time>
        <name>WPT.2338</name>
      </trkpt>
      <trkpt lat="33.915998000" lon="-106.918189000">
        <ele>1528.370</ele>
        <time>2015-02-07T20:59:54Z</time>
        <name>WPT.2339</name>
      </trkpt>
      <trkpt lat="33.916033000" lon="-106.918021000">
        <ele>1528.380</ele>
        <time>2015-02-07T20:59:55Z</time>
        <name>WPT.2340</name>
      </trkpt>
      <trkpt lat="33.916071000" lon="-106.917858000">
        <ele>1528.000</ele>
        <time>2015-02-07T20:59:56Z</time>
        <name>WPT.2341</name>
      </trkpt>
      <trkpt lat="33.916109000" lon="-106.917695000">
        <ele>1527.330</ele>
        <time>2015-02-07T20:59:57Z</time>
        <name>WPT.2342</name>
      </trkpt>
      <trkpt lat="33.916144000" lon="-106.917533000">
        <ele>1525.610</ele>
        <time>2015-02-07T20:59:58Z</time>
        <name>WPT.2343</name>
      </trkpt>
      <trkpt lat="33.916182000" lon="-106.917371000">
        <ele>1525.620</ele>
        <time>2015-02-07T20:59:59Z</time>
        <name>WPT.2344</name>
      </trkpt>
      <trkpt lat="33.916219000" lon="-106.917210000">
        <ele>1525.540</ele>
        <time>2015-02-07T21:00:00Z</time>
        <name>WPT.2345</name>
      </trkpt>
      <trkpt lat="33.916254000" lon="-106.917051000">
        <ele>1525.350</ele>
        <time>2015-02-07T21:00:01Z</time>
        <name>WPT.2346</name>
      </trkpt>
      <trkpt lat="33.916291000" lon="-106.916896000">
        <ele>1525.560</ele>
        <time>2015-02-07T21:00:02Z</time>
        <name>WPT.2347</name>
      </trkpt>
      <trkpt lat="33.916328000" lon="-106.916744000">
        <ele>1525.570</ele>
        <time>2015-02-07T21:00:03Z</time>
        <name>WPT.2348</name>
      </trkpt>
      <trkpt lat="33.916362000" lon="-106.916594000">
        <ele>1525.580</ele>
        <time>2015-02-07T21:00:04Z</time>
        <name>WPT.2349</name>
      </trkpt>
      <trkpt lat="33.916394000" lon="-106.916446000">
        <ele>1525.580</ele>
        <time>2015-02-07T21:00:05Z</time>
        <name>WPT.2350</name>
      </trkpt>
      <trkpt lat="33.916425000" lon="-106.916301000">
        <ele>1525.590</ele>
        <time>2015-02-07T21:00:06Z</time>
        <name>WPT.2351</name>
      </trkpt>
      <trkpt lat="33.916455000" lon="-106.916157000">
        <ele>1525.600</ele>
        <time>2015-02-07T21:00:07Z</time>
        <name>WPT.2352</name>
      </trkpt>
      <trkpt lat="33.916484000" lon="-106.916012000">
        <ele>1525.220</ele>
        <time>2015-02-07T21:00:08Z</time>
        <name>WPT.2353</name>
      </trkpt>
      <trkpt lat="33.916511000" lon="-106.915863000">
        <ele>1524.260</ele>
        <time>2015-02-07T21:00:09Z</time>
        <name>WPT.2354</name>
      </trkpt>
      <trkpt lat="33.916538000" lon="-106.915713000">
        <ele>1524.270</ele>
        <time>2015-02-07T21:00:10Z</time>
        <name>WPT.2355</name>
      </trkpt>
      <trkpt lat="33.916563000" lon="-106.915562000">
        <ele>1523.890</ele>
        <time>2015-02-07T21:00:11Z</time>
        <name>WPT.2356</name>
      </trkpt>
      <trkpt lat="33.916590000" lon="-106.915413000">
        <ele>1521.970</ele>
        <time>2015-02-07T21:00:12Z</time>
        <name>WPT.2357</name>
      </trkpt>
      <trkpt lat="33.916615000" lon="-106.915267000">
        <ele>1520.930</ele>
        <time>2015-02-07T21:00:13Z</time>
        <name>WPT.2358</name>
      </trkpt>
      <trkpt lat="33.916641000" lon="-106.915130000">
        <ele>1520.850</ele>
        <time>2015-02-07T21:00:14Z</time>
        <name>WPT.2359</name>
      </trkpt>
      <trkpt lat="33.916665000" lon="-106.915005000">
        <ele>1520.280</ele>
        <time>2015-02-07T21:00:15Z</time>
        <name>WPT.2360</name>
      </trkpt>
      <trkpt lat="33.916688000" lon="-106.914891000">
        <ele>1517.790</ele>
        <time>2015-02-07T21:00:16Z</time>
        <name>WPT.2361</name>
      </trkpt>
      <trkpt lat="33.916705000" lon="-106.914793000">
        <ele>1517.810</ele>
        <time>2015-02-07T21:00:17Z</time>
        <name>WPT.2362</name>
      </trkpt>
      <trkpt lat="33.916719000" lon="-106.914713000">
        <ele>1517.250</ele>
        <time>2015-02-07T21:00:18Z</time>
        <name>WPT.2363</name>
      </trkpt>
      <trkpt lat="33.916732000" lon="-106.914644000">
        <ele>1516.890</ele>
        <time>2015-02-07T21:00:19Z</time>
        <name>WPT.2364</name>
      </trkpt>
      <trkpt lat="33.916744000" lon="-106.914583000">
        <ele>1516.810</ele>
        <time>2015-02-07T21:00:20Z</time>
        <name>WPT.2365</name>
      </trkpt>
      <trkpt lat="33.916757000" lon="-106.914534000">
        <ele>1516.250</ele>
        <time>2015-02-07T21:00:21Z</time>
        <name>WPT.2366</name>
      </trkpt>
      <trkpt lat="33.916770000" lon="-106.914495000">
        <ele>1515.700</ele>
        <time>2015-02-07T21:00:22Z</time>
        <name>WPT.2367</name>
      </trkpt>
      <trkpt lat="33.916781000" lon="-106.914467000">
        <ele>1515.620</ele>
        <time>2015-02-07T21:00:23Z</time>
        <name>WPT.2368</name>
      </trkpt>
      <trkpt lat="33.916791000" lon="-106.914447000">
        <ele>1515.640</ele>
        <time>2015-02-07T21:00:24Z</time>
        <name>WPT.2369</name>
      </trkpt>
      <trkpt lat="33.916801000" lon="-106.914434000">
        <ele>1515.560</ele>
        <time>2015-02-07T21:00:25Z</time>
        <name>WPT.2370</name>
      </trkpt>
      <trkpt lat="33.916812000" lon="-106.914420000">
        <ele>1515.590</ele>
        <time>2015-02-07T21:00:26Z</time>
        <name>WPT.2371</name>
      </trkpt>
      <trkpt lat="33.916820000" lon="-106.914407000">
        <ele>1515.510</ele>
        <time>2015-02-07T21:00:27Z</time>
        <name>WPT.2372</name>
      </trkpt>
      <trkpt lat="33.916826000" lon="-106.914393000">
        <ele>1515.530</ele>
        <time>2015-02-07T21:00:28Z</time>
        <name>WPT.2373</name>
      </trkpt>
      <trkpt lat="33.916827000" lon="-106.914390000">
        <ele>1515.550</ele>
        <time>2015-02-07T21:00:29Z</time>
        <name>WPT.2374</name>
      </trkpt>
      <trkpt lat="33.916837000" lon="-106.914381000">
        <ele>1515.660</ele>
        <time>2015-02-07T21:00:30Z</time>
        <name>WPT.2375</name>
      </trkpt>
      <trkpt lat="33.916841000" lon="-106.914371000">
        <ele>1515.680</ele>
        <time>2015-02-07T21:00:31Z</time>
        <name>WPT.2376</name>
      </trkpt>
      <trkpt lat="33.916840000" lon="-106.914374000">
        <ele>1515.650</ele>
        <time>2015-02-07T21:00:35Z</time>
        <name>WPT.2377</name>
      </trkpt>
      <trkpt lat="33.916852000" lon="-106.914362000">
        <ele>1515.670</ele>
        <time>2015-02-07T21:00:36Z</time>
        <name>WPT.2378</name>
      </trkpt>
      <trkpt lat="33.916871000" lon="-106.914334000">
        <ele>1515.680</ele>
        <time>2015-02-07T21:00:37Z</time>
        <name>WPT.2379</name>
      </trkpt>
      <trkpt lat="33.916894000" lon="-106.914298000">
        <ele>1515.690</ele>
        <time>2015-02-07T21:00:38Z</time>
        <name>WPT.2380</name>
      </trkpt>
      <trkpt lat="33.916920000" lon="-106.914251000">
        <ele>1515.800</ele>
        <time>2015-02-07T21:00:39Z</time>
        <name>WPT.2381</name>
      </trkpt>
      <trkpt lat="33.916946000" lon="-106.914191000">
        <ele>1515.910</ele>
        <time>2015-02-07T21:00:40Z</time>
        <name>WPT.2382</name>
      </trkpt>
      <trkpt lat="33.916970000" lon="-106.914118000">
        <ele>1516.020</ele>
        <time>2015-02-07T21:00:41Z</time>
        <name>WPT.2383</name>
      </trkpt>
      <trkpt lat="33.916993000" lon="-106.914034000">
        <ele>1516.030</ele>
        <time>2015-02-07T21:00:42Z</time>
        <name>WPT.2384</name>
      </trkpt>
      <trkpt lat="33.917016000" lon="-106.913942000">
        <ele>1516.140</ele>
        <time>2015-02-07T21:00:43Z</time>
        <name>WPT.2385</name>
      </trkpt>
      <trkpt lat="33.917040000" lon="-106.913841000">
        <ele>1516.340</ele>
        <time>2015-02-07T21:00:44Z</time>
        <name>WPT.2386</name>
      </trkpt>
      <trkpt lat="33.917063000" lon="-106.913732000">
        <ele>1516.250</ele>
        <time>2015-02-07T21:00:45Z</time>
        <name>WPT.2387</name>
      </trkpt>
      <trkpt lat="33.917085000" lon="-106.913613000">
        <ele>1516.260</ele>
        <time>2015-02-07T21:00:46Z</time>
        <name>WPT.2388</name>
      </trkpt>
      <trkpt lat="33.917108000" lon="-106.913489000">
        <ele>1516.270</ele>
        <time>2015-02-07T21:00:47Z</time>
        <name>WPT.2389</name>
      </trkpt>
      <trkpt lat="33.917132000" lon="-106.913361000">
        <ele>1516.270</ele>
        <time>2015-02-07T21:00:48Z</time>
        <name>WPT.2390</name>
      </trkpt>
      <trkpt lat="33.917155000" lon="-106.913233000">
        <ele>1516.090</ele>
        <time>2015-02-07T21:00:49Z</time>
        <name>WPT.2391</name>
      </trkpt>
      <trkpt lat="33.917182000" lon="-106.913105000">
        <ele>1515.900</ele>
        <time>2015-02-07T21:00:50Z</time>
        <name>WPT.2392</name>
      </trkpt>
      <trkpt lat="33.917212000" lon="-106.912978000">
        <ele>1515.330</ele>
        <time>2015-02-07T21:00:51Z</time>
        <name>WPT.2393</name>
      </trkpt>
      <trkpt lat="33.917245000" lon="-106.912851000">
        <ele>1515.340</ele>
        <time>2015-02-07T21:00:52Z</time>
        <name>WPT.2394</name>
      </trkpt>
      <trkpt lat="33.917281000" lon="-106.912726000">
        <ele>1515.250</ele>
        <time>2015-02-07T21:00:53Z</time>
        <name>WPT.2395</name>
      </trkpt>
      <trkpt lat="33.917320000" lon="-106.912599000">
        <ele>1515.150</ele>
        <time>2015-02-07T21:00:54Z</time>
        <name>WPT.2396</name>
      </trkpt>
      <trkpt lat="33.917361000" lon="-106.912472000">
        <ele>1515.160</ele>
        <time>2015-02-07T21:00:55Z</time>
        <name>WPT.2397</name>
      </trkpt>
      <trkpt lat="33.917404000" lon="-106.912344000">
        <ele>1515.160</ele>
        <time>2015-02-07T21:00:56Z</time>
        <name>WPT.2398</name>
      </trkpt>
      <trkpt lat="33.917449000" lon="-106.912213000">
        <ele>1515.170</ele>
        <time>2015-02-07T21:00:57Z</time>
        <name>WPT.2399</name>
      </trkpt>
      <trkpt lat="33.917496000" lon="-106.912080000">
        <ele>1515.170</ele>
        <time>2015-02-07T21:00:58Z</time>
        <name>WPT.2400</name>
      </trkpt>
      <trkpt lat="33.917548000" lon="-106.911943000">
        <ele>1515.180</ele>
        <time>2015-02-07T21:00:59Z</time>
        <name>WPT.2401</name>
      </trkpt>
      <trkpt lat="33.917602000" lon="-106.911803000">
        <ele>1515.080</ele>
        <time>2015-02-07T21:01:00Z</time>
        <name>WPT.2402</name>
      </trkpt>
      <trkpt lat="33.917659000" lon="-106.911661000">
        <ele>1515.080</ele>
        <time>2015-02-07T21:01:01Z</time>
        <name>WPT.2403</name>
      </trkpt>
      <trkpt lat="33.917716000" lon="-106.911515000">
        <ele>1514.990</ele>
        <time>2015-02-07T21:01:02Z</time>
        <name>WPT.2404</name>
      </trkpt>
      <trkpt lat="33.917776000" lon="-106.911366000">
        <ele>1514.990</ele>
        <time>2015-02-07T21:01:03Z</time>
        <name>WPT.2405</name>
      </trkpt>
      <trkpt lat="33.917839000" lon="-106.911215000">
        <ele>1514.990</ele>
        <time>2015-02-07T21:01:04Z</time>
        <name>WPT.2406</name>
      </trkpt>
      <trkpt lat="33.917903000" lon="-106.911064000">
        <ele>1514.990</ele>
        <time>2015-02-07T21:01:05Z</time>
        <name>WPT.2407</name>
      </trkpt>
      <trkpt lat="33.917965000" lon="-106.910908000">
        <ele>1514.990</ele>
        <time>2015-02-07T21:01:06Z</time>
        <name>WPT.2408</name>
      </trkpt>
      <trkpt lat="33.918023000" lon="-106.910748000">
        <ele>1514.980</ele>
        <time>2015-02-07T21:01:07Z</time>
        <name>WPT.2409</name>
      </trkpt>
      <trkpt lat="33.918075000" lon="-106.910585000">
        <ele>1515.270</ele>
        <time>2015-02-07T21:01:08Z</time>
        <name>WPT.2410</name>
      </trkpt>
      <trkpt lat="33.918119000" lon="-106.910420000">
        <ele>1515.360</ele>
        <time>2015-02-07T21:01:09Z</time>
        <name>WPT.2411</name>
      </trkpt>
      <trkpt lat="33.918154000" lon="-106.910257000">
        <ele>1515.360</ele>
        <time>2015-02-07T21:01:10Z</time>
        <name>WPT.2412</name>
      </trkpt>
      <trkpt lat="33.918175000" lon="-106.910090000">
        <ele>1515.350</ele>
        <time>2015-02-07T21:01:11Z</time>
        <name>WPT.2413</name>
      </trkpt>
      <trkpt lat="33.918187000" lon="-106.909922000">
        <ele>1515.440</ele>
        <time>2015-02-07T21:01:12Z</time>
        <name>WPT.2414</name>
      </trkpt>
      <trkpt lat="33.918193000" lon="-106.909752000">
        <ele>1515.440</ele>
        <time>2015-02-07T21:01:13Z</time>
        <name>WPT.2415</name>
      </trkpt>
      <trkpt lat="33.918191000" lon="-106.909578000">
        <ele>1515.430</ele>
        <time>2015-02-07T21:01:14Z</time>
        <name>WPT.2416</name>
      </trkpt>
      <trkpt lat="33.918183000" lon="-106.909403000">
        <ele>1515.320</ele>
        <time>2015-02-07T21:01:15Z</time>
        <name>WPT.2417</name>
      </trkpt>
      <trkpt lat="33.918170000" lon="-106.909230000">
        <ele>1513.390</ele>
        <time>2015-02-07T21:01:16Z</time>
        <name>WPT.2418</name>
      </trkpt>
      <trkpt lat="33.918149000" lon="-106.909059000">
        <ele>1512.230</ele>
        <time>2015-02-07T21:01:17Z</time>
        <name>WPT.2419</name>
      </trkpt>
      <trkpt lat="33.918118000" lon="-106.908892000">
        <ele>1512.130</ele>
        <time>2015-02-07T21:01:18Z</time>
        <name>WPT.2420</name>
      </trkpt>
      <trkpt lat="33.918082000" lon="-106.908731000">
        <ele>1512.230</ele>
        <time>2015-02-07T21:01:19Z</time>
        <name>WPT.2421</name>
      </trkpt>
      <trkpt lat="33.918048000" lon="-106.908570000">
        <ele>1512.130</ele>
        <time>2015-02-07T21:01:20Z</time>
        <name>WPT.2422</name>
      </trkpt>
      <trkpt lat="33.918023000" lon="-106.908406000">
        <ele>1511.640</ele>
        <time>2015-02-07T21:01:21Z</time>
        <name>WPT.2423</name>
      </trkpt>
      <trkpt lat="33.918003000" lon="-106.908238000">
        <ele>1510.680</ele>
        <time>2015-02-07T21:01:22Z</time>
        <name>WPT.2424</name>
      </trkpt>
      <trkpt lat="33.917992000" lon="-106.908070000">
        <ele>1510.580</ele>
        <time>2015-02-07T21:01:23Z</time>
        <name>WPT.2425</name>
      </trkpt>
      <trkpt lat="33.917985000" lon="-106.907902000">
        <ele>1510.580</ele>
        <time>2015-02-07T21:01:24Z</time>
        <name>WPT.2426</name>
      </trkpt>
      <trkpt lat="33.917978000" lon="-106.907734000">
        <ele>1510.280</ele>
        <time>2015-02-07T21:01:25Z</time>
        <name>WPT.2427</name>
      </trkpt>
      <trkpt lat="33.917973000" lon="-106.907568000">
        <ele>1508.450</ele>
        <time>2015-02-07T21:01:26Z</time>
        <name>WPT.2428</name>
      </trkpt>
      <trkpt lat="33.917964000" lon="-106.907404000">
        <ele>1507.100</ele>
        <time>2015-02-07T21:01:27Z</time>
        <name>WPT.2429</name>
      </trkpt>
      <trkpt lat="33.917946000" lon="-106.907245000">
        <ele>1507.110</ele>
        <time>2015-02-07T21:01:28Z</time>
        <name>WPT.2430</name>
      </trkpt>
      <trkpt lat="33.917919000" lon="-106.907097000">
        <ele>1506.910</ele>
        <time>2015-02-07T21:01:29Z</time>
        <name>WPT.2431</name>
      </trkpt>
      <trkpt lat="33.917883000" lon="-106.906962000">
        <ele>1504.320</ele>
        <time>2015-02-07T21:01:30Z</time>
        <name>WPT.2432</name>
      </trkpt>
      <trkpt lat="33.917836000" lon="-106.906843000">
        <ele>1504.130</ele>
        <time>2015-02-07T21:01:31Z</time>
        <name>WPT.2433</name>
      </trkpt>
      <trkpt lat="33.917782000" lon="-106.906740000">
        <ele>1503.940</ele>
        <time>2015-02-07T21:01:32Z</time>
        <name>WPT.2434</name>
      </trkpt>
      <trkpt lat="33.917724000" lon="-106.906648000">
        <ele>1503.660</ele>
        <time>2015-02-07T21:01:33Z</time>
        <name>WPT.2435</name>
      </trkpt>
      <trkpt lat="33.917672000" lon="-106.906559000">
        <ele>1502.510</ele>
        <time>2015-02-07T21:01:34Z</time>
        <name>WPT.2436</name>
      </trkpt>
      <trkpt lat="33.917629000" lon="-106.906469000">
        <ele>1501.270</ele>
        <time>2015-02-07T21:01:35Z</time>
        <name>WPT.2437</name>
      </trkpt>
      <trkpt lat="33.917594000" lon="-106.906377000">
        <ele>1500.030</ele>
        <time>2015-02-07T21:01:36Z</time>
        <name>WPT.2438</name>
      </trkpt>
      <trkpt lat="33.917565000" lon="-106.906280000">
        <ele>1500.040</ele>
        <time>2015-02-07T21:01:37Z</time>
        <name>WPT.2439</name>
      </trkpt>
      <trkpt lat="33.917540000" lon="-106.906178000">
        <ele>1500.050</ele>
        <time>2015-02-07T21:01:38Z</time>
        <name>WPT.2440</name>
      </trkpt>
      <trkpt lat="33.917517000" lon="-106.906072000">
        <ele>1499.960</ele>
        <time>2015-02-07T21:01:39Z</time>
        <name>WPT.2441</name>
      </trkpt>
      <trkpt lat="33.917493000" lon="-106.905962000">
        <ele>1499.970</ele>
        <time>2015-02-07T21:01:40Z</time>
        <name>WPT.2442</name>
      </trkpt>
      <trkpt lat="33.917467000" lon="-106.905849000">
        <ele>1499.790</ele>
        <time>2015-02-07T21:01:41Z</time>
        <name>WPT.2443</name>
      </trkpt>
      <trkpt lat="33.917441000" lon="-106.905731000">
        <ele>1499.030</ele>
        <time>2015-02-07T21:01:42Z</time>
        <name>WPT.2444</name>
      </trkpt>
      <trkpt lat="33.917416000" lon="-106.905609000">
        <ele>1498.840</ele>
        <time>2015-02-07T21:01:43Z</time>
        <name>WPT.2445</name>
      </trkpt>
      <trkpt lat="33.917393000" lon="-106.905481000">
        <ele>1496.930</ele>
        <time>2015-02-07T21:01:44Z</time>
        <name>WPT.2446</name>
      </trkpt>
      <trkpt lat="33.917374000" lon="-106.905347000">
        <ele>1495.400</ele>
        <time>2015-02-07T21:01:45Z</time>
        <name>WPT.2447</name>
      </trkpt>
      <trkpt lat="33.917363000" lon="-106.905205000">
        <ele>1494.540</ele>
        <time>2015-02-07T21:01:46Z</time>
        <name>WPT.2448</name>
      </trkpt>
      <trkpt lat="33.917359000" lon="-106.905057000">
        <ele>1493.880</ele>
        <time>2015-02-07T21:01:47Z</time>
        <name>WPT.2449</name>
      </trkpt>
      <trkpt lat="33.917359000" lon="-106.904906000">
        <ele>1492.550</ele>
        <time>2015-02-07T21:01:48Z</time>
        <name>WPT.2450</name>
      </trkpt>
      <trkpt lat="33.917359000" lon="-106.904751000">
        <ele>1492.560</ele>
        <time>2015-02-07T21:01:49Z</time>
        <name>WPT.2451</name>
      </trkpt>
      <trkpt lat="33.917362000" lon="-106.904594000">
        <ele>1491.230</ele>
        <time>2015-02-07T21:01:50Z</time>
        <name>WPT.2452</name>
      </trkpt>
      <trkpt lat="33.917369000" lon="-106.904437000">
        <ele>1489.440</ele>
        <time>2015-02-07T21:01:51Z</time>
        <name>WPT.2453</name>
      </trkpt>
      <trkpt lat="33.917378000" lon="-106.904281000">
        <ele>1489.650</ele>
        <time>2015-02-07T21:01:52Z</time>
        <name>WPT.2454</name>
      </trkpt>
      <trkpt lat="33.917386000" lon="-106.904123000">
        <ele>1489.570</ele>
        <time>2015-02-07T21:01:53Z</time>
        <name>WPT.2455</name>
      </trkpt>
      <trkpt lat="33.917396000" lon="-106.903964000">
        <ele>1489.390</ele>
        <time>2015-02-07T21:01:54Z</time>
        <name>WPT.2456</name>
      </trkpt>
      <trkpt lat="33.917408000" lon="-106.903805000">
        <ele>1489.310</ele>
        <time>2015-02-07T21:01:55Z</time>
        <name>WPT.2457</name>
      </trkpt>
      <trkpt lat="33.917418000" lon="-106.903647000">
        <ele>1487.700</ele>
        <time>2015-02-07T21:01:56Z</time>
        <name>WPT.2458</name>
      </trkpt>
      <trkpt lat="33.917426000" lon="-106.903489000">
        <ele>1486.660</ele>
        <time>2015-02-07T21:01:57Z</time>
        <name>WPT.2459</name>
      </trkpt>
      <trkpt lat="33.917440000" lon="-106.903334000">
        <ele>1486.680</ele>
        <time>2015-02-07T21:01:58Z</time>
        <name>WPT.2460</name>
      </trkpt>
      <trkpt lat="33.917457000" lon="-106.903182000">
        <ele>1486.690</ele>
        <time>2015-02-07T21:01:59Z</time>
        <name>WPT.2461</name>
      </trkpt>
      <trkpt lat="33.917478000" lon="-106.903034000">
        <ele>1486.600</ele>
        <time>2015-02-07T21:02:00Z</time>
        <name>WPT.2462</name>
      </trkpt>
      <trkpt lat="33.917500000" lon="-106.902887000">
        <ele>1486.610</ele>
        <time>2015-02-07T21:02:01Z</time>
        <name>WPT.2463</name>
      </trkpt>
      <trkpt lat="33.917522000" lon="-106.902742000">
        <ele>1486.520</ele>
        <time>2015-02-07T21:02:02Z</time>
        <name>WPT.2464</name>
      </trkpt>
      <trkpt lat="33.917540000" lon="-106.902595000">
        <ele>1487.200</ele>
        <time>2015-02-07T21:02:03Z</time>
        <name>WPT.2465</name>
      </trkpt>
      <trkpt lat="33.917554000" lon="-106.902447000">
        <ele>1487.490</ele>
        <time>2015-02-07T21:02:04Z</time>
        <name>WPT.2466</name>
      </trkpt>
      <trkpt lat="33.917566000" lon="-106.902298000">
        <ele>1487.490</ele>
        <time>2015-02-07T21:02:05Z</time>
        <name>WPT.2467</name>
      </trkpt>
      <trkpt lat="33.917575000" lon="-106.902149000">
        <ele>1487.300</ele>
        <time>2015-02-07T21:02:06Z</time>
        <name>WPT.2468</name>
      </trkpt>
      <trkpt lat="33.917580000" lon="-106.901999000">
        <ele>1486.920</ele>
        <time>2015-02-07T21:02:07Z</time>
        <name>WPT.2469</name>
      </trkpt>
      <trkpt lat="33.917588000" lon="-106.901850000">
        <ele>1486.350</ele>
        <time>2015-02-07T21:02:08Z</time>
        <name>WPT.2470</name>
      </trkpt>
      <trkpt lat="33.917603000" lon="-106.901702000">
        <ele>1485.870</ele>
        <time>2015-02-07T21:02:09Z</time>
        <name>WPT.2471</name>
      </trkpt>
      <trkpt lat="33.917632000" lon="-106.901554000">
        <ele>1485.400</ele>
        <time>2015-02-07T21:02:10Z</time>
        <name>WPT.2472</name>
      </trkpt>
      <trkpt lat="33.917673000" lon="-106.901408000">
        <ele>1484.730</ele>
        <time>2015-02-07T21:02:11Z</time>
        <name>WPT.2473</name>
      </trkpt>
      <trkpt lat="33.917725000" lon="-106.901260000">
        <ele>1484.540</ele>
        <time>2015-02-07T21:02:12Z</time>
        <name>WPT.2474</name>
      </trkpt>
      <trkpt lat="33.917785000" lon="-106.901103000">
        <ele>1484.540</ele>
        <time>2015-02-07T21:02:13Z</time>
        <name>WPT.2475</name>
      </trkpt>
      <trkpt lat="33.917853000" lon="-106.900937000">
        <ele>1484.250</ele>
        <time>2015-02-07T21:02:14Z</time>
        <name>WPT.2476</name>
      </trkpt>
      <trkpt lat="33.917924000" lon="-106.900763000">
        <ele>1484.150</ele>
        <time>2015-02-07T21:02:15Z</time>
        <name>WPT.2477</name>
      </trkpt>
      <trkpt lat="33.917993000" lon="-106.900586000">
        <ele>1483.100</ele>
        <time>2015-02-07T21:02:16Z</time>
        <name>WPT.2478</name>
      </trkpt>
      <trkpt lat="33.918066000" lon="-106.900406000">
        <ele>1479.950</ele>
        <time>2015-02-07T21:02:17Z</time>
        <name>WPT.2479</name>
      </trkpt>
      <trkpt lat="33.918144000" lon="-106.900227000">
        <ele>1479.570</ele>
        <time>2015-02-07T21:02:18Z</time>
        <name>WPT.2480</name>
      </trkpt>
      <trkpt lat="33.918220000" lon="-106.900049000">
        <ele>1478.620</ele>
        <time>2015-02-07T21:02:19Z</time>
        <name>WPT.2481</name>
      </trkpt>
      <trkpt lat="33.918295000" lon="-106.899871000">
        <ele>1477.280</ele>
        <time>2015-02-07T21:02:20Z</time>
        <name>WPT.2482</name>
      </trkpt>
      <trkpt lat="33.918366000" lon="-106.899693000">
        <ele>1475.950</ele>
        <time>2015-02-07T21:02:21Z</time>
        <name>WPT.2483</name>
      </trkpt>
      <trkpt lat="33.918436000" lon="-106.899513000">
        <ele>1475.100</ele>
        <time>2015-02-07T21:02:22Z</time>
        <name>WPT.2484</name>
      </trkpt>
      <trkpt lat="33.918503000" lon="-106.899333000">
        <ele>1475.100</ele>
        <time>2015-02-07T21:02:23Z</time>
        <name>WPT.2485</name>
      </trkpt>
      <trkpt lat="33.918567000" lon="-106.899151000">
        <ele>1475.010</ele>
        <time>2015-02-07T21:02:24Z</time>
        <name>WPT.2486</name>
      </trkpt>
      <trkpt lat="33.918629000" lon="-106.898971000">
        <ele>1474.820</ele>
        <time>2015-02-07T21:02:25Z</time>
        <name>WPT.2487</name>
      </trkpt>
      <trkpt lat="33.918688000" lon="-106.898793000">
        <ele>1474.440</ele>
        <time>2015-02-07T21:02:26Z</time>
        <name>WPT.2488</name>
      </trkpt>
      <trkpt lat="33.918742000" lon="-106.898616000">
        <ele>1473.960</ele>
        <time>2015-02-07T21:02:27Z</time>
        <name>WPT.2489</name>
      </trkpt>
      <trkpt lat="33.918793000" lon="-106.898445000">
        <ele>1469.770</ele>
        <time>2015-02-07T21:02:28Z</time>
        <name>WPT.2490</name>
      </trkpt>
      <trkpt lat="33.918835000" lon="-106.898283000">
        <ele>1469.300</ele>
        <time>2015-02-07T21:02:29Z</time>
        <name>WPT.2491</name>
      </trkpt>
      <trkpt lat="33.918872000" lon="-106.898136000">
        <ele>1468.350</ele>
        <time>2015-02-07T21:02:30Z</time>
        <name>WPT.2492</name>
      </trkpt>
      <trkpt lat="33.918900000" lon="-106.898000000">
        <ele>1465.880</ele>
        <time>2015-02-07T21:02:31Z</time>
        <name>WPT.2493</name>
      </trkpt>
      <trkpt lat="33.918917000" lon="-106.897867000">
        <ele>1465.990</ele>
        <time>2015-02-07T21:02:32Z</time>
        <name>WPT.2494</name>
      </trkpt>
      <trkpt lat="33.918921000" lon="-106.897728000">
        <ele>1465.990</ele>
        <time>2015-02-07T21:02:33Z</time>
        <name>WPT.2495</name>
      </trkpt>
      <trkpt lat="33.918916000" lon="-106.897588000">
        <ele>1466.000</ele>
        <time>2015-02-07T21:02:34Z</time>
        <name>WPT.2496</name>
      </trkpt>
      <trkpt lat="33.918902000" lon="-106.897445000">
        <ele>1466.010</ele>
        <time>2015-02-07T21:02:35Z</time>
        <name>WPT.2497</name>
      </trkpt>
      <trkpt lat="33.918879000" lon="-106.897303000">
        <ele>1465.920</ele>
        <time>2015-02-07T21:02:36Z</time>
        <name>WPT.2498</name>
      </trkpt>
      <trkpt lat="33.918850000" lon="-106.897161000">
        <ele>1465.830</ele>
        <time>2015-02-07T21:02:37Z</time>
        <name>WPT.2499</name>
      </trkpt>
      <trkpt lat="33.918816000" lon="-106.897024000">
        <ele>1465.450</ele>
        <time>2015-02-07T21:02:38Z</time>
        <name>WPT.2500</name>
      </trkpt>
      <trkpt lat="33.918781000" lon="-106.896889000">
        <ele>1465.450</ele>
        <time>2015-02-07T21:02:39Z</time>
        <name>WPT.2501</name>
      </trkpt>
      <trkpt lat="33.918754000" lon="-106.896754000">
        <ele>1465.170</ele>
        <time>2015-02-07T21:02:40Z</time>
        <name>WPT.2502</name>
      </trkpt>
      <trkpt lat="33.918736000" lon="-106.896620000">
        <ele>1465.070</ele>
        <time>2015-02-07T21:02:41Z</time>
        <name>WPT.2503</name>
      </trkpt>
      <trkpt lat="33.918722000" lon="-106.896487000">
        <ele>1465.070</ele>
        <time>2015-02-07T21:02:42Z</time>
        <name>WPT.2504</name>
      </trkpt>
      <trkpt lat="33.918701000" lon="-106.896359000">
        <ele>1464.400</ele>
        <time>2015-02-07T21:02:43Z</time>
        <name>WPT.2505</name>
      </trkpt>
      <trkpt lat="33.918670000" lon="-106.896238000">
        <ele>1463.830</ele>
        <time>2015-02-07T21:02:44Z</time>
        <name>WPT.2506</name>
      </trkpt>
      <trkpt lat="33.918630000" lon="-106.896119000">
        <ele>1463.350</ele>
        <time>2015-02-07T21:02:45Z</time>
        <name>WPT.2507</name>
      </trkpt>
      <trkpt lat="33.918583000" lon="-106.895996000">
        <ele>1463.260</ele>
        <time>2015-02-07T21:02:46Z</time>
        <name>WPT.2508</name>
      </trkpt>
      <trkpt lat="33.918533000" lon="-106.895866000">
        <ele>1463.260</ele>
        <time>2015-02-07T21:02:47Z</time>
        <name>WPT.2509</name>
      </trkpt>
      <trkpt lat="33.918481000" lon="-106.895729000">
        <ele>1463.350</ele>
        <time>2015-02-07T21:02:48Z</time>
        <name>WPT.2510</name>
      </trkpt>
      <trkpt lat="33.918426000" lon="-106.895584000">
        <ele>1463.250</ele>
        <time>2015-02-07T21:02:49Z</time>
        <name>WPT.2511</name>
      </trkpt>
      <trkpt lat="33.918371000" lon="-106.895435000">
        <ele>1463.250</ele>
        <time>2015-02-07T21:02:50Z</time>
        <name>WPT.2512</name>
      </trkpt>
      <trkpt lat="33.918318000" lon="-106.895280000">
        <ele>1463.250</ele>
        <time>2015-02-07T21:02:51Z</time>
        <name>WPT.2513</name>
      </trkpt>
      <trkpt lat="33.918264000" lon="-106.895119000">
        <ele>1463.240</ele>
        <time>2015-02-07T21:02:52Z</time>
        <name>WPT.2514</name>
      </trkpt>
      <trkpt lat="33.918211000" lon="-106.894953000">
        <ele>1463.230</ele>
        <time>2015-02-07T21:02:53Z</time>
        <name>WPT.2515</name>
      </trkpt>
      <trkpt lat="33.918159000" lon="-106.894783000">
        <ele>1463.130</ele>
        <time>2015-02-07T21:02:54Z</time>
        <name>WPT.2516</name>
      </trkpt>
      <trkpt lat="33.918109000" lon="-106.894608000">
        <ele>1462.740</ele>
        <time>2015-02-07T21:02:55Z</time>
        <name>WPT.2517</name>
      </trkpt>
      <trkpt lat="33.918059000" lon="-106.894432000">
        <ele>1461.400</ele>
        <time>2015-02-07T21:02:56Z</time>
        <name>WPT.2518</name>
      </trkpt>
      <trkpt lat="33.918013000" lon="-106.894256000">
        <ele>1462.250</ele>
        <time>2015-02-07T21:02:57Z</time>
        <name>WPT.2519</name>
      </trkpt>
      <trkpt lat="33.917967000" lon="-106.894076000">
        <ele>1462.620</ele>
        <time>2015-02-07T21:02:58Z</time>
        <name>WPT.2520</name>
      </trkpt>
      <trkpt lat="33.917922000" lon="-106.893896000">
        <ele>1462.610</ele>
        <time>2015-02-07T21:02:59Z</time>
        <name>WPT.2521</name>
      </trkpt>
      <trkpt lat="33.917877000" lon="-106.893714000">
        <ele>1462.220</ele>
        <time>2015-02-07T21:03:00Z</time>
        <name>WPT.2522</name>
      </trkpt>
      <trkpt lat="33.917833000" lon="-106.893531000">
        <ele>1462.020</ele>
        <time>2015-02-07T21:03:01Z</time>
        <name>WPT.2523</name>
      </trkpt>
      <trkpt lat="33.917790000" lon="-106.893346000">
        <ele>1462.000</ele>
        <time>2015-02-07T21:03:02Z</time>
        <name>WPT.2524</name>
      </trkpt>
      <trkpt lat="33.917750000" lon="-106.893161000">
        <ele>1461.420</ele>
        <time>2015-02-07T21:03:03Z</time>
        <name>WPT.2525</name>
      </trkpt>
      <trkpt lat="33.917712000" lon="-106.892976000">
        <ele>1460.450</ele>
        <time>2015-02-07T21:03:04Z</time>
        <name>WPT.2526</name>
      </trkpt>
      <trkpt lat="33.917678000" lon="-106.892790000">
        <ele>1460.350</ele>
        <time>2015-02-07T21:03:05Z</time>
        <name>WPT.2527</name>
      </trkpt>
      <trkpt lat="33.917646000" lon="-106.892604000">
        <ele>1459.570</ele>
        <time>2015-02-07T21:03:06Z</time>
        <name>WPT.2528</name>
      </trkpt>
      <trkpt lat="33.917616000" lon="-106.892420000">
        <ele>1458.320</ele>
        <time>2015-02-07T21:03:07Z</time>
        <name>WPT.2529</name>
      </trkpt>
      <trkpt lat="33.917590000" lon="-106.892236000">
        <ele>1456.310</ele>
        <time>2015-02-07T21:03:08Z</time>
        <name>WPT.2530</name>
      </trkpt>
      <trkpt lat="33.917568000" lon="-106.892051000">
        <ele>1456.580</ele>
        <time>2015-02-07T21:03:09Z</time>
        <name>WPT.2531</name>
      </trkpt>
      <trkpt lat="33.917544000" lon="-106.891868000">
        <ele>1456.580</ele>
        <time>2015-02-07T21:03:10Z</time>
        <name>WPT.2532</name>
      </trkpt>
      <trkpt lat="33.917512000" lon="-106.891686000">
        <ele>1456.470</ele>
        <time>2015-02-07T21:03:11Z</time>
        <name>WPT.2533</name>
      </trkpt>
      <trkpt lat="33.917475000" lon="-106.891501000">
        <ele>1456.270</ele>
        <time>2015-02-07T21:03:12Z</time>
        <name>WPT.2534</name>
      </trkpt>
      <trkpt lat="33.917431000" lon="-106.891315000">
        <ele>1456.160</ele>
        <time>2015-02-07T21:03:13Z</time>
        <name>WPT.2535</name>
      </trkpt>
      <trkpt lat="33.917384000" lon="-106.891128000">
        <ele>1456.150</ele>
        <time>2015-02-07T21:03:14Z</time>
        <name>WPT.2536</name>
      </trkpt>
      <trkpt lat="33.917336000" lon="-106.890940000">
        <ele>1456.420</ele>
        <time>2015-02-07T21:03:15Z</time>
        <name>WPT.2537</name>
      </trkpt>
      <trkpt lat="33.917283000" lon="-106.890751000">
        <ele>1456.980</ele>
        <time>2015-02-07T21:03:16Z</time>
        <name>WPT.2538</name>
      </trkpt>
      <trkpt lat="33.917229000" lon="-106.890562000">
        <ele>1457.060</ele>
        <time>2015-02-07T21:03:17Z</time>
        <name>WPT.2539</name>
      </trkpt>
      <trkpt lat="33.917170000" lon="-106.890371000">
        <ele>1456.940</ele>
        <time>2015-02-07T21:03:18Z</time>
        <name>WPT.2540</name>
      </trkpt>
      <trkpt lat="33.917108000" lon="-106.890180000">
        <ele>1456.920</ele>
        <time>2015-02-07T21:03:19Z</time>
        <name>WPT.2541</name>
      </trkpt>
      <trkpt lat="33.917048000" lon="-106.889995000">
        <ele>1454.620</ele>
        <time>2015-02-07T21:03:20Z</time>
        <name>WPT.2542</name>
      </trkpt>
      <trkpt lat="33.916991000" lon="-106.889819000">
        <ele>1451.640</ele>
        <time>2015-02-07T21:03:21Z</time>
        <name>WPT.2543</name>
      </trkpt>
      <trkpt lat="33.916942000" lon="-106.889655000">
        <ele>1450.780</ele>
        <time>2015-02-07T21:03:22Z</time>
        <name>WPT.2544</name>
      </trkpt>
      <trkpt lat="33.916906000" lon="-106.889497000">
        <ele>1449.620</ele>
        <time>2015-02-07T21:03:23Z</time>
        <name>WPT.2545</name>
      </trkpt>
      <trkpt lat="33.916886000" lon="-106.889337000">
        <ele>1449.800</ele>
        <time>2015-02-07T21:03:24Z</time>
        <name>WPT.2546</name>
      </trkpt>
      <trkpt lat="33.916876000" lon="-106.889170000">
        <ele>1449.700</ele>
        <time>2015-02-07T21:03:25Z</time>
        <name>WPT.2547</name>
      </trkpt>
      <trkpt lat="33.916873000" lon="-106.888997000">
        <ele>1449.680</ele>
        <time>2015-02-07T21:03:26Z</time>
        <name>WPT.2548</name>
      </trkpt>
      <trkpt lat="33.916872000" lon="-106.888819000">
        <ele>1449.670</ele>
        <time>2015-02-07T21:03:27Z</time>
        <name>WPT.2549</name>
      </trkpt>
      <trkpt lat="33.916871000" lon="-106.888636000">
        <ele>1449.660</ele>
        <time>2015-02-07T21:03:28Z</time>
        <name>WPT.2550</name>
      </trkpt>
      <trkpt lat="33.916870000" lon="-106.888451000">
        <ele>1449.550</ele>
        <time>2015-02-07T21:03:29Z</time>
        <name>WPT.2551</name>
      </trkpt>
      <trkpt lat="33.916868000" lon="-106.888262000">
        <ele>1448.680</ele>
        <time>2015-02-07T21:03:30Z</time>
        <name>WPT.2552</name>
      </trkpt>
      <trkpt lat="33.916863000" lon="-106.888072000">
        <ele>1447.330</ele>
        <time>2015-02-07T21:03:31Z</time>
        <name>WPT.2553</name>
      </trkpt>
      <trkpt lat="33.916855000" lon="-106.887883000">
        <ele>1445.510</ele>
        <time>2015-02-07T21:03:32Z</time>
        <name>WPT.2554</name>
      </trkpt>
      <trkpt lat="33.916846000" lon="-106.887694000">
        <ele>1445.500</ele>
        <time>2015-02-07T21:03:33Z</time>
        <name>WPT.2555</name>
      </trkpt>
      <trkpt lat="33.916836000" lon="-106.887506000">
        <ele>1445.400</ele>
        <time>2015-02-07T21:03:34Z</time>
        <name>WPT.2556</name>
      </trkpt>
      <trkpt lat="33.916823000" lon="-106.887317000">
        <ele>1445.390</ele>
        <time>2015-02-07T21:03:35Z</time>
        <name>WPT.2557</name>
      </trkpt>
      <trkpt lat="33.916810000" lon="-106.887129000">
        <ele>1445.370</ele>
        <time>2015-02-07T21:03:36Z</time>
        <name>WPT.2558</name>
      </trkpt>
      <trkpt lat="33.916797000" lon="-106.886938000">
        <ele>1445.360</ele>
        <time>2015-02-07T21:03:37Z</time>
        <name>WPT.2559</name>
      </trkpt>
      <trkpt lat="33.916783000" lon="-106.886743000">
        <ele>1445.350</ele>
        <time>2015-02-07T21:03:38Z</time>
        <name>WPT.2560</name>
      </trkpt>
      <trkpt lat="33.916771000" lon="-106.886546000">
        <ele>1445.340</ele>
        <time>2015-02-07T21:03:39Z</time>
        <name>WPT.2561</name>
      </trkpt>
      <trkpt lat="33.916757000" lon="-106.886347000">
        <ele>1445.230</ele>
        <time>2015-02-07T21:03:40Z</time>
        <name>WPT.2562</name>
      </trkpt>
      <trkpt lat="33.916741000" lon="-106.886146000">
        <ele>1445.120</ele>
        <time>2015-02-07T21:03:41Z</time>
        <name>WPT.2563</name>
      </trkpt>
      <trkpt lat="33.916724000" lon="-106.885943000">
        <ele>1445.100</ele>
        <time>2015-02-07T21:03:42Z</time>
        <name>WPT.2564</name>
      </trkpt>
      <trkpt lat="33.916707000" lon="-106.885740000">
        <ele>1445.080</ele>
        <time>2015-02-07T21:03:43Z</time>
        <name>WPT.2565</name>
      </trkpt>
      <trkpt lat="33.916690000" lon="-106.885535000">
        <ele>1444.970</ele>
        <time>2015-02-07T21:03:44Z</time>
        <name>WPT.2566</name>
      </trkpt>
      <trkpt lat="33.916674000" lon="-106.885330000">
        <ele>1442.950</ele>
        <time>2015-02-07T21:03:45Z</time>
        <name>WPT.2567</name>
      </trkpt>
      <trkpt lat="33.916659000" lon="-106.885126000">
        <ele>1442.270</ele>
        <time>2015-02-07T21:03:46Z</time>
        <name>WPT.2568</name>
      </trkpt>
      <trkpt lat="33.916646000" lon="-106.884922000">
        <ele>1441.970</ele>
        <time>2015-02-07T21:03:47Z</time>
        <name>WPT.2569</name>
      </trkpt>
      <trkpt lat="33.916632000" lon="-106.884719000">
        <ele>1441.960</ele>
        <time>2015-02-07T21:03:48Z</time>
        <name>WPT.2570</name>
      </trkpt>
      <trkpt lat="33.916619000" lon="-106.884518000">
        <ele>1441.840</ele>
        <time>2015-02-07T21:03:49Z</time>
        <name>WPT.2571</name>
      </trkpt>
      <trkpt lat="33.916607000" lon="-106.884318000">
        <ele>1441.640</ele>
        <time>2015-02-07T21:03:50Z</time>
        <name>WPT.2572</name>
      </trkpt>
      <trkpt lat="33.916596000" lon="-106.884118000">
        <ele>1441.430</ele>
        <time>2015-02-07T21:03:51Z</time>
        <name>WPT.2573</name>
      </trkpt>
      <trkpt lat="33.916586000" lon="-106.883922000">
        <ele>1439.410</ele>
        <time>2015-02-07T21:03:52Z</time>
        <name>WPT.2574</name>
      </trkpt>
      <trkpt lat="33.916579000" lon="-106.883727000">
        <ele>1438.730</ele>
        <time>2015-02-07T21:03:53Z</time>
        <name>WPT.2575</name>
      </trkpt>
      <trkpt lat="33.916575000" lon="-106.883538000">
        <ele>1438.630</ele>
        <time>2015-02-07T21:03:54Z</time>
        <name>WPT.2576</name>
      </trkpt>
      <trkpt lat="33.916571000" lon="-106.883356000">
        <ele>1437.760</ele>
        <time>2015-02-07T21:03:55Z</time>
        <name>WPT.2577</name>
      </trkpt>
      <trkpt lat="33.916566000" lon="-106.883180000">
        <ele>1434.790</ele>
        <time>2015-02-07T21:03:56Z</time>
        <name>WPT.2578</name>
      </trkpt>
      <trkpt lat="33.916557000" lon="-106.883005000">
        <ele>1434.690</ele>
        <time>2015-02-07T21:03:57Z</time>
        <name>WPT.2579</name>
      </trkpt>
      <trkpt lat="33.916543000" lon="-106.882834000">
        <ele>1434.680</ele>
        <time>2015-02-07T21:03:58Z</time>
        <name>WPT.2580</name>
      </trkpt>
      <trkpt lat="33.916521000" lon="-106.882665000">
        <ele>1434.860</ele>
        <time>2015-02-07T21:03:59Z</time>
        <name>WPT.2581</name>
      </trkpt>
      <trkpt lat="33.916490000" lon="-106.882496000">
        <ele>1434.950</ele>
        <time>2015-02-07T21:04:00Z</time>
        <name>WPT.2582</name>
      </trkpt>
      <trkpt lat="33.916455000" lon="-106.882329000">
        <ele>1435.030</ele>
        <time>2015-02-07T21:04:01Z</time>
        <name>WPT.2583</name>
      </trkpt>
      <trkpt lat="33.916422000" lon="-106.882168000">
        <ele>1434.830</ele>
        <time>2015-02-07T21:04:02Z</time>
        <name>WPT.2584</name>
      </trkpt>
      <trkpt lat="33.916392000" lon="-106.882017000">
        <ele>1432.910</ele>
        <time>2015-02-07T21:04:03Z</time>
        <name>WPT.2585</name>
      </trkpt>
      <trkpt lat="33.916366000" lon="-106.881880000">
        <ele>1431.660</ele>
        <time>2015-02-07T21:04:04Z</time>
        <name>WPT.2586</name>
      </trkpt>
      <trkpt lat="33.916350000" lon="-106.881764000">
        <ele>1429.080</ele>
        <time>2015-02-07T21:04:05Z</time>
        <name>WPT.2587</name>
      </trkpt>
      <trkpt lat="33.916345000" lon="-106.881665000">
        <ele>1427.740</ele>
        <time>2015-02-07T21:04:06Z</time>
        <name>WPT.2588</name>
      </trkpt>
      <trkpt lat="33.916348000" lon="-106.881584000">
        <ele>1427.550</ele>
        <time>2015-02-07T21:04:07Z</time>
        <name>WPT.2589</name>
      </trkpt>
      <trkpt lat="33.916365000" lon="-106.881514000">
        <ele>1427.550</ele>
        <time>2015-02-07T21:04:08Z</time>
        <name>WPT.2590</name>
      </trkpt>
      <trkpt lat="33.916401000" lon="-106.881445000">
        <ele>1427.450</ele>
        <time>2015-02-07T21:04:09Z</time>
        <name>WPT.2591</name>
      </trkpt>
      <trkpt lat="33.916462000" lon="-106.881387000">
        <ele>1427.450</ele>
        <time>2015-02-07T21:04:10Z</time>
        <name>WPT.2592</name>
      </trkpt>
      <trkpt lat="33.916547000" lon="-106.881346000">
        <ele>1427.350</ele>
        <time>2015-02-07T21:04:11Z</time>
        <name>WPT.2593</name>
      </trkpt>
      <trkpt lat="33.916651000" lon="-106.881317000">
        <ele>1427.530</ele>
        <time>2015-02-07T21:04:12Z</time>
        <name>WPT.2594</name>
      </trkpt>
      <trkpt lat="33.916770000" lon="-106.881292000">
        <ele>1427.620</ele>
        <time>2015-02-07T21:04:13Z</time>
        <name>WPT.2595</name>
      </trkpt>
      <trkpt lat="33.916896000" lon="-106.881267000">
        <ele>1427.620</ele>
        <time>2015-02-07T21:04:14Z</time>
        <name>WPT.2596</name>
      </trkpt>
      <trkpt lat="33.917027000" lon="-106.881242000">
        <ele>1427.610</ele>
        <time>2015-02-07T21:04:15Z</time>
        <name>WPT.2597</name>
      </trkpt>
      <trkpt lat="33.917162000" lon="-106.881221000">
        <ele>1427.610</ele>
        <time>2015-02-07T21:04:16Z</time>
        <name>WPT.2598</name>
      </trkpt>
      <trkpt lat="33.917298000" lon="-106.881200000">
        <ele>1427.500</ele>
        <time>2015-02-07T21:04:17Z</time>
        <name>WPT.2599</name>
      </trkpt>
      <trkpt lat="33.917438000" lon="-106.881177000">
        <ele>1427.210</ele>
        <time>2015-02-07T21:04:18Z</time>
        <name>WPT.2600</name>
      </trkpt>
      <trkpt lat="33.917573000" lon="-106.881154000">
        <ele>1426.530</ele>
        <time>2015-02-07T21:04:19Z</time>
        <name>WPT.2601</name>
      </trkpt>
      <trkpt lat="33.917694000" lon="-106.881131000">
        <ele>1426.530</ele>
        <time>2015-02-07T21:04:20Z</time>
        <name>WPT.2602</name>
      </trkpt>
      <trkpt lat="33.917815000" lon="-106.881105000">
        <ele>1426.420</ele>
        <time>2015-02-07T21:04:21Z</time>
        <name>WPT.2603</name>
      </trkpt>
      <trkpt lat="33.917939000" lon="-106.881079000">
        <ele>1426.320</ele>
        <time>2015-02-07T21:04:22Z</time>
        <name>WPT.2604</name>
      </trkpt>
      <trkpt lat="33.918067000" lon="-106.881053000">
        <ele>1426.410</ele>
        <time>2015-02-07T21:04:23Z</time>
        <name>WPT.2605</name>
      </trkpt>
      <trkpt lat="33.918194000" lon="-106.881026000">
        <ele>1425.730</ele>
        <time>2015-02-07T21:04:24Z</time>
        <name>WPT.2606</name>
      </trkpt>
      <trkpt lat="33.918319000" lon="-106.880994000">
        <ele>1424.010</ele>
        <time>2015-02-07T21:04:25Z</time>
        <name>WPT.2607</name>
      </trkpt>
      <trkpt lat="33.918443000" lon="-106.880960000">
        <ele>1424.000</ele>
        <time>2015-02-07T21:04:26Z</time>
        <name>WPT.2608</name>
      </trkpt>
      <trkpt lat="33.918560000" lon="-106.880927000">
        <ele>1423.900</ele>
        <time>2015-02-07T21:04:27Z</time>
        <name>WPT.2609</name>
      </trkpt>
      <trkpt lat="33.918668000" lon="-106.880894000">
        <ele>1423.230</ele>
        <time>2015-02-07T21:04:28Z</time>
        <name>WPT.2610</name>
      </trkpt>
      <trkpt lat="33.918766000" lon="-106.880861000">
        <ele>1420.460</ele>
        <time>2015-02-07T21:04:29Z</time>
        <name>WPT.2611</name>
      </trkpt>
      <trkpt lat="33.918853000" lon="-106.880824000">
        <ele>1420.360</ele>
        <time>2015-02-07T21:04:30Z</time>
        <name>WPT.2612</name>
      </trkpt>
      <trkpt lat="33.918926000" lon="-106.880774000">
        <ele>1420.360</ele>
        <time>2015-02-07T21:04:31Z</time>
        <name>WPT.2613</name>
      </trkpt>
      <trkpt lat="33.918976000" lon="-106.880718000">
        <ele>1420.170</ele>
        <time>2015-02-07T21:04:32Z</time>
        <name>WPT.2614</name>
      </trkpt>
      <trkpt lat="33.919004000" lon="-106.880672000">
        <ele>1420.170</ele>
        <time>2015-02-07T21:04:33Z</time>
        <name>WPT.2615</name>
      </trkpt>
      <trkpt lat="33.919020000" lon="-106.880636000">
        <ele>1420.070</ele>
        <time>2015-02-07T21:04:34Z</time>
        <name>WPT.2616</name>
      </trkpt>
      <trkpt lat="33.919029000" lon="-106.880604000">
        <ele>1420.070</ele>
        <time>2015-02-07T21:04:35Z</time>
        <name>WPT.2617</name>
      </trkpt>
      <trkpt lat="33.919035000" lon="-106.880578000">
        <ele>1420.070</ele>
        <time>2015-02-07T21:04:36Z</time>
        <name>WPT.2618</name>
      </trkpt>
      <trkpt lat="33.919038000" lon="-106.880553000">
        <ele>1420.060</ele>
        <time>2015-02-07T21:04:37Z</time>
        <name>WPT.2619</name>
      </trkpt>
      <trkpt lat="33.919039000" lon="-106.880531000">
        <ele>1420.060</ele>
        <time>2015-02-07T21:04:38Z</time>
        <name>WPT.2620</name>
      </trkpt>
      <trkpt lat="33.919039000" lon="-106.880507000">
        <ele>1420.050</ele>
        <time>2015-02-07T21:04:39Z</time>
        <name>WPT.2621</name>
      </trkpt>
      <trkpt lat="33.919034000" lon="-106.880479000">
        <ele>1420.150</ele>
        <time>2015-02-07T21:04:40Z</time>
        <name>WPT.2622</name>
      </trkpt>
      <trkpt lat="33.919025000" lon="-106.880447000">
        <ele>1420.330</ele>
        <time>2015-02-07T21:04:41Z</time>
        <name>WPT.2623</name>
      </trkpt>
      <trkpt lat="33.919008000" lon="-106.880411000">
        <ele>1420.520</ele>
        <time>2015-02-07T21:04:42Z</time>
        <name>WPT.2624</name>
      </trkpt>
      <trkpt lat="33.918979000" lon="-106.880374000">
        <ele>1420.510</ele>
        <time>2015-02-07T21:04:43Z</time>
        <name>WPT.2625</name>
      </trkpt>
      <trkpt lat="33.918933000" lon="-106.880336000">
        <ele>1420.690</ele>
        <time>2015-02-07T21:04:44Z</time>
        <name>WPT.2626</name>
      </trkpt>
      <trkpt lat="33.918865000" lon="-106.880296000">
        <ele>1420.780</ele>
        <time>2015-02-07T21:04:45Z</time>
        <name>WPT.2627</name>
      </trkpt>
      <trkpt lat="33.918780000" lon="-106.880251000">
        <ele>1423.920</ele>
        <time>2015-02-07T21:04:46Z</time>
        <name>WPT.2628</name>
      </trkpt>
      <trkpt lat="33.918680000" lon="-106.880195000">
        <ele>1426.000</ele>
        <time>2015-02-07T21:04:47Z</time>
        <name>WPT.2629</name>
      </trkpt>
      <trkpt lat="33.918570000" lon="-106.880130000">
        <ele>1426.460</ele>
        <time>2015-02-07T21:04:48Z</time>
        <name>WPT.2630</name>
      </trkpt>
      <trkpt lat="33.918454000" lon="-106.880054000">
        <ele>1426.450</ele>
        <time>2015-02-07T21:04:49Z</time>
        <name>WPT.2631</name>
      </trkpt>
      <trkpt lat="33.918337000" lon="-106.879966000">
        <ele>1426.520</ele>
        <time>2015-02-07T21:04:50Z</time>
        <name>WPT.2632</name>
      </trkpt>
      <trkpt lat="33.918220000" lon="-106.879869000">
        <ele>1426.510</ele>
        <time>2015-02-07T21:04:51Z</time>
        <name>WPT.2633</name>
      </trkpt>
      <trkpt lat="33.918105000" lon="-106.879761000">
        <ele>1426.390</ele>
        <time>2015-02-07T21:04:52Z</time>
        <name>WPT.2634</name>
      </trkpt>
      <trkpt lat="33.917995000" lon="-106.879646000">
        <ele>1425.230</ele>
        <time>2015-02-07T21:04:53Z</time>
        <name>WPT.2635</name>
      </trkpt>
      <trkpt lat="33.917889000" lon="-106.879522000">
        <ele>1425.400</ele>
        <time>2015-02-07T21:04:54Z</time>
        <name>WPT.2636</name>
      </trkpt>
      <trkpt lat="33.917786000" lon="-106.879392000">
        <ele>1425.390</ele>
        <time>2015-02-07T21:04:55Z</time>
        <name>WPT.2637</name>
      </trkpt>
      <trkpt lat="33.917691000" lon="-106.879257000">
        <ele>1424.320</ele>
        <time>2015-02-07T21:04:56Z</time>
        <name>WPT.2638</name>
      </trkpt>
      <trkpt lat="33.917605000" lon="-106.879118000">
        <ele>1423.830</ele>
        <time>2015-02-07T21:04:57Z</time>
        <name>WPT.2639</name>
      </trkpt>
      <trkpt lat="33.917527000" lon="-106.878972000">
        <ele>1423.720</ele>
        <time>2015-02-07T21:04:58Z</time>
        <name>WPT.2640</name>
      </trkpt>
      <trkpt lat="33.917454000" lon="-106.878821000">
        <ele>1423.700</ele>
        <time>2015-02-07T21:04:59Z</time>
        <name>WPT.2641</name>
      </trkpt>
      <trkpt lat="33.917387000" lon="-106.878663000">
        <ele>1423.690</ele>
        <time>2015-02-07T21:05:00Z</time>
        <name>WPT.2642</name>
      </trkpt>
      <trkpt lat="33.917327000" lon="-106.878495000">
        <ele>1423.670</ele>
        <time>2015-02-07T21:05:01Z</time>
        <name>WPT.2643</name>
      </trkpt>
      <trkpt lat="33.917275000" lon="-106.878320000">
        <ele>1423.750</ele>
        <time>2015-02-07T21:05:02Z</time>
        <name>WPT.2644</name>
      </trkpt>
      <trkpt lat="33.917231000" lon="-106.878138000">
        <ele>1423.730</ele>
        <time>2015-02-07T21:05:03Z</time>
        <name>WPT.2645</name>
      </trkpt>
      <trkpt lat="33.917196000" lon="-106.877949000">
        <ele>1424.100</ele>
        <time>2015-02-07T21:05:04Z</time>
        <name>WPT.2646</name>
      </trkpt>
      <trkpt lat="33.917171000" lon="-106.877753000">
        <ele>1424.650</ele>
        <time>2015-02-07T21:05:05Z</time>
        <name>WPT.2647</name>
      </trkpt>
      <trkpt lat="33.917154000" lon="-106.877553000">
        <ele>1424.730</ele>
        <time>2015-02-07T21:05:06Z</time>
        <name>WPT.2648</name>
      </trkpt>
      <trkpt lat="33.917150000" lon="-106.877351000">
        <ele>1423.950</ele>
        <time>2015-02-07T21:05:07Z</time>
        <name>WPT.2649</name>
      </trkpt>
      <trkpt lat="33.917153000" lon="-106.877149000">
        <ele>1423.350</ele>
        <time>2015-02-07T21:05:08Z</time>
        <name>WPT.2650</name>
      </trkpt>
      <trkpt lat="33.917160000" lon="-106.876946000">
        <ele>1421.140</ele>
        <time>2015-02-07T21:05:09Z</time>
        <name>WPT.2651</name>
      </trkpt>
      <trkpt lat="33.917170000" lon="-106.876743000">
        <ele>1420.270</ele>
        <time>2015-02-07T21:05:10Z</time>
        <name>WPT.2652</name>
      </trkpt>
      <trkpt lat="33.917182000" lon="-106.876539000">
        <ele>1420.070</ele>
        <time>2015-02-07T21:05:11Z</time>
        <name>WPT.2653</name>
      </trkpt>
      <trkpt lat="33.917194000" lon="-106.876333000">
        <ele>1419.960</ele>
        <time>2015-02-07T21:05:12Z</time>
        <name>WPT.2654</name>
      </trkpt>
      <trkpt lat="33.917207000" lon="-106.876127000">
        <ele>1419.940</ele>
        <time>2015-02-07T21:05:13Z</time>
        <name>WPT.2655</name>
      </trkpt>
      <trkpt lat="33.917221000" lon="-106.875919000">
        <ele>1419.930</ele>
        <time>2015-02-07T21:05:14Z</time>
        <name>WPT.2656</name>
      </trkpt>
      <trkpt lat="33.917235000" lon="-106.875710000">
        <ele>1419.820</ele>
        <time>2015-02-07T21:05:15Z</time>
        <name>WPT.2657</name>
      </trkpt>
      <trkpt lat="33.917251000" lon="-106.875496000">
        <ele>1419.040</ele>
        <time>2015-02-07T21:05:16Z</time>
        <name>WPT.2658</name>
      </trkpt>
      <trkpt lat="33.917267000" lon="-106.875280000">
        <ele>1419.410</ele>
        <time>2015-02-07T21:05:17Z</time>
        <name>WPT.2659</name>
      </trkpt>
      <trkpt lat="33.917282000" lon="-106.875063000">
        <ele>1419.300</ele>
        <time>2015-02-07T21:05:18Z</time>
        <name>WPT.2660</name>
      </trkpt>
      <trkpt lat="33.917298000" lon="-106.874843000">
        <ele>1419.190</ele>
        <time>2015-02-07T21:05:19Z</time>
        <name>WPT.2661</name>
      </trkpt>
      <trkpt lat="33.917315000" lon="-106.874624000">
        <ele>1419.170</ele>
        <time>2015-02-07T21:05:20Z</time>
        <name>WPT.2662</name>
      </trkpt>
      <trkpt lat="33.917333000" lon="-106.874404000">
        <ele>1419.060</ele>
        <time>2015-02-07T21:05:21Z</time>
        <name>WPT.2663</name>
      </trkpt>
      <trkpt lat="33.917352000" lon="-106.874183000">
        <ele>1418.950</ele>
        <time>2015-02-07T21:05:22Z</time>
        <name>WPT.2664</name>
      </trkpt>
      <trkpt lat="33.917372000" lon="-106.873958000">
        <ele>1419.030</ele>
        <time>2015-02-07T21:05:23Z</time>
        <name>WPT.2665</name>
      </trkpt>
      <trkpt lat="33.917393000" lon="-106.873729000">
        <ele>1418.150</ele>
        <time>2015-02-07T21:05:24Z</time>
        <name>WPT.2666</name>
      </trkpt>
      <trkpt lat="33.917409000" lon="-106.873495000">
        <ele>1417.940</ele>
        <time>2015-02-07T21:05:25Z</time>
        <name>WPT.2667</name>
      </trkpt>
      <trkpt lat="33.917424000" lon="-106.873259000">
        <ele>1418.020</ele>
        <time>2015-02-07T21:05:26Z</time>
        <name>WPT.2668</name>
      </trkpt>
      <trkpt lat="33.917439000" lon="-106.873024000">
        <ele>1416.860</ele>
        <time>2015-02-07T21:05:27Z</time>
        <name>WPT.2669</name>
      </trkpt>
      <trkpt lat="33.917453000" lon="-106.872793000">
        <ele>1416.650</ele>
        <time>2015-02-07T21:05:28Z</time>
        <name>WPT.2670</name>
      </trkpt>
      <trkpt lat="33.917466000" lon="-106.872564000">
        <ele>1414.830</ele>
        <time>2015-02-07T21:05:29Z</time>
        <name>WPT.2671</name>
      </trkpt>
      <trkpt lat="33.917478000" lon="-106.872341000">
        <ele>1414.050</ele>
        <time>2015-02-07T21:05:30Z</time>
        <name>WPT.2672</name>
      </trkpt>
      <trkpt lat="33.917489000" lon="-106.872135000">
        <ele>1410.700</ele>
        <time>2015-02-07T21:05:31Z</time>
        <name>WPT.2673</name>
      </trkpt>
      <trkpt lat="33.917499000" lon="-106.871954000">
        <ele>1408.020</ele>
        <time>2015-02-07T21:05:32Z</time>
        <name>WPT.2674</name>
      </trkpt>
      <trkpt lat="33.917509000" lon="-106.871802000">
        <ele>1407.920</ele>
        <time>2015-02-07T21:05:33Z</time>
        <name>WPT.2675</name>
      </trkpt>
      <trkpt lat="33.917519000" lon="-106.871675000">
        <ele>1406.110</ele>
        <time>2015-02-07T21:05:34Z</time>
        <name>WPT.2676</name>
      </trkpt>
      <trkpt lat="33.917529000" lon="-106.871561000">
        <ele>1404.960</ele>
        <time>2015-02-07T21:05:35Z</time>
        <name>WPT.2677</name>
      </trkpt>
      <trkpt lat="33.917539000" lon="-106.871450000">
        <ele>1404.960</ele>
        <time>2015-02-07T21:05:36Z</time>
        <name>WPT.2678</name>
      </trkpt>
      <trkpt lat="33.917548000" lon="-106.871336000">
        <ele>1404.960</ele>
        <time>2015-02-07T21:05:37Z</time>
        <name>WPT.2679</name>
      </trkpt>
      <trkpt lat="33.917557000" lon="-106.871214000">
        <ele>1404.870</ele>
        <time>2015-02-07T21:05:38Z</time>
        <name>WPT.2680</name>
      </trkpt>
      <trkpt lat="33.917567000" lon="-106.871084000">
        <ele>1404.860</ele>
        <time>2015-02-07T21:05:39Z</time>
        <name>WPT.2681</name>
      </trkpt>
      <trkpt lat="33.917576000" lon="-106.870949000">
        <ele>1404.860</ele>
        <time>2015-02-07T21:05:40Z</time>
        <name>WPT.2682</name>
      </trkpt>
      <trkpt lat="33.917586000" lon="-106.870810000">
        <ele>1404.860</ele>
        <time>2015-02-07T21:05:41Z</time>
        <name>WPT.2683</name>
      </trkpt>
      <trkpt lat="33.917596000" lon="-106.870669000">
        <ele>1404.760</ele>
        <time>2015-02-07T21:05:42Z</time>
        <name>WPT.2684</name>
      </trkpt>
      <trkpt lat="33.917606000" lon="-106.870528000">
        <ele>1404.760</ele>
        <time>2015-02-07T21:05:43Z</time>
        <name>WPT.2685</name>
      </trkpt>
      <trkpt lat="33.917618000" lon="-106.870387000">
        <ele>1404.190</ele>
        <time>2015-02-07T21:05:44Z</time>
        <name>WPT.2686</name>
      </trkpt>
      <trkpt lat="33.917629000" lon="-106.870245000">
        <ele>1403.330</ele>
        <time>2015-02-07T21:05:45Z</time>
        <name>WPT.2687</name>
      </trkpt>
      <trkpt lat="33.917640000" lon="-106.870105000">
        <ele>1403.520</ele>
        <time>2015-02-07T21:05:46Z</time>
        <name>WPT.2688</name>
      </trkpt>
      <trkpt lat="33.917650000" lon="-106.869968000">
        <ele>1403.520</ele>
        <time>2015-02-07T21:05:47Z</time>
        <name>WPT.2689</name>
      </trkpt>
      <trkpt lat="33.917658000" lon="-106.869830000">
        <ele>1403.610</ele>
        <time>2015-02-07T21:05:48Z</time>
        <name>WPT.2690</name>
      </trkpt>
      <trkpt lat="33.917664000" lon="-106.869694000">
        <ele>1403.610</ele>
        <time>2015-02-07T21:05:49Z</time>
        <name>WPT.2691</name>
      </trkpt>
      <trkpt lat="33.917673000" lon="-106.869559000">
        <ele>1403.610</ele>
        <time>2015-02-07T21:05:50Z</time>
        <name>WPT.2692</name>
      </trkpt>
      <trkpt lat="33.917682000" lon="-106.869430000">
        <ele>1403.420</ele>
        <time>2015-02-07T21:05:51Z</time>
        <name>WPT.2693</name>
      </trkpt>
      <trkpt lat="33.917688000" lon="-106.869307000">
        <ele>1403.320</ele>
        <time>2015-02-07T21:05:52Z</time>
        <name>WPT.2694</name>
      </trkpt>
      <trkpt lat="33.917694000" lon="-106.869197000">
        <ele>1401.600</ele>
        <time>2015-02-07T21:05:53Z</time>
        <name>WPT.2695</name>
      </trkpt>
      <trkpt lat="33.917700000" lon="-106.869101000">
        <ele>1401.030</ele>
        <time>2015-02-07T21:05:54Z</time>
        <name>WPT.2696</name>
      </trkpt>
      <trkpt lat="33.917708000" lon="-106.869018000">
        <ele>1400.840</ele>
        <time>2015-02-07T21:05:55Z</time>
        <name>WPT.2697</name>
      </trkpt>
      <trkpt lat="33.917714000" lon="-106.868944000">
        <ele>1400.560</ele>
        <time>2015-02-07T21:05:56Z</time>
        <name>WPT.2698</name>
      </trkpt>
      <trkpt lat="33.917720000" lon="-106.868874000">
        <ele>1400.460</ele>
        <time>2015-02-07T21:05:57Z</time>
        <name>WPT.2699</name>
      </trkpt>
      <trkpt lat="33.917726000" lon="-106.868814000">
        <ele>1400.460</ele>
        <time>2015-02-07T21:05:58Z</time>
        <name>WPT.2700</name>
      </trkpt>
      <trkpt lat="33.917729000" lon="-106.868761000">
        <ele>1400.470</ele>
        <time>2015-02-07T21:05:59Z</time>
        <name>WPT.2701</name>
      </trkpt>
      <trkpt lat="33.917732000" lon="-106.868713000">
        <ele>1400.280</ele>
        <time>2015-02-07T21:06:00Z</time>
        <name>WPT.2702</name>
      </trkpt>
      <trkpt lat="33.917736000" lon="-106.868665000">
        <ele>1399.990</ele>
        <time>2015-02-07T21:06:01Z</time>
        <name>WPT.2703</name>
      </trkpt>
      <trkpt lat="33.917743000" lon="-106.868610000">
        <ele>1399.990</ele>
        <time>2015-02-07T21:06:02Z</time>
        <name>WPT.2704</name>
      </trkpt>
      <trkpt lat="33.917753000" lon="-106.868543000">
        <ele>1400.090</ele>
        <time>2015-02-07T21:06:03Z</time>
        <name>WPT.2705</name>
      </trkpt>
      <trkpt lat="33.917761000" lon="-106.868462000">
        <ele>1400.090</ele>
        <time>2015-02-07T21:06:04Z</time>
        <name>WPT.2706</name>
      </trkpt>
      <trkpt lat="33.917767000" lon="-106.868373000">
        <ele>1400.090</ele>
        <time>2015-02-07T21:06:05Z</time>
        <name>WPT.2707</name>
      </trkpt>
      <trkpt lat="33.917773000" lon="-106.868287000">
        <ele>1400.090</ele>
        <time>2015-02-07T21:06:06Z</time>
        <name>WPT.2708</name>
      </trkpt>
      <trkpt lat="33.917778000" lon="-106.868214000">
        <ele>1400.090</ele>
        <time>2015-02-07T21:06:07Z</time>
        <name>WPT.2709</name>
      </trkpt>
      <trkpt lat="33.917782000" lon="-106.868160000">
        <ele>1399.420</ele>
        <time>2015-02-07T21:06:08Z</time>
        <name>WPT.2710</name>
      </trkpt>
      <trkpt lat="33.917786000" lon="-106.868125000">
        <ele>1398.280</ele>
        <time>2015-02-07T21:06:09Z</time>
        <name>WPT.2711</name>
      </trkpt>
      <trkpt lat="33.917791000" lon="-106.868105000">
        <ele>1398.280</ele>
        <time>2015-02-07T21:06:10Z</time>
        <name>WPT.2712</name>
      </trkpt>
      <trkpt lat="33.917793000" lon="-106.868092000">
        <ele>1398.280</ele>
        <time>2015-02-07T21:06:11Z</time>
        <name>WPT.2713</name>
      </trkpt>
      <trkpt lat="33.917800000" lon="-106.868072000">
        <ele>1398.280</ele>
        <time>2015-02-07T21:06:12Z</time>
        <name>WPT.2714</name>
      </trkpt>
      <trkpt lat="33.917812000" lon="-106.868053000">
        <ele>1398.290</ele>
        <time>2015-02-07T21:06:13Z</time>
        <name>WPT.2715</name>
      </trkpt>
      <trkpt lat="33.917831000" lon="-106.868036000">
        <ele>1398.190</ele>
        <time>2015-02-07T21:06:14Z</time>
        <name>WPT.2716</name>
      </trkpt>
      <trkpt lat="33.917859000" lon="-106.868031000">
        <ele>1398.190</ele>
        <time>2015-02-07T21:06:15Z</time>
        <name>WPT.2717</name>
      </trkpt>
      <trkpt lat="33.917880000" lon="-106.868032000">
        <ele>1398.190</ele>
        <time>2015-02-07T21:06:16Z</time>
        <name>WPT.2718</name>
      </trkpt>
      <trkpt lat="33.917884000" lon="-106.868032000">
        <ele>1398.200</ele>
        <time>2015-02-07T21:06:18Z</time>
        <name>WPT.2719</name>
      </trkpt>
      <trkpt lat="33.917902000" lon="-106.868040000">
        <ele>1398.480</ele>
        <time>2015-02-07T21:06:19Z</time>
        <name>WPT.2720</name>
      </trkpt>
      <trkpt lat="33.917903000" lon="-106.868040000">
        <ele>1397.060</ele>
        <time>2015-02-07T21:06:22Z</time>
        <name>WPT.2721</name>
      </trkpt>
    </trkseg>
  </trk>
</gpx>
